<?xml version="1.0" encoding="UTF-8" standalone="no" ?>
<gpx xmlns="http://www.topografix.com/GPX/1/1" xmlns:xsi="http://www.w3.org/2001/XMLSchema-instance" xsi:schemaLocation="http://www.topografix.com/GPX/1/1 http://www.topografix.com/GPX/1/1/gpx.xsd" version="1.1" creator="VisuGPX - https://www.visugpx.com">
  <metadata>
    <name>VTT JUIN Etape 2  </name>
    <desc><![CDATA[Castellane à St Auban]]></desc>
  </metadata>
  <trk>
    <name><![CDATA[Etape 2 Castellane à Saint Auban]]></name>
    <trkseg>
      <trkpt lat="43.84579" lon="6.51405">
        <ele>728</ele>
        <time>2009-07-22T12:57:15Z</time>
      </trkpt>
      <trkpt lat="43.84581" lon="6.51408">
        <ele>727</ele>
        <time>2009-07-22T12:57:21Z</time>
      </trkpt>
      <trkpt lat="43.84585" lon="6.51408">
        <ele>728</ele>
        <time>2009-07-22T12:57:24Z</time>
      </trkpt>
      <trkpt lat="43.8458" lon="6.51406">
        <ele>728</ele>
        <time>2009-07-22T12:57:33Z</time>
      </trkpt>
      <trkpt lat="43.84573" lon="6.51405">
        <ele>720</ele>
        <time>2009-07-22T13:13:05Z</time>
      </trkpt>
      <trkpt lat="43.8457" lon="6.51417">
        <ele>724</ele>
        <time>2009-07-22T13:13:11Z</time>
      </trkpt>
      <trkpt lat="43.84559" lon="6.51428">
        <ele>724</ele>
        <time>2009-07-22T13:13:14Z</time>
      </trkpt>
      <trkpt lat="43.84546" lon="6.51443">
        <ele>724</ele>
        <time>2009-07-22T13:13:17Z</time>
      </trkpt>
      <trkpt lat="43.84534" lon="6.51458">
        <ele>724</ele>
        <time>2009-07-22T13:13:20Z</time>
      </trkpt>
      <trkpt lat="43.84524" lon="6.51473">
        <ele>725</ele>
        <time>2009-07-22T13:13:23Z</time>
      </trkpt>
      <trkpt lat="43.84516" lon="6.51487">
        <ele>726</ele>
        <time>2009-07-22T13:13:26Z</time>
      </trkpt>
      <trkpt lat="43.84509" lon="6.51496">
        <ele>726</ele>
        <time>2009-07-22T13:13:29Z</time>
      </trkpt>
      <trkpt lat="43.84507" lon="6.51493">
        <ele>730</ele>
        <time>2009-07-22T13:15:02Z</time>
      </trkpt>
      <trkpt lat="43.84508" lon="6.51487">
        <ele>735</ele>
        <time>2009-07-22T13:17:13Z</time>
      </trkpt>
      <trkpt lat="43.84509" lon="6.51497">
        <ele>734</ele>
        <time>2009-07-22T13:17:19Z</time>
      </trkpt>
      <trkpt lat="43.84509" lon="6.51518">
        <ele>734</ele>
        <time>2009-07-22T13:17:22Z</time>
      </trkpt>
      <trkpt lat="43.8451" lon="6.51541">
        <ele>733</ele>
        <time>2009-07-22T13:17:25Z</time>
      </trkpt>
      <trkpt lat="43.84511" lon="6.51572">
        <ele>731</ele>
        <time>2009-07-22T13:17:28Z</time>
      </trkpt>
      <trkpt lat="43.84512" lon="6.51607">
        <ele>731</ele>
        <time>2009-07-22T13:17:31Z</time>
      </trkpt>
      <trkpt lat="43.84511" lon="6.51641">
        <ele>731</ele>
        <time>2009-07-22T13:17:34Z</time>
      </trkpt>
      <trkpt lat="43.8451" lon="6.51678">
        <ele>730</ele>
        <time>2009-07-22T13:17:37Z</time>
      </trkpt>
      <trkpt lat="43.84506" lon="6.51717">
        <ele>730</ele>
        <time>2009-07-22T13:17:40Z</time>
      </trkpt>
      <trkpt lat="43.84497" lon="6.51756">
        <ele>728</ele>
        <time>2009-07-22T13:17:43Z</time>
      </trkpt>
      <trkpt lat="43.84485" lon="6.51794">
        <ele>727</ele>
        <time>2009-07-22T13:17:46Z</time>
      </trkpt>
      <trkpt lat="43.84473" lon="6.51834">
        <ele>727</ele>
        <time>2009-07-22T13:17:49Z</time>
      </trkpt>
      <trkpt lat="43.84461" lon="6.51874">
        <ele>726</ele>
        <time>2009-07-22T13:17:52Z</time>
      </trkpt>
      <trkpt lat="43.84451" lon="6.5191">
        <ele>726</ele>
        <time>2009-07-22T13:17:55Z</time>
      </trkpt>
      <trkpt lat="43.84442" lon="6.51945">
        <ele>726</ele>
        <time>2009-07-22T13:17:58Z</time>
      </trkpt>
      <trkpt lat="43.84433" lon="6.51981">
        <ele>725</ele>
        <time>2009-07-22T13:18:01Z</time>
      </trkpt>
      <trkpt lat="43.84424" lon="6.52019">
        <ele>726</ele>
        <time>2009-07-22T13:18:04Z</time>
      </trkpt>
      <trkpt lat="43.84413" lon="6.52057">
        <ele>726</ele>
        <time>2009-07-22T13:18:07Z</time>
      </trkpt>
      <trkpt lat="43.84397" lon="6.52092">
        <ele>727</ele>
        <time>2009-07-22T13:18:10Z</time>
      </trkpt>
      <trkpt lat="43.84381" lon="6.52124">
        <ele>729</ele>
        <time>2009-07-22T13:18:13Z</time>
      </trkpt>
      <trkpt lat="43.84365" lon="6.52155">
        <ele>730</ele>
        <time>2009-07-22T13:18:16Z</time>
      </trkpt>
      <trkpt lat="43.84346" lon="6.52188">
        <ele>730</ele>
        <time>2009-07-22T13:18:19Z</time>
      </trkpt>
      <trkpt lat="43.84329" lon="6.52221">
        <ele>731</ele>
        <time>2009-07-22T13:18:22Z</time>
      </trkpt>
      <trkpt lat="43.84316" lon="6.52252">
        <ele>727</ele>
        <time>2009-07-22T13:18:25Z</time>
      </trkpt>
      <trkpt lat="43.84308" lon="6.52284">
        <ele>729</ele>
        <time>2009-07-22T13:18:28Z</time>
      </trkpt>
      <trkpt lat="43.84299" lon="6.52319">
        <ele>729</ele>
        <time>2009-07-22T13:18:31Z</time>
      </trkpt>
      <trkpt lat="43.8429" lon="6.52355">
        <ele>730</ele>
        <time>2009-07-22T13:18:34Z</time>
      </trkpt>
      <trkpt lat="43.84281" lon="6.52391">
        <ele>729</ele>
        <time>2009-07-22T13:18:37Z</time>
      </trkpt>
      <trkpt lat="43.84273" lon="6.52427">
        <ele>730</ele>
        <time>2009-07-22T13:18:40Z</time>
      </trkpt>
      <trkpt lat="43.84263" lon="6.52463">
        <ele>728</ele>
        <time>2009-07-22T13:18:43Z</time>
      </trkpt>
      <trkpt lat="43.84252" lon="6.52498">
        <ele>727</ele>
        <time>2009-07-22T13:18:46Z</time>
      </trkpt>
      <trkpt lat="43.84237" lon="6.52533">
        <ele>726</ele>
        <time>2009-07-22T13:18:49Z</time>
      </trkpt>
      <trkpt lat="43.84223" lon="6.52568">
        <ele>725</ele>
        <time>2009-07-22T13:18:52Z</time>
      </trkpt>
      <trkpt lat="43.84213" lon="6.52599">
        <ele>726</ele>
        <time>2009-07-22T13:18:55Z</time>
      </trkpt>
      <trkpt lat="43.84204" lon="6.52637">
        <ele>726</ele>
        <time>2009-07-22T13:18:58Z</time>
      </trkpt>
      <trkpt lat="43.84203" lon="6.52681">
        <ele>728</ele>
        <time>2009-07-22T13:19:01Z</time>
      </trkpt>
      <trkpt lat="43.84209" lon="6.52726">
        <ele>727</ele>
        <time>2009-07-22T13:19:04Z</time>
      </trkpt>
      <trkpt lat="43.84219" lon="6.5277">
        <ele>728</ele>
        <time>2009-07-22T13:19:07Z</time>
      </trkpt>
      <trkpt lat="43.84231" lon="6.52814">
        <ele>728</ele>
        <time>2009-07-22T13:19:10Z</time>
      </trkpt>
      <trkpt lat="43.84243" lon="6.52862">
        <ele>728</ele>
        <time>2009-07-22T13:19:13Z</time>
      </trkpt>
      <trkpt lat="43.84255" lon="6.52913">
        <ele>728</ele>
        <time>2009-07-22T13:19:16Z</time>
      </trkpt>
      <trkpt lat="43.84268" lon="6.52967">
        <ele>728</ele>
        <time>2009-07-22T13:19:19Z</time>
      </trkpt>
      <trkpt lat="43.84282" lon="6.53022">
        <ele>729</ele>
        <time>2009-07-22T13:19:22Z</time>
      </trkpt>
      <trkpt lat="43.84295" lon="6.53076">
        <ele>729</ele>
        <time>2009-07-22T13:19:25Z</time>
      </trkpt>
      <trkpt lat="43.84308" lon="6.53129">
        <ele>731</ele>
        <time>2009-07-22T13:19:28Z</time>
      </trkpt>
      <trkpt lat="43.8432" lon="6.53179">
        <ele>731</ele>
        <time>2009-07-22T13:19:31Z</time>
      </trkpt>
      <trkpt lat="43.84331" lon="6.53225">
        <ele>733</ele>
        <time>2009-07-22T13:19:34Z</time>
      </trkpt>
      <trkpt lat="43.84341" lon="6.53266">
        <ele>734</ele>
        <time>2009-07-22T13:19:37Z</time>
      </trkpt>
      <trkpt lat="43.84352" lon="6.53309">
        <ele>734</ele>
        <time>2009-07-22T13:19:40Z</time>
      </trkpt>
      <trkpt lat="43.84364" lon="6.53353">
        <ele>734</ele>
        <time>2009-07-22T13:19:43Z</time>
      </trkpt>
      <trkpt lat="43.84373" lon="6.53397">
        <ele>734</ele>
        <time>2009-07-22T13:19:46Z</time>
      </trkpt>
      <trkpt lat="43.84372" lon="6.53431">
        <ele>734</ele>
        <time>2009-07-22T13:19:49Z</time>
      </trkpt>
      <trkpt lat="43.84371" lon="6.53426">
        <ele>740</ele>
      </trkpt>
      <trkpt lat="43.84364" lon="6.5349">
        <ele>743</ele>
      </trkpt>
      <trkpt lat="43.84363" lon="6.53485">
        <ele>747</ele>
        <time>2009-07-22T13:24:35Z</time>
      </trkpt>
      <trkpt lat="43.84359" lon="6.53492">
        <ele>748</ele>
        <time>2009-07-22T13:24:38Z</time>
      </trkpt>
      <trkpt lat="43.84354" lon="6.53501">
        <ele>749</ele>
        <time>2009-07-22T13:24:41Z</time>
      </trkpt>
      <trkpt lat="43.84351" lon="6.53508">
        <ele>749</ele>
        <time>2009-07-22T13:24:44Z</time>
      </trkpt>
      <trkpt lat="43.84348" lon="6.53515">
        <ele>751</ele>
        <time>2009-07-22T13:24:47Z</time>
      </trkpt>
      <trkpt lat="43.84342" lon="6.53524">
        <ele>751</ele>
        <time>2009-07-22T13:24:50Z</time>
      </trkpt>
      <trkpt lat="43.84338" lon="6.53532">
        <ele>751</ele>
        <time>2009-07-22T13:24:53Z</time>
      </trkpt>
      <trkpt lat="43.84334" lon="6.53539">
        <ele>752</ele>
        <time>2009-07-22T13:24:56Z</time>
      </trkpt>
      <trkpt lat="43.84333" lon="6.53544">
        <ele>753</ele>
        <time>2009-07-22T13:25:01Z</time>
      </trkpt>
      <trkpt lat="43.84331" lon="6.53549">
        <ele>754</ele>
        <time>2009-07-22T13:25:03Z</time>
      </trkpt>
      <trkpt lat="43.84331" lon="6.53555">
        <ele>755</ele>
        <time>2009-07-22T13:25:05Z</time>
      </trkpt>
      <trkpt lat="43.84329" lon="6.5356">
        <ele>757</ele>
        <time>2009-07-22T13:25:08Z</time>
      </trkpt>
      <trkpt lat="43.84327" lon="6.53565">
        <ele>758</ele>
        <time>2009-07-22T13:25:11Z</time>
      </trkpt>
      <trkpt lat="43.84328" lon="6.53571">
        <ele>759</ele>
        <time>2009-07-22T13:25:14Z</time>
      </trkpt>
      <trkpt lat="43.84329" lon="6.53576">
        <ele>759</ele>
        <time>2009-07-22T13:25:17Z</time>
      </trkpt>
      <trkpt lat="43.84329" lon="6.53581">
        <ele>759</ele>
        <time>2009-07-22T13:25:20Z</time>
      </trkpt>
      <trkpt lat="43.84327" lon="6.53586">
        <ele>760</ele>
        <time>2009-07-22T13:25:23Z</time>
      </trkpt>
      <trkpt lat="43.84326" lon="6.5359">
        <ele>760</ele>
        <time>2009-07-22T13:25:26Z</time>
      </trkpt>
      <trkpt lat="43.84325" lon="6.53596">
        <ele>763</ele>
        <time>2009-07-22T13:25:29Z</time>
      </trkpt>
      <trkpt lat="43.84325" lon="6.53603">
        <ele>765</ele>
        <time>2009-07-22T13:25:32Z</time>
      </trkpt>
      <trkpt lat="43.84323" lon="6.53608">
        <ele>767</ele>
        <time>2009-07-22T13:25:35Z</time>
      </trkpt>
      <trkpt lat="43.84328" lon="6.53603">
        <ele>762</ele>
      </trkpt>
      <trkpt lat="43.84284" lon="6.53761">
        <ele>777</ele>
      </trkpt>
      <trkpt lat="43.84286" lon="6.53758">
        <ele>777</ele>
      </trkpt>
      <trkpt lat="43.84289" lon="6.53783">
        <ele>778</ele>
      </trkpt>
      <trkpt lat="43.84289" lon="6.53786">
        <ele>794</ele>
        <time>2009-07-22T13:30:34Z</time>
      </trkpt>
      <trkpt lat="43.84302" lon="6.53784">
        <ele>791</ele>
        <time>2009-07-22T13:30:40Z</time>
      </trkpt>
      <trkpt lat="43.8431" lon="6.53781">
        <ele>792</ele>
        <time>2009-07-22T13:30:43Z</time>
      </trkpt>
      <trkpt lat="43.84318" lon="6.53779">
        <ele>791</ele>
        <time>2009-07-22T13:30:46Z</time>
      </trkpt>
      <trkpt lat="43.84326" lon="6.53782">
        <ele>790</ele>
        <time>2009-07-22T13:30:49Z</time>
      </trkpt>
      <trkpt lat="43.84331" lon="6.53791">
        <ele>789</ele>
        <time>2009-07-22T13:30:52Z</time>
      </trkpt>
      <trkpt lat="43.84335" lon="6.53801">
        <ele>789</ele>
        <time>2009-07-22T13:30:55Z</time>
      </trkpt>
      <trkpt lat="43.84334" lon="6.53807">
        <ele>789</ele>
        <time>2009-07-22T13:30:58Z</time>
      </trkpt>
      <trkpt lat="43.84334" lon="6.53803">
        <ele>791</ele>
        <time>2009-07-22T13:31:07Z</time>
      </trkpt>
      <trkpt lat="43.84333" lon="6.53799">
        <ele>792</ele>
        <time>2009-07-22T13:31:10Z</time>
      </trkpt>
      <trkpt lat="43.84335" lon="6.53795">
        <ele>790</ele>
        <time>2009-07-22T13:31:13Z</time>
      </trkpt>
      <trkpt lat="43.84334" lon="6.5379">
        <ele>790</ele>
        <time>2009-07-22T13:31:16Z</time>
      </trkpt>
      <trkpt lat="43.84336" lon="6.53797">
        <ele>790</ele>
        <time>2009-07-22T13:32:16Z</time>
      </trkpt>
      <trkpt lat="43.84345" lon="6.53808">
        <ele>787</ele>
        <time>2009-07-22T13:32:19Z</time>
      </trkpt>
      <trkpt lat="43.84351" lon="6.53817">
        <ele>787</ele>
        <time>2009-07-22T13:32:22Z</time>
      </trkpt>
      <trkpt lat="43.84356" lon="6.53829">
        <ele>787</ele>
        <time>2009-07-22T13:32:25Z</time>
      </trkpt>
      <trkpt lat="43.84361" lon="6.53841">
        <ele>787</ele>
        <time>2009-07-22T13:32:28Z</time>
      </trkpt>
      <trkpt lat="43.84365" lon="6.53853">
        <ele>785</ele>
        <time>2009-07-22T13:32:31Z</time>
      </trkpt>
      <trkpt lat="43.84369" lon="6.53864">
        <ele>785</ele>
        <time>2009-07-22T13:32:34Z</time>
      </trkpt>
      <trkpt lat="43.84372" lon="6.53876">
        <ele>784</ele>
        <time>2009-07-22T13:32:37Z</time>
      </trkpt>
      <trkpt lat="43.84375" lon="6.53885">
        <ele>783</ele>
        <time>2009-07-22T13:32:40Z</time>
      </trkpt>
      <trkpt lat="43.84378" lon="6.53896">
        <ele>782</ele>
        <time>2009-07-22T13:32:43Z</time>
      </trkpt>
      <trkpt lat="43.84382" lon="6.53907">
        <ele>782</ele>
        <time>2009-07-22T13:32:46Z</time>
      </trkpt>
      <trkpt lat="43.84384" lon="6.53919">
        <ele>781</ele>
        <time>2009-07-22T13:32:49Z</time>
      </trkpt>
      <trkpt lat="43.84385" lon="6.5393">
        <ele>780</ele>
        <time>2009-07-22T13:32:52Z</time>
      </trkpt>
      <trkpt lat="43.84385" lon="6.53934">
        <ele>780</ele>
        <time>2009-07-22T13:32:55Z</time>
      </trkpt>
      <trkpt lat="43.84373" lon="6.53952">
        <ele>776</ele>
        <time>2009-05-05T08:25:45Z</time>
      </trkpt>
      <trkpt lat="43.84389" lon="6.53948">
        <ele>776</ele>
        <time>2009-05-05T08:28:02Z</time>
      </trkpt>
      <trkpt lat="43.84399" lon="6.53948">
        <ele>777</ele>
        <time>2009-05-05T08:28:05Z</time>
      </trkpt>
      <trkpt lat="43.8441" lon="6.5395">
        <ele>778</ele>
        <time>2009-05-05T08:28:08Z</time>
      </trkpt>
      <trkpt lat="43.84419" lon="6.53957">
        <ele>779</ele>
        <time>2009-05-05T08:28:11Z</time>
      </trkpt>
      <trkpt lat="43.84427" lon="6.53966">
        <ele>780</ele>
        <time>2009-05-05T08:28:14Z</time>
      </trkpt>
      <trkpt lat="43.84434" lon="6.53976">
        <ele>781</ele>
        <time>2009-05-05T08:28:17Z</time>
      </trkpt>
      <trkpt lat="43.84441" lon="6.53988">
        <ele>781</ele>
        <time>2009-05-05T08:28:20Z</time>
      </trkpt>
      <trkpt lat="43.84448" lon="6.53997">
        <ele>781</ele>
        <time>2009-05-05T08:28:23Z</time>
      </trkpt>
      <trkpt lat="43.84453" lon="6.54004">
        <ele>782</ele>
        <time>2009-05-05T08:28:26Z</time>
      </trkpt>
      <trkpt lat="43.84463" lon="6.54003">
        <ele>773</ele>
        <time>2009-05-05T08:30:44Z</time>
      </trkpt>
      <trkpt lat="43.84471" lon="6.53998">
        <ele>773</ele>
        <time>2009-05-05T08:30:50Z</time>
      </trkpt>
      <trkpt lat="43.84477" lon="6.53993">
        <ele>765</ele>
        <time>2009-05-05T08:30:56Z</time>
      </trkpt>
      <trkpt lat="43.84486" lon="6.53993">
        <ele>758</ele>
        <time>2009-05-05T08:31:02Z</time>
      </trkpt>
      <trkpt lat="43.84461" lon="6.54012">
        <ele>778</ele>
        <time>2009-05-05T08:32:03Z</time>
      </trkpt>
      <trkpt lat="43.84447" lon="6.54009">
        <ele>786</ele>
        <time>2009-05-05T08:32:17Z</time>
      </trkpt>
      <trkpt lat="43.84436" lon="6.54007">
        <ele>787</ele>
        <time>2009-05-05T08:32:23Z</time>
      </trkpt>
      <trkpt lat="43.84429" lon="6.54005">
        <ele>790</ele>
        <time>2009-05-05T08:32:26Z</time>
      </trkpt>
      <trkpt lat="43.84433" lon="6.54013">
        <ele>791</ele>
        <time>2009-05-05T08:32:32Z</time>
      </trkpt>
      <trkpt lat="43.84426" lon="6.54009">
        <ele>790</ele>
        <time>2009-05-05T08:32:41Z</time>
      </trkpt>
      <trkpt lat="43.8442" lon="6.54006">
        <ele>790</ele>
        <time>2009-05-05T08:32:44Z</time>
      </trkpt>
      <trkpt lat="43.84421" lon="6.54013">
        <ele>790</ele>
        <time>2009-05-05T08:32:50Z</time>
      </trkpt>
      <trkpt lat="43.84425" lon="6.54021">
        <ele>790</ele>
        <time>2009-05-05T08:32:56Z</time>
      </trkpt>
      <trkpt lat="43.84431" lon="6.54036">
        <ele>794</ele>
        <time>2009-05-05T08:33:06Z</time>
      </trkpt>
      <trkpt lat="43.84434" lon="6.54045">
        <ele>796</ele>
        <time>2009-05-05T08:33:11Z</time>
      </trkpt>
      <trkpt lat="43.84437" lon="6.54054">
        <ele>801</ele>
        <time>2009-05-05T08:33:17Z</time>
      </trkpt>
      <trkpt lat="43.84442" lon="6.54063">
        <ele>804</ele>
        <time>2009-05-05T08:33:23Z</time>
      </trkpt>
      <trkpt lat="43.84442" lon="6.54071">
        <ele>805</ele>
        <time>2009-05-05T08:33:29Z</time>
      </trkpt>
      <trkpt lat="43.84441" lon="6.54078">
        <ele>807</ele>
        <time>2009-05-05T08:33:38Z</time>
      </trkpt>
      <trkpt lat="43.84442" lon="6.54086">
        <ele>810</ele>
        <time>2009-05-05T08:33:44Z</time>
      </trkpt>
      <trkpt lat="43.84446" lon="6.54094">
        <ele>816</ele>
        <time>2009-05-05T08:33:53Z</time>
      </trkpt>
      <trkpt lat="43.84448" lon="6.54103">
        <ele>820</ele>
        <time>2009-05-05T08:33:59Z</time>
      </trkpt>
      <trkpt lat="43.84449" lon="6.5411">
        <ele>819</ele>
        <time>2009-05-05T08:34:05Z</time>
      </trkpt>
      <trkpt lat="43.84449" lon="6.54119">
        <ele>812</ele>
        <time>2009-05-05T08:34:29Z</time>
      </trkpt>
      <trkpt lat="43.84452" lon="6.54131">
        <ele>809</ele>
        <time>2009-05-05T08:34:35Z</time>
      </trkpt>
      <trkpt lat="43.84452" lon="6.54141">
        <ele>808</ele>
        <time>2009-05-05T08:34:41Z</time>
      </trkpt>
      <trkpt lat="43.84456" lon="6.54149">
        <ele>805</ele>
        <time>2009-05-05T08:34:47Z</time>
      </trkpt>
      <trkpt lat="43.84456" lon="6.54158">
        <ele>805</ele>
        <time>2009-05-05T08:34:53Z</time>
      </trkpt>
      <trkpt lat="43.84457" lon="6.54167">
        <ele>805</ele>
        <time>2009-05-05T08:34:59Z</time>
      </trkpt>
      <trkpt lat="43.84458" lon="6.54176">
        <ele>809</ele>
        <time>2009-05-05T08:35:05Z</time>
      </trkpt>
      <trkpt lat="43.84462" lon="6.54182">
        <ele>811</ele>
        <time>2009-05-05T08:35:20Z</time>
      </trkpt>
      <trkpt lat="43.84455" lon="6.54185">
        <ele>827</ele>
        <time>2009-05-05T08:35:39Z</time>
      </trkpt>
      <trkpt lat="43.84457" lon="6.54193">
        <ele>825</ele>
        <time>2009-05-05T08:35:57Z</time>
      </trkpt>
      <trkpt lat="43.84459" lon="6.54202">
        <ele>819</ele>
        <time>2009-05-05T08:36:03Z</time>
      </trkpt>
      <trkpt lat="43.84463" lon="6.54211">
        <ele>816</ele>
        <time>2009-05-05T08:36:09Z</time>
      </trkpt>
      <trkpt lat="43.84463" lon="6.54222">
        <ele>817</ele>
        <time>2009-05-05T08:36:21Z</time>
      </trkpt>
      <trkpt lat="43.8446" lon="6.54233">
        <ele>824</ele>
        <time>2009-05-05T08:36:30Z</time>
      </trkpt>
      <trkpt lat="43.8446" lon="6.54242">
        <ele>824</ele>
        <time>2009-05-05T08:36:36Z</time>
      </trkpt>
      <trkpt lat="43.84458" lon="6.54249">
        <ele>827</ele>
        <time>2009-05-05T08:36:51Z</time>
      </trkpt>
      <trkpt lat="43.84457" lon="6.54259">
        <ele>832</ele>
        <time>2009-05-05T08:37:00Z</time>
      </trkpt>
      <trkpt lat="43.84455" lon="6.54267">
        <ele>828</ele>
        <time>2009-05-05T08:37:06Z</time>
      </trkpt>
      <trkpt lat="43.84454" lon="6.54275">
        <ele>828</ele>
        <time>2009-05-05T08:37:12Z</time>
      </trkpt>
      <trkpt lat="43.84453" lon="6.54285">
        <ele>827</ele>
        <time>2009-05-05T08:37:18Z</time>
      </trkpt>
      <trkpt lat="43.84452" lon="6.54296">
        <ele>824</ele>
        <time>2009-05-05T08:37:24Z</time>
      </trkpt>
      <trkpt lat="43.8445" lon="6.54306">
        <ele>827</ele>
        <time>2009-05-05T08:37:30Z</time>
      </trkpt>
      <trkpt lat="43.84449" lon="6.54313">
        <ele>832</ele>
        <time>2009-05-05T08:37:36Z</time>
      </trkpt>
      <trkpt lat="43.84447" lon="6.54321">
        <ele>833</ele>
        <time>2009-05-05T08:37:42Z</time>
      </trkpt>
      <trkpt lat="43.84447" lon="6.54332">
        <ele>831</ele>
        <time>2009-05-05T08:37:48Z</time>
      </trkpt>
      <trkpt lat="43.84447" lon="6.54339">
        <ele>829</ele>
        <time>2009-05-05T08:37:51Z</time>
      </trkpt>
      <trkpt lat="43.84446" lon="6.54348">
        <ele>830</ele>
        <time>2009-05-05T08:37:57Z</time>
      </trkpt>
      <trkpt lat="43.84444" lon="6.54359">
        <ele>835</ele>
        <time>2009-05-05T08:38:06Z</time>
      </trkpt>
      <trkpt lat="43.84445" lon="6.54367">
        <ele>832</ele>
        <time>2009-05-05T08:38:09Z</time>
      </trkpt>
      <trkpt lat="43.84443" lon="6.54375">
        <ele>835</ele>
        <time>2009-05-05T08:38:15Z</time>
      </trkpt>
      <trkpt lat="43.8444" lon="6.54382">
        <ele>838</ele>
        <time>2009-05-05T08:38:21Z</time>
      </trkpt>
      <trkpt lat="43.8444" lon="6.54392">
        <ele>840</ele>
        <time>2009-05-05T08:38:27Z</time>
      </trkpt>
      <trkpt lat="43.84437" lon="6.54402">
        <ele>839</ele>
        <time>2009-05-05T08:38:36Z</time>
      </trkpt>
      <trkpt lat="43.8444" lon="6.5441">
        <ele>838</ele>
        <time>2009-05-05T08:38:51Z</time>
      </trkpt>
      <trkpt lat="43.84439" lon="6.5442">
        <ele>836</ele>
        <time>2009-05-05T08:38:57Z</time>
      </trkpt>
      <trkpt lat="43.84439" lon="6.54429">
        <ele>836</ele>
        <time>2009-05-05T08:39:03Z</time>
      </trkpt>
      <trkpt lat="43.84439" lon="6.5444">
        <ele>833</ele>
        <time>2009-05-05T08:39:12Z</time>
      </trkpt>
      <trkpt lat="43.84437" lon="6.54449">
        <ele>837</ele>
        <time>2009-05-05T08:39:18Z</time>
      </trkpt>
      <trkpt lat="43.84434" lon="6.54457">
        <ele>842</ele>
        <time>2009-05-05T08:39:27Z</time>
      </trkpt>
      <trkpt lat="43.84434" lon="6.54466">
        <ele>841</ele>
        <time>2009-05-05T08:39:33Z</time>
      </trkpt>
      <trkpt lat="43.84434" lon="6.54473">
        <ele>843</ele>
        <time>2009-05-05T08:39:39Z</time>
      </trkpt>
      <trkpt lat="43.84434" lon="6.5448">
        <ele>847</ele>
        <time>2009-05-05T08:39:45Z</time>
      </trkpt>
      <trkpt lat="43.84433" lon="6.54489">
        <ele>849</ele>
        <time>2009-05-05T08:39:51Z</time>
      </trkpt>
      <trkpt lat="43.84432" lon="6.54498">
        <ele>854</ele>
        <time>2009-05-05T08:39:57Z</time>
      </trkpt>
      <trkpt lat="43.8443" lon="6.54507">
        <ele>852</ele>
        <time>2009-05-05T08:40:03Z</time>
      </trkpt>
      <trkpt lat="43.84429" lon="6.54518">
        <ele>851</ele>
        <time>2009-05-05T08:40:12Z</time>
      </trkpt>
      <trkpt lat="43.84429" lon="6.54528">
        <ele>855</ele>
        <time>2009-05-05T08:40:21Z</time>
      </trkpt>
      <trkpt lat="43.84429" lon="6.54535">
        <ele>858</ele>
        <time>2009-05-05T08:40:27Z</time>
      </trkpt>
      <trkpt lat="43.84427" lon="6.54546">
        <ele>859</ele>
        <time>2009-05-05T08:40:36Z</time>
      </trkpt>
      <trkpt lat="43.84425" lon="6.54554">
        <ele>865</ele>
        <time>2009-05-05T08:40:45Z</time>
      </trkpt>
      <trkpt lat="43.84423" lon="6.54562">
        <ele>869</ele>
        <time>2009-05-05T08:40:51Z</time>
      </trkpt>
      <trkpt lat="43.84422" lon="6.54569">
        <ele>875</ele>
        <time>2009-05-05T08:40:57Z</time>
      </trkpt>
      <trkpt lat="43.84419" lon="6.54583">
        <ele>877</ele>
        <time>2009-05-05T08:41:06Z</time>
      </trkpt>
      <trkpt lat="43.84421" lon="6.54595">
        <ele>874</ele>
        <time>2009-05-05T08:41:12Z</time>
      </trkpt>
      <trkpt lat="43.84421" lon="6.54603">
        <ele>873</ele>
        <time>2009-05-05T08:41:18Z</time>
      </trkpt>
      <trkpt lat="43.84416" lon="6.54609">
        <ele>867</ele>
        <time>2009-05-05T08:41:33Z</time>
      </trkpt>
      <trkpt lat="43.84419" lon="6.54617">
        <ele>862</ele>
        <time>2009-05-05T08:41:51Z</time>
      </trkpt>
      <trkpt lat="43.84416" lon="6.54625">
        <ele>863</ele>
        <time>2009-05-05T08:41:57Z</time>
      </trkpt>
      <trkpt lat="43.84414" lon="6.54634">
        <ele>863</ele>
        <time>2009-05-05T08:42:03Z</time>
      </trkpt>
      <trkpt lat="43.84409" lon="6.54644">
        <ele>869</ele>
        <time>2009-05-05T08:42:12Z</time>
      </trkpt>
      <trkpt lat="43.84407" lon="6.54651">
        <ele>871</ele>
        <time>2009-05-05T08:42:18Z</time>
      </trkpt>
      <trkpt lat="43.84407" lon="6.54659">
        <ele>870</ele>
        <time>2009-05-05T08:42:24Z</time>
      </trkpt>
      <trkpt lat="43.84405" lon="6.54669">
        <ele>870</ele>
        <time>2009-05-05T08:42:30Z</time>
      </trkpt>
      <trkpt lat="43.84403" lon="6.54677">
        <ele>873</ele>
        <time>2009-05-05T08:42:36Z</time>
      </trkpt>
      <trkpt lat="43.84399" lon="6.54687">
        <ele>873</ele>
        <time>2009-05-05T08:42:42Z</time>
      </trkpt>
      <trkpt lat="43.84396" lon="6.54694">
        <ele>871</ele>
        <time>2009-05-05T08:42:51Z</time>
      </trkpt>
      <trkpt lat="43.84391" lon="6.54706">
        <ele>874</ele>
        <time>2009-05-05T08:43:09Z</time>
      </trkpt>
      <trkpt lat="43.8439" lon="6.54713">
        <ele>876</ele>
        <time>2009-05-05T08:43:15Z</time>
      </trkpt>
      <trkpt lat="43.84384" lon="6.54718">
        <ele>880</ele>
        <time>2009-05-05T08:43:33Z</time>
      </trkpt>
      <trkpt lat="43.84387" lon="6.54725">
        <ele>888</ele>
        <time>2009-05-05T08:43:42Z</time>
      </trkpt>
      <trkpt lat="43.84384" lon="6.54732">
        <ele>888</ele>
        <time>2009-05-05T08:44:00Z</time>
      </trkpt>
      <trkpt lat="43.84385" lon="6.54739">
        <ele>887</ele>
        <time>2009-05-05T08:44:06Z</time>
      </trkpt>
      <trkpt lat="43.84388" lon="6.54749">
        <ele>880</ele>
        <time>2009-05-05T08:44:15Z</time>
      </trkpt>
      <trkpt lat="43.84389" lon="6.54758">
        <ele>874</ele>
        <time>2009-05-05T08:44:21Z</time>
      </trkpt>
      <trkpt lat="43.8439" lon="6.54766">
        <ele>871</ele>
        <time>2009-05-05T08:44:27Z</time>
      </trkpt>
      <trkpt lat="43.84392" lon="6.54773">
        <ele>867</ele>
        <time>2009-05-05T08:44:30Z</time>
      </trkpt>
      <trkpt lat="43.84393" lon="6.54787">
        <ele>880</ele>
        <time>2009-05-05T08:44:42Z</time>
      </trkpt>
      <trkpt lat="43.84393" lon="6.54795">
        <ele>895</ele>
        <time>2009-05-05T08:44:51Z</time>
      </trkpt>
      <trkpt lat="43.84392" lon="6.54803">
        <ele>895</ele>
        <time>2009-05-05T08:44:57Z</time>
      </trkpt>
      <trkpt lat="43.84393" lon="6.54813">
        <ele>896</ele>
        <time>2009-05-05T08:45:03Z</time>
      </trkpt>
      <trkpt lat="43.8439" lon="6.54821">
        <ele>900</ele>
        <time>2009-05-05T08:45:15Z</time>
      </trkpt>
      <trkpt lat="43.84384" lon="6.54816">
        <ele>905</ele>
        <time>2009-05-05T08:45:51Z</time>
      </trkpt>
      <trkpt lat="43.84391" lon="6.54822">
        <ele>902</ele>
        <time>2009-05-05T08:46:09Z</time>
      </trkpt>
      <trkpt lat="43.84394" lon="6.54834">
        <ele>895</ele>
        <time>2009-05-05T08:46:15Z</time>
      </trkpt>
      <trkpt lat="43.84393" lon="6.54841">
        <ele>893</ele>
        <time>2009-05-05T08:46:24Z</time>
      </trkpt>
      <trkpt lat="43.84391" lon="6.54852">
        <ele>894</ele>
        <time>2009-05-05T08:46:30Z</time>
      </trkpt>
      <trkpt lat="43.84389" lon="6.5486">
        <ele>899</ele>
        <time>2009-05-05T08:46:36Z</time>
      </trkpt>
      <trkpt lat="43.84387" lon="6.5487">
        <ele>898</ele>
        <time>2009-05-05T08:46:45Z</time>
      </trkpt>
      <trkpt lat="43.84389" lon="6.54879">
        <ele>898</ele>
        <time>2009-05-05T08:46:51Z</time>
      </trkpt>
      <trkpt lat="43.84389" lon="6.54889">
        <ele>903</ele>
        <time>2009-05-05T08:46:57Z</time>
      </trkpt>
      <trkpt lat="43.84387" lon="6.549">
        <ele>907</ele>
        <time>2009-05-05T08:47:06Z</time>
      </trkpt>
      <trkpt lat="43.84387" lon="6.54909">
        <ele>910</ele>
        <time>2009-05-05T08:47:12Z</time>
      </trkpt>
      <trkpt lat="43.84387" lon="6.54917">
        <ele>910</ele>
        <time>2009-05-05T08:47:18Z</time>
      </trkpt>
      <trkpt lat="43.8439" lon="6.54927">
        <ele>909</ele>
        <time>2009-05-05T08:47:27Z</time>
      </trkpt>
      <trkpt lat="43.84394" lon="6.54934">
        <ele>909</ele>
        <time>2009-05-05T08:47:33Z</time>
      </trkpt>
      <trkpt lat="43.84397" lon="6.54942">
        <ele>910</ele>
        <time>2009-05-05T08:47:39Z</time>
      </trkpt>
      <trkpt lat="43.84401" lon="6.54949">
        <ele>909</ele>
        <time>2009-05-05T08:47:45Z</time>
      </trkpt>
      <trkpt lat="43.84403" lon="6.54957">
        <ele>910</ele>
        <time>2009-05-05T08:47:51Z</time>
      </trkpt>
      <trkpt lat="43.84403" lon="6.54965">
        <ele>912</ele>
        <time>2009-05-05T08:47:57Z</time>
      </trkpt>
      <trkpt lat="43.84404" lon="6.54974">
        <ele>913</ele>
        <time>2009-05-05T08:48:00Z</time>
      </trkpt>
      <trkpt lat="43.84403" lon="6.54991">
        <ele>919</ele>
        <time>2009-05-05T08:48:06Z</time>
      </trkpt>
      <trkpt lat="43.84405" lon="6.54999">
        <ele>920</ele>
        <time>2009-05-05T08:48:15Z</time>
      </trkpt>
      <trkpt lat="43.8441" lon="6.55008">
        <ele>918</ele>
        <time>2009-05-05T08:48:24Z</time>
      </trkpt>
      <trkpt lat="43.84411" lon="6.55016">
        <ele>921</ele>
        <time>2009-05-05T08:48:36Z</time>
      </trkpt>
      <trkpt lat="43.84406" lon="6.55022">
        <ele>927</ele>
        <time>2009-05-05T08:48:51Z</time>
      </trkpt>
      <trkpt lat="43.84405" lon="6.5503">
        <ele>919</ele>
        <time>2009-05-05T08:49:18Z</time>
      </trkpt>
      <trkpt lat="43.84406" lon="6.55072">
        <ele>925</ele>
        <time>2009-05-05T08:49:42Z</time>
      </trkpt>
      <trkpt lat="43.84402" lon="6.55082">
        <ele>928</ele>
        <time>2009-05-05T08:49:48Z</time>
      </trkpt>
      <trkpt lat="43.84403" lon="6.55091">
        <ele>926</ele>
        <time>2009-05-05T08:49:54Z</time>
      </trkpt>
      <trkpt lat="43.84405" lon="6.55102">
        <ele>930</ele>
        <time>2009-05-05T08:50:03Z</time>
      </trkpt>
      <trkpt lat="43.84406" lon="6.5511">
        <ele>931</ele>
        <time>2009-05-05T08:50:09Z</time>
      </trkpt>
      <trkpt lat="43.84406" lon="6.55117">
        <ele>933</ele>
        <time>2009-05-05T08:50:15Z</time>
      </trkpt>
      <trkpt lat="43.84404" lon="6.5513">
        <ele>929</ele>
        <time>2009-05-05T08:50:24Z</time>
      </trkpt>
      <trkpt lat="43.84402" lon="6.55142">
        <ele>929</ele>
        <time>2009-05-05T08:50:30Z</time>
      </trkpt>
      <trkpt lat="43.84402" lon="6.55149">
        <ele>935</ele>
        <time>2009-05-05T08:50:36Z</time>
      </trkpt>
      <trkpt lat="43.84403" lon="6.5516">
        <ele>934</ele>
        <time>2009-05-05T08:50:45Z</time>
      </trkpt>
      <trkpt lat="43.84407" lon="6.55167">
        <ele>933</ele>
        <time>2009-05-05T08:50:51Z</time>
      </trkpt>
      <trkpt lat="43.84408" lon="6.55177">
        <ele>943</ele>
        <time>2009-05-05T08:51:03Z</time>
      </trkpt>
      <trkpt lat="43.8441" lon="6.55185">
        <ele>945</ele>
        <time>2009-05-05T08:51:09Z</time>
      </trkpt>
      <trkpt lat="43.84413" lon="6.55193">
        <ele>943</ele>
        <time>2009-05-05T08:51:18Z</time>
      </trkpt>
      <trkpt lat="43.84409" lon="6.55201">
        <ele>939</ele>
        <time>2009-05-05T08:51:34Z</time>
      </trkpt>
      <trkpt lat="43.84415" lon="6.5521">
        <ele>936</ele>
        <time>2009-05-05T08:51:43Z</time>
      </trkpt>
      <trkpt lat="43.84416" lon="6.55217">
        <ele>938</ele>
        <time>2009-05-05T08:51:49Z</time>
      </trkpt>
      <trkpt lat="43.84418" lon="6.55225">
        <ele>937</ele>
        <time>2009-05-05T08:51:55Z</time>
      </trkpt>
      <trkpt lat="43.84421" lon="6.55236">
        <ele>935</ele>
        <time>2009-05-05T08:52:04Z</time>
      </trkpt>
      <trkpt lat="43.84423" lon="6.55245">
        <ele>936</ele>
        <time>2009-05-05T08:52:13Z</time>
      </trkpt>
      <trkpt lat="43.84425" lon="6.55256">
        <ele>939</ele>
        <time>2009-05-05T08:52:22Z</time>
      </trkpt>
      <trkpt lat="43.84427" lon="6.55263">
        <ele>943</ele>
        <time>2009-05-05T08:52:28Z</time>
      </trkpt>
      <trkpt lat="43.8443" lon="6.55271">
        <ele>942</ele>
        <time>2009-05-05T08:52:34Z</time>
      </trkpt>
      <trkpt lat="43.84429" lon="6.55282">
        <ele>944</ele>
        <time>2009-05-05T08:52:43Z</time>
      </trkpt>
      <trkpt lat="43.8443" lon="6.55291">
        <ele>944</ele>
        <time>2009-05-05T08:52:58Z</time>
      </trkpt>
      <trkpt lat="43.84431" lon="6.553">
        <ele>943</ele>
        <time>2009-05-05T08:53:07Z</time>
      </trkpt>
      <trkpt lat="43.84433" lon="6.55308">
        <ele>943</ele>
        <time>2009-05-05T08:53:13Z</time>
      </trkpt>
      <trkpt lat="43.84436" lon="6.55317">
        <ele>945</ele>
        <time>2009-05-05T08:53:22Z</time>
      </trkpt>
      <trkpt lat="43.84439" lon="6.55326">
        <ele>947</ele>
        <time>2009-05-05T08:53:31Z</time>
      </trkpt>
      <trkpt lat="43.84442" lon="6.55335">
        <ele>945</ele>
        <time>2009-05-05T08:53:37Z</time>
      </trkpt>
      <trkpt lat="43.84443" lon="6.55343">
        <ele>943</ele>
        <time>2009-05-05T08:53:43Z</time>
      </trkpt>
      <trkpt lat="43.84443" lon="6.55353">
        <ele>948</ele>
        <time>2009-05-05T08:53:52Z</time>
      </trkpt>
      <trkpt lat="43.84444" lon="6.55368">
        <ele>950</ele>
        <time>2009-05-05T08:54:01Z</time>
      </trkpt>
      <trkpt lat="43.84441" lon="6.55375">
        <ele>966</ele>
        <time>2009-05-05T08:54:25Z</time>
      </trkpt>
      <trkpt lat="43.84442" lon="6.55385">
        <ele>967</ele>
        <time>2009-05-05T08:54:34Z</time>
      </trkpt>
      <trkpt lat="43.84449" lon="6.55399">
        <ele>972</ele>
        <time>2009-05-05T08:54:46Z</time>
      </trkpt>
      <trkpt lat="43.8445" lon="6.55417">
        <ele>980</ele>
        <time>2009-05-05T08:54:58Z</time>
      </trkpt>
      <trkpt lat="43.84444" lon="6.55423">
        <ele>976</ele>
        <time>2009-05-05T08:55:19Z</time>
      </trkpt>
      <trkpt lat="43.84448" lon="6.55433">
        <ele>972</ele>
        <time>2009-05-05T08:55:28Z</time>
      </trkpt>
      <trkpt lat="43.8445" lon="6.55441">
        <ele>975</ele>
        <time>2009-05-05T08:55:37Z</time>
      </trkpt>
      <trkpt lat="43.84454" lon="6.55448">
        <ele>976</ele>
        <time>2009-05-05T08:55:46Z</time>
      </trkpt>
      <trkpt lat="43.84461" lon="6.55456">
        <ele>976</ele>
        <time>2009-05-05T08:55:58Z</time>
      </trkpt>
      <trkpt lat="43.84464" lon="6.55465">
        <ele>976</ele>
        <time>2009-05-05T08:56:10Z</time>
      </trkpt>
      <trkpt lat="43.84469" lon="6.55475">
        <ele>976</ele>
        <time>2009-05-05T08:56:16Z</time>
      </trkpt>
      <trkpt lat="43.84468" lon="6.55485">
        <ele>974</ele>
        <time>2009-05-05T08:56:22Z</time>
      </trkpt>
      <trkpt lat="43.84467" lon="6.55495">
        <ele>973</ele>
        <time>2009-05-05T08:56:31Z</time>
      </trkpt>
      <trkpt lat="43.84465" lon="6.55506">
        <ele>973</ele>
        <time>2009-05-05T08:56:37Z</time>
      </trkpt>
      <trkpt lat="43.84463" lon="6.55517">
        <ele>983</ele>
        <time>2009-05-05T08:56:46Z</time>
      </trkpt>
      <trkpt lat="43.84463" lon="6.55526">
        <ele>975</ele>
        <time>2009-05-05T08:56:52Z</time>
      </trkpt>
      <trkpt lat="43.84461" lon="6.55532">
        <ele>968</ele>
        <time>2009-05-05T08:56:58Z</time>
      </trkpt>
      <trkpt lat="43.84459" lon="6.55543">
        <ele>982</ele>
        <time>2009-05-05T08:57:43Z</time>
      </trkpt>
      <trkpt lat="43.84456" lon="6.5555">
        <ele>990</ele>
        <time>2009-05-05T08:57:52Z</time>
      </trkpt>
      <trkpt lat="43.84458" lon="6.55559">
        <ele>983</ele>
        <time>2009-05-05T08:57:55Z</time>
      </trkpt>
      <trkpt lat="43.84457" lon="6.55568">
        <ele>979</ele>
        <time>2009-05-05T08:58:04Z</time>
      </trkpt>
      <trkpt lat="43.84456" lon="6.55579">
        <ele>986</ele>
        <time>2009-05-05T08:58:31Z</time>
      </trkpt>
      <trkpt lat="43.84455" lon="6.55586">
        <ele>986</ele>
        <time>2009-05-05T08:58:37Z</time>
      </trkpt>
      <trkpt lat="43.84451" lon="6.55597">
        <ele>988</ele>
        <time>2009-05-05T08:58:46Z</time>
      </trkpt>
      <trkpt lat="43.84448" lon="6.55605">
        <ele>991</ele>
        <time>2009-05-05T08:58:52Z</time>
      </trkpt>
      <trkpt lat="43.84446" lon="6.55616">
        <ele>993</ele>
        <time>2009-05-05T08:59:01Z</time>
      </trkpt>
      <trkpt lat="43.84446" lon="6.55623">
        <ele>992</ele>
        <time>2009-05-05T08:59:07Z</time>
      </trkpt>
      <trkpt lat="43.84444" lon="6.55631">
        <ele>992</ele>
        <time>2009-05-05T08:59:13Z</time>
      </trkpt>
      <trkpt lat="43.84443" lon="6.55638">
        <ele>994</ele>
        <time>2009-05-05T08:59:19Z</time>
      </trkpt>
      <trkpt lat="43.84443" lon="6.55645">
        <ele>994</ele>
        <time>2009-05-05T08:59:25Z</time>
      </trkpt>
      <trkpt lat="43.84442" lon="6.55656">
        <ele>995</ele>
        <time>2009-05-05T08:59:34Z</time>
      </trkpt>
      <trkpt lat="43.8444" lon="6.55665">
        <ele>991</ele>
        <time>2009-05-05T08:59:58Z</time>
      </trkpt>
      <trkpt lat="43.84442" lon="6.55672">
        <ele>992</ele>
        <time>2009-05-05T09:00:01Z</time>
      </trkpt>
      <trkpt lat="43.84444" lon="6.55684">
        <ele>998</ele>
        <time>2009-05-05T09:00:07Z</time>
      </trkpt>
      <trkpt lat="43.84445" lon="6.55696">
        <ele>1002</ele>
        <time>2009-05-05T09:00:13Z</time>
      </trkpt>
      <trkpt lat="43.84443" lon="6.55711">
        <ele>1004</ele>
        <time>2009-05-05T09:00:22Z</time>
      </trkpt>
      <trkpt lat="43.84443" lon="6.55723">
        <ele>1010</ele>
        <time>2009-05-05T09:00:28Z</time>
      </trkpt>
      <trkpt lat="43.84441" lon="6.55732">
        <ele>1007</ele>
        <time>2009-05-05T09:00:34Z</time>
      </trkpt>
      <trkpt lat="43.84442" lon="6.55743">
        <ele>1011</ele>
        <time>2009-05-05T09:00:40Z</time>
      </trkpt>
      <trkpt lat="43.84442" lon="6.55764">
        <ele>1013</ele>
        <time>2009-05-05T09:00:49Z</time>
      </trkpt>
      <trkpt lat="43.84447" lon="6.55781">
        <ele>1016</ele>
        <time>2009-05-05T09:00:58Z</time>
      </trkpt>
      <trkpt lat="43.84447" lon="6.55789">
        <ele>1018</ele>
        <time>2009-05-05T09:01:01Z</time>
      </trkpt>
      <trkpt lat="43.8445" lon="6.55797">
        <ele>1014</ele>
        <time>2009-05-05T09:01:04Z</time>
      </trkpt>
      <trkpt lat="43.84451" lon="6.55807">
        <ele>1018</ele>
        <time>2009-05-05T09:01:10Z</time>
      </trkpt>
      <trkpt lat="43.84451" lon="6.5582">
        <ele>1011</ele>
        <time>2009-05-05T09:01:16Z</time>
      </trkpt>
      <trkpt lat="43.8445" lon="6.55835">
        <ele>1011</ele>
        <time>2009-05-05T09:01:22Z</time>
      </trkpt>
      <trkpt lat="43.84448" lon="6.55845">
        <ele>1009</ele>
        <time>2009-05-05T09:01:25Z</time>
      </trkpt>
      <trkpt lat="43.84446" lon="6.55853">
        <ele>1007</ele>
        <time>2009-05-05T09:01:28Z</time>
      </trkpt>
      <trkpt lat="43.8445" lon="6.55867">
        <ele>1006</ele>
        <time>2009-05-05T09:01:35Z</time>
      </trkpt>
      <trkpt lat="43.84454" lon="6.55878">
        <ele>1011</ele>
        <time>2009-05-05T09:01:40Z</time>
      </trkpt>
      <trkpt lat="43.84454" lon="6.55892">
        <ele>1010</ele>
        <time>2009-05-05T09:01:46Z</time>
      </trkpt>
      <trkpt lat="43.84456" lon="6.55906">
        <ele>1011</ele>
        <time>2009-05-05T09:01:52Z</time>
      </trkpt>
      <trkpt lat="43.84457" lon="6.55913">
        <ele>1012</ele>
        <time>2009-05-05T09:01:55Z</time>
      </trkpt>
      <trkpt lat="43.84459" lon="6.55925">
        <ele>1017</ele>
        <time>2009-05-05T09:02:01Z</time>
      </trkpt>
      <trkpt lat="43.84463" lon="6.55936">
        <ele>1018</ele>
        <time>2009-05-05T09:02:07Z</time>
      </trkpt>
      <trkpt lat="43.84466" lon="6.55948">
        <ele>1023</ele>
        <time>2009-05-05T09:02:13Z</time>
      </trkpt>
      <trkpt lat="43.8447" lon="6.55958">
        <ele>1026</ele>
        <time>2009-05-05T09:02:19Z</time>
      </trkpt>
      <trkpt lat="43.84472" lon="6.55967">
        <ele>1024</ele>
        <time>2009-05-05T09:02:25Z</time>
      </trkpt>
      <trkpt lat="43.8447" lon="6.55974">
        <ele>1023</ele>
        <time>2009-05-05T09:03:02Z</time>
      </trkpt>
      <trkpt lat="43.84472" lon="6.55986">
        <ele>1022</ele>
        <time>2009-05-05T09:03:07Z</time>
      </trkpt>
      <trkpt lat="43.84474" lon="6.55998">
        <ele>1022</ele>
        <time>2009-05-05T09:03:13Z</time>
      </trkpt>
      <trkpt lat="43.84475" lon="6.56005">
        <ele>1023</ele>
        <time>2009-05-05T09:03:19Z</time>
      </trkpt>
      <trkpt lat="43.84479" lon="6.56012">
        <ele>1030</ele>
        <time>2009-05-05T09:03:41Z</time>
      </trkpt>
      <trkpt lat="43.8448" lon="6.56019">
        <ele>1029</ele>
        <time>2009-05-05T09:03:44Z</time>
      </trkpt>
      <trkpt lat="43.8448" lon="6.56027">
        <ele>1028</ele>
        <time>2009-05-05T09:03:47Z</time>
      </trkpt>
      <trkpt lat="43.84481" lon="6.56034">
        <ele>1027</ele>
        <time>2009-05-05T09:03:50Z</time>
      </trkpt>
      <trkpt lat="43.84482" lon="6.56047">
        <ele>1026</ele>
        <time>2009-05-05T09:03:56Z</time>
      </trkpt>
      <trkpt lat="43.84485" lon="6.5606">
        <ele>1028</ele>
        <time>2009-05-05T09:04:02Z</time>
      </trkpt>
      <trkpt lat="43.84488" lon="6.5607">
        <ele>1031</ele>
        <time>2009-05-05T09:04:08Z</time>
      </trkpt>
      <trkpt lat="43.8449" lon="6.56082">
        <ele>1035</ele>
        <time>2009-05-05T09:04:14Z</time>
      </trkpt>
      <trkpt lat="43.8449" lon="6.56095">
        <ele>1034</ele>
        <time>2009-05-05T09:04:20Z</time>
      </trkpt>
      <trkpt lat="43.8449" lon="6.56106">
        <ele>1034</ele>
        <time>2009-05-05T09:04:26Z</time>
      </trkpt>
      <trkpt lat="43.84492" lon="6.56118">
        <ele>1034</ele>
        <time>2009-05-05T09:04:32Z</time>
      </trkpt>
      <trkpt lat="43.84493" lon="6.56131">
        <ele>1034</ele>
        <time>2009-05-05T09:04:38Z</time>
      </trkpt>
      <trkpt lat="43.84494" lon="6.56143">
        <ele>1034</ele>
        <time>2009-05-05T09:04:44Z</time>
      </trkpt>
      <trkpt lat="43.84497" lon="6.56155">
        <ele>1034</ele>
        <time>2009-05-05T09:04:50Z</time>
      </trkpt>
      <trkpt lat="43.84501" lon="6.56168">
        <ele>1034</ele>
        <time>2009-05-05T09:04:56Z</time>
      </trkpt>
      <trkpt lat="43.84503" lon="6.56176">
        <ele>1034</ele>
        <time>2009-05-05T09:04:59Z</time>
      </trkpt>
      <trkpt lat="43.84503" lon="6.56189">
        <ele>1032</ele>
        <time>2009-05-05T09:05:05Z</time>
      </trkpt>
      <trkpt lat="43.84504" lon="6.56196">
        <ele>1032</ele>
        <time>2009-05-05T09:05:08Z</time>
      </trkpt>
      <trkpt lat="43.84502" lon="6.56209">
        <ele>1035</ele>
        <time>2009-05-05T09:05:14Z</time>
      </trkpt>
      <trkpt lat="43.84502" lon="6.56216">
        <ele>1035</ele>
        <time>2009-05-05T09:05:17Z</time>
      </trkpt>
      <trkpt lat="43.84502" lon="6.56222">
        <ele>1032</ele>
        <time>2009-05-05T09:05:20Z</time>
      </trkpt>
      <trkpt lat="43.84503" lon="6.56232">
        <ele>1035</ele>
        <time>2009-05-05T09:05:26Z</time>
      </trkpt>
      <trkpt lat="43.84504" lon="6.56242">
        <ele>1036</ele>
        <time>2009-05-05T09:05:32Z</time>
      </trkpt>
      <trkpt lat="43.84507" lon="6.56249">
        <ele>1021</ele>
        <time>2009-05-05T09:06:29Z</time>
      </trkpt>
      <trkpt lat="43.84512" lon="6.56262">
        <ele>1026</ele>
        <time>2009-05-05T09:06:35Z</time>
      </trkpt>
      <trkpt lat="43.84513" lon="6.56269">
        <ele>1029</ele>
        <time>2009-05-05T09:06:38Z</time>
      </trkpt>
      <trkpt lat="43.84516" lon="6.56281">
        <ele>1034</ele>
        <time>2009-05-05T09:06:44Z</time>
      </trkpt>
      <trkpt lat="43.84517" lon="6.56288">
        <ele>1036</ele>
        <time>2009-05-05T09:06:47Z</time>
      </trkpt>
      <trkpt lat="43.8452" lon="6.56298">
        <ele>1041</ele>
        <time>2009-05-05T09:06:53Z</time>
      </trkpt>
      <trkpt lat="43.84521" lon="6.56311">
        <ele>1047</ele>
        <time>2009-05-05T09:07:05Z</time>
      </trkpt>
      <trkpt lat="43.84521" lon="6.56318">
        <ele>1054</ele>
        <time>2009-05-05T09:07:14Z</time>
      </trkpt>
      <trkpt lat="43.84523" lon="6.56333">
        <ele>1054</ele>
        <time>2009-05-05T09:07:23Z</time>
      </trkpt>
      <trkpt lat="43.84525" lon="6.56345">
        <ele>1056</ele>
        <time>2009-05-05T09:07:35Z</time>
      </trkpt>
      <trkpt lat="43.84527" lon="6.56352">
        <ele>1055</ele>
        <time>2009-05-05T09:07:38Z</time>
      </trkpt>
      <trkpt lat="43.84529" lon="6.56361">
        <ele>1053</ele>
        <time>2009-05-05T09:07:44Z</time>
      </trkpt>
      <trkpt lat="43.84531" lon="6.56369">
        <ele>1053</ele>
        <time>2009-05-05T09:07:50Z</time>
      </trkpt>
      <trkpt lat="43.84535" lon="6.56378">
        <ele>1052</ele>
        <time>2009-05-05T09:07:56Z</time>
      </trkpt>
      <trkpt lat="43.84534" lon="6.56387">
        <ele>1057</ele>
        <time>2009-05-05T09:08:02Z</time>
      </trkpt>
      <trkpt lat="43.84536" lon="6.56396">
        <ele>1056</ele>
        <time>2009-05-05T09:08:08Z</time>
      </trkpt>
      <trkpt lat="43.84537" lon="6.56411">
        <ele>1054</ele>
        <time>2009-05-05T09:08:35Z</time>
      </trkpt>
      <trkpt lat="43.84538" lon="6.56419">
        <ele>1055</ele>
        <time>2009-05-05T09:08:41Z</time>
      </trkpt>
      <trkpt lat="43.8454" lon="6.56427">
        <ele>1059</ele>
        <time>2009-05-05T09:08:50Z</time>
      </trkpt>
      <trkpt lat="43.84542" lon="6.56436">
        <ele>1059</ele>
        <time>2009-05-05T09:08:56Z</time>
      </trkpt>
      <trkpt lat="43.84543" lon="6.56447">
        <ele>1061</ele>
        <time>2009-05-05T09:09:05Z</time>
      </trkpt>
      <trkpt lat="43.84545" lon="6.56456">
        <ele>1063</ele>
        <time>2009-05-05T09:09:14Z</time>
      </trkpt>
      <trkpt lat="43.84548" lon="6.56464">
        <ele>1063</ele>
        <time>2009-05-05T09:09:26Z</time>
      </trkpt>
      <trkpt lat="43.8455" lon="6.56471">
        <ele>1065</ele>
        <time>2009-05-05T09:09:32Z</time>
      </trkpt>
      <trkpt lat="43.84551" lon="6.56477">
        <ele>1058</ele>
        <time>2009-05-05T09:09:38Z</time>
      </trkpt>
      <trkpt lat="43.84552" lon="6.56486">
        <ele>1058</ele>
        <time>2009-05-05T09:09:44Z</time>
      </trkpt>
      <trkpt lat="43.84554" lon="6.56494">
        <ele>1071</ele>
        <time>2009-05-05T09:09:56Z</time>
      </trkpt>
      <trkpt lat="43.84554" lon="6.56502">
        <ele>1069</ele>
        <time>2009-05-05T09:10:05Z</time>
      </trkpt>
      <trkpt lat="43.84555" lon="6.56509">
        <ele>1066</ele>
        <time>2009-05-05T09:10:26Z</time>
      </trkpt>
      <trkpt lat="43.84558" lon="6.56515">
        <ele>1072</ele>
        <time>2009-05-05T09:10:38Z</time>
      </trkpt>
      <trkpt lat="43.84559" lon="6.56522">
        <ele>1069</ele>
        <time>2009-05-05T09:10:50Z</time>
      </trkpt>
      <trkpt lat="43.84559" lon="6.56515">
        <ele>1085</ele>
        <time>2009-05-05T09:11:11Z</time>
      </trkpt>
      <trkpt lat="43.8456" lon="6.56522">
        <ele>1080</ele>
        <time>2009-05-05T09:11:20Z</time>
      </trkpt>
      <trkpt lat="43.84562" lon="6.56529">
        <ele>1077</ele>
        <time>2009-05-05T09:11:29Z</time>
      </trkpt>
      <trkpt lat="43.84565" lon="6.56537">
        <ele>1079</ele>
        <time>2009-05-05T09:11:45Z</time>
      </trkpt>
      <trkpt lat="43.84571" lon="6.56541">
        <ele>1079</ele>
        <time>2009-05-05T09:12:11Z</time>
      </trkpt>
      <trkpt lat="43.84574" lon="6.56547">
        <ele>1076</ele>
        <time>2009-05-05T09:12:44Z</time>
      </trkpt>
      <trkpt lat="43.84582" lon="6.56553">
        <ele>1080</ele>
        <time>2009-05-05T09:13:20Z</time>
      </trkpt>
      <trkpt lat="43.84586" lon="6.5656">
        <ele>1080</ele>
        <time>2009-05-05T09:13:32Z</time>
      </trkpt>
      <trkpt lat="43.84587" lon="6.56567">
        <ele>1080</ele>
        <time>2009-05-05T09:13:35Z</time>
      </trkpt>
      <trkpt lat="43.84589" lon="6.56577">
        <ele>1090</ele>
        <time>2009-05-05T09:13:38Z</time>
      </trkpt>
      <trkpt lat="43.84589" lon="6.56584">
        <ele>1089</ele>
        <time>2009-05-05T09:13:41Z</time>
      </trkpt>
      <trkpt lat="43.84591" lon="6.56596">
        <ele>1089</ele>
        <time>2009-05-05T09:13:47Z</time>
      </trkpt>
      <trkpt lat="43.84593" lon="6.56607">
        <ele>1091</ele>
        <time>2009-05-05T09:13:53Z</time>
      </trkpt>
      <trkpt lat="43.84595" lon="6.56618">
        <ele>1089</ele>
        <time>2009-05-05T09:13:59Z</time>
      </trkpt>
      <trkpt lat="43.84596" lon="6.56628">
        <ele>1091</ele>
        <time>2009-05-05T09:14:05Z</time>
      </trkpt>
      <trkpt lat="43.84596" lon="6.56635">
        <ele>1082</ele>
        <time>2009-05-05T09:14:35Z</time>
      </trkpt>
      <trkpt lat="43.84598" lon="6.56646">
        <ele>1086</ele>
        <time>2009-05-05T09:14:41Z</time>
      </trkpt>
      <trkpt lat="43.846" lon="6.56654">
        <ele>1095</ele>
        <time>2009-05-05T09:14:47Z</time>
      </trkpt>
      <trkpt lat="43.84604" lon="6.56662">
        <ele>1110</ele>
        <time>2009-05-05T09:15:17Z</time>
      </trkpt>
      <trkpt lat="43.84604" lon="6.5667">
        <ele>1106</ele>
        <time>2009-05-05T09:15:23Z</time>
      </trkpt>
      <trkpt lat="43.84606" lon="6.56678">
        <ele>1107</ele>
        <time>2009-05-05T09:15:29Z</time>
      </trkpt>
      <trkpt lat="43.84606" lon="6.56686">
        <ele>1104</ele>
        <time>2009-05-05T09:15:35Z</time>
      </trkpt>
      <trkpt lat="43.84608" lon="6.56694">
        <ele>1104</ele>
        <time>2009-05-05T09:15:44Z</time>
      </trkpt>
      <trkpt lat="43.84608" lon="6.56702">
        <ele>1102</ele>
        <time>2009-05-05T09:15:50Z</time>
      </trkpt>
      <trkpt lat="43.84609" lon="6.5671">
        <ele>1100</ele>
        <time>2009-05-05T09:15:56Z</time>
      </trkpt>
      <trkpt lat="43.84611" lon="6.56722">
        <ele>1098</ele>
        <time>2009-05-05T09:16:02Z</time>
      </trkpt>
      <trkpt lat="43.84613" lon="6.56729">
        <ele>1100</ele>
        <time>2009-05-05T09:16:05Z</time>
      </trkpt>
      <trkpt lat="43.84616" lon="6.56741">
        <ele>1102</ele>
        <time>2009-05-05T09:16:11Z</time>
      </trkpt>
      <trkpt lat="43.84617" lon="6.56748">
        <ele>1103</ele>
        <time>2009-05-05T09:16:14Z</time>
      </trkpt>
      <trkpt lat="43.84619" lon="6.56757">
        <ele>1107</ele>
        <time>2009-05-05T09:16:20Z</time>
      </trkpt>
      <trkpt lat="43.84623" lon="6.56768">
        <ele>1109</ele>
        <time>2009-05-05T09:16:26Z</time>
      </trkpt>
      <trkpt lat="43.84623" lon="6.56778">
        <ele>1110</ele>
        <time>2009-05-05T09:16:32Z</time>
      </trkpt>
      <trkpt lat="43.84624" lon="6.56787">
        <ele>1113</ele>
        <time>2009-05-05T09:16:38Z</time>
      </trkpt>
      <trkpt lat="43.84627" lon="6.56794">
        <ele>1111</ele>
        <time>2009-05-05T09:16:47Z</time>
      </trkpt>
      <trkpt lat="43.84628" lon="6.56804">
        <ele>1103</ele>
        <time>2009-05-05T09:17:11Z</time>
      </trkpt>
      <trkpt lat="43.84628" lon="6.56812">
        <ele>1108</ele>
        <time>2009-05-05T09:17:20Z</time>
      </trkpt>
      <trkpt lat="43.84632" lon="6.56822">
        <ele>1112</ele>
        <time>2009-05-05T09:17:32Z</time>
      </trkpt>
      <trkpt lat="43.84636" lon="6.5683">
        <ele>1118</ele>
        <time>2009-05-05T09:17:41Z</time>
      </trkpt>
      <trkpt lat="43.84635" lon="6.56842">
        <ele>1116</ele>
        <time>2009-05-05T09:17:50Z</time>
      </trkpt>
      <trkpt lat="43.84634" lon="6.56849">
        <ele>1117</ele>
        <time>2009-05-05T09:17:56Z</time>
      </trkpt>
      <trkpt lat="43.84636" lon="6.56856">
        <ele>1118</ele>
        <time>2009-05-05T09:18:02Z</time>
      </trkpt>
      <trkpt lat="43.84637" lon="6.56864">
        <ele>1119</ele>
        <time>2009-05-05T09:18:11Z</time>
      </trkpt>
      <trkpt lat="43.8464" lon="6.56871">
        <ele>1118</ele>
        <time>2009-05-05T09:18:17Z</time>
      </trkpt>
      <trkpt lat="43.84635" lon="6.56876">
        <ele>1117</ele>
        <time>2009-05-05T09:18:47Z</time>
      </trkpt>
      <trkpt lat="43.84639" lon="6.56883">
        <ele>1120</ele>
        <time>2009-05-05T09:18:59Z</time>
      </trkpt>
      <trkpt lat="43.84641" lon="6.56892">
        <ele>1124</ele>
        <time>2009-05-05T09:19:05Z</time>
      </trkpt>
      <trkpt lat="43.84642" lon="6.56902">
        <ele>1124</ele>
        <time>2009-05-05T09:19:11Z</time>
      </trkpt>
      <trkpt lat="43.84643" lon="6.56911">
        <ele>1126</ele>
        <time>2009-05-05T09:19:17Z</time>
      </trkpt>
      <trkpt lat="43.84644" lon="6.56921">
        <ele>1126</ele>
        <time>2009-05-05T09:19:23Z</time>
      </trkpt>
      <trkpt lat="43.84644" lon="6.56929">
        <ele>1125</ele>
        <time>2009-05-05T09:19:29Z</time>
      </trkpt>
      <trkpt lat="43.84644" lon="6.56938">
        <ele>1129</ele>
        <time>2009-05-05T09:19:35Z</time>
      </trkpt>
      <trkpt lat="43.84645" lon="6.56947">
        <ele>1129</ele>
        <time>2009-05-05T09:19:41Z</time>
      </trkpt>
      <trkpt lat="43.84647" lon="6.56957">
        <ele>1131</ele>
        <time>2009-05-05T09:19:47Z</time>
      </trkpt>
      <trkpt lat="43.8465" lon="6.56967">
        <ele>1133</ele>
        <time>2009-05-05T09:19:56Z</time>
      </trkpt>
      <trkpt lat="43.8465" lon="6.56974">
        <ele>1133</ele>
        <time>2009-05-05T09:20:02Z</time>
      </trkpt>
      <trkpt lat="43.84652" lon="6.56982">
        <ele>1135</ele>
        <time>2009-05-05T09:20:56Z</time>
      </trkpt>
      <trkpt lat="43.84655" lon="6.56991">
        <ele>1138</ele>
        <time>2009-05-05T09:21:05Z</time>
      </trkpt>
      <trkpt lat="43.84657" lon="6.56999">
        <ele>1138</ele>
        <time>2009-05-05T09:21:11Z</time>
      </trkpt>
      <trkpt lat="43.84656" lon="6.57011">
        <ele>1140</ele>
        <time>2009-05-05T09:21:17Z</time>
      </trkpt>
      <trkpt lat="43.84656" lon="6.5702">
        <ele>1143</ele>
        <time>2009-05-05T09:21:23Z</time>
      </trkpt>
      <trkpt lat="43.84657" lon="6.57029">
        <ele>1148</ele>
        <time>2009-05-05T09:21:32Z</time>
      </trkpt>
      <trkpt lat="43.84658" lon="6.57037">
        <ele>1151</ele>
        <time>2009-05-05T09:21:39Z</time>
      </trkpt>
      <trkpt lat="43.84659" lon="6.57044">
        <ele>1151</ele>
        <time>2009-05-05T09:21:45Z</time>
      </trkpt>
      <trkpt lat="43.8466" lon="6.57054">
        <ele>1151</ele>
        <time>2009-05-05T09:21:51Z</time>
      </trkpt>
      <trkpt lat="43.8466" lon="6.57061">
        <ele>1150</ele>
        <time>2009-05-05T09:21:57Z</time>
      </trkpt>
      <trkpt lat="43.84662" lon="6.57069">
        <ele>1151</ele>
        <time>2009-05-05T09:22:03Z</time>
      </trkpt>
      <trkpt lat="43.84662" lon="6.5708">
        <ele>1152</ele>
        <time>2009-05-05T09:22:12Z</time>
      </trkpt>
      <trkpt lat="43.84662" lon="6.5709">
        <ele>1148</ele>
        <time>2009-05-05T09:22:18Z</time>
      </trkpt>
      <trkpt lat="43.84661" lon="6.57098">
        <ele>1149</ele>
        <time>2009-05-05T09:22:24Z</time>
      </trkpt>
      <trkpt lat="43.84659" lon="6.57105">
        <ele>1148</ele>
        <time>2009-05-05T09:22:30Z</time>
      </trkpt>
      <trkpt lat="43.84657" lon="6.57115">
        <ele>1155</ele>
        <time>2009-05-05T09:22:42Z</time>
      </trkpt>
      <trkpt lat="43.84655" lon="6.57123">
        <ele>1159</ele>
        <time>2009-05-05T09:22:51Z</time>
      </trkpt>
      <trkpt lat="43.84652" lon="6.5713">
        <ele>1159</ele>
        <time>2009-05-05T09:23:00Z</time>
      </trkpt>
      <trkpt lat="43.84648" lon="6.57138">
        <ele>1159</ele>
        <time>2009-05-05T09:23:09Z</time>
      </trkpt>
      <trkpt lat="43.84645" lon="6.57146">
        <ele>1160</ele>
        <time>2009-05-05T09:23:18Z</time>
      </trkpt>
      <trkpt lat="43.84643" lon="6.57146">
        <ele>1173</ele>
      </trkpt>
      <trkpt lat="43.84625" lon="6.57189">
        <ele>1186</ele>
      </trkpt>
      <trkpt lat="43.84621" lon="6.57196">
        <ele>1179</ele>
        <time>2009-05-05T09:27:12Z</time>
      </trkpt>
      <trkpt lat="43.84622" lon="6.57203">
        <ele>1180</ele>
        <time>2009-05-05T09:27:21Z</time>
      </trkpt>
      <trkpt lat="43.84624" lon="6.57213">
        <ele>1177</ele>
        <time>2009-05-05T09:27:27Z</time>
      </trkpt>
      <trkpt lat="43.84625" lon="6.57222">
        <ele>1173</ele>
        <time>2009-05-05T09:27:36Z</time>
      </trkpt>
      <trkpt lat="43.84625" lon="6.57232">
        <ele>1173</ele>
        <time>2009-05-05T09:27:42Z</time>
      </trkpt>
      <trkpt lat="43.84624" lon="6.57241">
        <ele>1177</ele>
        <time>2009-05-05T09:27:48Z</time>
      </trkpt>
      <trkpt lat="43.84628" lon="6.5725">
        <ele>1179</ele>
        <time>2009-05-05T09:27:57Z</time>
      </trkpt>
      <trkpt lat="43.84629" lon="6.57258">
        <ele>1181</ele>
        <time>2009-05-05T09:28:06Z</time>
      </trkpt>
      <trkpt lat="43.8463" lon="6.57265">
        <ele>1184</ele>
        <time>2009-05-05T09:28:12Z</time>
      </trkpt>
      <trkpt lat="43.84631" lon="6.57273">
        <ele>1184</ele>
        <time>2009-05-05T09:28:18Z</time>
      </trkpt>
      <trkpt lat="43.84632" lon="6.57281">
        <ele>1188</ele>
        <time>2009-05-05T09:28:24Z</time>
      </trkpt>
      <trkpt lat="43.84633" lon="6.57288">
        <ele>1194</ele>
        <time>2009-05-05T09:28:33Z</time>
      </trkpt>
      <trkpt lat="43.84633" lon="6.57296">
        <ele>1195</ele>
        <time>2009-05-05T09:28:45Z</time>
      </trkpt>
      <trkpt lat="43.84634" lon="6.57304">
        <ele>1189</ele>
        <time>2009-05-05T09:28:54Z</time>
      </trkpt>
      <trkpt lat="43.84635" lon="6.57311">
        <ele>1189</ele>
        <time>2009-05-05T09:29:06Z</time>
      </trkpt>
      <trkpt lat="43.8464" lon="6.5732">
        <ele>1191</ele>
        <time>2009-05-05T09:29:18Z</time>
      </trkpt>
      <trkpt lat="43.84643" lon="6.57327">
        <ele>1190</ele>
        <time>2009-05-05T09:29:24Z</time>
      </trkpt>
      <trkpt lat="43.84645" lon="6.57338">
        <ele>1191</ele>
        <time>2009-05-05T09:29:30Z</time>
      </trkpt>
      <trkpt lat="43.84651" lon="6.57346">
        <ele>1197</ele>
        <time>2009-05-05T09:29:39Z</time>
      </trkpt>
      <trkpt lat="43.84652" lon="6.57353">
        <ele>1202</ele>
        <time>2009-05-05T09:29:45Z</time>
      </trkpt>
      <trkpt lat="43.84657" lon="6.57364">
        <ele>1205</ele>
        <time>2009-05-05T09:29:54Z</time>
      </trkpt>
      <trkpt lat="43.84664" lon="6.57375">
        <ele>1204</ele>
        <time>2009-05-05T09:30:00Z</time>
      </trkpt>
      <trkpt lat="43.84666" lon="6.57383">
        <ele>1203</ele>
        <time>2009-05-05T09:30:03Z</time>
      </trkpt>
      <trkpt lat="43.84668" lon="6.5739">
        <ele>1204</ele>
        <time>2009-05-05T09:30:06Z</time>
      </trkpt>
      <trkpt lat="43.84675" lon="6.57403">
        <ele>1204</ele>
        <time>2009-05-05T09:30:12Z</time>
      </trkpt>
      <trkpt lat="43.8468" lon="6.57414">
        <ele>1205</ele>
        <time>2009-05-05T09:30:18Z</time>
      </trkpt>
      <trkpt lat="43.8468" lon="6.57421">
        <ele>1205</ele>
        <time>2009-05-05T09:30:24Z</time>
      </trkpt>
      <trkpt lat="43.84681" lon="6.5743">
        <ele>1205</ele>
        <time>2009-05-05T09:30:30Z</time>
      </trkpt>
      <trkpt lat="43.84682" lon="6.57438">
        <ele>1202</ele>
        <time>2009-05-05T09:30:36Z</time>
      </trkpt>
      <trkpt lat="43.84685" lon="6.57447">
        <ele>1209</ele>
        <time>2009-05-05T09:30:42Z</time>
      </trkpt>
      <trkpt lat="43.84686" lon="6.57455">
        <ele>1211</ele>
        <time>2009-05-05T09:30:48Z</time>
      </trkpt>
      <trkpt lat="43.84688" lon="6.57464">
        <ele>1201</ele>
        <time>2009-05-05T09:30:54Z</time>
      </trkpt>
      <trkpt lat="43.84689" lon="6.57475">
        <ele>1208</ele>
        <time>2009-05-05T09:31:03Z</time>
      </trkpt>
      <trkpt lat="43.84693" lon="6.57484">
        <ele>1215</ele>
        <time>2009-05-05T09:31:15Z</time>
      </trkpt>
      <trkpt lat="43.84695" lon="6.57494">
        <ele>1215</ele>
        <time>2009-05-05T09:31:24Z</time>
      </trkpt>
      <trkpt lat="43.847" lon="6.57504">
        <ele>1215</ele>
        <time>2009-05-05T09:31:33Z</time>
      </trkpt>
      <trkpt lat="43.84702" lon="6.57513">
        <ele>1215</ele>
        <time>2009-05-05T09:31:39Z</time>
      </trkpt>
      <trkpt lat="43.84704" lon="6.5752">
        <ele>1213</ele>
        <time>2009-05-05T09:31:45Z</time>
      </trkpt>
      <trkpt lat="43.84705" lon="6.57527">
        <ele>1215</ele>
        <time>2009-05-05T09:31:51Z</time>
      </trkpt>
      <trkpt lat="43.84705" lon="6.57535">
        <ele>1216</ele>
        <time>2009-05-05T09:31:57Z</time>
      </trkpt>
      <trkpt lat="43.84707" lon="6.57542">
        <ele>1218</ele>
        <time>2009-05-05T09:32:06Z</time>
      </trkpt>
      <trkpt lat="43.8471" lon="6.57551">
        <ele>1221</ele>
        <time>2009-05-05T09:32:12Z</time>
      </trkpt>
      <trkpt lat="43.84713" lon="6.5756">
        <ele>1228</ele>
        <time>2009-05-05T09:32:21Z</time>
      </trkpt>
      <trkpt lat="43.84714" lon="6.57569">
        <ele>1228</ele>
        <time>2009-05-05T09:32:27Z</time>
      </trkpt>
      <trkpt lat="43.84716" lon="6.57576">
        <ele>1228</ele>
        <time>2009-05-05T09:32:33Z</time>
      </trkpt>
      <trkpt lat="43.84716" lon="6.57584">
        <ele>1228</ele>
        <time>2009-05-05T09:32:39Z</time>
      </trkpt>
      <trkpt lat="43.84718" lon="6.57591">
        <ele>1227</ele>
        <time>2009-05-05T09:32:45Z</time>
      </trkpt>
      <trkpt lat="43.84723" lon="6.57599">
        <ele>1231</ele>
        <time>2009-05-05T09:32:54Z</time>
      </trkpt>
      <trkpt lat="43.84724" lon="6.57609">
        <ele>1231</ele>
        <time>2009-05-05T09:33:00Z</time>
      </trkpt>
      <trkpt lat="43.84727" lon="6.57616">
        <ele>1230</ele>
        <time>2009-05-05T09:33:06Z</time>
      </trkpt>
      <trkpt lat="43.84727" lon="6.57623">
        <ele>1233</ele>
        <time>2009-05-05T09:33:12Z</time>
      </trkpt>
      <trkpt lat="43.84729" lon="6.57632">
        <ele>1234</ele>
        <time>2009-05-05T09:33:18Z</time>
      </trkpt>
      <trkpt lat="43.84729" lon="6.57642">
        <ele>1234</ele>
        <time>2009-05-05T09:33:27Z</time>
      </trkpt>
      <trkpt lat="43.84731" lon="6.5765">
        <ele>1238</ele>
        <time>2009-05-05T09:33:36Z</time>
      </trkpt>
      <trkpt lat="43.84733" lon="6.57659">
        <ele>1243</ele>
        <time>2009-05-05T09:33:45Z</time>
      </trkpt>
      <trkpt lat="43.84736" lon="6.57665">
        <ele>1240</ele>
        <time>2009-05-05T09:33:51Z</time>
      </trkpt>
      <trkpt lat="43.84741" lon="6.5767">
        <ele>1240</ele>
        <time>2009-05-05T09:34:00Z</time>
      </trkpt>
      <trkpt lat="43.84741" lon="6.57678">
        <ele>1235</ele>
        <time>2009-05-05T09:34:15Z</time>
      </trkpt>
      <trkpt lat="43.84742" lon="6.57685">
        <ele>1235</ele>
        <time>2009-05-05T09:34:27Z</time>
      </trkpt>
      <trkpt lat="43.84736" lon="6.57691">
        <ele>1238</ele>
        <time>2009-05-05T09:34:33Z</time>
      </trkpt>
      <trkpt lat="43.8473" lon="6.57697">
        <ele>1241</ele>
        <time>2009-05-05T09:34:42Z</time>
      </trkpt>
      <trkpt lat="43.84726" lon="6.57703">
        <ele>1243</ele>
        <time>2009-05-05T09:34:54Z</time>
      </trkpt>
      <trkpt lat="43.84731" lon="6.5771">
        <ele>1238</ele>
        <time>2009-05-05T09:35:42Z</time>
      </trkpt>
      <trkpt lat="43.84737" lon="6.57717">
        <ele>1241</ele>
        <time>2009-05-05T09:35:48Z</time>
      </trkpt>
      <trkpt lat="43.84742" lon="6.57725">
        <ele>1242</ele>
        <time>2009-05-05T09:35:54Z</time>
      </trkpt>
      <trkpt lat="43.84747" lon="6.57732">
        <ele>1247</ele>
        <time>2009-05-05T09:36:03Z</time>
      </trkpt>
      <trkpt lat="43.84756" lon="6.57741">
        <ele>1247</ele>
        <time>2009-05-05T09:36:09Z</time>
      </trkpt>
      <trkpt lat="43.84763" lon="6.57749">
        <ele>1247</ele>
        <time>2009-05-05T09:36:15Z</time>
      </trkpt>
      <trkpt lat="43.84768" lon="6.57754">
        <ele>1247</ele>
        <time>2009-05-05T09:36:21Z</time>
      </trkpt>
      <trkpt lat="43.84775" lon="6.57762">
        <ele>1247</ele>
        <time>2009-05-05T09:36:27Z</time>
      </trkpt>
      <trkpt lat="43.8478" lon="6.57771">
        <ele>1247</ele>
        <time>2009-05-05T09:36:33Z</time>
      </trkpt>
      <trkpt lat="43.84783" lon="6.57778">
        <ele>1247</ele>
        <time>2009-05-05T09:36:39Z</time>
      </trkpt>
      <trkpt lat="43.84788" lon="6.57788">
        <ele>1276</ele>
        <time>2009-05-05T09:36:45Z</time>
      </trkpt>
      <trkpt lat="43.84793" lon="6.57795">
        <ele>1276</ele>
        <time>2009-05-05T09:36:51Z</time>
      </trkpt>
      <trkpt lat="43.848" lon="6.57805">
        <ele>1273</ele>
        <time>2009-05-05T09:36:57Z</time>
      </trkpt>
      <trkpt lat="43.84805" lon="6.57815">
        <ele>1276</ele>
        <time>2009-05-05T09:37:03Z</time>
      </trkpt>
      <trkpt lat="43.84811" lon="6.57824">
        <ele>1276</ele>
        <time>2009-05-05T09:37:09Z</time>
      </trkpt>
      <trkpt lat="43.84818" lon="6.57834">
        <ele>1280</ele>
        <time>2009-05-05T09:37:15Z</time>
      </trkpt>
      <trkpt lat="43.84825" lon="6.57842">
        <ele>1281</ele>
        <time>2009-05-05T09:37:21Z</time>
      </trkpt>
      <trkpt lat="43.84832" lon="6.57851">
        <ele>1282</ele>
        <time>2009-05-05T09:37:27Z</time>
      </trkpt>
      <trkpt lat="43.84839" lon="6.57862">
        <ele>1281</ele>
        <time>2009-05-05T09:37:33Z</time>
      </trkpt>
      <trkpt lat="43.84845" lon="6.57871">
        <ele>1283</ele>
        <time>2009-05-05T09:37:39Z</time>
      </trkpt>
      <trkpt lat="43.84851" lon="6.57879">
        <ele>1283</ele>
        <time>2009-05-05T09:37:45Z</time>
      </trkpt>
      <trkpt lat="43.84857" lon="6.57889">
        <ele>1283</ele>
        <time>2009-05-05T09:37:51Z</time>
      </trkpt>
      <trkpt lat="43.84863" lon="6.57898">
        <ele>1286</ele>
        <time>2009-05-05T09:37:57Z</time>
      </trkpt>
      <trkpt lat="43.8487" lon="6.57905">
        <ele>1291</ele>
        <time>2009-05-05T09:38:03Z</time>
      </trkpt>
      <trkpt lat="43.84877" lon="6.57915">
        <ele>1289</ele>
        <time>2009-05-05T09:38:09Z</time>
      </trkpt>
      <trkpt lat="43.84884" lon="6.57924">
        <ele>1289</ele>
        <time>2009-05-05T09:38:15Z</time>
      </trkpt>
      <trkpt lat="43.84891" lon="6.57935">
        <ele>1288</ele>
        <time>2009-05-05T09:38:21Z</time>
      </trkpt>
      <trkpt lat="43.84898" lon="6.57944">
        <ele>1291</ele>
        <time>2009-05-05T09:38:27Z</time>
      </trkpt>
      <trkpt lat="43.84905" lon="6.57955">
        <ele>1287</ele>
        <time>2009-05-05T09:38:33Z</time>
      </trkpt>
      <trkpt lat="43.8491" lon="6.5796">
        <ele>1285</ele>
        <time>2009-05-05T09:38:36Z</time>
      </trkpt>
      <trkpt lat="43.84919" lon="6.5797">
        <ele>1285</ele>
        <time>2009-05-05T09:38:42Z</time>
      </trkpt>
      <trkpt lat="43.84924" lon="6.57975">
        <ele>1284</ele>
        <time>2009-05-05T09:38:45Z</time>
      </trkpt>
      <trkpt lat="43.84929" lon="6.5798">
        <ele>1283</ele>
        <time>2009-05-05T09:38:48Z</time>
      </trkpt>
      <trkpt lat="43.84938" lon="6.57981">
        <ele>1284</ele>
        <time>2009-05-05T09:38:51Z</time>
      </trkpt>
      <trkpt lat="43.84945" lon="6.57985">
        <ele>1284</ele>
        <time>2009-05-05T09:38:54Z</time>
      </trkpt>
      <trkpt lat="43.84951" lon="6.57993">
        <ele>1282</ele>
        <time>2009-05-05T09:38:57Z</time>
      </trkpt>
      <trkpt lat="43.84955" lon="6.57998">
        <ele>1275</ele>
        <time>2009-05-05T09:39:24Z</time>
      </trkpt>
      <trkpt lat="43.84962" lon="6.58014">
        <ele>1273</ele>
        <time>2009-05-05T09:39:33Z</time>
      </trkpt>
      <trkpt lat="43.84966" lon="6.58028">
        <ele>1274</ele>
        <time>2009-05-05T09:39:36Z</time>
      </trkpt>
      <trkpt lat="43.84969" lon="6.58039">
        <ele>1276</ele>
        <time>2009-05-05T09:39:39Z</time>
      </trkpt>
      <trkpt lat="43.84972" lon="6.5805">
        <ele>1276</ele>
        <time>2009-05-05T09:39:42Z</time>
      </trkpt>
      <trkpt lat="43.84978" lon="6.58061">
        <ele>1276</ele>
        <time>2009-05-05T09:39:45Z</time>
      </trkpt>
      <trkpt lat="43.84984" lon="6.58072">
        <ele>1278</ele>
        <time>2009-05-05T09:39:48Z</time>
      </trkpt>
      <trkpt lat="43.84991" lon="6.58085">
        <ele>1279</ele>
        <time>2009-05-05T09:39:51Z</time>
      </trkpt>
      <trkpt lat="43.84998" lon="6.58098">
        <ele>1279</ele>
        <time>2009-05-05T09:39:54Z</time>
      </trkpt>
      <trkpt lat="43.85006" lon="6.58114">
        <ele>1280</ele>
        <time>2009-05-05T09:39:57Z</time>
      </trkpt>
      <trkpt lat="43.85015" lon="6.58128">
        <ele>1280</ele>
        <time>2009-05-05T09:40:00Z</time>
      </trkpt>
      <trkpt lat="43.85023" lon="6.58145">
        <ele>1278</ele>
        <time>2009-05-05T09:40:03Z</time>
      </trkpt>
      <trkpt lat="43.85033" lon="6.58164">
        <ele>1280</ele>
        <time>2009-05-05T09:40:06Z</time>
      </trkpt>
      <trkpt lat="43.85041" lon="6.58182">
        <ele>1279</ele>
        <time>2009-05-05T09:40:09Z</time>
      </trkpt>
      <trkpt lat="43.85046" lon="6.58197">
        <ele>1278</ele>
        <time>2009-05-05T09:40:12Z</time>
      </trkpt>
      <trkpt lat="43.85053" lon="6.58209">
        <ele>1280</ele>
        <time>2009-05-05T09:40:15Z</time>
      </trkpt>
      <trkpt lat="43.8506" lon="6.58221">
        <ele>1282</ele>
        <time>2009-05-05T09:40:18Z</time>
      </trkpt>
      <trkpt lat="43.85065" lon="6.58231">
        <ele>1284</ele>
        <time>2009-05-05T09:40:21Z</time>
      </trkpt>
      <trkpt lat="43.8507" lon="6.58241">
        <ele>1285</ele>
        <time>2009-05-05T09:40:24Z</time>
      </trkpt>
      <trkpt lat="43.85074" lon="6.5825">
        <ele>1286</ele>
        <time>2009-05-05T09:40:27Z</time>
      </trkpt>
      <trkpt lat="43.85079" lon="6.58259">
        <ele>1287</ele>
        <time>2009-05-05T09:40:30Z</time>
      </trkpt>
      <trkpt lat="43.85085" lon="6.58268">
        <ele>1288</ele>
        <time>2009-05-05T09:40:33Z</time>
      </trkpt>
      <trkpt lat="43.85092" lon="6.58279">
        <ele>1288</ele>
        <time>2009-05-05T09:40:36Z</time>
      </trkpt>
      <trkpt lat="43.85098" lon="6.58289">
        <ele>1290</ele>
        <time>2009-05-05T09:40:39Z</time>
      </trkpt>
      <trkpt lat="43.85105" lon="6.58298">
        <ele>1290</ele>
        <time>2009-05-05T09:40:42Z</time>
      </trkpt>
      <trkpt lat="43.85112" lon="6.58311">
        <ele>1289</ele>
        <time>2009-05-05T09:40:45Z</time>
      </trkpt>
      <trkpt lat="43.85119" lon="6.58326">
        <ele>1287</ele>
        <time>2009-05-05T09:40:48Z</time>
      </trkpt>
      <trkpt lat="43.85127" lon="6.58341">
        <ele>1285</ele>
        <time>2009-05-05T09:40:51Z</time>
      </trkpt>
      <trkpt lat="43.85134" lon="6.58357">
        <ele>1285</ele>
        <time>2009-05-05T09:40:54Z</time>
      </trkpt>
      <trkpt lat="43.85141" lon="6.58372">
        <ele>1282</ele>
        <time>2009-05-05T09:40:57Z</time>
      </trkpt>
      <trkpt lat="43.8515" lon="6.58393">
        <ele>1281</ele>
        <time>2009-05-05T09:41:00Z</time>
      </trkpt>
      <trkpt lat="43.85157" lon="6.58418">
        <ele>1277</ele>
        <time>2009-05-05T09:41:03Z</time>
      </trkpt>
      <trkpt lat="43.85163" lon="6.58445">
        <ele>1270</ele>
        <time>2009-05-05T09:41:06Z</time>
      </trkpt>
      <trkpt lat="43.85166" lon="6.58468">
        <ele>1265</ele>
        <time>2009-05-05T09:41:10Z</time>
      </trkpt>
      <trkpt lat="43.8517" lon="6.5849">
        <ele>1263</ele>
        <time>2009-05-05T09:41:12Z</time>
      </trkpt>
      <trkpt lat="43.85176" lon="6.58512">
        <ele>1260</ele>
        <time>2009-05-05T09:41:15Z</time>
      </trkpt>
      <trkpt lat="43.85184" lon="6.58537">
        <ele>1258</ele>
        <time>2009-05-05T09:41:18Z</time>
      </trkpt>
      <trkpt lat="43.85192" lon="6.58564">
        <ele>1257</ele>
        <time>2009-05-05T09:41:21Z</time>
      </trkpt>
      <trkpt lat="43.85204" lon="6.58585">
        <ele>1257</ele>
        <time>2009-05-05T09:41:24Z</time>
      </trkpt>
      <trkpt lat="43.85216" lon="6.58606">
        <ele>1258</ele>
        <time>2009-05-05T09:41:27Z</time>
      </trkpt>
      <trkpt lat="43.85222" lon="6.58635">
        <ele>1255</ele>
        <time>2009-05-05T09:41:30Z</time>
      </trkpt>
      <trkpt lat="43.85231" lon="6.58656">
        <ele>1257</ele>
        <time>2009-05-05T09:41:33Z</time>
      </trkpt>
      <trkpt lat="43.85241" lon="6.58671">
        <ele>1259</ele>
        <time>2009-05-05T09:41:36Z</time>
      </trkpt>
      <trkpt lat="43.8525" lon="6.58686">
        <ele>1260</ele>
        <time>2009-05-05T09:41:39Z</time>
      </trkpt>
      <trkpt lat="43.85265" lon="6.5872">
        <ele>1263</ele>
        <time>2009-05-05T09:41:46Z</time>
      </trkpt>
      <trkpt lat="43.85273" lon="6.5873">
        <ele>1263</ele>
        <time>2009-05-05T09:41:47Z</time>
      </trkpt>
      <trkpt lat="43.85288" lon="6.58748">
        <ele>1259</ele>
        <time>2009-05-05T09:41:52Z</time>
      </trkpt>
      <trkpt lat="43.85291" lon="6.58764">
        <ele>1258</ele>
        <time>2009-05-05T09:41:55Z</time>
      </trkpt>
      <trkpt lat="43.85297" lon="6.58776">
        <ele>1260</ele>
        <time>2009-05-05T09:41:58Z</time>
      </trkpt>
      <trkpt lat="43.85306" lon="6.58787">
        <ele>1264</ele>
        <time>2009-05-05T09:42:01Z</time>
      </trkpt>
      <trkpt lat="43.85316" lon="6.58797">
        <ele>1265</ele>
        <time>2009-05-05T09:42:04Z</time>
      </trkpt>
      <trkpt lat="43.85328" lon="6.5881">
        <ele>1271</ele>
        <time>2009-05-05T09:42:07Z</time>
      </trkpt>
      <trkpt lat="43.8534" lon="6.5882">
        <ele>1275</ele>
        <time>2009-05-05T09:42:10Z</time>
      </trkpt>
      <trkpt lat="43.8534" lon="6.58828">
        <ele>1274</ele>
        <time>2009-05-05T09:42:28Z</time>
      </trkpt>
      <trkpt lat="43.85339" lon="6.58836">
        <ele>1267</ele>
        <time>2009-05-05T09:42:37Z</time>
      </trkpt>
      <trkpt lat="43.85343" lon="6.58843">
        <ele>1261</ele>
        <time>2009-05-05T09:42:52Z</time>
      </trkpt>
      <trkpt lat="43.85354" lon="6.58851">
        <ele>1263</ele>
        <time>2009-05-05T09:42:55Z</time>
      </trkpt>
      <trkpt lat="43.85366" lon="6.58864">
        <ele>1262</ele>
        <time>2009-05-05T09:42:58Z</time>
      </trkpt>
      <trkpt lat="43.85376" lon="6.58882">
        <ele>1260</ele>
        <time>2009-05-05T09:43:01Z</time>
      </trkpt>
      <trkpt lat="43.85382" lon="6.58907">
        <ele>1260</ele>
        <time>2009-05-05T09:43:04Z</time>
      </trkpt>
      <trkpt lat="43.85386" lon="6.58932">
        <ele>1260</ele>
        <time>2009-05-05T09:43:07Z</time>
      </trkpt>
      <trkpt lat="43.85395" lon="6.58952">
        <ele>1260</ele>
        <time>2009-05-05T09:43:10Z</time>
      </trkpt>
      <trkpt lat="43.85408" lon="6.58967">
        <ele>1260</ele>
        <time>2009-05-05T09:43:13Z</time>
      </trkpt>
      <trkpt lat="43.85422" lon="6.58978">
        <ele>1260</ele>
        <time>2009-05-05T09:43:16Z</time>
      </trkpt>
      <trkpt lat="43.85438" lon="6.58988">
        <ele>1260</ele>
        <time>2009-05-05T09:43:19Z</time>
      </trkpt>
      <trkpt lat="43.85447" lon="6.58979">
        <ele>1260</ele>
        <time>2009-05-05T09:43:22Z</time>
      </trkpt>
      <trkpt lat="43.85445" lon="6.58958">
        <ele>1260</ele>
        <time>2009-05-05T09:43:25Z</time>
      </trkpt>
      <trkpt lat="43.85441" lon="6.58933">
        <ele>1260</ele>
        <time>2009-05-05T09:43:28Z</time>
      </trkpt>
      <trkpt lat="43.85434" lon="6.58902">
        <ele>1260</ele>
        <time>2009-05-05T09:43:31Z</time>
      </trkpt>
      <trkpt lat="43.85425" lon="6.58884">
        <ele>1260</ele>
        <time>2009-05-05T09:43:34Z</time>
      </trkpt>
      <trkpt lat="43.85436" lon="6.58873">
        <ele>1241</ele>
        <time>2009-05-05T09:43:37Z</time>
      </trkpt>
      <trkpt lat="43.8545" lon="6.58878">
        <ele>1245</ele>
        <time>2009-05-05T09:43:40Z</time>
      </trkpt>
      <trkpt lat="43.85468" lon="6.58882">
        <ele>1249</ele>
        <time>2009-05-05T09:43:43Z</time>
      </trkpt>
      <trkpt lat="43.85482" lon="6.58894">
        <ele>1251</ele>
        <time>2009-05-05T09:43:46Z</time>
      </trkpt>
      <trkpt lat="43.8549" lon="6.58912">
        <ele>1250</ele>
        <time>2009-05-05T09:43:49Z</time>
      </trkpt>
      <trkpt lat="43.85494" lon="6.58933">
        <ele>1246</ele>
        <time>2009-05-05T09:43:52Z</time>
      </trkpt>
      <trkpt lat="43.85489" lon="6.58955">
        <ele>1238</ele>
        <time>2009-05-05T09:43:55Z</time>
      </trkpt>
      <trkpt lat="43.85481" lon="6.58971">
        <ele>1236</ele>
        <time>2009-05-05T09:43:58Z</time>
      </trkpt>
      <trkpt lat="43.8548" lon="6.58979">
        <ele>1236</ele>
        <time>2009-05-05T09:44:01Z</time>
      </trkpt>
      <trkpt lat="43.85473" lon="6.58983">
        <ele>1232</ele>
        <time>2009-05-05T09:45:02Z</time>
      </trkpt>
      <trkpt lat="43.85479" lon="6.58988">
        <ele>1233</ele>
        <time>2009-05-05T09:45:08Z</time>
      </trkpt>
      <trkpt lat="43.85483" lon="6.58995">
        <ele>1238</ele>
        <time>2009-05-05T09:45:14Z</time>
      </trkpt>
      <trkpt lat="43.85487" lon="6.59008">
        <ele>1241</ele>
        <time>2009-05-05T09:46:40Z</time>
      </trkpt>
      <trkpt lat="43.85482" lon="6.59014">
        <ele>1239</ele>
        <time>2009-05-05T09:46:46Z</time>
      </trkpt>
      <trkpt lat="43.85478" lon="6.59022">
        <ele>1240</ele>
        <time>2009-05-05T09:46:55Z</time>
      </trkpt>
      <trkpt lat="43.85475" lon="6.59029">
        <ele>1240</ele>
        <time>2009-05-05T09:46:58Z</time>
      </trkpt>
      <trkpt lat="43.85472" lon="6.59036">
        <ele>1239</ele>
        <time>2009-05-05T09:47:01Z</time>
      </trkpt>
      <trkpt lat="43.8547" lon="6.59047">
        <ele>1237</ele>
        <time>2009-05-05T09:47:07Z</time>
      </trkpt>
      <trkpt lat="43.85471" lon="6.59057">
        <ele>1238</ele>
        <time>2009-05-05T09:47:13Z</time>
      </trkpt>
      <trkpt lat="43.8548" lon="6.59058">
        <ele>1246</ele>
        <time>2009-05-05T09:47:22Z</time>
      </trkpt>
      <trkpt lat="43.85488" lon="6.59058">
        <ele>1255</ele>
        <time>2009-05-05T09:47:31Z</time>
      </trkpt>
      <trkpt lat="43.85496" lon="6.59059">
        <ele>1259</ele>
        <time>2009-05-05T09:47:40Z</time>
      </trkpt>
      <trkpt lat="43.85509" lon="6.59062">
        <ele>1257</ele>
        <time>2009-05-05T09:47:52Z</time>
      </trkpt>
      <trkpt lat="43.85521" lon="6.59067">
        <ele>1255</ele>
        <time>2009-05-05T09:47:58Z</time>
      </trkpt>
      <trkpt lat="43.85531" lon="6.59066">
        <ele>1257</ele>
        <time>2009-05-05T09:48:04Z</time>
      </trkpt>
      <trkpt lat="43.85539" lon="6.59061">
        <ele>1257</ele>
        <time>2009-05-05T09:48:10Z</time>
      </trkpt>
      <trkpt lat="43.85546" lon="6.59055">
        <ele>1257</ele>
        <time>2009-05-05T09:48:16Z</time>
      </trkpt>
      <trkpt lat="43.85554" lon="6.59046">
        <ele>1257</ele>
        <time>2009-05-05T09:48:22Z</time>
      </trkpt>
      <trkpt lat="43.85562" lon="6.59039">
        <ele>1257</ele>
        <time>2009-05-05T09:48:28Z</time>
      </trkpt>
      <trkpt lat="43.85571" lon="6.59032">
        <ele>1257</ele>
        <time>2009-05-05T09:48:34Z</time>
      </trkpt>
      <trkpt lat="43.85584" lon="6.5903">
        <ele>1275</ele>
        <time>2009-05-05T09:48:40Z</time>
      </trkpt>
      <trkpt lat="43.85595" lon="6.5903">
        <ele>1275</ele>
        <time>2009-05-05T09:48:46Z</time>
      </trkpt>
      <trkpt lat="43.85602" lon="6.59028">
        <ele>1273</ele>
        <time>2009-05-05T09:48:55Z</time>
      </trkpt>
      <trkpt lat="43.85609" lon="6.59024">
        <ele>1273</ele>
        <time>2009-05-05T09:49:01Z</time>
      </trkpt>
      <trkpt lat="43.85616" lon="6.59022">
        <ele>1276</ele>
        <time>2009-05-05T09:49:07Z</time>
      </trkpt>
      <trkpt lat="43.85625" lon="6.59022">
        <ele>1279</ele>
        <time>2009-05-05T09:49:22Z</time>
      </trkpt>
      <trkpt lat="43.85633" lon="6.5902">
        <ele>1281</ele>
        <time>2009-05-05T09:49:28Z</time>
      </trkpt>
      <trkpt lat="43.85645" lon="6.59021">
        <ele>1280</ele>
        <time>2009-05-05T09:49:34Z</time>
      </trkpt>
      <trkpt lat="43.85653" lon="6.5902">
        <ele>1282</ele>
        <time>2009-05-05T09:49:37Z</time>
      </trkpt>
      <trkpt lat="43.85662" lon="6.59018">
        <ele>1281</ele>
        <time>2009-05-05T09:49:43Z</time>
      </trkpt>
      <trkpt lat="43.85669" lon="6.59012">
        <ele>1282</ele>
        <time>2009-05-05T09:49:46Z</time>
      </trkpt>
      <trkpt lat="43.85679" lon="6.59008">
        <ele>1283</ele>
        <time>2009-05-05T09:49:52Z</time>
      </trkpt>
      <trkpt lat="43.85689" lon="6.59001">
        <ele>1285</ele>
        <time>2009-05-05T09:49:58Z</time>
      </trkpt>
      <trkpt lat="43.857" lon="6.58993">
        <ele>1287</ele>
        <time>2009-05-05T09:50:04Z</time>
      </trkpt>
      <trkpt lat="43.85708" lon="6.58986">
        <ele>1288</ele>
        <time>2009-05-05T09:50:07Z</time>
      </trkpt>
      <trkpt lat="43.85728" lon="6.58979">
        <ele>1292</ele>
        <time>2009-05-05T09:50:13Z</time>
      </trkpt>
      <trkpt lat="43.85742" lon="6.58977">
        <ele>1293</ele>
        <time>2009-05-05T09:50:16Z</time>
      </trkpt>
      <trkpt lat="43.85752" lon="6.58976">
        <ele>1293</ele>
        <time>2009-05-05T09:50:19Z</time>
      </trkpt>
      <trkpt lat="43.85759" lon="6.58976">
        <ele>1291</ele>
        <time>2009-05-05T09:50:22Z</time>
      </trkpt>
      <trkpt lat="43.85773" lon="6.58979">
        <ele>1295</ele>
        <time>2009-05-05T09:50:28Z</time>
      </trkpt>
      <trkpt lat="43.85784" lon="6.5898">
        <ele>1296</ele>
        <time>2009-05-05T09:50:34Z</time>
      </trkpt>
      <trkpt lat="43.85793" lon="6.58982">
        <ele>1294</ele>
        <time>2009-05-05T09:50:40Z</time>
      </trkpt>
      <trkpt lat="43.85805" lon="6.58981">
        <ele>1290</ele>
        <time>2009-05-05T09:50:46Z</time>
      </trkpt>
      <trkpt lat="43.85818" lon="6.58985">
        <ele>1290</ele>
        <time>2009-05-05T09:50:52Z</time>
      </trkpt>
      <trkpt lat="43.85826" lon="6.58987">
        <ele>1292</ele>
        <time>2009-05-05T09:50:55Z</time>
      </trkpt>
      <trkpt lat="43.85837" lon="6.5899">
        <ele>1295</ele>
        <time>2009-05-05T09:51:01Z</time>
      </trkpt>
      <trkpt lat="43.85848" lon="6.58994">
        <ele>1299</ele>
        <time>2009-05-05T09:51:07Z</time>
      </trkpt>
      <trkpt lat="43.85859" lon="6.59001">
        <ele>1297</ele>
        <time>2009-05-05T09:51:13Z</time>
      </trkpt>
      <trkpt lat="43.85872" lon="6.59007">
        <ele>1299</ele>
        <time>2009-05-05T09:51:19Z</time>
      </trkpt>
      <trkpt lat="43.85879" lon="6.59014">
        <ele>1298</ele>
        <time>2009-05-05T09:51:22Z</time>
      </trkpt>
      <trkpt lat="43.85886" lon="6.59019">
        <ele>1298</ele>
        <time>2009-05-05T09:51:25Z</time>
      </trkpt>
      <trkpt lat="43.85894" lon="6.59021">
        <ele>1298</ele>
        <time>2009-05-05T09:51:28Z</time>
      </trkpt>
      <trkpt lat="43.85901" lon="6.59016">
        <ele>1299</ele>
        <time>2009-05-05T09:51:31Z</time>
      </trkpt>
      <trkpt lat="43.85914" lon="6.59018">
        <ele>1299</ele>
        <time>2009-05-05T09:51:37Z</time>
      </trkpt>
      <trkpt lat="43.85925" lon="6.59019">
        <ele>1300</ele>
        <time>2009-05-05T09:51:40Z</time>
      </trkpt>
      <trkpt lat="43.85936" lon="6.59024">
        <ele>1302</ele>
        <time>2009-05-05T09:51:43Z</time>
      </trkpt>
      <trkpt lat="43.85954" lon="6.59036">
        <ele>1303</ele>
        <time>2009-05-05T09:51:49Z</time>
      </trkpt>
      <trkpt lat="43.85961" lon="6.59039">
        <ele>1304</ele>
        <time>2009-05-05T09:51:52Z</time>
      </trkpt>
      <trkpt lat="43.85969" lon="6.59047">
        <ele>1301</ele>
        <time>2009-05-05T09:51:55Z</time>
      </trkpt>
      <trkpt lat="43.85978" lon="6.59054">
        <ele>1299</ele>
        <time>2009-05-05T09:51:58Z</time>
      </trkpt>
      <trkpt lat="43.85986" lon="6.59063">
        <ele>1298</ele>
        <time>2009-05-05T09:52:01Z</time>
      </trkpt>
      <trkpt lat="43.85992" lon="6.59072">
        <ele>1298</ele>
        <time>2009-05-05T09:52:04Z</time>
      </trkpt>
      <trkpt lat="43.85998" lon="6.59077">
        <ele>1298</ele>
        <time>2009-05-05T09:52:07Z</time>
      </trkpt>
      <trkpt lat="43.86005" lon="6.59082">
        <ele>1298</ele>
        <time>2009-05-05T09:52:10Z</time>
      </trkpt>
      <trkpt lat="43.86011" lon="6.59089">
        <ele>1298</ele>
        <time>2009-05-05T09:52:13Z</time>
      </trkpt>
      <trkpt lat="43.86017" lon="6.59093">
        <ele>1298</ele>
        <time>2009-05-05T09:52:16Z</time>
      </trkpt>
      <trkpt lat="43.86026" lon="6.59095">
        <ele>1300</ele>
        <time>2009-05-05T09:52:19Z</time>
      </trkpt>
      <trkpt lat="43.86033" lon="6.59098">
        <ele>1302</ele>
        <time>2009-05-05T09:52:22Z</time>
      </trkpt>
      <trkpt lat="43.86039" lon="6.59106">
        <ele>1303</ele>
        <time>2009-05-05T09:52:25Z</time>
      </trkpt>
      <trkpt lat="43.86045" lon="6.59112">
        <ele>1303</ele>
        <time>2009-05-05T09:52:28Z</time>
      </trkpt>
      <trkpt lat="43.86053" lon="6.59117">
        <ele>1305</ele>
        <time>2009-05-05T09:52:31Z</time>
      </trkpt>
      <trkpt lat="43.86065" lon="6.59119">
        <ele>1305</ele>
        <time>2009-05-05T09:52:37Z</time>
      </trkpt>
      <trkpt lat="43.86071" lon="6.59127">
        <ele>1304</ele>
        <time>2009-05-05T09:52:43Z</time>
      </trkpt>
      <trkpt lat="43.86071" lon="6.59136">
        <ele>1299</ele>
        <time>2009-05-05T09:53:07Z</time>
      </trkpt>
      <trkpt lat="43.86073" lon="6.59144">
        <ele>1303</ele>
        <time>2009-05-05T09:55:29Z</time>
      </trkpt>
      <trkpt lat="43.86079" lon="6.59149">
        <ele>1302</ele>
        <time>2009-05-05T09:55:40Z</time>
      </trkpt>
      <trkpt lat="43.86085" lon="6.59158">
        <ele>1301</ele>
        <time>2009-05-05T09:55:43Z</time>
      </trkpt>
      <trkpt lat="43.86094" lon="6.59167">
        <ele>1302</ele>
        <time>2009-05-05T09:55:46Z</time>
      </trkpt>
      <trkpt lat="43.86104" lon="6.59179">
        <ele>1301</ele>
        <time>2009-05-05T09:55:49Z</time>
      </trkpt>
      <trkpt lat="43.86115" lon="6.59192">
        <ele>1301</ele>
        <time>2009-05-05T09:55:52Z</time>
      </trkpt>
      <trkpt lat="43.86127" lon="6.59207">
        <ele>1302</ele>
        <time>2009-05-05T09:55:55Z</time>
      </trkpt>
      <trkpt lat="43.86138" lon="6.59221">
        <ele>1301</ele>
        <time>2009-05-05T09:55:58Z</time>
      </trkpt>
      <trkpt lat="43.8615" lon="6.59235">
        <ele>1300</ele>
        <time>2009-05-05T09:56:01Z</time>
      </trkpt>
      <trkpt lat="43.86154" lon="6.59241">
        <ele>1300</ele>
        <time>2009-05-05T09:56:04Z</time>
      </trkpt>
      <trkpt lat="43.86161" lon="6.59245">
        <ele>1300</ele>
        <time>2009-05-05T09:56:07Z</time>
      </trkpt>
      <trkpt lat="43.8617" lon="6.5925">
        <ele>1300</ele>
        <time>2009-05-05T09:56:10Z</time>
      </trkpt>
      <trkpt lat="43.86176" lon="6.59258">
        <ele>1300</ele>
        <time>2009-05-05T09:56:13Z</time>
      </trkpt>
      <trkpt lat="43.86182" lon="6.59263">
        <ele>1302</ele>
        <time>2009-05-05T09:56:16Z</time>
      </trkpt>
      <trkpt lat="43.86188" lon="6.59268">
        <ele>1304</ele>
        <time>2009-05-05T09:56:19Z</time>
      </trkpt>
      <trkpt lat="43.86195" lon="6.59278">
        <ele>1304</ele>
        <time>2009-05-05T09:56:22Z</time>
      </trkpt>
      <trkpt lat="43.86206" lon="6.59293">
        <ele>1307</ele>
        <time>2009-05-05T09:56:25Z</time>
      </trkpt>
      <trkpt lat="43.86214" lon="6.59315">
        <ele>1307</ele>
        <time>2009-05-05T09:56:28Z</time>
      </trkpt>
      <trkpt lat="43.86222" lon="6.59334">
        <ele>1307</ele>
        <time>2009-05-05T09:56:31Z</time>
      </trkpt>
      <trkpt lat="43.86235" lon="6.59349">
        <ele>1307</ele>
        <time>2009-05-05T09:56:34Z</time>
      </trkpt>
      <trkpt lat="43.86249" lon="6.59347">
        <ele>1302</ele>
        <time>2009-05-05T09:56:37Z</time>
      </trkpt>
      <trkpt lat="43.86259" lon="6.59332">
        <ele>1296</ele>
        <time>2009-05-05T09:56:40Z</time>
      </trkpt>
      <trkpt lat="43.86269" lon="6.59324">
        <ele>1294</ele>
        <time>2009-05-05T09:56:43Z</time>
      </trkpt>
      <trkpt lat="43.86279" lon="6.59325">
        <ele>1294</ele>
        <time>2009-05-05T09:56:46Z</time>
      </trkpt>
      <trkpt lat="43.86288" lon="6.59327">
        <ele>1296</ele>
        <time>2009-05-05T09:56:49Z</time>
      </trkpt>
      <trkpt lat="43.86297" lon="6.59329">
        <ele>1297</ele>
        <time>2009-05-05T09:56:52Z</time>
      </trkpt>
      <trkpt lat="43.86306" lon="6.59334">
        <ele>1298</ele>
        <time>2009-05-05T09:56:55Z</time>
      </trkpt>
      <trkpt lat="43.86315" lon="6.5934">
        <ele>1298</ele>
        <time>2009-05-05T09:56:58Z</time>
      </trkpt>
      <trkpt lat="43.86324" lon="6.59346">
        <ele>1298</ele>
        <time>2009-05-05T09:57:01Z</time>
      </trkpt>
      <trkpt lat="43.86329" lon="6.59358">
        <ele>1297</ele>
        <time>2009-05-05T09:57:04Z</time>
      </trkpt>
      <trkpt lat="43.86333" lon="6.59378">
        <ele>1294</ele>
        <time>2009-05-05T09:57:07Z</time>
      </trkpt>
      <trkpt lat="43.86335" lon="6.59403">
        <ele>1291</ele>
        <time>2009-05-05T09:57:10Z</time>
      </trkpt>
      <trkpt lat="43.86342" lon="6.59429">
        <ele>1293</ele>
        <time>2009-05-05T09:57:13Z</time>
      </trkpt>
      <trkpt lat="43.86353" lon="6.59451">
        <ele>1295</ele>
        <time>2009-05-05T09:57:16Z</time>
      </trkpt>
      <trkpt lat="43.86364" lon="6.59474">
        <ele>1295</ele>
        <time>2009-05-05T09:57:19Z</time>
      </trkpt>
      <trkpt lat="43.86375" lon="6.59495">
        <ele>1294</ele>
        <time>2009-05-05T09:57:22Z</time>
      </trkpt>
      <trkpt lat="43.86385" lon="6.59513">
        <ele>1296</ele>
        <time>2009-05-05T09:57:25Z</time>
      </trkpt>
      <trkpt lat="43.86394" lon="6.5953">
        <ele>1297</ele>
        <time>2009-05-05T09:57:28Z</time>
      </trkpt>
      <trkpt lat="43.86403" lon="6.59546">
        <ele>1297</ele>
        <time>2009-05-05T09:57:31Z</time>
      </trkpt>
      <trkpt lat="43.86411" lon="6.59562">
        <ele>1296</ele>
        <time>2009-05-05T09:57:34Z</time>
      </trkpt>
      <trkpt lat="43.86418" lon="6.59578">
        <ele>1296</ele>
        <time>2009-05-05T09:57:37Z</time>
      </trkpt>
      <trkpt lat="43.86423" lon="6.59604">
        <ele>1292</ele>
        <time>2009-05-05T09:57:40Z</time>
      </trkpt>
      <trkpt lat="43.86427" lon="6.59626">
        <ele>1294</ele>
        <time>2009-05-05T09:57:43Z</time>
      </trkpt>
      <trkpt lat="43.86432" lon="6.5965">
        <ele>1294</ele>
        <time>2009-05-05T09:57:46Z</time>
      </trkpt>
      <trkpt lat="43.86437" lon="6.59682">
        <ele>1292</ele>
        <time>2009-05-05T09:57:49Z</time>
      </trkpt>
      <trkpt lat="43.86441" lon="6.59712">
        <ele>1289</ele>
        <time>2009-05-05T09:57:52Z</time>
      </trkpt>
      <trkpt lat="43.86446" lon="6.5974">
        <ele>1287</ele>
        <time>2009-05-05T09:57:55Z</time>
      </trkpt>
      <trkpt lat="43.86451" lon="6.5977">
        <ele>1286</ele>
        <time>2009-05-05T09:57:58Z</time>
      </trkpt>
      <trkpt lat="43.86454" lon="6.598">
        <ele>1285</ele>
        <time>2009-05-05T09:58:01Z</time>
      </trkpt>
      <trkpt lat="43.86453" lon="6.59828">
        <ele>1283</ele>
        <time>2009-05-05T09:58:04Z</time>
      </trkpt>
      <trkpt lat="43.86448" lon="6.59856">
        <ele>1280</ele>
        <time>2009-05-05T09:58:07Z</time>
      </trkpt>
      <trkpt lat="43.86449" lon="6.59888">
        <ele>1278</ele>
        <time>2009-05-05T09:58:10Z</time>
      </trkpt>
      <trkpt lat="43.86451" lon="6.59922">
        <ele>1278</ele>
        <time>2009-05-05T09:58:13Z</time>
      </trkpt>
      <trkpt lat="43.86449" lon="6.59953">
        <ele>1278</ele>
        <time>2009-05-05T09:58:16Z</time>
      </trkpt>
      <trkpt lat="43.86452" lon="6.59981">
        <ele>1278</ele>
        <time>2009-05-05T09:58:19Z</time>
      </trkpt>
      <trkpt lat="43.86457" lon="6.60009">
        <ele>1280</ele>
        <time>2009-05-05T09:58:22Z</time>
      </trkpt>
      <trkpt lat="43.86464" lon="6.60035">
        <ele>1284</ele>
        <time>2009-05-05T09:58:25Z</time>
      </trkpt>
      <trkpt lat="43.86467" lon="6.60051">
        <ele>1285</ele>
        <time>2009-05-05T09:58:28Z</time>
      </trkpt>
      <trkpt lat="43.86467" lon="6.60064">
        <ele>1286</ele>
        <time>2009-05-05T09:58:31Z</time>
      </trkpt>
      <trkpt lat="43.8647" lon="6.60078">
        <ele>1291</ele>
        <time>2009-05-05T09:58:34Z</time>
      </trkpt>
      <trkpt lat="43.86472" lon="6.60094">
        <ele>1293</ele>
        <time>2009-05-05T09:58:37Z</time>
      </trkpt>
      <trkpt lat="43.86473" lon="6.60114">
        <ele>1290</ele>
        <time>2009-05-05T09:58:40Z</time>
      </trkpt>
      <trkpt lat="43.86474" lon="6.60138">
        <ele>1288</ele>
        <time>2009-05-05T09:58:43Z</time>
      </trkpt>
      <trkpt lat="43.86471" lon="6.6016">
        <ele>1285</ele>
        <time>2009-05-05T09:58:46Z</time>
      </trkpt>
      <trkpt lat="43.86475" lon="6.60188">
        <ele>1283</ele>
        <time>2009-05-05T09:58:49Z</time>
      </trkpt>
      <trkpt lat="43.86475" lon="6.60216">
        <ele>1281</ele>
        <time>2009-05-05T09:58:52Z</time>
      </trkpt>
      <trkpt lat="43.86477" lon="6.60241">
        <ele>1283</ele>
        <time>2009-05-05T09:58:55Z</time>
      </trkpt>
      <trkpt lat="43.86479" lon="6.60266">
        <ele>1285</ele>
        <time>2009-05-05T09:58:58Z</time>
      </trkpt>
      <trkpt lat="43.86482" lon="6.60292">
        <ele>1286</ele>
        <time>2009-05-05T09:59:01Z</time>
      </trkpt>
      <trkpt lat="43.8648" lon="6.60318">
        <ele>1285</ele>
        <time>2009-05-05T09:59:04Z</time>
      </trkpt>
      <trkpt lat="43.86482" lon="6.60343">
        <ele>1284</ele>
        <time>2009-05-05T09:59:07Z</time>
      </trkpt>
      <trkpt lat="43.86487" lon="6.60368">
        <ele>1285</ele>
        <time>2009-05-05T09:59:10Z</time>
      </trkpt>
      <trkpt lat="43.86489" lon="6.60391">
        <ele>1283</ele>
        <time>2009-05-05T09:59:13Z</time>
      </trkpt>
      <trkpt lat="43.86494" lon="6.60412">
        <ele>1283</ele>
        <time>2009-05-05T09:59:16Z</time>
      </trkpt>
      <trkpt lat="43.86496" lon="6.60431">
        <ele>1284</ele>
        <time>2009-05-05T09:59:19Z</time>
      </trkpt>
      <trkpt lat="43.865" lon="6.60448">
        <ele>1287</ele>
        <time>2009-05-05T09:59:22Z</time>
      </trkpt>
      <trkpt lat="43.865" lon="6.60467">
        <ele>1285</ele>
        <time>2009-05-05T09:59:25Z</time>
      </trkpt>
      <trkpt lat="43.865" lon="6.60485">
        <ele>1285</ele>
        <time>2009-05-05T09:59:28Z</time>
      </trkpt>
      <trkpt lat="43.86499" lon="6.60501">
        <ele>1285</ele>
        <time>2009-05-05T09:59:31Z</time>
      </trkpt>
      <trkpt lat="43.86498" lon="6.60518">
        <ele>1285</ele>
        <time>2009-05-05T09:59:34Z</time>
      </trkpt>
      <trkpt lat="43.86499" lon="6.60534">
        <ele>1284</ele>
        <time>2009-05-05T09:59:37Z</time>
      </trkpt>
      <trkpt lat="43.86502" lon="6.60547">
        <ele>1287</ele>
        <time>2009-05-05T09:59:40Z</time>
      </trkpt>
      <trkpt lat="43.86504" lon="6.60557">
        <ele>1291</ele>
        <time>2009-05-05T09:59:43Z</time>
      </trkpt>
      <trkpt lat="43.86507" lon="6.60572">
        <ele>1293</ele>
        <time>2009-05-05T09:59:46Z</time>
      </trkpt>
      <trkpt lat="43.86512" lon="6.60587">
        <ele>1293</ele>
        <time>2009-05-05T09:59:49Z</time>
      </trkpt>
      <trkpt lat="43.86514" lon="6.60603">
        <ele>1290</ele>
        <time>2009-05-05T09:59:52Z</time>
      </trkpt>
      <trkpt lat="43.86513" lon="6.60615">
        <ele>1290</ele>
        <time>2009-05-05T09:59:55Z</time>
      </trkpt>
      <trkpt lat="43.86515" lon="6.60629">
        <ele>1291</ele>
        <time>2009-05-05T09:59:58Z</time>
      </trkpt>
      <trkpt lat="43.86517" lon="6.60644">
        <ele>1291</ele>
        <time>2009-05-05T10:00:01Z</time>
      </trkpt>
      <trkpt lat="43.86516" lon="6.60658">
        <ele>1291</ele>
        <time>2009-05-05T10:00:04Z</time>
      </trkpt>
      <trkpt lat="43.86517" lon="6.60675">
        <ele>1291</ele>
        <time>2009-05-05T10:00:07Z</time>
      </trkpt>
      <trkpt lat="43.86518" lon="6.60695">
        <ele>1291</ele>
        <time>2009-05-05T10:00:10Z</time>
      </trkpt>
      <trkpt lat="43.8652" lon="6.60717">
        <ele>1290</ele>
        <time>2009-05-05T10:00:13Z</time>
      </trkpt>
      <trkpt lat="43.86522" lon="6.60738">
        <ele>1290</ele>
        <time>2009-05-05T10:00:16Z</time>
      </trkpt>
      <trkpt lat="43.86523" lon="6.60759">
        <ele>1292</ele>
        <time>2009-05-05T10:00:19Z</time>
      </trkpt>
      <trkpt lat="43.86527" lon="6.60779">
        <ele>1295</ele>
        <time>2009-05-05T10:00:22Z</time>
      </trkpt>
      <trkpt lat="43.86532" lon="6.60802">
        <ele>1296</ele>
        <time>2009-05-05T10:00:25Z</time>
      </trkpt>
      <trkpt lat="43.86533" lon="6.60822">
        <ele>1297</ele>
        <time>2009-05-05T10:00:28Z</time>
      </trkpt>
      <trkpt lat="43.86538" lon="6.60844">
        <ele>1297</ele>
        <time>2009-05-05T10:00:31Z</time>
      </trkpt>
      <trkpt lat="43.8654" lon="6.60865">
        <ele>1296</ele>
        <time>2009-05-05T10:00:34Z</time>
      </trkpt>
      <trkpt lat="43.86543" lon="6.60888">
        <ele>1294</ele>
        <time>2009-05-05T10:00:37Z</time>
      </trkpt>
      <trkpt lat="43.86543" lon="6.6091">
        <ele>1293</ele>
        <time>2009-05-05T10:00:40Z</time>
      </trkpt>
      <trkpt lat="43.86542" lon="6.60933">
        <ele>1293</ele>
        <time>2009-05-05T10:00:43Z</time>
      </trkpt>
      <trkpt lat="43.8654" lon="6.60956">
        <ele>1292</ele>
        <time>2009-05-05T10:00:46Z</time>
      </trkpt>
      <trkpt lat="43.8654" lon="6.60979">
        <ele>1294</ele>
        <time>2009-05-05T10:00:49Z</time>
      </trkpt>
      <trkpt lat="43.86538" lon="6.60998">
        <ele>1293</ele>
        <time>2009-05-05T10:00:52Z</time>
      </trkpt>
      <trkpt lat="43.86537" lon="6.61024">
        <ele>1292</ele>
        <time>2009-05-05T10:00:55Z</time>
      </trkpt>
      <trkpt lat="43.86536" lon="6.61048">
        <ele>1292</ele>
        <time>2009-05-05T10:00:58Z</time>
      </trkpt>
      <trkpt lat="43.86535" lon="6.61071">
        <ele>1289</ele>
        <time>2009-05-05T10:01:01Z</time>
      </trkpt>
      <trkpt lat="43.86536" lon="6.61093">
        <ele>1289</ele>
        <time>2009-05-05T10:01:04Z</time>
      </trkpt>
      <trkpt lat="43.86536" lon="6.61112">
        <ele>1293</ele>
        <time>2009-05-05T10:01:07Z</time>
      </trkpt>
      <trkpt lat="43.86537" lon="6.61138">
        <ele>1291</ele>
        <time>2009-05-05T10:01:10Z</time>
      </trkpt>
      <trkpt lat="43.86538" lon="6.6116">
        <ele>1293</ele>
        <time>2009-05-05T10:01:13Z</time>
      </trkpt>
      <trkpt lat="43.86541" lon="6.61186">
        <ele>1292</ele>
        <time>2009-05-05T10:01:16Z</time>
      </trkpt>
      <trkpt lat="43.86542" lon="6.61208">
        <ele>1292</ele>
        <time>2009-05-05T10:01:19Z</time>
      </trkpt>
      <trkpt lat="43.86544" lon="6.61227">
        <ele>1296</ele>
        <time>2009-05-05T10:01:22Z</time>
      </trkpt>
      <trkpt lat="43.86546" lon="6.6125">
        <ele>1297</ele>
        <time>2009-05-05T10:01:25Z</time>
      </trkpt>
      <trkpt lat="43.8655" lon="6.61278">
        <ele>1295</ele>
        <time>2009-05-05T10:01:28Z</time>
      </trkpt>
      <trkpt lat="43.86551" lon="6.61298">
        <ele>1293</ele>
        <time>2009-05-05T10:01:31Z</time>
      </trkpt>
      <trkpt lat="43.86551" lon="6.61316">
        <ele>1292</ele>
        <time>2009-05-05T10:01:34Z</time>
      </trkpt>
      <trkpt lat="43.86551" lon="6.61333">
        <ele>1293</ele>
        <time>2009-05-05T10:01:37Z</time>
      </trkpt>
      <trkpt lat="43.86551" lon="6.61348">
        <ele>1298</ele>
        <time>2009-05-05T10:01:40Z</time>
      </trkpt>
      <trkpt lat="43.86554" lon="6.61364">
        <ele>1302</ele>
        <time>2009-05-05T10:01:43Z</time>
      </trkpt>
      <trkpt lat="43.86557" lon="6.61376">
        <ele>1304</ele>
        <time>2009-05-05T10:01:48Z</time>
      </trkpt>
      <trkpt lat="43.86561" lon="6.61397">
        <ele>1304</ele>
        <time>2009-05-05T10:01:51Z</time>
      </trkpt>
      <trkpt lat="43.86567" lon="6.61419">
        <ele>1306</ele>
        <time>2009-05-05T10:01:53Z</time>
      </trkpt>
      <trkpt lat="43.86569" lon="6.61431">
        <ele>1306</ele>
        <time>2009-05-05T10:01:56Z</time>
      </trkpt>
      <trkpt lat="43.86572" lon="6.61446">
        <ele>1306</ele>
        <time>2009-05-05T10:01:59Z</time>
      </trkpt>
      <trkpt lat="43.86573" lon="6.61457">
        <ele>1306</ele>
        <time>2009-05-05T10:02:02Z</time>
      </trkpt>
      <trkpt lat="43.86576" lon="6.61469">
        <ele>1306</ele>
        <time>2009-05-05T10:02:05Z</time>
      </trkpt>
      <trkpt lat="43.86577" lon="6.61481">
        <ele>1306</ele>
        <time>2009-05-05T10:02:08Z</time>
      </trkpt>
      <trkpt lat="43.86578" lon="6.61491">
        <ele>1306</ele>
        <time>2009-05-05T10:02:11Z</time>
      </trkpt>
      <trkpt lat="43.86579" lon="6.61501">
        <ele>1306</ele>
        <time>2009-05-05T10:02:14Z</time>
      </trkpt>
      <trkpt lat="43.86581" lon="6.61508">
        <ele>1306</ele>
        <time>2009-05-05T10:02:17Z</time>
      </trkpt>
      <trkpt lat="43.86582" lon="6.61517">
        <ele>1306</ele>
        <time>2009-05-05T10:02:20Z</time>
      </trkpt>
      <trkpt lat="43.86583" lon="6.6153">
        <ele>1308</ele>
        <time>2009-05-05T10:02:23Z</time>
      </trkpt>
      <trkpt lat="43.86583" lon="6.6154">
        <ele>1307</ele>
        <time>2009-05-05T10:02:26Z</time>
      </trkpt>
      <trkpt lat="43.86585" lon="6.6155">
        <ele>1308</ele>
        <time>2009-05-05T10:02:29Z</time>
      </trkpt>
      <trkpt lat="43.86586" lon="6.61558">
        <ele>1308</ele>
        <time>2009-05-05T10:02:32Z</time>
      </trkpt>
      <trkpt lat="43.86582" lon="6.61564">
        <ele>1300</ele>
        <time>2009-05-05T10:02:53Z</time>
      </trkpt>
      <trkpt lat="43.86582" lon="6.61571">
        <ele>1301</ele>
        <time>2009-05-05T10:02:59Z</time>
      </trkpt>
      <trkpt lat="43.86583" lon="6.6158">
        <ele>1302</ele>
        <time>2009-05-05T10:03:02Z</time>
      </trkpt>
      <trkpt lat="43.86585" lon="6.61593">
        <ele>1305</ele>
        <time>2009-05-05T10:03:08Z</time>
      </trkpt>
      <trkpt lat="43.86587" lon="6.61603">
        <ele>1306</ele>
        <time>2009-05-05T10:03:11Z</time>
      </trkpt>
      <trkpt lat="43.86589" lon="6.61613">
        <ele>1308</ele>
        <time>2009-05-05T10:03:14Z</time>
      </trkpt>
      <trkpt lat="43.86592" lon="6.61622">
        <ele>1309</ele>
        <time>2009-05-05T10:03:17Z</time>
      </trkpt>
      <trkpt lat="43.86595" lon="6.61632">
        <ele>1311</ele>
        <time>2009-05-05T10:03:20Z</time>
      </trkpt>
      <trkpt lat="43.86597" lon="6.61639">
        <ele>1314</ele>
        <time>2009-05-05T10:03:23Z</time>
      </trkpt>
      <trkpt lat="43.86599" lon="6.61649">
        <ele>1314</ele>
        <time>2009-05-05T10:03:26Z</time>
      </trkpt>
      <trkpt lat="43.86602" lon="6.61659">
        <ele>1315</ele>
        <time>2009-05-05T10:03:29Z</time>
      </trkpt>
      <trkpt lat="43.86604" lon="6.61667">
        <ele>1315</ele>
        <time>2009-05-05T10:03:32Z</time>
      </trkpt>
      <trkpt lat="43.86605" lon="6.61674">
        <ele>1317</ele>
        <time>2009-05-05T10:03:35Z</time>
      </trkpt>
      <trkpt lat="43.86608" lon="6.61683">
        <ele>1315</ele>
        <time>2009-05-05T10:03:38Z</time>
      </trkpt>
      <trkpt lat="43.8661" lon="6.61691">
        <ele>1314</ele>
        <time>2009-05-05T10:03:41Z</time>
      </trkpt>
      <trkpt lat="43.86611" lon="6.61699">
        <ele>1315</ele>
        <time>2009-05-05T10:03:44Z</time>
      </trkpt>
      <trkpt lat="43.86613" lon="6.61711">
        <ele>1318</ele>
        <time>2009-05-05T10:03:50Z</time>
      </trkpt>
      <trkpt lat="43.86617" lon="6.61721">
        <ele>1317</ele>
        <time>2009-05-05T10:03:53Z</time>
      </trkpt>
      <trkpt lat="43.8662" lon="6.6173">
        <ele>1316</ele>
        <time>2009-05-05T10:03:56Z</time>
      </trkpt>
      <trkpt lat="43.86623" lon="6.6174">
        <ele>1317</ele>
        <time>2009-05-05T10:03:59Z</time>
      </trkpt>
      <trkpt lat="43.86623" lon="6.61748">
        <ele>1317</ele>
        <time>2009-05-05T10:04:02Z</time>
      </trkpt>
      <trkpt lat="43.86627" lon="6.61757">
        <ele>1319</ele>
        <time>2009-05-05T10:04:05Z</time>
      </trkpt>
      <trkpt lat="43.86629" lon="6.61769">
        <ele>1319</ele>
        <time>2009-05-05T10:04:08Z</time>
      </trkpt>
      <trkpt lat="43.86632" lon="6.61779">
        <ele>1320</ele>
        <time>2009-05-05T10:04:11Z</time>
      </trkpt>
      <trkpt lat="43.86634" lon="6.61786">
        <ele>1319</ele>
        <time>2009-05-05T10:04:14Z</time>
      </trkpt>
      <trkpt lat="43.86635" lon="6.61794">
        <ele>1320</ele>
        <time>2009-05-05T10:04:17Z</time>
      </trkpt>
      <trkpt lat="43.86636" lon="6.61802">
        <ele>1320</ele>
        <time>2009-05-05T10:04:20Z</time>
      </trkpt>
      <trkpt lat="43.86638" lon="6.61809">
        <ele>1322</ele>
        <time>2009-05-05T10:04:23Z</time>
      </trkpt>
      <trkpt lat="43.86639" lon="6.6182">
        <ele>1321</ele>
        <time>2009-05-05T10:04:26Z</time>
      </trkpt>
      <trkpt lat="43.86641" lon="6.61829">
        <ele>1321</ele>
        <time>2009-05-05T10:04:29Z</time>
      </trkpt>
      <trkpt lat="43.86643" lon="6.61838">
        <ele>1323</ele>
        <time>2009-05-05T10:04:32Z</time>
      </trkpt>
      <trkpt lat="43.86646" lon="6.61851">
        <ele>1325</ele>
        <time>2009-05-05T10:04:35Z</time>
      </trkpt>
      <trkpt lat="43.86647" lon="6.61862">
        <ele>1325</ele>
        <time>2009-05-05T10:04:38Z</time>
      </trkpt>
      <trkpt lat="43.86648" lon="6.61871">
        <ele>1323</ele>
        <time>2009-05-05T10:04:41Z</time>
      </trkpt>
      <trkpt lat="43.8665" lon="6.6188">
        <ele>1325</ele>
        <time>2009-05-05T10:04:44Z</time>
      </trkpt>
      <trkpt lat="43.86651" lon="6.61887">
        <ele>1320</ele>
        <time>2009-05-05T10:04:50Z</time>
      </trkpt>
      <trkpt lat="43.86643" lon="6.61889">
        <ele>1316</ele>
        <time>2009-05-05T10:04:59Z</time>
      </trkpt>
      <trkpt lat="43.86644" lon="6.61897">
        <ele>1320</ele>
        <time>2009-05-05T10:05:05Z</time>
      </trkpt>
      <trkpt lat="43.86647" lon="6.61907">
        <ele>1321</ele>
        <time>2009-05-05T10:05:08Z</time>
      </trkpt>
      <trkpt lat="43.86651" lon="6.61918">
        <ele>1325</ele>
        <time>2009-05-05T10:05:11Z</time>
      </trkpt>
      <trkpt lat="43.86654" lon="6.61928">
        <ele>1328</ele>
        <time>2009-05-05T10:05:14Z</time>
      </trkpt>
      <trkpt lat="43.86655" lon="6.61938">
        <ele>1328</ele>
        <time>2009-05-05T10:05:17Z</time>
      </trkpt>
      <trkpt lat="43.86658" lon="6.6195">
        <ele>1328</ele>
        <time>2009-05-05T10:05:20Z</time>
      </trkpt>
      <trkpt lat="43.86659" lon="6.61961">
        <ele>1327</ele>
        <time>2009-05-05T10:05:23Z</time>
      </trkpt>
      <trkpt lat="43.8666" lon="6.61969">
        <ele>1329</ele>
        <time>2009-05-05T10:05:26Z</time>
      </trkpt>
      <trkpt lat="43.8666" lon="6.61982">
        <ele>1329</ele>
        <time>2009-05-05T10:05:29Z</time>
      </trkpt>
      <trkpt lat="43.86658" lon="6.61992">
        <ele>1328</ele>
        <time>2009-05-05T10:05:32Z</time>
      </trkpt>
      <trkpt lat="43.86658" lon="6.62005">
        <ele>1327</ele>
        <time>2009-05-05T10:05:35Z</time>
      </trkpt>
      <trkpt lat="43.8666" lon="6.62015">
        <ele>1328</ele>
        <time>2009-05-05T10:05:38Z</time>
      </trkpt>
      <trkpt lat="43.86663" lon="6.62025">
        <ele>1330</ele>
        <time>2009-05-05T10:05:41Z</time>
      </trkpt>
      <trkpt lat="43.86664" lon="6.62036">
        <ele>1329</ele>
        <time>2009-05-05T10:05:44Z</time>
      </trkpt>
      <trkpt lat="43.86665" lon="6.62047">
        <ele>1328</ele>
        <time>2009-05-05T10:05:47Z</time>
      </trkpt>
      <trkpt lat="43.86667" lon="6.62058">
        <ele>1330</ele>
        <time>2009-05-05T10:05:50Z</time>
      </trkpt>
      <trkpt lat="43.86668" lon="6.6207">
        <ele>1332</ele>
        <time>2009-05-05T10:05:53Z</time>
      </trkpt>
      <trkpt lat="43.86669" lon="6.62081">
        <ele>1332</ele>
        <time>2009-05-05T10:05:56Z</time>
      </trkpt>
      <trkpt lat="43.86672" lon="6.62092">
        <ele>1335</ele>
        <time>2009-05-05T10:05:59Z</time>
      </trkpt>
      <trkpt lat="43.86675" lon="6.62105">
        <ele>1339</ele>
        <time>2009-05-05T10:06:02Z</time>
      </trkpt>
      <trkpt lat="43.86678" lon="6.62117">
        <ele>1339</ele>
        <time>2009-05-05T10:06:05Z</time>
      </trkpt>
      <trkpt lat="43.86683" lon="6.6213">
        <ele>1341</ele>
        <time>2009-05-05T10:06:08Z</time>
      </trkpt>
      <trkpt lat="43.86683" lon="6.62143">
        <ele>1340</ele>
        <time>2009-05-05T10:06:11Z</time>
      </trkpt>
      <trkpt lat="43.86685" lon="6.62156">
        <ele>1340</ele>
        <time>2009-05-05T10:06:14Z</time>
      </trkpt>
      <trkpt lat="43.86688" lon="6.62169">
        <ele>1339</ele>
        <time>2009-05-05T10:06:17Z</time>
      </trkpt>
      <trkpt lat="43.86692" lon="6.62184">
        <ele>1337</ele>
        <time>2009-05-05T10:06:20Z</time>
      </trkpt>
      <trkpt lat="43.86695" lon="6.62198">
        <ele>1335</ele>
        <time>2009-05-05T10:06:23Z</time>
      </trkpt>
      <trkpt lat="43.86694" lon="6.62214">
        <ele>1332</ele>
        <time>2009-05-05T10:06:26Z</time>
      </trkpt>
      <trkpt lat="43.8669" lon="6.62228">
        <ele>1330</ele>
        <time>2009-05-05T10:06:29Z</time>
      </trkpt>
      <trkpt lat="43.86689" lon="6.62244">
        <ele>1328</ele>
        <time>2009-05-05T10:06:32Z</time>
      </trkpt>
      <trkpt lat="43.86688" lon="6.62258">
        <ele>1328</ele>
        <time>2009-05-05T10:06:35Z</time>
      </trkpt>
      <trkpt lat="43.86685" lon="6.62274">
        <ele>1327</ele>
        <time>2009-05-05T10:06:38Z</time>
      </trkpt>
      <trkpt lat="43.86685" lon="6.62287">
        <ele>1328</ele>
        <time>2009-05-05T10:06:41Z</time>
      </trkpt>
      <trkpt lat="43.867" lon="6.62293">
        <ele>1336</ele>
        <time>2009-05-05T10:10:11Z</time>
      </trkpt>
      <trkpt lat="43.86703" lon="6.62305">
        <ele>1335</ele>
        <time>2009-05-05T10:10:14Z</time>
      </trkpt>
      <trkpt lat="43.86695" lon="6.62331">
        <ele>1335</ele>
        <time>2009-05-05T10:10:17Z</time>
      </trkpt>
      <trkpt lat="43.86688" lon="6.62357">
        <ele>1336</ele>
        <time>2009-05-05T10:10:20Z</time>
      </trkpt>
      <trkpt lat="43.86681" lon="6.62382">
        <ele>1336</ele>
        <time>2009-05-05T10:10:23Z</time>
      </trkpt>
      <trkpt lat="43.86675" lon="6.62403">
        <ele>1336</ele>
        <time>2009-05-05T10:10:26Z</time>
      </trkpt>
      <trkpt lat="43.86668" lon="6.62424">
        <ele>1336</ele>
        <time>2009-05-05T10:10:29Z</time>
      </trkpt>
      <trkpt lat="43.86661" lon="6.62445">
        <ele>1336</ele>
        <time>2009-05-05T10:10:32Z</time>
      </trkpt>
      <trkpt lat="43.86654" lon="6.62464">
        <ele>1336</ele>
        <time>2009-05-05T10:10:35Z</time>
      </trkpt>
      <trkpt lat="43.86647" lon="6.62482">
        <ele>1336</ele>
        <time>2009-05-05T10:10:38Z</time>
      </trkpt>
      <trkpt lat="43.86643" lon="6.62499">
        <ele>1336</ele>
        <time>2009-05-05T10:10:41Z</time>
      </trkpt>
      <trkpt lat="43.86638" lon="6.62516">
        <ele>1341</ele>
        <time>2009-05-05T10:10:44Z</time>
      </trkpt>
      <trkpt lat="43.86633" lon="6.62532">
        <ele>1341</ele>
        <time>2009-05-05T10:10:47Z</time>
      </trkpt>
      <trkpt lat="43.86629" lon="6.6255">
        <ele>1339</ele>
        <time>2009-05-05T10:10:50Z</time>
      </trkpt>
      <trkpt lat="43.86627" lon="6.62561">
        <ele>1339</ele>
        <time>2009-05-05T10:10:53Z</time>
      </trkpt>
      <trkpt lat="43.86623" lon="6.62576">
        <ele>1339</ele>
        <time>2009-05-05T10:10:56Z</time>
      </trkpt>
      <trkpt lat="43.86619" lon="6.62596">
        <ele>1339</ele>
        <time>2009-05-05T10:10:59Z</time>
      </trkpt>
      <trkpt lat="43.86615" lon="6.62611">
        <ele>1341</ele>
        <time>2009-05-05T10:11:02Z</time>
      </trkpt>
      <trkpt lat="43.86612" lon="6.62624">
        <ele>1344</ele>
        <time>2009-05-05T10:11:05Z</time>
      </trkpt>
      <trkpt lat="43.86609" lon="6.62635">
        <ele>1344</ele>
        <time>2009-05-05T10:11:08Z</time>
      </trkpt>
      <trkpt lat="43.86609" lon="6.62644">
        <ele>1345</ele>
        <time>2009-05-05T10:11:11Z</time>
      </trkpt>
      <trkpt lat="43.86609" lon="6.62653">
        <ele>1347</ele>
        <time>2009-05-05T10:11:20Z</time>
      </trkpt>
      <trkpt lat="43.86609" lon="6.62666">
        <ele>1349</ele>
        <time>2009-05-05T10:11:26Z</time>
      </trkpt>
      <trkpt lat="43.86605" lon="6.62673">
        <ele>1351</ele>
        <time>2009-05-05T10:11:29Z</time>
      </trkpt>
      <trkpt lat="43.86599" lon="6.62682">
        <ele>1352</ele>
        <time>2009-05-05T10:11:32Z</time>
      </trkpt>
      <trkpt lat="43.86595" lon="6.62693">
        <ele>1352</ele>
        <time>2009-05-05T10:11:35Z</time>
      </trkpt>
      <trkpt lat="43.86594" lon="6.62704">
        <ele>1352</ele>
        <time>2009-05-05T10:11:38Z</time>
      </trkpt>
      <trkpt lat="43.86591" lon="6.62714">
        <ele>1353</ele>
        <time>2009-05-05T10:11:41Z</time>
      </trkpt>
      <trkpt lat="43.8659" lon="6.62727">
        <ele>1354</ele>
        <time>2009-05-05T10:11:44Z</time>
      </trkpt>
      <trkpt lat="43.86589" lon="6.62739">
        <ele>1354</ele>
        <time>2009-05-05T10:11:47Z</time>
      </trkpt>
      <trkpt lat="43.86588" lon="6.62761">
        <ele>1353</ele>
        <time>2009-05-05T10:11:54Z</time>
      </trkpt>
      <trkpt lat="43.86588" lon="6.62774">
        <ele>1353</ele>
        <time>2009-05-05T10:11:56Z</time>
      </trkpt>
      <trkpt lat="43.86587" lon="6.62787">
        <ele>1355</ele>
        <time>2009-05-05T10:11:59Z</time>
      </trkpt>
      <trkpt lat="43.86585" lon="6.62801">
        <ele>1356</ele>
        <time>2009-05-05T10:12:02Z</time>
      </trkpt>
      <trkpt lat="43.86582" lon="6.62814">
        <ele>1358</ele>
        <time>2009-05-05T10:12:05Z</time>
      </trkpt>
      <trkpt lat="43.86579" lon="6.62826">
        <ele>1360</ele>
        <time>2009-05-05T10:12:08Z</time>
      </trkpt>
      <trkpt lat="43.86578" lon="6.62837">
        <ele>1361</ele>
        <time>2009-05-05T10:12:11Z</time>
      </trkpt>
      <trkpt lat="43.86575" lon="6.62849">
        <ele>1361</ele>
        <time>2009-05-05T10:12:14Z</time>
      </trkpt>
      <trkpt lat="43.86572" lon="6.62859">
        <ele>1360</ele>
        <time>2009-05-05T10:12:17Z</time>
      </trkpt>
      <trkpt lat="43.86567" lon="6.62873">
        <ele>1359</ele>
        <time>2009-05-05T10:12:20Z</time>
      </trkpt>
      <trkpt lat="43.86565" lon="6.62884">
        <ele>1360</ele>
        <time>2009-05-05T10:12:23Z</time>
      </trkpt>
      <trkpt lat="43.86564" lon="6.62896">
        <ele>1360</ele>
        <time>2009-05-05T10:12:26Z</time>
      </trkpt>
      <trkpt lat="43.86563" lon="6.62905">
        <ele>1359</ele>
        <time>2009-05-05T10:12:29Z</time>
      </trkpt>
      <trkpt lat="43.86562" lon="6.62914">
        <ele>1361</ele>
        <time>2009-05-05T10:12:32Z</time>
      </trkpt>
      <trkpt lat="43.86561" lon="6.62924">
        <ele>1360</ele>
        <time>2009-05-05T10:12:35Z</time>
      </trkpt>
      <trkpt lat="43.86561" lon="6.62935">
        <ele>1361</ele>
        <time>2009-05-05T10:12:38Z</time>
      </trkpt>
      <trkpt lat="43.8656" lon="6.62944">
        <ele>1362</ele>
        <time>2009-05-05T10:12:41Z</time>
      </trkpt>
      <trkpt lat="43.86559" lon="6.62957">
        <ele>1362</ele>
        <time>2009-05-05T10:12:47Z</time>
      </trkpt>
      <trkpt lat="43.86558" lon="6.62965">
        <ele>1362</ele>
        <time>2009-05-05T10:12:50Z</time>
      </trkpt>
      <trkpt lat="43.86557" lon="6.62974">
        <ele>1363</ele>
        <time>2009-05-05T10:12:53Z</time>
      </trkpt>
      <trkpt lat="43.86556" lon="6.62982">
        <ele>1363</ele>
        <time>2009-05-05T10:12:56Z</time>
      </trkpt>
      <trkpt lat="43.86554" lon="6.6299">
        <ele>1364</ele>
        <time>2009-05-05T10:12:59Z</time>
      </trkpt>
      <trkpt lat="43.86553" lon="6.62999">
        <ele>1364</ele>
        <time>2009-05-05T10:13:02Z</time>
      </trkpt>
      <trkpt lat="43.86553" lon="6.63007">
        <ele>1363</ele>
        <time>2009-05-05T10:13:05Z</time>
      </trkpt>
      <trkpt lat="43.86553" lon="6.63015">
        <ele>1364</ele>
        <time>2009-05-05T10:13:08Z</time>
      </trkpt>
      <trkpt lat="43.86553" lon="6.63023">
        <ele>1365</ele>
        <time>2009-05-05T10:13:11Z</time>
      </trkpt>
      <trkpt lat="43.86554" lon="6.63031">
        <ele>1366</ele>
        <time>2009-05-05T10:13:14Z</time>
      </trkpt>
      <trkpt lat="43.86557" lon="6.63039">
        <ele>1364</ele>
        <time>2009-05-05T10:13:20Z</time>
      </trkpt>
      <trkpt lat="43.86563" lon="6.63047">
        <ele>1366</ele>
        <time>2009-05-05T10:13:29Z</time>
      </trkpt>
      <trkpt lat="43.86566" lon="6.63057">
        <ele>1368</ele>
        <time>2009-05-05T10:13:35Z</time>
      </trkpt>
      <trkpt lat="43.86567" lon="6.63065">
        <ele>1369</ele>
        <time>2009-05-05T10:13:41Z</time>
      </trkpt>
      <trkpt lat="43.86565" lon="6.63078">
        <ele>1370</ele>
        <time>2009-05-05T10:13:47Z</time>
      </trkpt>
      <trkpt lat="43.8656" lon="6.63093">
        <ele>1370</ele>
        <time>2009-05-05T10:13:53Z</time>
      </trkpt>
      <trkpt lat="43.86554" lon="6.63107">
        <ele>1370</ele>
        <time>2009-05-05T10:13:56Z</time>
      </trkpt>
      <trkpt lat="43.86548" lon="6.63121">
        <ele>1369</ele>
        <time>2009-05-05T10:13:59Z</time>
      </trkpt>
      <trkpt lat="43.86541" lon="6.63132">
        <ele>1368</ele>
        <time>2009-05-05T10:14:02Z</time>
      </trkpt>
      <trkpt lat="43.86532" lon="6.63142">
        <ele>1367</ele>
        <time>2009-05-05T10:14:05Z</time>
      </trkpt>
      <trkpt lat="43.86524" lon="6.63153">
        <ele>1367</ele>
        <time>2009-05-05T10:14:08Z</time>
      </trkpt>
      <trkpt lat="43.86521" lon="6.63162">
        <ele>1370</ele>
        <time>2009-05-05T10:16:26Z</time>
      </trkpt>
      <trkpt lat="43.86521" lon="6.63158">
        <ele>1369</ele>
        <time>2009-05-05T10:16:29Z</time>
      </trkpt>
      <trkpt lat="43.86523" lon="6.63159">
        <ele>1366</ele>
        <time>2009-05-05T10:17:24Z</time>
      </trkpt>
      <trkpt lat="43.86522" lon="6.63161">
        <ele>1368</ele>
        <time>2009-05-05T10:17:29Z</time>
      </trkpt>
      <trkpt lat="43.86522" lon="6.63164">
        <ele>1368</ele>
        <time>2009-05-05T10:17:30Z</time>
      </trkpt>
      <trkpt lat="43.86521" lon="6.63167">
        <ele>1368</ele>
        <time>2009-05-05T10:17:31Z</time>
      </trkpt>
      <trkpt lat="43.86522" lon="6.63171">
        <ele>1369</ele>
        <time>2009-05-05T10:17:32Z</time>
      </trkpt>
      <trkpt lat="43.86524" lon="6.63177">
        <ele>1369</ele>
        <time>2009-05-05T10:17:33Z</time>
      </trkpt>
      <trkpt lat="43.86528" lon="6.63183">
        <ele>1368</ele>
        <time>2009-05-05T10:17:34Z</time>
      </trkpt>
      <trkpt lat="43.86533" lon="6.63189">
        <ele>1368</ele>
        <time>2009-05-05T10:17:35Z</time>
      </trkpt>
      <trkpt lat="43.86538" lon="6.63197">
        <ele>1368</ele>
        <time>2009-05-05T10:17:36Z</time>
      </trkpt>
      <trkpt lat="43.86544" lon="6.63208">
        <ele>1368</ele>
        <time>2009-05-05T10:17:37Z</time>
      </trkpt>
      <trkpt lat="43.86549" lon="6.63223">
        <ele>1369</ele>
        <time>2009-05-05T10:17:38Z</time>
      </trkpt>
      <trkpt lat="43.86555" lon="6.63241">
        <ele>1370</ele>
        <time>2009-05-05T10:17:39Z</time>
      </trkpt>
      <trkpt lat="43.86561" lon="6.6326">
        <ele>1371</ele>
        <time>2009-05-05T10:17:40Z</time>
      </trkpt>
      <trkpt lat="43.86567" lon="6.63279">
        <ele>1372</ele>
        <time>2009-05-05T10:17:41Z</time>
      </trkpt>
      <trkpt lat="43.86576" lon="6.633">
        <ele>1374</ele>
        <time>2009-05-05T10:17:42Z</time>
      </trkpt>
      <trkpt lat="43.86585" lon="6.63321">
        <ele>1375</ele>
        <time>2009-05-05T10:17:43Z</time>
      </trkpt>
      <trkpt lat="43.86595" lon="6.63343">
        <ele>1376</ele>
        <time>2009-05-05T10:17:44Z</time>
      </trkpt>
      <trkpt lat="43.86603" lon="6.63366">
        <ele>1377</ele>
        <time>2009-05-05T10:17:45Z</time>
      </trkpt>
      <trkpt lat="43.8661" lon="6.63391">
        <ele>1378</ele>
        <time>2009-05-05T10:17:46Z</time>
      </trkpt>
      <trkpt lat="43.86617" lon="6.63417">
        <ele>1379</ele>
        <time>2009-05-05T10:17:47Z</time>
      </trkpt>
      <trkpt lat="43.86622" lon="6.63444">
        <ele>1380</ele>
        <time>2009-05-05T10:17:48Z</time>
      </trkpt>
      <trkpt lat="43.86627" lon="6.63471">
        <ele>1381</ele>
        <time>2009-05-05T10:17:49Z</time>
      </trkpt>
      <trkpt lat="43.86632" lon="6.635">
        <ele>1381</ele>
        <time>2009-05-05T10:17:50Z</time>
      </trkpt>
      <trkpt lat="43.86637" lon="6.63529">
        <ele>1382</ele>
        <time>2009-05-05T10:17:51Z</time>
      </trkpt>
      <trkpt lat="43.86642" lon="6.63558">
        <ele>1384</ele>
        <time>2009-05-05T10:17:52Z</time>
      </trkpt>
      <trkpt lat="43.86646" lon="6.63586">
        <ele>1385</ele>
        <time>2009-05-05T10:17:53Z</time>
      </trkpt>
      <trkpt lat="43.8665" lon="6.63612">
        <ele>1386</ele>
        <time>2009-05-05T10:17:54Z</time>
      </trkpt>
      <trkpt lat="43.86653" lon="6.63637">
        <ele>1387</ele>
        <time>2009-05-05T10:17:55Z</time>
      </trkpt>
      <trkpt lat="43.86655" lon="6.63661">
        <ele>1389</ele>
        <time>2009-05-05T10:17:56Z</time>
      </trkpt>
      <trkpt lat="43.86656" lon="6.63684">
        <ele>1390</ele>
        <time>2009-05-05T10:17:57Z</time>
      </trkpt>
      <trkpt lat="43.86657" lon="6.63705">
        <ele>1391</ele>
        <time>2009-05-05T10:17:58Z</time>
      </trkpt>
      <trkpt lat="43.86656" lon="6.63723">
        <ele>1393</ele>
        <time>2009-05-05T10:17:59Z</time>
      </trkpt>
      <trkpt lat="43.86655" lon="6.63739">
        <ele>1394</ele>
        <time>2009-05-05T10:18:00Z</time>
      </trkpt>
      <trkpt lat="43.86654" lon="6.63752">
        <ele>1395</ele>
        <time>2009-05-05T10:18:01Z</time>
      </trkpt>
      <trkpt lat="43.86654" lon="6.63763">
        <ele>1396</ele>
        <time>2009-05-05T10:18:02Z</time>
      </trkpt>
      <trkpt lat="43.86657" lon="6.63772">
        <ele>1397</ele>
        <time>2009-05-05T10:18:03Z</time>
      </trkpt>
      <trkpt lat="43.86663" lon="6.63775">
        <ele>1397</ele>
        <time>2009-05-05T10:18:04Z</time>
      </trkpt>
      <trkpt lat="43.8667" lon="6.63773">
        <ele>1397</ele>
        <time>2009-05-05T10:18:05Z</time>
      </trkpt>
      <trkpt lat="43.86677" lon="6.63766">
        <ele>1397</ele>
        <time>2009-05-05T10:18:06Z</time>
      </trkpt>
      <trkpt lat="43.86681" lon="6.63753">
        <ele>1396</ele>
        <time>2009-05-05T10:18:07Z</time>
      </trkpt>
      <trkpt lat="43.86681" lon="6.63735">
        <ele>1397</ele>
        <time>2009-05-05T10:18:08Z</time>
      </trkpt>
      <trkpt lat="43.86681" lon="6.63716">
        <ele>1397</ele>
        <time>2009-05-05T10:18:09Z</time>
      </trkpt>
      <trkpt lat="43.8668" lon="6.63697">
        <ele>1397</ele>
        <time>2009-05-05T10:18:10Z</time>
      </trkpt>
      <trkpt lat="43.86679" lon="6.63676">
        <ele>1398</ele>
        <time>2009-05-05T10:18:11Z</time>
      </trkpt>
      <trkpt lat="43.86677" lon="6.63653">
        <ele>1398</ele>
        <time>2009-05-05T10:18:12Z</time>
      </trkpt>
      <trkpt lat="43.86676" lon="6.63628">
        <ele>1399</ele>
        <time>2009-05-05T10:18:13Z</time>
      </trkpt>
      <trkpt lat="43.86676" lon="6.63603">
        <ele>1399</ele>
        <time>2009-05-05T10:18:14Z</time>
      </trkpt>
      <trkpt lat="43.86676" lon="6.63577">
        <ele>1400</ele>
        <time>2009-05-05T10:18:15Z</time>
      </trkpt>
      <trkpt lat="43.86676" lon="6.63551">
        <ele>1401</ele>
        <time>2009-05-05T10:18:16Z</time>
      </trkpt>
      <trkpt lat="43.86677" lon="6.63524">
        <ele>1401</ele>
        <time>2009-05-05T10:18:17Z</time>
      </trkpt>
      <trkpt lat="43.86678" lon="6.63497">
        <ele>1402</ele>
        <time>2009-05-05T10:18:18Z</time>
      </trkpt>
      <trkpt lat="43.8668" lon="6.63469">
        <ele>1403</ele>
        <time>2009-05-05T10:18:19Z</time>
      </trkpt>
      <trkpt lat="43.86683" lon="6.63441">
        <ele>1404</ele>
        <time>2009-05-05T10:18:20Z</time>
      </trkpt>
      <trkpt lat="43.86685" lon="6.63413">
        <ele>1405</ele>
        <time>2009-05-05T10:18:21Z</time>
      </trkpt>
      <trkpt lat="43.86687" lon="6.63384">
        <ele>1406</ele>
        <time>2009-05-05T10:18:22Z</time>
      </trkpt>
      <trkpt lat="43.8669" lon="6.63355">
        <ele>1406</ele>
        <time>2009-05-05T10:18:23Z</time>
      </trkpt>
      <trkpt lat="43.86694" lon="6.63326">
        <ele>1407</ele>
        <time>2009-05-05T10:18:24Z</time>
      </trkpt>
      <trkpt lat="43.86697" lon="6.63297">
        <ele>1409</ele>
        <time>2009-05-05T10:18:25Z</time>
      </trkpt>
      <trkpt lat="43.86699" lon="6.63269">
        <ele>1410</ele>
        <time>2009-05-05T10:18:26Z</time>
      </trkpt>
      <trkpt lat="43.86701" lon="6.63241">
        <ele>1411</ele>
        <time>2009-05-05T10:18:27Z</time>
      </trkpt>
      <trkpt lat="43.86703" lon="6.63214">
        <ele>1413</ele>
        <time>2009-05-05T10:18:28Z</time>
      </trkpt>
      <trkpt lat="43.86705" lon="6.63186">
        <ele>1414</ele>
        <time>2009-05-05T10:18:29Z</time>
      </trkpt>
      <trkpt lat="43.8671" lon="6.63157">
        <ele>1415</ele>
        <time>2009-05-05T10:18:30Z</time>
      </trkpt>
      <trkpt lat="43.86714" lon="6.63128">
        <ele>1416</ele>
        <time>2009-05-05T10:18:31Z</time>
      </trkpt>
      <trkpt lat="43.8672" lon="6.63099">
        <ele>1418</ele>
        <time>2009-05-05T10:18:32Z</time>
      </trkpt>
      <trkpt lat="43.86726" lon="6.6307">
        <ele>1419</ele>
        <time>2009-05-05T10:18:33Z</time>
      </trkpt>
      <trkpt lat="43.86733" lon="6.63042">
        <ele>1421</ele>
        <time>2009-05-05T10:18:34Z</time>
      </trkpt>
      <trkpt lat="43.86741" lon="6.63015">
        <ele>1422</ele>
        <time>2009-05-05T10:18:35Z</time>
      </trkpt>
      <trkpt lat="43.8675" lon="6.62989">
        <ele>1424</ele>
        <time>2009-05-05T10:18:36Z</time>
      </trkpt>
      <trkpt lat="43.86759" lon="6.62964">
        <ele>1426</ele>
        <time>2009-05-05T10:18:37Z</time>
      </trkpt>
      <trkpt lat="43.86769" lon="6.62939">
        <ele>1428</ele>
        <time>2009-05-05T10:18:38Z</time>
      </trkpt>
      <trkpt lat="43.86779" lon="6.62915">
        <ele>1430</ele>
        <time>2009-05-05T10:18:39Z</time>
      </trkpt>
      <trkpt lat="43.8679" lon="6.62892">
        <ele>1431</ele>
        <time>2009-05-05T10:18:40Z</time>
      </trkpt>
      <trkpt lat="43.86802" lon="6.6287">
        <ele>1433</ele>
        <time>2009-05-05T10:18:41Z</time>
      </trkpt>
      <trkpt lat="43.86816" lon="6.62849">
        <ele>1435</ele>
        <time>2009-05-05T10:18:42Z</time>
      </trkpt>
      <trkpt lat="43.86831" lon="6.62829">
        <ele>1437</ele>
        <time>2009-05-05T10:18:43Z</time>
      </trkpt>
      <trkpt lat="43.86845" lon="6.62809">
        <ele>1439</ele>
        <time>2009-05-05T10:18:44Z</time>
      </trkpt>
      <trkpt lat="43.86859" lon="6.6279">
        <ele>1440</ele>
        <time>2009-05-05T10:18:45Z</time>
      </trkpt>
      <trkpt lat="43.86874" lon="6.62772">
        <ele>1442</ele>
        <time>2009-05-05T10:18:46Z</time>
      </trkpt>
      <trkpt lat="43.86888" lon="6.62755">
        <ele>1443</ele>
        <time>2009-05-05T10:18:47Z</time>
      </trkpt>
      <trkpt lat="43.86903" lon="6.6274">
        <ele>1445</ele>
        <time>2009-05-05T10:18:48Z</time>
      </trkpt>
      <trkpt lat="43.86919" lon="6.62727">
        <ele>1446</ele>
        <time>2009-05-05T10:18:49Z</time>
      </trkpt>
      <trkpt lat="43.86933" lon="6.62717">
        <ele>1448</ele>
        <time>2009-05-05T10:18:50Z</time>
      </trkpt>
      <trkpt lat="43.86946" lon="6.62709">
        <ele>1450</ele>
        <time>2009-05-05T10:18:51Z</time>
      </trkpt>
      <trkpt lat="43.86959" lon="6.62706">
        <ele>1452</ele>
        <time>2009-05-05T10:18:52Z</time>
      </trkpt>
      <trkpt lat="43.86972" lon="6.62706">
        <ele>1454</ele>
        <time>2009-05-05T10:18:53Z</time>
      </trkpt>
      <trkpt lat="43.86986" lon="6.62704">
        <ele>1456</ele>
        <time>2009-05-05T10:18:54Z</time>
      </trkpt>
      <trkpt lat="43.87001" lon="6.627">
        <ele>1457</ele>
        <time>2009-05-05T10:18:55Z</time>
      </trkpt>
      <trkpt lat="43.87015" lon="6.62691">
        <ele>1458</ele>
        <time>2009-05-05T10:18:56Z</time>
      </trkpt>
      <trkpt lat="43.87029" lon="6.62679">
        <ele>1460</ele>
        <time>2009-05-05T10:18:57Z</time>
      </trkpt>
      <trkpt lat="43.87043" lon="6.62666">
        <ele>1461</ele>
        <time>2009-05-05T10:18:58Z</time>
      </trkpt>
      <trkpt lat="43.87059" lon="6.62652">
        <ele>1463</ele>
        <time>2009-05-05T10:18:59Z</time>
      </trkpt>
      <trkpt lat="43.87074" lon="6.6264">
        <ele>1465</ele>
        <time>2009-05-05T10:19:00Z</time>
      </trkpt>
      <trkpt lat="43.8709" lon="6.62627">
        <ele>1466</ele>
        <time>2009-05-05T10:19:01Z</time>
      </trkpt>
      <trkpt lat="43.87106" lon="6.62615">
        <ele>1468</ele>
        <time>2009-05-05T10:19:02Z</time>
      </trkpt>
      <trkpt lat="43.87122" lon="6.62602">
        <ele>1469</ele>
        <time>2009-05-05T10:19:03Z</time>
      </trkpt>
      <trkpt lat="43.87137" lon="6.62587">
        <ele>1471</ele>
        <time>2009-05-05T10:19:04Z</time>
      </trkpt>
      <trkpt lat="43.87152" lon="6.6257">
        <ele>1472</ele>
        <time>2009-05-05T10:19:05Z</time>
      </trkpt>
      <trkpt lat="43.87165" lon="6.6255">
        <ele>1474</ele>
        <time>2009-05-05T10:19:06Z</time>
      </trkpt>
      <trkpt lat="43.87177" lon="6.6253">
        <ele>1475</ele>
        <time>2009-05-05T10:19:07Z</time>
      </trkpt>
      <trkpt lat="43.87187" lon="6.62511">
        <ele>1476</ele>
        <time>2009-05-05T10:19:08Z</time>
      </trkpt>
      <trkpt lat="43.87197" lon="6.62495">
        <ele>1477</ele>
        <time>2009-05-05T10:19:09Z</time>
      </trkpt>
      <trkpt lat="43.87206" lon="6.62483">
        <ele>1477</ele>
        <time>2009-05-05T10:19:10Z</time>
      </trkpt>
      <trkpt lat="43.87216" lon="6.62476">
        <ele>1477</ele>
        <time>2009-05-05T10:19:11Z</time>
      </trkpt>
      <trkpt lat="43.87226" lon="6.62474">
        <ele>1477</ele>
        <time>2009-05-05T10:19:12Z</time>
      </trkpt>
      <trkpt lat="43.87238" lon="6.62479">
        <ele>1477</ele>
        <time>2009-05-05T10:19:13Z</time>
      </trkpt>
      <trkpt lat="43.87251" lon="6.62486">
        <ele>1477</ele>
        <time>2009-05-05T10:19:14Z</time>
      </trkpt>
      <trkpt lat="43.87264" lon="6.62489">
        <ele>1477</ele>
        <time>2009-05-05T10:19:15Z</time>
      </trkpt>
      <trkpt lat="43.87279" lon="6.62491">
        <ele>1477</ele>
        <time>2009-05-05T10:19:16Z</time>
      </trkpt>
      <trkpt lat="43.87295" lon="6.6249">
        <ele>1477</ele>
        <time>2009-05-05T10:19:17Z</time>
      </trkpt>
      <trkpt lat="43.87311" lon="6.62487">
        <ele>1477</ele>
        <time>2009-05-05T10:19:18Z</time>
      </trkpt>
      <trkpt lat="43.87328" lon="6.62483">
        <ele>1477</ele>
        <time>2009-05-05T10:19:19Z</time>
      </trkpt>
      <trkpt lat="43.87345" lon="6.62479">
        <ele>1477</ele>
        <time>2009-05-05T10:19:20Z</time>
      </trkpt>
      <trkpt lat="43.87362" lon="6.62475">
        <ele>1477</ele>
        <time>2009-05-05T10:19:21Z</time>
      </trkpt>
      <trkpt lat="43.87376" lon="6.62469">
        <ele>1477</ele>
        <time>2009-05-05T10:19:22Z</time>
      </trkpt>
      <trkpt lat="43.87388" lon="6.62464">
        <ele>1477</ele>
        <time>2009-05-05T10:19:23Z</time>
      </trkpt>
      <trkpt lat="43.87399" lon="6.6246">
        <ele>1477</ele>
        <time>2009-05-05T10:19:24Z</time>
      </trkpt>
      <trkpt lat="43.87406" lon="6.62458">
        <ele>1477</ele>
        <time>2009-05-05T10:19:25Z</time>
      </trkpt>
      <trkpt lat="43.87412" lon="6.62461">
        <ele>1477</ele>
        <time>2009-05-05T10:19:26Z</time>
      </trkpt>
      <trkpt lat="43.87413" lon="6.6247">
        <ele>1477</ele>
        <time>2009-05-05T10:19:27Z</time>
      </trkpt>
      <trkpt lat="43.87408" lon="6.62479">
        <ele>1477</ele>
        <time>2009-05-05T10:19:28Z</time>
      </trkpt>
      <trkpt lat="43.87401" lon="6.62487">
        <ele>1477</ele>
        <time>2009-05-05T10:19:29Z</time>
      </trkpt>
      <trkpt lat="43.87391" lon="6.62492">
        <ele>1477</ele>
        <time>2009-05-05T10:19:30Z</time>
      </trkpt>
      <trkpt lat="43.87379" lon="6.62498">
        <ele>1477</ele>
        <time>2009-05-05T10:19:31Z</time>
      </trkpt>
      <trkpt lat="43.87366" lon="6.62504">
        <ele>1477</ele>
        <time>2009-05-05T10:19:32Z</time>
      </trkpt>
      <trkpt lat="43.87354" lon="6.62512">
        <ele>1477</ele>
        <time>2009-05-05T10:19:33Z</time>
      </trkpt>
      <trkpt lat="43.87341" lon="6.62521">
        <ele>1477</ele>
        <time>2009-05-05T10:19:34Z</time>
      </trkpt>
      <trkpt lat="43.87327" lon="6.62531">
        <ele>1477</ele>
        <time>2009-05-05T10:19:35Z</time>
      </trkpt>
      <trkpt lat="43.87313" lon="6.62542">
        <ele>1477</ele>
        <time>2009-05-05T10:19:36Z</time>
      </trkpt>
      <trkpt lat="43.87298" lon="6.62552">
        <ele>1477</ele>
        <time>2009-05-05T10:19:37Z</time>
      </trkpt>
      <trkpt lat="43.87282" lon="6.62561">
        <ele>1477</ele>
        <time>2009-05-05T10:19:38Z</time>
      </trkpt>
      <trkpt lat="43.87267" lon="6.62567">
        <ele>1477</ele>
        <time>2009-05-05T10:19:39Z</time>
      </trkpt>
      <trkpt lat="43.87253" lon="6.6257">
        <ele>1477</ele>
        <time>2009-05-05T10:19:40Z</time>
      </trkpt>
      <trkpt lat="43.8724" lon="6.62571">
        <ele>1477</ele>
        <time>2009-05-05T10:19:41Z</time>
      </trkpt>
      <trkpt lat="43.8723" lon="6.62571">
        <ele>1477</ele>
        <time>2009-05-05T10:19:42Z</time>
      </trkpt>
      <trkpt lat="43.87222" lon="6.62573">
        <ele>1477</ele>
        <time>2009-05-05T10:19:43Z</time>
      </trkpt>
      <trkpt lat="43.87215" lon="6.62578">
        <ele>1477</ele>
        <time>2009-05-05T10:19:44Z</time>
      </trkpt>
      <trkpt lat="43.87211" lon="6.62584">
        <ele>1477</ele>
        <time>2009-05-05T10:19:45Z</time>
      </trkpt>
      <trkpt lat="43.87212" lon="6.62595">
        <ele>1477</ele>
        <time>2009-05-05T10:19:46Z</time>
      </trkpt>
      <trkpt lat="43.87217" lon="6.62602">
        <ele>1477</ele>
        <time>2009-05-05T10:19:47Z</time>
      </trkpt>
      <trkpt lat="43.87226" lon="6.62607">
        <ele>1477</ele>
        <time>2009-05-05T10:19:48Z</time>
      </trkpt>
      <trkpt lat="43.87255" lon="6.62604">
        <ele>1511</ele>
        <time>2009-05-05T10:19:49Z</time>
      </trkpt>
      <trkpt lat="43.8727" lon="6.626">
        <ele>1512</ele>
        <time>2009-05-05T10:19:50Z</time>
      </trkpt>
      <trkpt lat="43.87285" lon="6.62596">
        <ele>1513</ele>
        <time>2009-05-05T10:19:51Z</time>
      </trkpt>
      <trkpt lat="43.87301" lon="6.62591">
        <ele>1514</ele>
        <time>2009-05-05T10:19:52Z</time>
      </trkpt>
      <trkpt lat="43.87317" lon="6.62586">
        <ele>1515</ele>
        <time>2009-05-05T10:19:53Z</time>
      </trkpt>
      <trkpt lat="43.87334" lon="6.6258">
        <ele>1517</ele>
        <time>2009-05-05T10:19:54Z</time>
      </trkpt>
      <trkpt lat="43.8735" lon="6.62573">
        <ele>1519</ele>
        <time>2009-05-05T10:19:55Z</time>
      </trkpt>
      <trkpt lat="43.87367" lon="6.62566">
        <ele>1520</ele>
        <time>2009-05-05T10:19:56Z</time>
      </trkpt>
      <trkpt lat="43.87384" lon="6.6256">
        <ele>1522</ele>
        <time>2009-05-05T10:19:57Z</time>
      </trkpt>
      <trkpt lat="43.874" lon="6.62554">
        <ele>1523</ele>
        <time>2009-05-05T10:19:58Z</time>
      </trkpt>
      <trkpt lat="43.87414" lon="6.62548">
        <ele>1524</ele>
        <time>2009-05-05T10:19:59Z</time>
      </trkpt>
      <trkpt lat="43.87427" lon="6.62544">
        <ele>1525</ele>
        <time>2009-05-05T10:20:00Z</time>
      </trkpt>
      <trkpt lat="43.87439" lon="6.6254">
        <ele>1526</ele>
        <time>2009-05-05T10:20:01Z</time>
      </trkpt>
      <trkpt lat="43.87449" lon="6.62535">
        <ele>1528</ele>
        <time>2009-05-05T10:20:02Z</time>
      </trkpt>
      <trkpt lat="43.87458" lon="6.62528">
        <ele>1529</ele>
        <time>2009-05-05T10:20:03Z</time>
      </trkpt>
      <trkpt lat="43.87466" lon="6.6252">
        <ele>1530</ele>
        <time>2009-05-05T10:20:04Z</time>
      </trkpt>
      <trkpt lat="43.87473" lon="6.62511">
        <ele>1532</ele>
        <time>2009-05-05T10:20:05Z</time>
      </trkpt>
      <trkpt lat="43.87479" lon="6.62502">
        <ele>1533</ele>
        <time>2009-05-05T10:20:06Z</time>
      </trkpt>
      <trkpt lat="43.87485" lon="6.62494">
        <ele>1534</ele>
        <time>2009-05-05T10:20:07Z</time>
      </trkpt>
      <trkpt lat="43.87492" lon="6.62486">
        <ele>1536</ele>
        <time>2009-05-05T10:20:08Z</time>
      </trkpt>
      <trkpt lat="43.875" lon="6.62479">
        <ele>1537</ele>
        <time>2009-05-05T10:20:09Z</time>
      </trkpt>
      <trkpt lat="43.87509" lon="6.62473">
        <ele>1538</ele>
        <time>2009-05-05T10:20:10Z</time>
      </trkpt>
      <trkpt lat="43.87518" lon="6.62469">
        <ele>1539</ele>
        <time>2009-05-05T10:20:11Z</time>
      </trkpt>
      <trkpt lat="43.87527" lon="6.6247">
        <ele>1539</ele>
        <time>2009-05-05T10:20:12Z</time>
      </trkpt>
      <trkpt lat="43.87534" lon="6.62474">
        <ele>1540</ele>
        <time>2009-05-05T10:20:13Z</time>
      </trkpt>
      <trkpt lat="43.87542" lon="6.62484">
        <ele>1541</ele>
        <time>2009-05-05T10:20:14Z</time>
      </trkpt>
      <trkpt lat="43.87549" lon="6.625">
        <ele>1542</ele>
        <time>2009-05-05T10:20:15Z</time>
      </trkpt>
      <trkpt lat="43.87556" lon="6.62518">
        <ele>1543</ele>
        <time>2009-05-05T10:20:16Z</time>
      </trkpt>
      <trkpt lat="43.87565" lon="6.62535">
        <ele>1543</ele>
        <time>2009-05-05T10:20:17Z</time>
      </trkpt>
      <trkpt lat="43.87575" lon="6.62552">
        <ele>1544</ele>
        <time>2009-05-05T10:20:18Z</time>
      </trkpt>
      <trkpt lat="43.87586" lon="6.62569">
        <ele>1545</ele>
        <time>2009-05-05T10:20:19Z</time>
      </trkpt>
      <trkpt lat="43.87598" lon="6.62586">
        <ele>1545</ele>
        <time>2009-05-05T10:20:20Z</time>
      </trkpt>
      <trkpt lat="43.8761" lon="6.62604">
        <ele>1546</ele>
        <time>2009-05-05T10:20:21Z</time>
      </trkpt>
      <trkpt lat="43.87623" lon="6.6262">
        <ele>1548</ele>
        <time>2009-05-05T10:20:22Z</time>
      </trkpt>
      <trkpt lat="43.87635" lon="6.62635">
        <ele>1548</ele>
        <time>2009-05-05T10:20:23Z</time>
      </trkpt>
      <trkpt lat="43.87646" lon="6.6265">
        <ele>1548</ele>
        <time>2009-05-05T10:20:24Z</time>
      </trkpt>
      <trkpt lat="43.87655" lon="6.62667">
        <ele>1549</ele>
        <time>2009-05-05T10:20:25Z</time>
      </trkpt>
      <trkpt lat="43.87662" lon="6.62687">
        <ele>1551</ele>
        <time>2009-05-05T10:20:26Z</time>
      </trkpt>
      <trkpt lat="43.8767" lon="6.62707">
        <ele>1551</ele>
        <time>2009-05-05T10:20:27Z</time>
      </trkpt>
      <trkpt lat="43.87678" lon="6.62728">
        <ele>1551</ele>
        <time>2009-05-05T10:20:28Z</time>
      </trkpt>
      <trkpt lat="43.87685" lon="6.62747">
        <ele>1553</ele>
        <time>2009-05-05T10:20:29Z</time>
      </trkpt>
      <trkpt lat="43.87692" lon="6.62764">
        <ele>1553</ele>
        <time>2009-05-05T10:20:30Z</time>
      </trkpt>
      <trkpt lat="43.877" lon="6.62781">
        <ele>1554</ele>
        <time>2009-05-05T10:20:31Z</time>
      </trkpt>
      <trkpt lat="43.87707" lon="6.62797">
        <ele>1554</ele>
        <time>2009-05-05T10:20:32Z</time>
      </trkpt>
      <trkpt lat="43.87715" lon="6.62813">
        <ele>1554</ele>
        <time>2009-05-05T10:20:33Z</time>
      </trkpt>
      <trkpt lat="43.87722" lon="6.62827">
        <ele>1555</ele>
        <time>2009-05-05T10:20:34Z</time>
      </trkpt>
      <trkpt lat="43.8773" lon="6.62841">
        <ele>1556</ele>
        <time>2009-05-05T10:20:35Z</time>
      </trkpt>
      <trkpt lat="43.87736" lon="6.62855">
        <ele>1557</ele>
        <time>2009-05-05T10:20:36Z</time>
      </trkpt>
      <trkpt lat="43.87742" lon="6.62867">
        <ele>1557</ele>
        <time>2009-05-05T10:20:37Z</time>
      </trkpt>
      <trkpt lat="43.8775" lon="6.62877">
        <ele>1557</ele>
        <time>2009-05-05T10:20:38Z</time>
      </trkpt>
      <trkpt lat="43.87758" lon="6.62883">
        <ele>1557</ele>
        <time>2009-05-05T10:20:39Z</time>
      </trkpt>
      <trkpt lat="43.87769" lon="6.62884">
        <ele>1557</ele>
        <time>2009-05-05T10:20:40Z</time>
      </trkpt>
      <trkpt lat="43.87782" lon="6.62879">
        <ele>1557</ele>
        <time>2009-05-05T10:20:41Z</time>
      </trkpt>
      <trkpt lat="43.87797" lon="6.62871">
        <ele>1557</ele>
        <time>2009-05-05T10:20:42Z</time>
      </trkpt>
      <trkpt lat="43.87813" lon="6.62859">
        <ele>1558</ele>
        <time>2009-05-05T10:20:43Z</time>
      </trkpt>
      <trkpt lat="43.87827" lon="6.62846">
        <ele>1559</ele>
        <time>2009-05-05T10:20:44Z</time>
      </trkpt>
      <trkpt lat="43.87841" lon="6.62832">
        <ele>1561</ele>
        <time>2009-05-05T10:20:45Z</time>
      </trkpt>
      <trkpt lat="43.87855" lon="6.62816">
        <ele>1563</ele>
        <time>2009-05-05T10:20:46Z</time>
      </trkpt>
      <trkpt lat="43.87866" lon="6.62801">
        <ele>1564</ele>
        <time>2009-05-05T10:20:47Z</time>
      </trkpt>
      <trkpt lat="43.87876" lon="6.62787">
        <ele>1565</ele>
        <time>2009-05-05T10:20:48Z</time>
      </trkpt>
      <trkpt lat="43.87886" lon="6.62777">
        <ele>1566</ele>
        <time>2009-05-05T10:20:49Z</time>
      </trkpt>
      <trkpt lat="43.87897" lon="6.6277">
        <ele>1567</ele>
        <time>2009-05-05T10:20:50Z</time>
      </trkpt>
      <trkpt lat="43.8791" lon="6.62769">
        <ele>1567</ele>
        <time>2009-05-05T10:20:51Z</time>
      </trkpt>
      <trkpt lat="43.87925" lon="6.62771">
        <ele>1566</ele>
        <time>2009-05-05T10:20:52Z</time>
      </trkpt>
      <trkpt lat="43.8794" lon="6.62774">
        <ele>1567</ele>
        <time>2009-05-05T10:20:53Z</time>
      </trkpt>
      <trkpt lat="43.87956" lon="6.62778">
        <ele>1568</ele>
        <time>2009-05-05T10:20:54Z</time>
      </trkpt>
      <trkpt lat="43.87971" lon="6.62782">
        <ele>1569</ele>
        <time>2009-05-05T10:20:55Z</time>
      </trkpt>
      <trkpt lat="43.87987" lon="6.62787">
        <ele>1570</ele>
        <time>2009-05-05T10:20:56Z</time>
      </trkpt>
      <trkpt lat="43.88003" lon="6.62796">
        <ele>1570</ele>
        <time>2009-05-05T10:20:57Z</time>
      </trkpt>
      <trkpt lat="43.88018" lon="6.62808">
        <ele>1571</ele>
        <time>2009-05-05T10:20:58Z</time>
      </trkpt>
      <trkpt lat="43.88034" lon="6.62822">
        <ele>1572</ele>
        <time>2009-05-05T10:20:59Z</time>
      </trkpt>
      <trkpt lat="43.8805" lon="6.62838">
        <ele>1573</ele>
        <time>2009-05-05T10:21:00Z</time>
      </trkpt>
      <trkpt lat="43.88067" lon="6.62854">
        <ele>1574</ele>
        <time>2009-05-05T10:21:01Z</time>
      </trkpt>
      <trkpt lat="43.88084" lon="6.62871">
        <ele>1574</ele>
        <time>2009-05-05T10:21:02Z</time>
      </trkpt>
      <trkpt lat="43.881" lon="6.62888">
        <ele>1575</ele>
        <time>2009-05-05T10:21:03Z</time>
      </trkpt>
      <trkpt lat="43.88118" lon="6.62907">
        <ele>1577</ele>
        <time>2009-05-05T10:21:04Z</time>
      </trkpt>
      <trkpt lat="43.88135" lon="6.62927">
        <ele>1578</ele>
        <time>2009-05-05T10:21:05Z</time>
      </trkpt>
      <trkpt lat="43.88153" lon="6.62947">
        <ele>1579</ele>
        <time>2009-05-05T10:21:06Z</time>
      </trkpt>
      <trkpt lat="43.88171" lon="6.62968">
        <ele>1580</ele>
        <time>2009-05-05T10:21:07Z</time>
      </trkpt>
      <trkpt lat="43.88188" lon="6.62988">
        <ele>1580</ele>
        <time>2009-05-05T10:21:08Z</time>
      </trkpt>
      <trkpt lat="43.88204" lon="6.63007">
        <ele>1581</ele>
        <time>2009-05-05T10:21:09Z</time>
      </trkpt>
      <trkpt lat="43.8822" lon="6.63025">
        <ele>1583</ele>
        <time>2009-05-05T10:21:10Z</time>
      </trkpt>
      <trkpt lat="43.88234" lon="6.63042">
        <ele>1584</ele>
        <time>2009-05-05T10:21:11Z</time>
      </trkpt>
      <trkpt lat="43.88247" lon="6.63057">
        <ele>1585</ele>
        <time>2009-05-05T10:21:12Z</time>
      </trkpt>
      <trkpt lat="43.88261" lon="6.63068">
        <ele>1586</ele>
        <time>2009-05-05T10:21:13Z</time>
      </trkpt>
      <trkpt lat="43.88274" lon="6.63074">
        <ele>1588</ele>
        <time>2009-05-05T10:21:14Z</time>
      </trkpt>
      <trkpt lat="43.88288" lon="6.63075">
        <ele>1589</ele>
        <time>2009-05-05T10:21:15Z</time>
      </trkpt>
      <trkpt lat="43.88302" lon="6.63069">
        <ele>1591</ele>
        <time>2009-05-05T10:21:16Z</time>
      </trkpt>
      <trkpt lat="43.88315" lon="6.63062">
        <ele>1591</ele>
        <time>2009-05-05T10:21:17Z</time>
      </trkpt>
      <trkpt lat="43.88328" lon="6.63056">
        <ele>1592</ele>
        <time>2009-05-05T10:21:18Z</time>
      </trkpt>
      <trkpt lat="43.88342" lon="6.63053">
        <ele>1592</ele>
        <time>2009-05-05T10:21:19Z</time>
      </trkpt>
      <trkpt lat="43.88352" lon="6.63053">
        <ele>1593</ele>
        <time>2009-05-05T10:21:20Z</time>
      </trkpt>
      <trkpt lat="43.88361" lon="6.63057">
        <ele>1594</ele>
        <time>2009-05-05T10:21:21Z</time>
      </trkpt>
      <trkpt lat="43.88369" lon="6.63064">
        <ele>1595</ele>
        <time>2009-05-05T10:21:22Z</time>
      </trkpt>
      <trkpt lat="43.88377" lon="6.63074">
        <ele>1596</ele>
        <time>2009-05-05T10:21:23Z</time>
      </trkpt>
      <trkpt lat="43.88384" lon="6.63086">
        <ele>1597</ele>
        <time>2009-05-05T10:21:24Z</time>
      </trkpt>
      <trkpt lat="43.88392" lon="6.631">
        <ele>1597</ele>
        <time>2009-05-05T10:21:25Z</time>
      </trkpt>
      <trkpt lat="43.88401" lon="6.63114">
        <ele>1598</ele>
        <time>2009-05-05T10:21:26Z</time>
      </trkpt>
      <trkpt lat="43.8841" lon="6.63127">
        <ele>1598</ele>
        <time>2009-05-05T10:21:27Z</time>
      </trkpt>
      <trkpt lat="43.88418" lon="6.63142">
        <ele>1600</ele>
        <time>2009-05-05T10:21:28Z</time>
      </trkpt>
      <trkpt lat="43.88425" lon="6.63159">
        <ele>1602</ele>
        <time>2009-05-05T10:21:29Z</time>
      </trkpt>
      <trkpt lat="43.88431" lon="6.63177">
        <ele>1604</ele>
        <time>2009-05-05T10:21:30Z</time>
      </trkpt>
      <trkpt lat="43.88435" lon="6.63197">
        <ele>1605</ele>
        <time>2009-05-05T10:21:31Z</time>
      </trkpt>
      <trkpt lat="43.88438" lon="6.63217">
        <ele>1606</ele>
        <time>2009-05-05T10:21:32Z</time>
      </trkpt>
      <trkpt lat="43.88441" lon="6.63236">
        <ele>1608</ele>
        <time>2009-05-05T10:21:33Z</time>
      </trkpt>
      <trkpt lat="43.88443" lon="6.63255">
        <ele>1608</ele>
        <time>2009-05-05T10:21:34Z</time>
      </trkpt>
      <trkpt lat="43.88446" lon="6.63273">
        <ele>1609</ele>
        <time>2009-05-05T10:21:35Z</time>
      </trkpt>
      <trkpt lat="43.88448" lon="6.6329">
        <ele>1610</ele>
        <time>2009-05-05T10:21:36Z</time>
      </trkpt>
      <trkpt lat="43.88452" lon="6.63305">
        <ele>1610</ele>
        <time>2009-05-05T10:21:37Z</time>
      </trkpt>
      <trkpt lat="43.88457" lon="6.63319">
        <ele>1610</ele>
        <time>2009-05-05T10:21:38Z</time>
      </trkpt>
      <trkpt lat="43.88462" lon="6.63332">
        <ele>1611</ele>
        <time>2009-05-05T10:21:39Z</time>
      </trkpt>
      <trkpt lat="43.88468" lon="6.63345">
        <ele>1611</ele>
        <time>2009-05-05T10:21:40Z</time>
      </trkpt>
      <trkpt lat="43.88473" lon="6.63357">
        <ele>1611</ele>
        <time>2009-05-05T10:21:41Z</time>
      </trkpt>
      <trkpt lat="43.88478" lon="6.63368">
        <ele>1611</ele>
        <time>2009-05-05T10:21:42Z</time>
      </trkpt>
      <trkpt lat="43.88483" lon="6.63379">
        <ele>1611</ele>
        <time>2009-05-05T10:21:43Z</time>
      </trkpt>
      <trkpt lat="43.88487" lon="6.63389">
        <ele>1611</ele>
        <time>2009-05-05T10:21:44Z</time>
      </trkpt>
      <trkpt lat="43.8849" lon="6.63374">
        <ele>1606.3</ele>
      </trkpt>
      <trkpt lat="43.88496" lon="6.63387">
        <ele>1606.7</ele>
      </trkpt>
      <trkpt lat="43.88496" lon="6.63395">
        <ele>1616</ele>
        <time>2009-05-05T09:00:04Z</time>
      </trkpt>
      <trkpt lat="43.88495" lon="6.63406">
        <ele>1617</ele>
        <time>2009-05-05T09:00:10Z</time>
      </trkpt>
      <trkpt lat="43.88491" lon="6.63413">
        <ele>1615</ele>
        <time>2009-05-05T09:00:13Z</time>
      </trkpt>
      <trkpt lat="43.88483" lon="6.63427">
        <ele>1612</ele>
        <time>2009-05-05T09:00:16Z</time>
      </trkpt>
      <trkpt lat="43.88476" lon="6.63441">
        <ele>1611</ele>
        <time>2009-05-05T09:00:19Z</time>
      </trkpt>
      <trkpt lat="43.88469" lon="6.63453">
        <ele>1609</ele>
        <time>2009-05-05T09:00:22Z</time>
      </trkpt>
      <trkpt lat="43.88463" lon="6.63455">
        <ele>1610</ele>
        <time>2009-05-05T09:00:55Z</time>
      </trkpt>
      <trkpt lat="43.88458" lon="6.63464">
        <ele>1608</ele>
        <time>2009-05-05T09:00:58Z</time>
      </trkpt>
      <trkpt lat="43.88452" lon="6.63478">
        <ele>1607</ele>
        <time>2009-05-05T09:01:01Z</time>
      </trkpt>
      <trkpt lat="43.88447" lon="6.63494">
        <ele>1606</ele>
        <time>2009-05-05T09:01:04Z</time>
      </trkpt>
      <trkpt lat="43.88444" lon="6.63512">
        <ele>1606</ele>
        <time>2009-05-05T09:01:07Z</time>
      </trkpt>
      <trkpt lat="43.88442" lon="6.63529">
        <ele>1606</ele>
        <time>2009-05-05T09:01:10Z</time>
      </trkpt>
      <trkpt lat="43.88439" lon="6.63546">
        <ele>1608</ele>
        <time>2009-05-05T09:01:13Z</time>
      </trkpt>
      <trkpt lat="43.88437" lon="6.63565">
        <ele>1608</ele>
        <time>2009-05-05T09:01:16Z</time>
      </trkpt>
      <trkpt lat="43.88434" lon="6.63584">
        <ele>1607</ele>
        <time>2009-05-05T09:01:19Z</time>
      </trkpt>
      <trkpt lat="43.8843" lon="6.63604">
        <ele>1605</ele>
        <time>2009-05-05T09:01:22Z</time>
      </trkpt>
      <trkpt lat="43.88426" lon="6.63625">
        <ele>1605</ele>
        <time>2009-05-05T09:01:25Z</time>
      </trkpt>
      <trkpt lat="43.88422" lon="6.63653">
        <ele>1603</ele>
        <time>2009-05-05T09:01:28Z</time>
      </trkpt>
      <trkpt lat="43.8842" lon="6.63668">
        <ele>1603</ele>
        <time>2009-05-05T09:01:31Z</time>
      </trkpt>
      <trkpt lat="43.88419" lon="6.63689">
        <ele>1602</ele>
        <time>2009-05-05T09:01:34Z</time>
      </trkpt>
      <trkpt lat="43.88418" lon="6.63706">
        <ele>1603</ele>
        <time>2009-05-05T09:01:37Z</time>
      </trkpt>
      <trkpt lat="43.88416" lon="6.63719">
        <ele>1604</ele>
        <time>2009-05-05T09:01:40Z</time>
      </trkpt>
      <trkpt lat="43.88414" lon="6.63732">
        <ele>1606</ele>
        <time>2009-05-05T09:01:43Z</time>
      </trkpt>
      <trkpt lat="43.8841" lon="6.63743">
        <ele>1607</ele>
        <time>2009-05-05T09:01:46Z</time>
      </trkpt>
      <trkpt lat="43.88402" lon="6.63752">
        <ele>1608</ele>
        <time>2009-05-05T09:01:49Z</time>
      </trkpt>
      <trkpt lat="43.88395" lon="6.63758">
        <ele>1606</ele>
        <time>2009-05-05T09:01:52Z</time>
      </trkpt>
      <trkpt lat="43.88389" lon="6.63766">
        <ele>1606</ele>
        <time>2009-05-05T09:01:55Z</time>
      </trkpt>
      <trkpt lat="43.88385" lon="6.63777">
        <ele>1607</ele>
        <time>2009-05-05T09:01:58Z</time>
      </trkpt>
      <trkpt lat="43.88382" lon="6.63786">
        <ele>1607</ele>
        <time>2009-05-05T09:02:01Z</time>
      </trkpt>
      <trkpt lat="43.8838" lon="6.63797">
        <ele>1608</ele>
        <time>2009-05-05T09:02:04Z</time>
      </trkpt>
      <trkpt lat="43.88378" lon="6.63808">
        <ele>1607</ele>
        <time>2009-05-05T09:02:07Z</time>
      </trkpt>
      <trkpt lat="43.88378" lon="6.63821">
        <ele>1607</ele>
        <time>2009-05-05T09:02:10Z</time>
      </trkpt>
      <trkpt lat="43.88376" lon="6.63833">
        <ele>1606</ele>
        <time>2009-05-05T09:02:13Z</time>
      </trkpt>
      <trkpt lat="43.88376" lon="6.63844">
        <ele>1606</ele>
        <time>2009-05-05T09:02:16Z</time>
      </trkpt>
      <trkpt lat="43.88376" lon="6.63856">
        <ele>1605</ele>
        <time>2009-05-05T09:02:19Z</time>
      </trkpt>
      <trkpt lat="43.88373" lon="6.63867">
        <ele>1605</ele>
        <time>2009-05-05T09:02:22Z</time>
      </trkpt>
      <trkpt lat="43.88371" lon="6.63877">
        <ele>1605</ele>
        <time>2009-05-05T09:02:25Z</time>
      </trkpt>
      <trkpt lat="43.88369" lon="6.63885">
        <ele>1604</ele>
        <time>2009-05-05T09:02:28Z</time>
      </trkpt>
      <trkpt lat="43.88367" lon="6.63893">
        <ele>1604</ele>
        <time>2009-05-05T09:02:31Z</time>
      </trkpt>
      <trkpt lat="43.88365" lon="6.63904">
        <ele>1604</ele>
        <time>2009-05-05T09:02:34Z</time>
      </trkpt>
      <trkpt lat="43.88362" lon="6.63916">
        <ele>1604</ele>
        <time>2009-05-05T09:02:37Z</time>
      </trkpt>
      <trkpt lat="43.8836" lon="6.63924">
        <ele>1604</ele>
        <time>2009-05-05T09:02:40Z</time>
      </trkpt>
      <trkpt lat="43.88359" lon="6.63931">
        <ele>1604</ele>
        <time>2009-05-05T09:02:43Z</time>
      </trkpt>
      <trkpt lat="43.88353" lon="6.63943">
        <ele>1605</ele>
        <time>2009-05-05T09:02:49Z</time>
      </trkpt>
      <trkpt lat="43.8835" lon="6.63951">
        <ele>1605</ele>
        <time>2009-05-05T09:02:52Z</time>
      </trkpt>
      <trkpt lat="43.88347" lon="6.6396">
        <ele>1605</ele>
        <time>2009-05-05T09:02:55Z</time>
      </trkpt>
      <trkpt lat="43.88347" lon="6.63971">
        <ele>1604</ele>
        <time>2009-05-05T09:02:58Z</time>
      </trkpt>
      <trkpt lat="43.88347" lon="6.63981">
        <ele>1604</ele>
        <time>2009-05-05T09:03:01Z</time>
      </trkpt>
      <trkpt lat="43.88347" lon="6.63991">
        <ele>1605</ele>
        <time>2009-05-05T09:03:04Z</time>
      </trkpt>
      <trkpt lat="43.88346" lon="6.64001">
        <ele>1606</ele>
        <time>2009-05-05T09:03:07Z</time>
      </trkpt>
      <trkpt lat="43.88344" lon="6.6401">
        <ele>1606</ele>
        <time>2009-05-05T09:03:13Z</time>
      </trkpt>
      <trkpt lat="43.88343" lon="6.64018">
        <ele>1607</ele>
        <time>2009-05-05T09:03:16Z</time>
      </trkpt>
      <trkpt lat="43.88338" lon="6.6403">
        <ele>1609</ele>
        <time>2009-05-05T09:03:22Z</time>
      </trkpt>
      <trkpt lat="43.88334" lon="6.64038">
        <ele>1609</ele>
        <time>2009-05-05T09:03:34Z</time>
      </trkpt>
      <trkpt lat="43.88331" lon="6.64044">
        <ele>1608</ele>
        <time>2009-05-05T09:03:40Z</time>
      </trkpt>
      <trkpt lat="43.88331" lon="6.64052">
        <ele>1608</ele>
        <time>2009-05-05T09:03:46Z</time>
      </trkpt>
      <trkpt lat="43.88331" lon="6.64061">
        <ele>1609</ele>
        <time>2009-05-05T09:03:55Z</time>
      </trkpt>
      <trkpt lat="43.88336" lon="6.64069">
        <ele>1610</ele>
        <time>2009-05-05T09:04:04Z</time>
      </trkpt>
      <trkpt lat="43.88341" lon="6.64073">
        <ele>1608</ele>
        <time>2009-05-05T09:04:13Z</time>
      </trkpt>
      <trkpt lat="43.88348" lon="6.6408">
        <ele>1608</ele>
        <time>2009-05-05T09:04:22Z</time>
      </trkpt>
      <trkpt lat="43.88355" lon="6.64088">
        <ele>1608</ele>
        <time>2009-05-05T09:04:25Z</time>
      </trkpt>
      <trkpt lat="43.88361" lon="6.64104">
        <ele>1608</ele>
        <time>2009-05-05T09:04:28Z</time>
      </trkpt>
      <trkpt lat="43.88364" lon="6.64117">
        <ele>1607</ele>
        <time>2009-05-05T09:04:31Z</time>
      </trkpt>
      <trkpt lat="43.88364" lon="6.6413">
        <ele>1607</ele>
        <time>2009-05-05T09:04:34Z</time>
      </trkpt>
      <trkpt lat="43.88363" lon="6.64142">
        <ele>1605</ele>
        <time>2009-05-05T09:04:37Z</time>
      </trkpt>
      <trkpt lat="43.88368" lon="6.64152">
        <ele>1608</ele>
        <time>2009-05-05T09:04:46Z</time>
      </trkpt>
      <trkpt lat="43.88372" lon="6.64157">
        <ele>1606</ele>
        <time>2009-05-05T09:04:52Z</time>
      </trkpt>
      <trkpt lat="43.88378" lon="6.64165">
        <ele>1607</ele>
        <time>2009-05-05T09:05:01Z</time>
      </trkpt>
      <trkpt lat="43.88381" lon="6.64172">
        <ele>1605</ele>
        <time>2009-05-05T09:05:04Z</time>
      </trkpt>
      <trkpt lat="43.88385" lon="6.64181">
        <ele>1604</ele>
        <time>2009-05-05T09:05:07Z</time>
      </trkpt>
      <trkpt lat="43.88392" lon="6.64194">
        <ele>1602</ele>
        <time>2009-05-05T09:05:10Z</time>
      </trkpt>
      <trkpt lat="43.88404" lon="6.6421">
        <ele>1600</ele>
        <time>2009-05-05T09:05:13Z</time>
      </trkpt>
      <trkpt lat="43.88413" lon="6.64228">
        <ele>1597</ele>
        <time>2009-05-05T09:05:16Z</time>
      </trkpt>
      <trkpt lat="43.8842" lon="6.6424">
        <ele>1594</ele>
        <time>2009-05-05T09:05:19Z</time>
      </trkpt>
      <trkpt lat="43.88422" lon="6.64249">
        <ele>1594</ele>
        <time>2009-05-05T09:05:22Z</time>
      </trkpt>
      <trkpt lat="43.88425" lon="6.64255">
        <ele>1592</ele>
        <time>2009-05-05T09:05:28Z</time>
      </trkpt>
      <trkpt lat="43.88429" lon="6.64264">
        <ele>1592</ele>
        <time>2009-05-05T09:05:34Z</time>
      </trkpt>
      <trkpt lat="43.88432" lon="6.64273">
        <ele>1592</ele>
        <time>2009-05-05T09:05:40Z</time>
      </trkpt>
      <trkpt lat="43.88436" lon="6.64283">
        <ele>1592</ele>
        <time>2009-05-05T09:05:46Z</time>
      </trkpt>
      <trkpt lat="43.88443" lon="6.64288">
        <ele>1592</ele>
        <time>2009-05-05T09:05:52Z</time>
      </trkpt>
      <trkpt lat="43.88449" lon="6.64302">
        <ele>1592</ele>
        <time>2009-05-05T09:05:58Z</time>
      </trkpt>
      <trkpt lat="43.88454" lon="6.64314">
        <ele>1592</ele>
        <time>2009-05-05T09:06:01Z</time>
      </trkpt>
      <trkpt lat="43.88459" lon="6.64329">
        <ele>1592</ele>
        <time>2009-05-05T09:06:04Z</time>
      </trkpt>
      <trkpt lat="43.88462" lon="6.64341">
        <ele>1578</ele>
        <time>2009-05-05T09:06:07Z</time>
      </trkpt>
      <trkpt lat="43.88465" lon="6.64349">
        <ele>1575</ele>
        <time>2009-05-05T09:06:13Z</time>
      </trkpt>
      <trkpt lat="43.88473" lon="6.64352">
        <ele>1575</ele>
        <time>2009-05-05T09:06:19Z</time>
      </trkpt>
      <trkpt lat="43.8848" lon="6.64352">
        <ele>1573</ele>
        <time>2009-05-05T09:06:28Z</time>
      </trkpt>
      <trkpt lat="43.88482" lon="6.64361">
        <ele>1569</ele>
        <time>2009-05-05T09:06:46Z</time>
      </trkpt>
      <trkpt lat="43.88483" lon="6.64369">
        <ele>1572</ele>
        <time>2009-05-05T09:07:01Z</time>
      </trkpt>
      <trkpt lat="43.88484" lon="6.64378">
        <ele>1573</ele>
        <time>2009-05-05T09:07:07Z</time>
      </trkpt>
      <trkpt lat="43.88493" lon="6.64391">
        <ele>1574</ele>
        <time>2009-05-05T09:07:13Z</time>
      </trkpt>
      <trkpt lat="43.88501" lon="6.64401">
        <ele>1573</ele>
        <time>2009-05-05T09:07:16Z</time>
      </trkpt>
      <trkpt lat="43.88509" lon="6.64412">
        <ele>1573</ele>
        <time>2009-05-05T09:07:19Z</time>
      </trkpt>
      <trkpt lat="43.88515" lon="6.64419">
        <ele>1573</ele>
        <time>2009-05-05T09:07:22Z</time>
      </trkpt>
      <trkpt lat="43.88521" lon="6.64428">
        <ele>1573</ele>
        <time>2009-05-05T09:07:28Z</time>
      </trkpt>
      <trkpt lat="43.88526" lon="6.64438">
        <ele>1574</ele>
        <time>2009-05-05T09:07:31Z</time>
      </trkpt>
      <trkpt lat="43.88531" lon="6.64446">
        <ele>1575</ele>
        <time>2009-05-05T09:07:37Z</time>
      </trkpt>
      <trkpt lat="43.88541" lon="6.64453">
        <ele>1575</ele>
        <time>2009-05-05T09:07:43Z</time>
      </trkpt>
      <trkpt lat="43.88549" lon="6.64459">
        <ele>1574</ele>
        <time>2009-05-05T09:07:46Z</time>
      </trkpt>
      <trkpt lat="43.88557" lon="6.64469">
        <ele>1573</ele>
        <time>2009-05-05T09:07:49Z</time>
      </trkpt>
      <trkpt lat="43.88567" lon="6.64481">
        <ele>1571</ele>
        <time>2009-05-05T09:07:52Z</time>
      </trkpt>
      <trkpt lat="43.88577" lon="6.64494">
        <ele>1570</ele>
        <time>2009-05-05T09:07:55Z</time>
      </trkpt>
      <trkpt lat="43.88589" lon="6.64504">
        <ele>1568</ele>
        <time>2009-05-05T09:07:58Z</time>
      </trkpt>
      <trkpt lat="43.88601" lon="6.64516">
        <ele>1567</ele>
        <time>2009-05-05T09:08:01Z</time>
      </trkpt>
      <trkpt lat="43.88615" lon="6.64529">
        <ele>1565</ele>
        <time>2009-05-05T09:08:04Z</time>
      </trkpt>
      <trkpt lat="43.88628" lon="6.64542">
        <ele>1563</ele>
        <time>2009-05-05T09:08:07Z</time>
      </trkpt>
      <trkpt lat="43.88642" lon="6.64557">
        <ele>1561</ele>
        <time>2009-05-05T09:08:10Z</time>
      </trkpt>
      <trkpt lat="43.88657" lon="6.64572">
        <ele>1560</ele>
        <time>2009-05-05T09:08:13Z</time>
      </trkpt>
      <trkpt lat="43.88673" lon="6.64588">
        <ele>1559</ele>
        <time>2009-05-05T09:08:16Z</time>
      </trkpt>
      <trkpt lat="43.88684" lon="6.64599">
        <ele>1559</ele>
        <time>2009-05-05T09:08:19Z</time>
      </trkpt>
      <trkpt lat="43.88691" lon="6.64604">
        <ele>1559</ele>
        <time>2009-05-05T09:08:28Z</time>
      </trkpt>
      <trkpt lat="43.88698" lon="6.64609">
        <ele>1557</ele>
        <time>2009-05-05T09:08:37Z</time>
      </trkpt>
      <trkpt lat="43.88702" lon="6.64615">
        <ele>1557</ele>
        <time>2009-05-05T09:08:40Z</time>
      </trkpt>
      <trkpt lat="43.88707" lon="6.64624">
        <ele>1557</ele>
        <time>2009-05-05T09:08:43Z</time>
      </trkpt>
      <trkpt lat="43.88713" lon="6.64633">
        <ele>1557</ele>
        <time>2009-05-05T09:08:46Z</time>
      </trkpt>
      <trkpt lat="43.88722" lon="6.64642">
        <ele>1557</ele>
        <time>2009-05-05T09:08:49Z</time>
      </trkpt>
      <trkpt lat="43.8873" lon="6.64652">
        <ele>1557</ele>
        <time>2009-05-05T09:08:52Z</time>
      </trkpt>
      <trkpt lat="43.88737" lon="6.64662">
        <ele>1557</ele>
        <time>2009-05-05T09:08:55Z</time>
      </trkpt>
      <trkpt lat="43.88745" lon="6.64671">
        <ele>1557</ele>
        <time>2009-05-05T09:08:58Z</time>
      </trkpt>
      <trkpt lat="43.8875" lon="6.64683">
        <ele>1558</ele>
        <time>2009-05-05T09:09:01Z</time>
      </trkpt>
      <trkpt lat="43.88756" lon="6.64698">
        <ele>1556</ele>
        <time>2009-05-05T09:09:04Z</time>
      </trkpt>
      <trkpt lat="43.88767" lon="6.64711">
        <ele>1555</ele>
        <time>2009-05-05T09:09:07Z</time>
      </trkpt>
      <trkpt lat="43.88775" lon="6.64719">
        <ele>1554</ele>
        <time>2009-05-05T09:09:10Z</time>
      </trkpt>
      <trkpt lat="43.88783" lon="6.64729">
        <ele>1554</ele>
        <time>2009-05-05T09:09:16Z</time>
      </trkpt>
      <trkpt lat="43.88787" lon="6.64734">
        <ele>1552</ele>
        <time>2009-05-05T09:09:22Z</time>
      </trkpt>
      <trkpt lat="43.8879" lon="6.64743">
        <ele>1552</ele>
        <time>2009-05-05T09:09:28Z</time>
      </trkpt>
      <trkpt lat="43.88796" lon="6.6475">
        <ele>1552</ele>
        <time>2009-05-05T09:09:34Z</time>
      </trkpt>
      <trkpt lat="43.88799" lon="6.64757">
        <ele>1551</ele>
        <time>2009-05-05T09:09:43Z</time>
      </trkpt>
      <trkpt lat="43.88807" lon="6.6477">
        <ele>1550</ele>
        <time>2009-05-05T09:09:49Z</time>
      </trkpt>
      <trkpt lat="43.88813" lon="6.64781">
        <ele>1550</ele>
        <time>2009-05-05T09:09:52Z</time>
      </trkpt>
      <trkpt lat="43.8882" lon="6.64794">
        <ele>1550</ele>
        <time>2009-05-05T09:09:55Z</time>
      </trkpt>
      <trkpt lat="43.88828" lon="6.64809">
        <ele>1548</ele>
        <time>2009-05-05T09:09:58Z</time>
      </trkpt>
      <trkpt lat="43.88837" lon="6.64823">
        <ele>1545</ele>
        <time>2009-05-05T09:10:01Z</time>
      </trkpt>
      <trkpt lat="43.88844" lon="6.64835">
        <ele>1544</ele>
        <time>2009-05-05T09:10:04Z</time>
      </trkpt>
      <trkpt lat="43.88848" lon="6.64843">
        <ele>1543</ele>
        <time>2009-05-05T09:10:13Z</time>
      </trkpt>
      <trkpt lat="43.88851" lon="6.6485">
        <ele>1542</ele>
        <time>2009-05-05T09:10:22Z</time>
      </trkpt>
      <trkpt lat="43.88857" lon="6.64855">
        <ele>1542</ele>
        <time>2009-05-05T09:10:25Z</time>
      </trkpt>
      <trkpt lat="43.88865" lon="6.64865">
        <ele>1541</ele>
        <time>2009-05-05T09:10:28Z</time>
      </trkpt>
      <trkpt lat="43.88872" lon="6.64879">
        <ele>1539</ele>
        <time>2009-05-05T09:10:31Z</time>
      </trkpt>
      <trkpt lat="43.88876" lon="6.6489">
        <ele>1538</ele>
        <time>2009-05-05T09:10:34Z</time>
      </trkpt>
      <trkpt lat="43.88882" lon="6.64903">
        <ele>1537</ele>
        <time>2009-05-05T09:10:38Z</time>
      </trkpt>
      <trkpt lat="43.88889" lon="6.64918">
        <ele>1534</ele>
        <time>2009-05-05T09:10:41Z</time>
      </trkpt>
      <trkpt lat="43.88892" lon="6.64926">
        <ele>1532</ele>
        <time>2009-05-05T09:10:44Z</time>
      </trkpt>
      <trkpt lat="43.88895" lon="6.64933">
        <ele>1532</ele>
        <time>2009-05-05T09:10:47Z</time>
      </trkpt>
      <trkpt lat="43.88896" lon="6.64943">
        <ele>1531</ele>
        <time>2009-05-05T09:10:53Z</time>
      </trkpt>
      <trkpt lat="43.88901" lon="6.64951">
        <ele>1530</ele>
        <time>2009-05-05T09:10:56Z</time>
      </trkpt>
      <trkpt lat="43.88907" lon="6.64963">
        <ele>1530</ele>
        <time>2009-05-05T09:10:59Z</time>
      </trkpt>
      <trkpt lat="43.88912" lon="6.64977">
        <ele>1529</ele>
        <time>2009-05-05T09:11:02Z</time>
      </trkpt>
      <trkpt lat="43.88919" lon="6.64988">
        <ele>1529</ele>
        <time>2009-05-05T09:11:05Z</time>
      </trkpt>
      <trkpt lat="43.88921" lon="6.64995">
        <ele>1529</ele>
        <time>2009-05-05T09:11:08Z</time>
      </trkpt>
      <trkpt lat="43.88923" lon="6.65008">
        <ele>1529</ele>
        <time>2009-05-05T09:11:53Z</time>
      </trkpt>
      <trkpt lat="43.88926" lon="6.65027">
        <ele>1527</ele>
        <time>2009-05-05T09:11:56Z</time>
      </trkpt>
      <trkpt lat="43.88934" lon="6.65051">
        <ele>1525</ele>
        <time>2009-05-05T09:11:59Z</time>
      </trkpt>
      <trkpt lat="43.88941" lon="6.65065">
        <ele>1523</ele>
        <time>2009-05-05T09:12:02Z</time>
      </trkpt>
      <trkpt lat="43.88945" lon="6.65078">
        <ele>1520</ele>
        <time>2009-05-05T09:12:08Z</time>
      </trkpt>
      <trkpt lat="43.88952" lon="6.65096">
        <ele>1518</ele>
        <time>2009-05-05T09:12:11Z</time>
      </trkpt>
      <trkpt lat="43.88956" lon="6.65111">
        <ele>1514</ele>
        <time>2009-05-05T09:12:14Z</time>
      </trkpt>
      <trkpt lat="43.88956" lon="6.65121">
        <ele>1512</ele>
        <time>2009-05-05T09:12:17Z</time>
      </trkpt>
      <trkpt lat="43.88963" lon="6.65132">
        <ele>1508</ele>
        <time>2009-05-05T09:12:23Z</time>
      </trkpt>
      <trkpt lat="43.88969" lon="6.65144">
        <ele>1507</ele>
        <time>2009-05-05T09:12:26Z</time>
      </trkpt>
      <trkpt lat="43.88978" lon="6.65164">
        <ele>1506</ele>
        <time>2009-05-05T09:12:29Z</time>
      </trkpt>
      <trkpt lat="43.88985" lon="6.65185">
        <ele>1503</ele>
        <time>2009-05-05T09:12:32Z</time>
      </trkpt>
      <trkpt lat="43.88992" lon="6.65208">
        <ele>1500</ele>
        <time>2009-05-05T09:12:35Z</time>
      </trkpt>
      <trkpt lat="43.88996" lon="6.65226">
        <ele>1498</ele>
        <time>2009-05-05T09:12:38Z</time>
      </trkpt>
      <trkpt lat="43.89" lon="6.65244">
        <ele>1496</ele>
        <time>2009-05-05T09:12:41Z</time>
      </trkpt>
      <trkpt lat="43.89001" lon="6.65264">
        <ele>1493</ele>
        <time>2009-05-05T09:12:44Z</time>
      </trkpt>
      <trkpt lat="43.89009" lon="6.65287">
        <ele>1490</ele>
        <time>2009-05-05T09:12:47Z</time>
      </trkpt>
      <trkpt lat="43.89014" lon="6.65316">
        <ele>1487</ele>
        <time>2009-05-05T09:12:50Z</time>
      </trkpt>
      <trkpt lat="43.89021" lon="6.6534">
        <ele>1484</ele>
        <time>2009-05-05T09:12:53Z</time>
      </trkpt>
      <trkpt lat="43.89025" lon="6.65365">
        <ele>1481</ele>
        <time>2009-05-05T09:12:56Z</time>
      </trkpt>
      <trkpt lat="43.89026" lon="6.65392">
        <ele>1476</ele>
        <time>2009-05-05T09:12:59Z</time>
      </trkpt>
      <trkpt lat="43.89027" lon="6.65416">
        <ele>1474</ele>
        <time>2009-05-05T09:13:02Z</time>
      </trkpt>
      <trkpt lat="43.89034" lon="6.65431">
        <ele>1471</ele>
        <time>2009-05-05T09:13:05Z</time>
      </trkpt>
      <trkpt lat="43.89041" lon="6.65435">
        <ele>1464</ele>
        <time>2009-05-05T09:13:11Z</time>
      </trkpt>
      <trkpt lat="43.89047" lon="6.65445">
        <ele>1461</ele>
        <time>2009-05-05T09:13:14Z</time>
      </trkpt>
      <trkpt lat="43.89062" lon="6.65429">
        <ele>1456</ele>
        <time>2009-05-05T09:13:20Z</time>
      </trkpt>
      <trkpt lat="43.89077" lon="6.65417">
        <ele>1454</ele>
        <time>2009-05-05T09:13:23Z</time>
      </trkpt>
      <trkpt lat="43.89087" lon="6.65413">
        <ele>1451</ele>
        <time>2009-05-05T09:13:26Z</time>
      </trkpt>
      <trkpt lat="43.89091" lon="6.65436">
        <ele>1448</ele>
        <time>2009-05-05T09:13:29Z</time>
      </trkpt>
      <trkpt lat="43.89094" lon="6.65455">
        <ele>1446</ele>
        <time>2009-05-05T09:13:32Z</time>
      </trkpt>
      <trkpt lat="43.89095" lon="6.65466">
        <ele>1444</ele>
        <time>2009-05-05T09:13:35Z</time>
      </trkpt>
      <trkpt lat="43.89095" lon="6.65473">
        <ele>1443</ele>
        <time>2009-05-05T09:13:41Z</time>
      </trkpt>
      <trkpt lat="43.89097" lon="6.65481">
        <ele>1444</ele>
        <time>2009-05-05T09:13:50Z</time>
      </trkpt>
      <trkpt lat="43.89096" lon="6.6549">
        <ele>1442</ele>
        <time>2009-05-05T09:13:56Z</time>
      </trkpt>
      <trkpt lat="43.89099" lon="6.655">
        <ele>1438</ele>
        <time>2009-05-05T09:14:05Z</time>
      </trkpt>
      <trkpt lat="43.89102" lon="6.65512">
        <ele>1436</ele>
        <time>2009-05-05T09:14:08Z</time>
      </trkpt>
      <trkpt lat="43.89105" lon="6.6552">
        <ele>1434</ele>
        <time>2009-05-05T09:14:11Z</time>
      </trkpt>
      <trkpt lat="43.89107" lon="6.6553">
        <ele>1431</ele>
        <time>2009-05-05T09:14:14Z</time>
      </trkpt>
      <trkpt lat="43.89108" lon="6.65545">
        <ele>1427</ele>
        <time>2009-05-05T09:14:17Z</time>
      </trkpt>
      <trkpt lat="43.89113" lon="6.65559">
        <ele>1425</ele>
        <time>2009-05-05T09:14:20Z</time>
      </trkpt>
      <trkpt lat="43.89118" lon="6.65573">
        <ele>1422</ele>
        <time>2009-05-05T09:14:23Z</time>
      </trkpt>
      <trkpt lat="43.89125" lon="6.65564">
        <ele>1416</ele>
        <time>2009-05-05T09:14:29Z</time>
      </trkpt>
      <trkpt lat="43.89129" lon="6.65553">
        <ele>1413</ele>
        <time>2009-05-05T09:14:32Z</time>
      </trkpt>
      <trkpt lat="43.89134" lon="6.65539">
        <ele>1411</ele>
        <time>2009-05-05T09:14:35Z</time>
      </trkpt>
      <trkpt lat="43.89139" lon="6.6553">
        <ele>1409</ele>
        <time>2009-05-05T09:14:38Z</time>
      </trkpt>
      <trkpt lat="43.89142" lon="6.65519">
        <ele>1406</ele>
        <time>2009-05-05T09:14:41Z</time>
      </trkpt>
      <trkpt lat="43.89148" lon="6.65501">
        <ele>1403</ele>
        <time>2009-05-05T09:14:47Z</time>
      </trkpt>
      <trkpt lat="43.89153" lon="6.65487">
        <ele>1404</ele>
        <time>2009-05-05T09:14:50Z</time>
      </trkpt>
      <trkpt lat="43.8916" lon="6.65483">
        <ele>1401</ele>
        <time>2009-05-05T09:14:53Z</time>
      </trkpt>
      <trkpt lat="43.89166" lon="6.65489">
        <ele>1397</ele>
        <time>2009-05-05T09:14:56Z</time>
      </trkpt>
      <trkpt lat="43.89171" lon="6.65497">
        <ele>1394</ele>
        <time>2009-05-05T09:14:59Z</time>
      </trkpt>
      <trkpt lat="43.89176" lon="6.65508">
        <ele>1393</ele>
        <time>2009-05-05T09:15:02Z</time>
      </trkpt>
      <trkpt lat="43.89176" lon="6.65517">
        <ele>1390</ele>
        <time>2009-05-05T09:15:05Z</time>
      </trkpt>
      <trkpt lat="43.89183" lon="6.65522">
        <ele>1394</ele>
        <time>2009-05-05T09:15:23Z</time>
      </trkpt>
      <trkpt lat="43.89175" lon="6.65516">
        <ele>1375</ele>
        <time>2009-05-05T09:19:25Z</time>
      </trkpt>
      <trkpt lat="43.89181" lon="6.6552">
        <ele>1393</ele>
        <time>2009-05-05T09:20:10Z</time>
      </trkpt>
      <trkpt lat="43.89187" lon="6.65517">
        <ele>1390</ele>
        <time>2009-05-05T09:20:46Z</time>
      </trkpt>
      <trkpt lat="43.89196" lon="6.65516">
        <ele>1390</ele>
        <time>2009-05-05T09:20:55Z</time>
      </trkpt>
      <trkpt lat="43.89192" lon="6.65509">
        <ele>1364</ele>
        <time>2009-05-05T09:21:07Z</time>
      </trkpt>
      <trkpt lat="43.89199" lon="6.65507">
        <ele>1376</ele>
        <time>2009-05-05T09:21:22Z</time>
      </trkpt>
      <trkpt lat="43.89207" lon="6.65507">
        <ele>1369</ele>
        <time>2009-05-05T09:21:43Z</time>
      </trkpt>
      <trkpt lat="43.8921" lon="6.65514">
        <ele>1372</ele>
        <time>2009-05-05T09:22:13Z</time>
      </trkpt>
      <trkpt lat="43.89212" lon="6.65522">
        <ele>1376</ele>
        <time>2009-05-05T09:22:19Z</time>
      </trkpt>
      <trkpt lat="43.89215" lon="6.65515">
        <ele>1360</ele>
        <time>2009-05-05T09:23:25Z</time>
      </trkpt>
      <trkpt lat="43.89222" lon="6.65515">
        <ele>1369</ele>
        <time>2009-05-05T09:23:40Z</time>
      </trkpt>
      <trkpt lat="43.89224" lon="6.65522">
        <ele>1361</ele>
        <time>2009-05-05T09:25:33Z</time>
      </trkpt>
      <trkpt lat="43.8923" lon="6.65532">
        <ele>1363</ele>
        <time>2009-05-05T09:25:42Z</time>
      </trkpt>
      <trkpt lat="43.89236" lon="6.6554">
        <ele>1365</ele>
        <time>2009-05-05T09:25:48Z</time>
      </trkpt>
      <trkpt lat="43.89239" lon="6.65547">
        <ele>1366</ele>
        <time>2009-05-05T09:25:51Z</time>
      </trkpt>
      <trkpt lat="43.89245" lon="6.65559">
        <ele>1370</ele>
        <time>2009-05-05T09:25:57Z</time>
      </trkpt>
      <trkpt lat="43.89251" lon="6.65571">
        <ele>1369</ele>
        <time>2009-05-05T09:26:03Z</time>
      </trkpt>
      <trkpt lat="43.8925" lon="6.6558">
        <ele>1372</ele>
        <time>2009-05-05T09:26:12Z</time>
      </trkpt>
      <trkpt lat="43.89251" lon="6.65588">
        <ele>1373</ele>
        <time>2009-05-05T09:26:18Z</time>
      </trkpt>
      <trkpt lat="43.89252" lon="6.65602">
        <ele>1371</ele>
        <time>2009-05-05T09:26:24Z</time>
      </trkpt>
      <trkpt lat="43.89258" lon="6.65612">
        <ele>1370</ele>
        <time>2009-05-05T09:26:30Z</time>
      </trkpt>
      <trkpt lat="43.89266" lon="6.65621">
        <ele>1372</ele>
        <time>2009-05-05T09:26:36Z</time>
      </trkpt>
      <trkpt lat="43.89273" lon="6.6563">
        <ele>1375</ele>
        <time>2009-05-05T09:26:42Z</time>
      </trkpt>
      <trkpt lat="43.89276" lon="6.65636">
        <ele>1376</ele>
        <time>2009-05-05T09:26:45Z</time>
      </trkpt>
      <trkpt lat="43.89279" lon="6.65643">
        <ele>1378</ele>
        <time>2009-05-05T09:26:48Z</time>
      </trkpt>
      <trkpt lat="43.89287" lon="6.65652">
        <ele>1379</ele>
        <time>2009-05-05T09:26:54Z</time>
      </trkpt>
      <trkpt lat="43.89293" lon="6.65664">
        <ele>1379</ele>
        <time>2009-05-05T09:27:00Z</time>
      </trkpt>
      <trkpt lat="43.89295" lon="6.65674">
        <ele>1380</ele>
        <time>2009-05-05T09:27:03Z</time>
      </trkpt>
      <trkpt lat="43.89301" lon="6.65688">
        <ele>1380</ele>
        <time>2009-05-05T09:27:06Z</time>
      </trkpt>
      <trkpt lat="43.89311" lon="6.65702">
        <ele>1380</ele>
        <time>2009-05-05T09:27:09Z</time>
      </trkpt>
      <trkpt lat="43.89322" lon="6.65716">
        <ele>1381</ele>
        <time>2009-05-05T09:27:12Z</time>
      </trkpt>
      <trkpt lat="43.89335" lon="6.6573">
        <ele>1379</ele>
        <time>2009-05-05T09:27:15Z</time>
      </trkpt>
      <trkpt lat="43.89343" lon="6.65738">
        <ele>1378</ele>
        <time>2009-05-05T09:27:18Z</time>
      </trkpt>
      <trkpt lat="43.89357" lon="6.65749">
        <ele>1376</ele>
        <time>2009-05-05T09:27:24Z</time>
      </trkpt>
      <trkpt lat="43.89364" lon="6.65753">
        <ele>1377</ele>
        <time>2009-05-05T09:27:27Z</time>
      </trkpt>
      <trkpt lat="43.89368" lon="6.65758">
        <ele>1381</ele>
        <time>2009-05-05T09:27:39Z</time>
      </trkpt>
      <trkpt lat="43.89376" lon="6.65761">
        <ele>1380</ele>
        <time>2009-05-05T09:27:51Z</time>
      </trkpt>
      <trkpt lat="43.89382" lon="6.65764">
        <ele>1380</ele>
        <time>2009-05-05T09:28:06Z</time>
      </trkpt>
      <trkpt lat="43.89391" lon="6.65769">
        <ele>1379</ele>
        <time>2009-05-05T09:28:15Z</time>
      </trkpt>
      <trkpt lat="43.89396" lon="6.65774">
        <ele>1381</ele>
        <time>2009-05-05T09:28:21Z</time>
      </trkpt>
      <trkpt lat="43.89403" lon="6.6578">
        <ele>1381</ele>
        <time>2009-05-05T09:28:30Z</time>
      </trkpt>
      <trkpt lat="43.89408" lon="6.65787">
        <ele>1382</ele>
        <time>2009-05-05T09:28:42Z</time>
      </trkpt>
      <trkpt lat="43.89412" lon="6.65793">
        <ele>1381</ele>
        <time>2009-05-05T09:28:45Z</time>
      </trkpt>
      <trkpt lat="43.89421" lon="6.65804">
        <ele>1381</ele>
        <time>2009-05-05T09:28:51Z</time>
      </trkpt>
      <trkpt lat="43.89426" lon="6.65811">
        <ele>1381</ele>
        <time>2009-05-05T09:28:54Z</time>
      </trkpt>
      <trkpt lat="43.89434" lon="6.65814">
        <ele>1380</ele>
        <time>2009-05-05T09:29:03Z</time>
      </trkpt>
      <trkpt lat="43.89439" lon="6.65819">
        <ele>1379</ele>
        <time>2009-05-05T09:29:06Z</time>
      </trkpt>
      <trkpt lat="43.89445" lon="6.65826">
        <ele>1379</ele>
        <time>2009-05-05T09:29:09Z</time>
      </trkpt>
      <trkpt lat="43.89451" lon="6.65831">
        <ele>1378</ele>
        <time>2009-05-05T09:29:12Z</time>
      </trkpt>
      <trkpt lat="43.89461" lon="6.65836">
        <ele>1379</ele>
        <time>2009-05-05T09:29:15Z</time>
      </trkpt>
      <trkpt lat="43.89471" lon="6.65849">
        <ele>1380</ele>
        <time>2009-05-05T09:29:18Z</time>
      </trkpt>
      <trkpt lat="43.8948" lon="6.65865">
        <ele>1380</ele>
        <time>2009-05-05T09:29:21Z</time>
      </trkpt>
      <trkpt lat="43.8949" lon="6.6588">
        <ele>1380</ele>
        <time>2009-05-05T09:29:24Z</time>
      </trkpt>
      <trkpt lat="43.89499" lon="6.65889">
        <ele>1379</ele>
        <time>2009-05-05T09:29:27Z</time>
      </trkpt>
      <trkpt lat="43.89509" lon="6.65902">
        <ele>1379</ele>
        <time>2009-05-05T09:29:30Z</time>
      </trkpt>
      <trkpt lat="43.89519" lon="6.65918">
        <ele>1378</ele>
        <time>2009-05-05T09:29:33Z</time>
      </trkpt>
      <trkpt lat="43.89527" lon="6.65929">
        <ele>1378</ele>
        <time>2009-05-05T09:29:36Z</time>
      </trkpt>
      <trkpt lat="43.89534" lon="6.65941">
        <ele>1378</ele>
        <time>2009-05-05T09:29:39Z</time>
      </trkpt>
      <trkpt lat="43.89542" lon="6.65954">
        <ele>1379</ele>
        <time>2009-05-05T09:29:42Z</time>
      </trkpt>
      <trkpt lat="43.8955" lon="6.65965">
        <ele>1381</ele>
        <time>2009-05-05T09:29:45Z</time>
      </trkpt>
      <trkpt lat="43.89554" lon="6.65978">
        <ele>1380</ele>
        <time>2009-05-05T09:29:48Z</time>
      </trkpt>
      <trkpt lat="43.89564" lon="6.65985">
        <ele>1380</ele>
        <time>2009-05-05T09:29:51Z</time>
      </trkpt>
      <trkpt lat="43.89569" lon="6.65994">
        <ele>1380</ele>
        <time>2009-05-05T09:29:54Z</time>
      </trkpt>
      <trkpt lat="43.89572" lon="6.66003">
        <ele>1381</ele>
        <time>2009-05-05T09:29:57Z</time>
      </trkpt>
      <trkpt lat="43.89572" lon="6.66013">
        <ele>1382</ele>
        <time>2009-05-05T09:30:00Z</time>
      </trkpt>
      <trkpt lat="43.89575" lon="6.6601">
        <ele>1384</ele>
        <time>2009-05-05T09:32:55Z</time>
      </trkpt>
      <trkpt lat="43.89575" lon="6.66017">
        <ele>1384</ele>
        <time>2009-05-05T09:33:07Z</time>
      </trkpt>
      <trkpt lat="43.89576" lon="6.66025">
        <ele>1383</ele>
        <time>2009-05-05T09:33:10Z</time>
      </trkpt>
      <trkpt lat="43.89579" lon="6.66032">
        <ele>1383</ele>
        <time>2009-05-05T09:33:13Z</time>
      </trkpt>
      <trkpt lat="43.89583" lon="6.6604">
        <ele>1383</ele>
        <time>2009-05-05T09:33:16Z</time>
      </trkpt>
      <trkpt lat="43.89585" lon="6.66049">
        <ele>1384</ele>
        <time>2009-05-05T09:33:19Z</time>
      </trkpt>
      <trkpt lat="43.89588" lon="6.66057">
        <ele>1385</ele>
        <time>2009-05-05T09:33:22Z</time>
      </trkpt>
      <trkpt lat="43.89591" lon="6.6606">
        <ele>1385</ele>
        <time>2009-05-05T09:33:25Z</time>
      </trkpt>
      <trkpt lat="43.89589" lon="6.66063">
        <ele>1390</ele>
        <time>2009-05-05T09:37:10Z</time>
      </trkpt>
      <trkpt lat="43.89592" lon="6.66061">
        <ele>1386</ele>
        <time>2009-05-05T09:37:48Z</time>
      </trkpt>
      <trkpt lat="43.89593" lon="6.66066">
        <ele>1384</ele>
        <time>2009-05-05T09:37:54Z</time>
      </trkpt>
      <trkpt lat="43.89591" lon="6.66073">
        <ele>1382</ele>
        <time>2009-05-05T09:37:57Z</time>
      </trkpt>
      <trkpt lat="43.89589" lon="6.66088">
        <ele>1379</ele>
        <time>2009-05-05T09:38:00Z</time>
      </trkpt>
      <trkpt lat="43.89589" lon="6.66105">
        <ele>1377</ele>
        <time>2009-05-05T09:38:03Z</time>
      </trkpt>
      <trkpt lat="43.89593" lon="6.6612">
        <ele>1375</ele>
        <time>2009-05-05T09:38:06Z</time>
      </trkpt>
      <trkpt lat="43.89597" lon="6.66133">
        <ele>1374</ele>
        <time>2009-05-05T09:38:09Z</time>
      </trkpt>
      <trkpt lat="43.89599" lon="6.6614">
        <ele>1373</ele>
        <time>2009-05-05T09:38:12Z</time>
      </trkpt>
      <trkpt lat="43.89602" lon="6.66149">
        <ele>1372</ele>
        <time>2009-05-05T09:38:15Z</time>
      </trkpt>
      <trkpt lat="43.89605" lon="6.66159">
        <ele>1371</ele>
        <time>2009-05-05T09:38:18Z</time>
      </trkpt>
      <trkpt lat="43.89614" lon="6.66172">
        <ele>1369</ele>
        <time>2009-05-05T09:38:21Z</time>
      </trkpt>
      <trkpt lat="43.89623" lon="6.66193">
        <ele>1367</ele>
        <time>2009-05-05T09:38:24Z</time>
      </trkpt>
      <trkpt lat="43.89631" lon="6.66225">
        <ele>1364</ele>
        <time>2009-05-05T09:38:27Z</time>
      </trkpt>
      <trkpt lat="43.89637" lon="6.66252">
        <ele>1362</ele>
        <time>2009-05-05T09:38:30Z</time>
      </trkpt>
      <trkpt lat="43.89643" lon="6.66278">
        <ele>1358</ele>
        <time>2009-05-05T09:38:33Z</time>
      </trkpt>
      <trkpt lat="43.89653" lon="6.66304">
        <ele>1355</ele>
        <time>2009-05-05T09:38:36Z</time>
      </trkpt>
      <trkpt lat="43.89666" lon="6.66339">
        <ele>1349</ele>
        <time>2009-05-05T09:38:39Z</time>
      </trkpt>
      <trkpt lat="43.89683" lon="6.66378">
        <ele>1344</ele>
        <time>2009-05-05T09:38:42Z</time>
      </trkpt>
      <trkpt lat="43.89697" lon="6.66408">
        <ele>1339</ele>
        <time>2009-05-05T09:38:45Z</time>
      </trkpt>
      <trkpt lat="43.89706" lon="6.6644">
        <ele>1334</ele>
        <time>2009-05-05T09:38:48Z</time>
      </trkpt>
      <trkpt lat="43.89718" lon="6.66475">
        <ele>1329</ele>
        <time>2009-05-05T09:38:51Z</time>
      </trkpt>
      <trkpt lat="43.89729" lon="6.6651">
        <ele>1323</ele>
        <time>2009-05-05T09:38:54Z</time>
      </trkpt>
      <trkpt lat="43.89741" lon="6.66546">
        <ele>1320</ele>
        <time>2009-05-05T09:38:57Z</time>
      </trkpt>
      <trkpt lat="43.8975" lon="6.66583">
        <ele>1315</ele>
        <time>2009-05-05T09:39:00Z</time>
      </trkpt>
      <trkpt lat="43.89761" lon="6.66624">
        <ele>1311</ele>
        <time>2009-05-05T09:39:03Z</time>
      </trkpt>
      <trkpt lat="43.89776" lon="6.66664">
        <ele>1308</ele>
        <time>2009-05-05T09:39:06Z</time>
      </trkpt>
      <trkpt lat="43.89791" lon="6.66705">
        <ele>1305</ele>
        <time>2009-05-05T09:39:09Z</time>
      </trkpt>
      <trkpt lat="43.89805" lon="6.66747">
        <ele>1301</ele>
        <time>2009-05-05T09:39:12Z</time>
      </trkpt>
      <trkpt lat="43.89818" lon="6.66787">
        <ele>1298</ele>
        <time>2009-05-05T09:39:15Z</time>
      </trkpt>
      <trkpt lat="43.89826" lon="6.66823">
        <ele>1293</ele>
        <time>2009-05-05T09:39:18Z</time>
      </trkpt>
      <trkpt lat="43.89832" lon="6.66852">
        <ele>1289</ele>
        <time>2009-05-05T09:39:21Z</time>
      </trkpt>
      <trkpt lat="43.89839" lon="6.66885">
        <ele>1284</ele>
        <time>2009-05-05T09:39:24Z</time>
      </trkpt>
      <trkpt lat="43.89846" lon="6.66925">
        <ele>1279</ele>
        <time>2009-05-05T09:39:27Z</time>
      </trkpt>
      <trkpt lat="43.8985" lon="6.66959">
        <ele>1274</ele>
        <time>2009-05-05T09:39:30Z</time>
      </trkpt>
      <trkpt lat="43.89855" lon="6.66985">
        <ele>1271</ele>
        <time>2009-05-05T09:39:33Z</time>
      </trkpt>
      <trkpt lat="43.89859" lon="6.67005">
        <ele>1268</ele>
        <time>2009-05-05T09:39:36Z</time>
      </trkpt>
      <trkpt lat="43.89864" lon="6.67022">
        <ele>1265</ele>
        <time>2009-05-05T09:39:39Z</time>
      </trkpt>
      <trkpt lat="43.89871" lon="6.67041">
        <ele>1263</ele>
        <time>2009-05-05T09:39:42Z</time>
      </trkpt>
      <trkpt lat="43.89886" lon="6.67065">
        <ele>1259</ele>
        <time>2009-05-05T09:39:45Z</time>
      </trkpt>
      <trkpt lat="43.89909" lon="6.67084">
        <ele>1257</ele>
        <time>2009-05-05T09:39:48Z</time>
      </trkpt>
      <trkpt lat="43.89924" lon="6.67092">
        <ele>1255</ele>
        <time>2009-05-05T09:39:51Z</time>
      </trkpt>
      <trkpt lat="43.89928" lon="6.67095">
        <ele>1255</ele>
        <time>2009-05-05T09:39:54Z</time>
      </trkpt>
      <trkpt lat="43.89926" lon="6.67098">
        <ele>1259</ele>
        <time>2009-05-05T09:43:42Z</time>
      </trkpt>
      <trkpt lat="43.89918" lon="6.67094">
        <ele>1259</ele>
        <time>2009-05-05T09:44:06Z</time>
      </trkpt>
      <trkpt lat="43.89906" lon="6.67091">
        <ele>1257</ele>
        <time>2009-05-05T09:44:09Z</time>
      </trkpt>
      <trkpt lat="43.89889" lon="6.67087">
        <ele>1255</ele>
        <time>2009-05-05T09:44:12Z</time>
      </trkpt>
      <trkpt lat="43.89867" lon="6.67085">
        <ele>1252</ele>
        <time>2009-05-05T09:44:15Z</time>
      </trkpt>
      <trkpt lat="43.89844" lon="6.67072">
        <ele>1250</ele>
        <time>2009-05-05T09:44:18Z</time>
      </trkpt>
      <trkpt lat="43.89823" lon="6.67054">
        <ele>1249</ele>
        <time>2009-05-05T09:44:21Z</time>
      </trkpt>
      <trkpt lat="43.89805" lon="6.67035">
        <ele>1248</ele>
        <time>2009-05-05T09:44:24Z</time>
      </trkpt>
      <trkpt lat="43.8979" lon="6.67012">
        <ele>1247</ele>
        <time>2009-05-05T09:44:27Z</time>
      </trkpt>
      <trkpt lat="43.89776" lon="6.66987">
        <ele>1246</ele>
        <time>2009-05-05T09:44:30Z</time>
      </trkpt>
      <trkpt lat="43.89763" lon="6.66962">
        <ele>1245</ele>
        <time>2009-05-05T09:44:33Z</time>
      </trkpt>
      <trkpt lat="43.89749" lon="6.66939">
        <ele>1244</ele>
        <time>2009-05-05T09:44:36Z</time>
      </trkpt>
      <trkpt lat="43.89733" lon="6.6692">
        <ele>1243</ele>
        <time>2009-05-05T09:44:39Z</time>
      </trkpt>
      <trkpt lat="43.89717" lon="6.66902">
        <ele>1243</ele>
        <time>2009-05-05T09:44:42Z</time>
      </trkpt>
      <trkpt lat="43.89703" lon="6.66888">
        <ele>1244</ele>
        <time>2009-05-05T09:44:45Z</time>
      </trkpt>
      <trkpt lat="43.8969" lon="6.66875">
        <ele>1243</ele>
        <time>2009-05-05T09:44:48Z</time>
      </trkpt>
      <trkpt lat="43.89678" lon="6.66857">
        <ele>1243</ele>
        <time>2009-05-05T09:44:51Z</time>
      </trkpt>
      <trkpt lat="43.89666" lon="6.66838">
        <ele>1241</ele>
        <time>2009-05-05T09:44:54Z</time>
      </trkpt>
      <trkpt lat="43.89655" lon="6.66816">
        <ele>1240</ele>
        <time>2009-05-05T09:44:57Z</time>
      </trkpt>
      <trkpt lat="43.89644" lon="6.66794">
        <ele>1239</ele>
        <time>2009-05-05T09:45:00Z</time>
      </trkpt>
      <trkpt lat="43.89634" lon="6.66781">
        <ele>1239</ele>
        <time>2009-05-05T09:45:03Z</time>
      </trkpt>
      <trkpt lat="43.89631" lon="6.66795">
        <ele>1235</ele>
        <time>2009-05-05T09:45:06Z</time>
      </trkpt>
      <trkpt lat="43.89639" lon="6.6682">
        <ele>1235</ele>
        <time>2009-05-05T09:45:09Z</time>
      </trkpt>
      <trkpt lat="43.8965" lon="6.66848">
        <ele>1235</ele>
        <time>2009-05-05T09:45:12Z</time>
      </trkpt>
      <trkpt lat="43.89662" lon="6.66877">
        <ele>1235</ele>
        <time>2009-05-05T09:45:15Z</time>
      </trkpt>
      <trkpt lat="43.89675" lon="6.6691">
        <ele>1235</ele>
        <time>2009-05-05T09:45:18Z</time>
      </trkpt>
      <trkpt lat="43.89692" lon="6.66944">
        <ele>1235</ele>
        <time>2009-05-05T09:45:21Z</time>
      </trkpt>
      <trkpt lat="43.89709" lon="6.66983">
        <ele>1235</ele>
        <time>2009-05-05T09:45:24Z</time>
      </trkpt>
      <trkpt lat="43.89719" lon="6.67021">
        <ele>1235</ele>
        <time>2009-05-05T09:45:27Z</time>
      </trkpt>
      <trkpt lat="43.89725" lon="6.67056">
        <ele>1235</ele>
        <time>2009-05-05T09:45:30Z</time>
      </trkpt>
      <trkpt lat="43.89726" lon="6.67076">
        <ele>1235</ele>
        <time>2009-05-05T09:45:33Z</time>
      </trkpt>
      <trkpt lat="43.89718" lon="6.67077">
        <ele>1235</ele>
        <time>2009-05-05T09:45:36Z</time>
      </trkpt>
      <trkpt lat="43.89709" lon="6.67059">
        <ele>1235</ele>
        <time>2009-05-05T09:45:39Z</time>
      </trkpt>
      <trkpt lat="43.89698" lon="6.67057">
        <ele>1235</ele>
        <time>2009-05-05T09:45:42Z</time>
      </trkpt>
      <trkpt lat="43.89694" lon="6.67084">
        <ele>1235</ele>
        <time>2009-05-05T09:45:45Z</time>
      </trkpt>
      <trkpt lat="43.8969" lon="6.67116">
        <ele>1198</ele>
        <time>2009-05-05T09:45:48Z</time>
      </trkpt>
      <trkpt lat="43.89693" lon="6.67141">
        <ele>1197</ele>
        <time>2009-05-05T09:45:51Z</time>
      </trkpt>
      <trkpt lat="43.8969" lon="6.67155">
        <ele>1195</ele>
        <time>2009-05-05T09:45:54Z</time>
      </trkpt>
      <trkpt lat="43.89682" lon="6.67169">
        <ele>1195</ele>
        <time>2009-05-05T09:45:57Z</time>
      </trkpt>
      <trkpt lat="43.89681" lon="6.67187">
        <ele>1196</ele>
        <time>2009-05-05T09:46:00Z</time>
      </trkpt>
      <trkpt lat="43.89692" lon="6.67199">
        <ele>1197</ele>
        <time>2009-05-05T09:46:03Z</time>
      </trkpt>
      <trkpt lat="43.89703" lon="6.67207">
        <ele>1198</ele>
        <time>2009-05-05T09:46:06Z</time>
      </trkpt>
      <trkpt lat="43.89714" lon="6.67217">
        <ele>1198</ele>
        <time>2009-05-05T09:46:09Z</time>
      </trkpt>
      <trkpt lat="43.89723" lon="6.67229">
        <ele>1199</ele>
        <time>2009-05-05T09:46:12Z</time>
      </trkpt>
      <trkpt lat="43.89729" lon="6.67238">
        <ele>1200</ele>
        <time>2009-05-05T09:46:15Z</time>
      </trkpt>
      <trkpt lat="43.89735" lon="6.67246">
        <ele>1201</ele>
        <time>2009-05-05T09:46:18Z</time>
      </trkpt>
      <trkpt lat="43.8974" lon="6.67253">
        <ele>1202</ele>
        <time>2009-05-05T09:46:21Z</time>
      </trkpt>
      <trkpt lat="43.89741" lon="6.67262">
        <ele>1202</ele>
        <time>2009-05-05T09:46:24Z</time>
      </trkpt>
      <trkpt lat="43.89735" lon="6.67272">
        <ele>1200</ele>
        <time>2009-05-05T09:46:27Z</time>
      </trkpt>
      <trkpt lat="43.89729" lon="6.6727">
        <ele>1202</ele>
        <time>2009-05-05T09:46:30Z</time>
      </trkpt>
      <trkpt lat="43.89722" lon="6.67269">
        <ele>1202</ele>
        <time>2009-05-05T09:46:33Z</time>
      </trkpt>
      <trkpt lat="43.89716" lon="6.67266">
        <ele>1204</ele>
        <time>2009-05-05T09:46:36Z</time>
      </trkpt>
      <trkpt lat="43.8971" lon="6.67262">
        <ele>1206</ele>
        <time>2009-05-05T09:46:39Z</time>
      </trkpt>
      <trkpt lat="43.89704" lon="6.67256">
        <ele>1207</ele>
        <time>2009-05-05T09:46:42Z</time>
      </trkpt>
      <trkpt lat="43.897" lon="6.67252">
        <ele>1208</ele>
        <time>2009-05-05T09:46:45Z</time>
      </trkpt>
      <trkpt lat="43.89695" lon="6.67248">
        <ele>1210</ele>
        <time>2009-05-05T09:46:48Z</time>
      </trkpt>
      <trkpt lat="43.8969" lon="6.67247">
        <ele>1211</ele>
        <time>2009-05-05T09:46:51Z</time>
      </trkpt>
      <trkpt lat="43.89684" lon="6.67246">
        <ele>1213</ele>
        <time>2009-05-05T09:46:54Z</time>
      </trkpt>
      <trkpt lat="43.8968" lon="6.67247">
        <ele>1214</ele>
        <time>2009-05-05T09:46:57Z</time>
      </trkpt>
      <trkpt lat="43.89675" lon="6.67248">
        <ele>1215</ele>
        <time>2009-05-05T09:47:00Z</time>
      </trkpt>
      <trkpt lat="43.89672" lon="6.67248">
        <ele>1216</ele>
        <time>2009-05-05T09:47:03Z</time>
      </trkpt>
      <trkpt lat="43.89668" lon="6.6725">
        <ele>1216</ele>
        <time>2009-05-05T09:47:06Z</time>
      </trkpt>
      <trkpt lat="43.89659" lon="6.67254">
        <ele>1219</ele>
        <time>2009-05-05T09:47:12Z</time>
      </trkpt>
      <trkpt lat="43.89655" lon="6.67256">
        <ele>1219</ele>
        <time>2009-05-05T09:47:15Z</time>
      </trkpt>
      <trkpt lat="43.89651" lon="6.67257">
        <ele>1218</ele>
        <time>2009-05-05T09:47:18Z</time>
      </trkpt>
      <trkpt lat="43.89647" lon="6.67259">
        <ele>1218</ele>
        <time>2009-05-05T09:47:21Z</time>
      </trkpt>
      <trkpt lat="43.89644" lon="6.67259">
        <ele>1219</ele>
        <time>2009-05-05T09:47:24Z</time>
      </trkpt>
      <trkpt lat="43.89636" lon="6.67261">
        <ele>1218</ele>
        <time>2009-05-05T09:47:30Z</time>
      </trkpt>
      <trkpt lat="43.89632" lon="6.67262">
        <ele>1219</ele>
        <time>2009-05-05T09:47:33Z</time>
      </trkpt>
      <trkpt lat="43.89628" lon="6.67262">
        <ele>1218</ele>
        <time>2009-05-05T09:47:36Z</time>
      </trkpt>
      <trkpt lat="43.89618" lon="6.67267">
        <ele>1221</ele>
        <time>2009-05-05T09:47:42Z</time>
      </trkpt>
      <trkpt lat="43.89609" lon="6.67274">
        <ele>1224</ele>
        <time>2009-05-05T09:47:48Z</time>
      </trkpt>
      <trkpt lat="43.89604" lon="6.67276">
        <ele>1224</ele>
        <time>2009-05-05T09:47:51Z</time>
      </trkpt>
      <trkpt lat="43.89595" lon="6.6728">
        <ele>1227</ele>
        <time>2009-05-05T09:47:57Z</time>
      </trkpt>
      <trkpt lat="43.8959" lon="6.67282">
        <ele>1227</ele>
        <time>2009-05-05T09:48:00Z</time>
      </trkpt>
      <trkpt lat="43.89585" lon="6.67283">
        <ele>1228</ele>
        <time>2009-05-05T09:48:03Z</time>
      </trkpt>
      <trkpt lat="43.89576" lon="6.67282">
        <ele>1227</ele>
        <time>2009-05-05T09:48:09Z</time>
      </trkpt>
      <trkpt lat="43.89569" lon="6.67284">
        <ele>1226</ele>
        <time>2009-05-05T09:48:15Z</time>
      </trkpt>
      <trkpt lat="43.89561" lon="6.67288">
        <ele>1227</ele>
        <time>2009-05-05T09:48:21Z</time>
      </trkpt>
      <trkpt lat="43.89551" lon="6.6729">
        <ele>1229</ele>
        <time>2009-05-05T09:48:27Z</time>
      </trkpt>
      <trkpt lat="43.89543" lon="6.67288">
        <ele>1229</ele>
        <time>2009-05-05T09:48:33Z</time>
      </trkpt>
      <trkpt lat="43.89534" lon="6.6729">
        <ele>1232</ele>
        <time>2009-05-05T09:48:39Z</time>
      </trkpt>
      <trkpt lat="43.89526" lon="6.67294">
        <ele>1236</ele>
        <time>2009-05-05T09:48:45Z</time>
      </trkpt>
      <trkpt lat="43.8952" lon="6.67299">
        <ele>1236</ele>
        <time>2009-05-05T09:48:51Z</time>
      </trkpt>
      <trkpt lat="43.89517" lon="6.67309">
        <ele>1239</ele>
        <time>2009-05-05T09:48:57Z</time>
      </trkpt>
      <trkpt lat="43.89519" lon="6.67319">
        <ele>1243</ele>
        <time>2009-05-05T09:49:03Z</time>
      </trkpt>
      <trkpt lat="43.89527" lon="6.67317">
        <ele>1245</ele>
        <time>2009-05-05T09:49:09Z</time>
      </trkpt>
      <trkpt lat="43.89535" lon="6.67317">
        <ele>1247</ele>
        <time>2009-05-05T09:49:15Z</time>
      </trkpt>
      <trkpt lat="43.89543" lon="6.67316">
        <ele>1247</ele>
        <time>2009-05-05T09:49:21Z</time>
      </trkpt>
      <trkpt lat="43.89547" lon="6.67324">
        <ele>1248</ele>
        <time>2009-05-05T09:49:27Z</time>
      </trkpt>
      <trkpt lat="43.89541" lon="6.67331">
        <ele>1248</ele>
        <time>2009-05-05T09:49:33Z</time>
      </trkpt>
      <trkpt lat="43.89534" lon="6.67338">
        <ele>1248</ele>
        <time>2009-05-05T09:49:39Z</time>
      </trkpt>
      <trkpt lat="43.89526" lon="6.67343">
        <ele>1247</ele>
        <time>2009-05-05T09:49:45Z</time>
      </trkpt>
      <trkpt lat="43.89521" lon="6.67349">
        <ele>1247</ele>
        <time>2009-05-05T09:49:48Z</time>
      </trkpt>
      <trkpt lat="43.89516" lon="6.67354">
        <ele>1247</ele>
        <time>2009-05-05T09:49:51Z</time>
      </trkpt>
      <trkpt lat="43.89509" lon="6.67361">
        <ele>1249</ele>
        <time>2009-05-05T09:49:54Z</time>
      </trkpt>
      <trkpt lat="43.89501" lon="6.67367">
        <ele>1250</ele>
        <time>2009-05-05T09:49:57Z</time>
      </trkpt>
      <trkpt lat="43.89493" lon="6.67371">
        <ele>1251</ele>
        <time>2009-05-05T09:50:00Z</time>
      </trkpt>
      <trkpt lat="43.89486" lon="6.67374">
        <ele>1251</ele>
        <time>2009-05-05T09:50:03Z</time>
      </trkpt>
      <trkpt lat="43.89478" lon="6.67378">
        <ele>1252</ele>
        <time>2009-05-05T09:50:06Z</time>
      </trkpt>
      <trkpt lat="43.89471" lon="6.67385">
        <ele>1252</ele>
        <time>2009-05-05T09:50:09Z</time>
      </trkpt>
      <trkpt lat="43.89465" lon="6.67393">
        <ele>1254</ele>
        <time>2009-05-05T09:50:12Z</time>
      </trkpt>
      <trkpt lat="43.8946" lon="6.67399">
        <ele>1254</ele>
        <time>2009-05-05T09:50:15Z</time>
      </trkpt>
      <trkpt lat="43.89457" lon="6.67406">
        <ele>1255</ele>
        <time>2009-05-05T09:50:18Z</time>
      </trkpt>
      <trkpt lat="43.89453" lon="6.67412">
        <ele>1255</ele>
        <time>2009-05-05T09:50:21Z</time>
      </trkpt>
      <trkpt lat="43.89448" lon="6.67418">
        <ele>1256</ele>
        <time>2009-05-05T09:50:24Z</time>
      </trkpt>
      <trkpt lat="43.89443" lon="6.67424">
        <ele>1257</ele>
        <time>2009-05-05T09:50:27Z</time>
      </trkpt>
      <trkpt lat="43.89437" lon="6.6743">
        <ele>1258</ele>
        <time>2009-05-05T09:50:30Z</time>
      </trkpt>
      <trkpt lat="43.89432" lon="6.67433">
        <ele>1259</ele>
        <time>2009-05-05T09:50:33Z</time>
      </trkpt>
      <trkpt lat="43.89428" lon="6.67437">
        <ele>1260</ele>
        <time>2009-05-05T09:50:36Z</time>
      </trkpt>
      <trkpt lat="43.89425" lon="6.67441">
        <ele>1260</ele>
        <time>2009-05-05T09:50:39Z</time>
      </trkpt>
      <trkpt lat="43.89422" lon="6.67444">
        <ele>1260</ele>
        <time>2009-05-05T09:50:42Z</time>
      </trkpt>
      <trkpt lat="43.89425" lon="6.67446">
        <ele>1258</ele>
        <time>2009-05-05T09:52:16Z</time>
      </trkpt>
      <trkpt lat="43.89421" lon="6.67458">
        <ele>1262</ele>
        <time>2009-05-05T09:52:42Z</time>
      </trkpt>
      <trkpt lat="43.89421" lon="6.67469">
        <ele>1261</ele>
        <time>2009-05-05T09:52:45Z</time>
      </trkpt>
      <trkpt lat="43.8942" lon="6.67481">
        <ele>1258</ele>
        <time>2009-05-05T09:52:48Z</time>
      </trkpt>
      <trkpt lat="43.89422" lon="6.67494">
        <ele>1257</ele>
        <time>2009-05-05T09:52:51Z</time>
      </trkpt>
      <trkpt lat="43.89423" lon="6.675">
        <ele>1257</ele>
        <time>2009-05-05T09:52:54Z</time>
      </trkpt>
      <trkpt lat="43.89425" lon="6.67508">
        <ele>1256</ele>
        <time>2009-05-05T09:53:00Z</time>
      </trkpt>
      <trkpt lat="43.89427" lon="6.67526">
        <ele>1255</ele>
        <time>2009-05-05T09:53:03Z</time>
      </trkpt>
      <trkpt lat="43.8943" lon="6.67548">
        <ele>1253</ele>
        <time>2009-05-05T09:53:06Z</time>
      </trkpt>
      <trkpt lat="43.89432" lon="6.67574">
        <ele>1252</ele>
        <time>2009-05-05T09:53:09Z</time>
      </trkpt>
      <trkpt lat="43.89434" lon="6.67601">
        <ele>1250</ele>
        <time>2009-05-05T09:53:12Z</time>
      </trkpt>
      <trkpt lat="43.89438" lon="6.67629">
        <ele>1248</ele>
        <time>2009-05-05T09:53:15Z</time>
      </trkpt>
      <trkpt lat="43.89442" lon="6.67654">
        <ele>1246</ele>
        <time>2009-05-05T09:53:18Z</time>
      </trkpt>
      <trkpt lat="43.89445" lon="6.6768">
        <ele>1244</ele>
        <time>2009-05-05T09:53:21Z</time>
      </trkpt>
      <trkpt lat="43.89448" lon="6.677">
        <ele>1242</ele>
        <time>2009-05-05T09:53:24Z</time>
      </trkpt>
      <trkpt lat="43.89451" lon="6.67718">
        <ele>1241</ele>
        <time>2009-05-05T09:53:27Z</time>
      </trkpt>
      <trkpt lat="43.89451" lon="6.67732">
        <ele>1241</ele>
        <time>2009-05-05T09:53:30Z</time>
      </trkpt>
      <trkpt lat="43.89448" lon="6.67743">
        <ele>1240</ele>
        <time>2009-05-05T09:53:33Z</time>
      </trkpt>
      <trkpt lat="43.89444" lon="6.67753">
        <ele>1239</ele>
        <time>2009-05-05T09:53:36Z</time>
      </trkpt>
      <trkpt lat="43.89439" lon="6.67763">
        <ele>1239</ele>
        <time>2009-05-05T09:53:39Z</time>
      </trkpt>
      <trkpt lat="43.89437" lon="6.67775">
        <ele>1239</ele>
        <time>2009-05-05T09:53:42Z</time>
      </trkpt>
      <trkpt lat="43.89435" lon="6.67786">
        <ele>1238</ele>
        <time>2009-05-05T09:53:45Z</time>
      </trkpt>
      <trkpt lat="43.89431" lon="6.67797">
        <ele>1238</ele>
        <time>2009-05-05T09:53:48Z</time>
      </trkpt>
      <trkpt lat="43.89427" lon="6.67808">
        <ele>1238</ele>
        <time>2009-05-05T09:53:51Z</time>
      </trkpt>
      <trkpt lat="43.89424" lon="6.67822">
        <ele>1238</ele>
        <time>2009-05-05T09:53:54Z</time>
      </trkpt>
      <trkpt lat="43.89421" lon="6.67839">
        <ele>1238</ele>
        <time>2009-05-05T09:53:57Z</time>
      </trkpt>
      <trkpt lat="43.89417" lon="6.67855">
        <ele>1238</ele>
        <time>2009-05-05T09:54:00Z</time>
      </trkpt>
      <trkpt lat="43.89413" lon="6.67868">
        <ele>1238</ele>
        <time>2009-05-05T09:54:03Z</time>
      </trkpt>
      <trkpt lat="43.89411" lon="6.67875">
        <ele>1238</ele>
        <time>2009-05-05T09:54:06Z</time>
      </trkpt>
      <trkpt lat="43.8941" lon="6.6788">
        <ele>1238</ele>
        <time>2009-05-05T09:54:09Z</time>
      </trkpt>
      <trkpt lat="43.8941" lon="6.67885">
        <ele>1238</ele>
        <time>2009-05-05T09:54:12Z</time>
      </trkpt>
      <trkpt lat="43.8941" lon="6.67894">
        <ele>1238</ele>
        <time>2009-05-05T09:54:15Z</time>
      </trkpt>
      <trkpt lat="43.89408" lon="6.67905">
        <ele>1238</ele>
        <time>2009-05-05T09:54:18Z</time>
      </trkpt>
      <trkpt lat="43.89405" lon="6.67918">
        <ele>1238</ele>
        <time>2009-05-05T09:54:21Z</time>
      </trkpt>
      <trkpt lat="43.89401" lon="6.67932">
        <ele>1238</ele>
        <time>2009-05-05T09:54:24Z</time>
      </trkpt>
      <trkpt lat="43.89395" lon="6.67946">
        <ele>1238</ele>
        <time>2009-05-05T09:54:27Z</time>
      </trkpt>
      <trkpt lat="43.89389" lon="6.67961">
        <ele>1238</ele>
        <time>2009-05-05T09:54:30Z</time>
      </trkpt>
      <trkpt lat="43.89382" lon="6.67975">
        <ele>1238</ele>
        <time>2009-05-05T09:54:33Z</time>
      </trkpt>
      <trkpt lat="43.89376" lon="6.67987">
        <ele>1238</ele>
        <time>2009-05-05T09:54:36Z</time>
      </trkpt>
      <trkpt lat="43.89371" lon="6.67997">
        <ele>1238</ele>
        <time>2009-05-05T09:54:39Z</time>
      </trkpt>
      <trkpt lat="43.89366" lon="6.68006">
        <ele>1238</ele>
        <time>2009-05-05T09:54:42Z</time>
      </trkpt>
      <trkpt lat="43.89361" lon="6.68017">
        <ele>1237</ele>
        <time>2009-05-05T09:54:45Z</time>
      </trkpt>
      <trkpt lat="43.89357" lon="6.68027">
        <ele>1237</ele>
        <time>2009-05-05T09:54:48Z</time>
      </trkpt>
      <trkpt lat="43.89353" lon="6.68039">
        <ele>1237</ele>
        <time>2009-05-05T09:54:51Z</time>
      </trkpt>
      <trkpt lat="43.8935" lon="6.68049">
        <ele>1237</ele>
        <time>2009-05-05T09:54:54Z</time>
      </trkpt>
      <trkpt lat="43.89346" lon="6.6806">
        <ele>1236</ele>
        <time>2009-05-05T09:54:57Z</time>
      </trkpt>
      <trkpt lat="43.89339" lon="6.68066">
        <ele>1236</ele>
        <time>2009-05-05T09:55:04Z</time>
      </trkpt>
      <trkpt lat="43.89335" lon="6.68068">
        <ele>1236</ele>
        <time>2009-05-05T09:55:09Z</time>
      </trkpt>
      <trkpt lat="43.89328" lon="6.68069">
        <ele>1237</ele>
        <time>2009-05-05T09:59:08Z</time>
      </trkpt>
      <trkpt lat="43.89322" lon="6.68072">
        <ele>1236</ele>
        <time>2009-05-05T09:59:11Z</time>
      </trkpt>
      <trkpt lat="43.89316" lon="6.68075">
        <ele>1236</ele>
        <time>2009-05-05T09:59:14Z</time>
      </trkpt>
      <trkpt lat="43.8931" lon="6.68077">
        <ele>1238</ele>
        <time>2009-05-05T09:59:17Z</time>
      </trkpt>
      <trkpt lat="43.89306" lon="6.68078">
        <ele>1239</ele>
        <time>2009-05-05T09:59:20Z</time>
      </trkpt>
      <trkpt lat="43.89302" lon="6.6808">
        <ele>1239</ele>
        <time>2009-05-05T09:59:23Z</time>
      </trkpt>
      <trkpt lat="43.89299" lon="6.68083">
        <ele>1239</ele>
        <time>2009-05-05T09:59:29Z</time>
      </trkpt>
      <trkpt lat="43.89296" lon="6.68087">
        <ele>1240</ele>
        <time>2009-05-05T09:59:41Z</time>
      </trkpt>
      <trkpt lat="43.8929" lon="6.68089">
        <ele>1240</ele>
        <time>2009-05-05T09:59:44Z</time>
      </trkpt>
      <trkpt lat="43.89284" lon="6.68092">
        <ele>1240</ele>
        <time>2009-05-05T09:59:47Z</time>
      </trkpt>
      <trkpt lat="43.89278" lon="6.68093">
        <ele>1240</ele>
        <time>2009-05-05T09:59:50Z</time>
      </trkpt>
      <trkpt lat="43.89273" lon="6.68095">
        <ele>1239</ele>
        <time>2009-05-05T09:59:53Z</time>
      </trkpt>
      <trkpt lat="43.89267" lon="6.68098">
        <ele>1239</ele>
        <time>2009-05-05T09:59:56Z</time>
      </trkpt>
      <trkpt lat="43.89263" lon="6.68103">
        <ele>1240</ele>
        <time>2009-05-05T09:59:59Z</time>
      </trkpt>
      <trkpt lat="43.89263" lon="6.68114">
        <ele>1240</ele>
        <time>2009-05-05T10:00:02Z</time>
      </trkpt>
      <trkpt lat="43.89262" lon="6.68127">
        <ele>1241</ele>
        <time>2009-05-05T10:00:05Z</time>
      </trkpt>
      <trkpt lat="43.89262" lon="6.68139">
        <ele>1242</ele>
        <time>2009-05-05T10:00:08Z</time>
      </trkpt>
      <trkpt lat="43.8926" lon="6.68151">
        <ele>1243</ele>
        <time>2009-05-05T10:00:11Z</time>
      </trkpt>
      <trkpt lat="43.89256" lon="6.6816">
        <ele>1244</ele>
        <time>2009-05-05T10:00:14Z</time>
      </trkpt>
      <trkpt lat="43.89254" lon="6.68168">
        <ele>1243</ele>
        <time>2009-05-05T10:00:17Z</time>
      </trkpt>
      <trkpt lat="43.89252" lon="6.68181">
        <ele>1242</ele>
        <time>2009-05-05T10:00:23Z</time>
      </trkpt>
      <trkpt lat="43.89249" lon="6.68188">
        <ele>1242</ele>
        <time>2009-05-05T10:00:26Z</time>
      </trkpt>
      <trkpt lat="43.89248" lon="6.68196">
        <ele>1242</ele>
        <time>2009-05-05T10:00:29Z</time>
      </trkpt>
      <trkpt lat="43.8925" lon="6.68203">
        <ele>1242</ele>
        <time>2009-05-05T10:00:32Z</time>
      </trkpt>
      <trkpt lat="43.89251" lon="6.68211">
        <ele>1243</ele>
        <time>2009-05-05T10:00:35Z</time>
      </trkpt>
      <trkpt lat="43.8925" lon="6.68219">
        <ele>1243</ele>
        <time>2009-05-05T10:00:38Z</time>
      </trkpt>
      <trkpt lat="43.89248" lon="6.68226">
        <ele>1244</ele>
        <time>2009-05-05T10:00:41Z</time>
      </trkpt>
      <trkpt lat="43.89246" lon="6.68234">
        <ele>1244</ele>
        <time>2009-05-05T10:00:44Z</time>
      </trkpt>
      <trkpt lat="43.89246" lon="6.6824">
        <ele>1245</ele>
        <time>2009-05-05T10:00:47Z</time>
      </trkpt>
      <trkpt lat="43.89247" lon="6.68246">
        <ele>1246</ele>
        <time>2009-05-05T10:00:50Z</time>
      </trkpt>
      <trkpt lat="43.89248" lon="6.68253">
        <ele>1248</ele>
        <time>2009-05-05T10:00:53Z</time>
      </trkpt>
      <trkpt lat="43.89249" lon="6.68259">
        <ele>1249</ele>
        <time>2009-05-05T10:00:56Z</time>
      </trkpt>
      <trkpt lat="43.89249" lon="6.68266">
        <ele>1250</ele>
        <time>2009-05-05T10:00:59Z</time>
      </trkpt>
      <trkpt lat="43.89255" lon="6.68279">
        <ele>1258</ele>
        <time>2009-05-05T10:01:05Z</time>
      </trkpt>
      <trkpt lat="43.89258" lon="6.68287">
        <ele>1260</ele>
        <time>2009-05-05T10:01:08Z</time>
      </trkpt>
      <trkpt lat="43.89261" lon="6.68296">
        <ele>1259</ele>
        <time>2009-05-05T10:01:11Z</time>
      </trkpt>
      <trkpt lat="43.89262" lon="6.68306">
        <ele>1259</ele>
        <time>2009-05-05T10:01:14Z</time>
      </trkpt>
      <trkpt lat="43.89261" lon="6.68312">
        <ele>1258</ele>
        <time>2009-05-05T10:01:17Z</time>
      </trkpt>
      <trkpt lat="43.89259" lon="6.6832">
        <ele>1258</ele>
        <time>2009-05-05T10:01:20Z</time>
      </trkpt>
      <trkpt lat="43.89262" lon="6.68329">
        <ele>1258</ele>
        <time>2009-05-05T10:01:23Z</time>
      </trkpt>
      <trkpt lat="43.89263" lon="6.68339">
        <ele>1258</ele>
        <time>2009-05-05T10:01:26Z</time>
      </trkpt>
      <trkpt lat="43.89264" lon="6.68349">
        <ele>1259</ele>
        <time>2009-05-05T10:01:29Z</time>
      </trkpt>
      <trkpt lat="43.89266" lon="6.68358">
        <ele>1259</ele>
        <time>2009-05-05T10:01:33Z</time>
      </trkpt>
      <trkpt lat="43.89266" lon="6.68367">
        <ele>1259</ele>
        <time>2009-05-05T10:01:35Z</time>
      </trkpt>
      <trkpt lat="43.89265" lon="6.68378">
        <ele>1259</ele>
        <time>2009-05-05T10:01:38Z</time>
      </trkpt>
      <trkpt lat="43.89264" lon="6.68388">
        <ele>1258</ele>
        <time>2009-05-05T10:01:41Z</time>
      </trkpt>
      <trkpt lat="43.89265" lon="6.68398">
        <ele>1259</ele>
        <time>2009-05-05T10:01:44Z</time>
      </trkpt>
      <trkpt lat="43.89265" lon="6.6841">
        <ele>1259</ele>
        <time>2009-05-05T10:01:47Z</time>
      </trkpt>
      <trkpt lat="43.89267" lon="6.68421">
        <ele>1263</ele>
        <time>2009-05-05T10:01:50Z</time>
      </trkpt>
      <trkpt lat="43.89268" lon="6.68432">
        <ele>1263</ele>
        <time>2009-05-05T10:01:53Z</time>
      </trkpt>
      <trkpt lat="43.89268" lon="6.68443">
        <ele>1264</ele>
        <time>2009-05-05T10:01:56Z</time>
      </trkpt>
      <trkpt lat="43.89265" lon="6.68453">
        <ele>1265</ele>
        <time>2009-05-05T10:01:59Z</time>
      </trkpt>
      <trkpt lat="43.8926" lon="6.68459">
        <ele>1265</ele>
        <time>2009-05-05T10:02:02Z</time>
      </trkpt>
      <trkpt lat="43.89255" lon="6.68465">
        <ele>1266</ele>
        <time>2009-05-05T10:02:05Z</time>
      </trkpt>
      <trkpt lat="43.89252" lon="6.6847">
        <ele>1267</ele>
        <time>2009-05-05T10:02:08Z</time>
      </trkpt>
      <trkpt lat="43.89248" lon="6.68476">
        <ele>1268</ele>
        <time>2009-05-05T10:02:11Z</time>
      </trkpt>
      <trkpt lat="43.89243" lon="6.68481">
        <ele>1270</ele>
        <time>2009-05-05T10:02:14Z</time>
      </trkpt>
      <trkpt lat="43.89239" lon="6.68485">
        <ele>1270</ele>
        <time>2009-05-05T10:02:17Z</time>
      </trkpt>
      <trkpt lat="43.89234" lon="6.68489">
        <ele>1271</ele>
        <time>2009-05-05T10:02:20Z</time>
      </trkpt>
      <trkpt lat="43.89229" lon="6.68495">
        <ele>1271</ele>
        <time>2009-05-05T10:02:23Z</time>
      </trkpt>
      <trkpt lat="43.89224" lon="6.68502">
        <ele>1271</ele>
        <time>2009-05-05T10:02:26Z</time>
      </trkpt>
      <trkpt lat="43.89218" lon="6.68509">
        <ele>1271</ele>
        <time>2009-05-05T10:02:29Z</time>
      </trkpt>
      <trkpt lat="43.89213" lon="6.68518">
        <ele>1272</ele>
        <time>2009-05-05T10:02:32Z</time>
      </trkpt>
      <trkpt lat="43.89206" lon="6.6853">
        <ele>1272</ele>
        <time>2009-05-05T10:02:35Z</time>
      </trkpt>
      <trkpt lat="43.89201" lon="6.68544">
        <ele>1272</ele>
        <time>2009-05-05T10:02:38Z</time>
      </trkpt>
      <trkpt lat="43.89197" lon="6.68559">
        <ele>1272</ele>
        <time>2009-05-05T10:02:41Z</time>
      </trkpt>
      <trkpt lat="43.89189" lon="6.68569">
        <ele>1273</ele>
        <time>2009-05-05T10:02:44Z</time>
      </trkpt>
      <trkpt lat="43.89181" lon="6.68575">
        <ele>1273</ele>
        <time>2009-05-05T10:02:47Z</time>
      </trkpt>
      <trkpt lat="43.89173" lon="6.68578">
        <ele>1274</ele>
        <time>2009-05-05T10:02:50Z</time>
      </trkpt>
      <trkpt lat="43.89165" lon="6.6858">
        <ele>1274</ele>
        <time>2009-05-05T10:02:53Z</time>
      </trkpt>
      <trkpt lat="43.89157" lon="6.68581">
        <ele>1275</ele>
        <time>2009-05-05T10:02:56Z</time>
      </trkpt>
      <trkpt lat="43.89149" lon="6.6858">
        <ele>1276</ele>
        <time>2009-05-05T10:02:59Z</time>
      </trkpt>
      <trkpt lat="43.89141" lon="6.6858">
        <ele>1276</ele>
        <time>2009-05-05T10:03:02Z</time>
      </trkpt>
      <trkpt lat="43.89133" lon="6.68577">
        <ele>1277</ele>
        <time>2009-05-05T10:03:05Z</time>
      </trkpt>
      <trkpt lat="43.89126" lon="6.68573">
        <ele>1278</ele>
        <time>2009-05-05T10:03:08Z</time>
      </trkpt>
      <trkpt lat="43.89119" lon="6.68571">
        <ele>1278</ele>
        <time>2009-05-05T10:03:11Z</time>
      </trkpt>
      <trkpt lat="43.8911" lon="6.68571">
        <ele>1278</ele>
        <time>2009-05-05T10:03:14Z</time>
      </trkpt>
      <trkpt lat="43.891" lon="6.68573">
        <ele>1277</ele>
        <time>2009-05-05T10:03:17Z</time>
      </trkpt>
      <trkpt lat="43.89091" lon="6.68573">
        <ele>1278</ele>
        <time>2009-05-05T10:03:20Z</time>
      </trkpt>
      <trkpt lat="43.89085" lon="6.6857">
        <ele>1279</ele>
        <time>2009-05-05T10:03:23Z</time>
      </trkpt>
      <trkpt lat="43.89078" lon="6.6857">
        <ele>1280</ele>
        <time>2009-05-05T10:03:26Z</time>
      </trkpt>
      <trkpt lat="43.89072" lon="6.6857">
        <ele>1280</ele>
        <time>2009-05-05T10:03:29Z</time>
      </trkpt>
      <trkpt lat="43.89065" lon="6.6857">
        <ele>1281</ele>
        <time>2009-05-05T10:03:32Z</time>
      </trkpt>
      <trkpt lat="43.89058" lon="6.68569">
        <ele>1282</ele>
        <time>2009-05-05T10:03:35Z</time>
      </trkpt>
      <trkpt lat="43.89051" lon="6.68571">
        <ele>1282</ele>
        <time>2009-05-05T10:03:38Z</time>
      </trkpt>
      <trkpt lat="43.89045" lon="6.6857">
        <ele>1282</ele>
        <time>2009-05-05T10:03:41Z</time>
      </trkpt>
      <trkpt lat="43.89038" lon="6.68572">
        <ele>1283</ele>
        <time>2009-05-05T10:03:44Z</time>
      </trkpt>
      <trkpt lat="43.89031" lon="6.68574">
        <ele>1283</ele>
        <time>2009-05-05T10:03:47Z</time>
      </trkpt>
      <trkpt lat="43.89024" lon="6.68575">
        <ele>1283</ele>
        <time>2009-05-05T10:03:50Z</time>
      </trkpt>
      <trkpt lat="43.89017" lon="6.68576">
        <ele>1283</ele>
        <time>2009-05-05T10:03:53Z</time>
      </trkpt>
      <trkpt lat="43.89005" lon="6.68577">
        <ele>1282</ele>
        <time>2009-05-05T10:03:56Z</time>
      </trkpt>
      <trkpt lat="43.88987" lon="6.68572">
        <ele>1280</ele>
        <time>2009-05-05T10:03:59Z</time>
      </trkpt>
      <trkpt lat="43.8897" lon="6.68559">
        <ele>1279</ele>
        <time>2009-05-05T10:04:02Z</time>
      </trkpt>
      <trkpt lat="43.8896" lon="6.68553">
        <ele>1278</ele>
        <time>2009-05-05T10:04:05Z</time>
      </trkpt>
      <trkpt lat="43.88965" lon="6.68551">
        <ele>1279</ele>
        <time>2009-05-05T10:04:58Z</time>
      </trkpt>
      <trkpt lat="43.88961" lon="6.68556">
        <ele>1281</ele>
        <time>2009-05-05T10:05:04Z</time>
      </trkpt>
      <trkpt lat="43.88958" lon="6.68558">
        <ele>1280</ele>
        <time>2009-05-05T10:05:07Z</time>
      </trkpt>
      <trkpt lat="43.88953" lon="6.68557">
        <ele>1280</ele>
        <time>2009-05-05T10:05:10Z</time>
      </trkpt>
      <trkpt lat="43.88949" lon="6.68557">
        <ele>1281</ele>
        <time>2009-05-05T10:05:16Z</time>
      </trkpt>
      <trkpt lat="43.88945" lon="6.68557">
        <ele>1284</ele>
        <time>2009-05-05T10:05:25Z</time>
      </trkpt>
      <trkpt lat="43.88938" lon="6.68566">
        <ele>1283</ele>
        <time>2009-05-05T10:05:59Z</time>
      </trkpt>
      <trkpt lat="43.88934" lon="6.68568">
        <ele>1283</ele>
        <time>2009-05-05T10:06:05Z</time>
      </trkpt>
      <trkpt lat="43.8893" lon="6.6857">
        <ele>1284</ele>
        <time>2009-05-05T10:06:08Z</time>
      </trkpt>
      <trkpt lat="43.88927" lon="6.68572">
        <ele>1284</ele>
        <time>2009-05-05T10:06:11Z</time>
      </trkpt>
      <trkpt lat="43.88921" lon="6.68576">
        <ele>1284</ele>
        <time>2009-05-05T10:06:14Z</time>
      </trkpt>
      <trkpt lat="43.88916" lon="6.6858">
        <ele>1283</ele>
        <time>2009-05-05T10:06:17Z</time>
      </trkpt>
      <trkpt lat="43.8891" lon="6.68584">
        <ele>1284</ele>
        <time>2009-05-05T10:06:20Z</time>
      </trkpt>
      <trkpt lat="43.88905" lon="6.68588">
        <ele>1284</ele>
        <time>2009-05-05T10:06:23Z</time>
      </trkpt>
      <trkpt lat="43.88897" lon="6.68592">
        <ele>1284</ele>
        <time>2009-05-05T10:06:26Z</time>
      </trkpt>
      <trkpt lat="43.88889" lon="6.68596">
        <ele>1284</ele>
        <time>2009-05-05T10:06:29Z</time>
      </trkpt>
      <trkpt lat="43.88881" lon="6.68597">
        <ele>1284</ele>
        <time>2009-05-05T10:06:32Z</time>
      </trkpt>
      <trkpt lat="43.88874" lon="6.68602">
        <ele>1285</ele>
        <time>2009-05-05T10:06:35Z</time>
      </trkpt>
      <trkpt lat="43.8887" lon="6.68607">
        <ele>1287</ele>
        <time>2009-05-05T10:06:38Z</time>
      </trkpt>
      <trkpt lat="43.88863" lon="6.68612">
        <ele>1287</ele>
        <time>2009-05-05T10:06:41Z</time>
      </trkpt>
      <trkpt lat="43.88859" lon="6.68615">
        <ele>1287</ele>
        <time>2009-05-05T10:06:44Z</time>
      </trkpt>
      <trkpt lat="43.88858" lon="6.68617">
        <ele>1287</ele>
        <time>2009-05-05T10:06:47Z</time>
      </trkpt>
      <trkpt lat="43.88856" lon="6.68622">
        <ele>1287</ele>
        <time>2009-05-05T10:06:53Z</time>
      </trkpt>
      <trkpt lat="43.88851" lon="6.68629">
        <ele>1288</ele>
        <time>2009-05-05T10:06:56Z</time>
      </trkpt>
      <trkpt lat="43.88845" lon="6.68633">
        <ele>1287</ele>
        <time>2009-05-05T10:06:59Z</time>
      </trkpt>
      <trkpt lat="43.88841" lon="6.68638">
        <ele>1287</ele>
        <time>2009-05-05T10:07:02Z</time>
      </trkpt>
      <trkpt lat="43.88834" lon="6.68645">
        <ele>1287</ele>
        <time>2009-05-05T10:07:05Z</time>
      </trkpt>
      <trkpt lat="43.88826" lon="6.68647">
        <ele>1286</ele>
        <time>2009-05-05T10:07:08Z</time>
      </trkpt>
      <trkpt lat="43.88818" lon="6.68651">
        <ele>1286</ele>
        <time>2009-05-05T10:07:11Z</time>
      </trkpt>
      <trkpt lat="43.8881" lon="6.68653">
        <ele>1287</ele>
        <time>2009-05-05T10:07:14Z</time>
      </trkpt>
      <trkpt lat="43.888" lon="6.68655">
        <ele>1286</ele>
        <time>2009-05-05T10:07:17Z</time>
      </trkpt>
      <trkpt lat="43.8879" lon="6.68667">
        <ele>1287</ele>
        <time>2009-05-05T10:07:20Z</time>
      </trkpt>
      <trkpt lat="43.88784" lon="6.68679">
        <ele>1284</ele>
        <time>2009-05-05T10:07:23Z</time>
      </trkpt>
      <trkpt lat="43.88777" lon="6.68685">
        <ele>1279</ele>
        <time>2009-05-05T10:07:26Z</time>
      </trkpt>
      <trkpt lat="43.88766" lon="6.68689">
        <ele>1277</ele>
        <time>2009-05-05T10:07:29Z</time>
      </trkpt>
      <trkpt lat="43.88748" lon="6.68693">
        <ele>1274</ele>
        <time>2009-05-05T10:07:32Z</time>
      </trkpt>
      <trkpt lat="43.8873" lon="6.68698">
        <ele>1275</ele>
        <time>2009-05-05T10:07:35Z</time>
      </trkpt>
      <trkpt lat="43.88717" lon="6.68696">
        <ele>1276</ele>
        <time>2009-05-05T10:07:38Z</time>
      </trkpt>
      <trkpt lat="43.88708" lon="6.68692">
        <ele>1277</ele>
        <time>2009-05-05T10:07:41Z</time>
      </trkpt>
      <trkpt lat="43.88699" lon="6.68689">
        <ele>1278</ele>
        <time>2009-05-05T10:07:44Z</time>
      </trkpt>
      <trkpt lat="43.88691" lon="6.68692">
        <ele>1278</ele>
        <time>2009-05-05T10:07:47Z</time>
      </trkpt>
      <trkpt lat="43.88687" lon="6.68696">
        <ele>1281</ele>
        <time>2009-05-05T10:07:56Z</time>
      </trkpt>
      <trkpt lat="43.8871" lon="6.6871">
        <ele>1281</ele>
        <time>2009-05-05T10:09:58Z</time>
      </trkpt>
      <trkpt lat="43.88711" lon="6.68718">
        <ele>1275</ele>
        <time>2009-05-05T10:10:31Z</time>
      </trkpt>
      <trkpt lat="43.88708" lon="6.68726">
        <ele>1276</ele>
        <time>2009-05-05T10:10:34Z</time>
      </trkpt>
      <trkpt lat="43.88706" lon="6.68737">
        <ele>1278</ele>
        <time>2009-05-05T10:10:37Z</time>
      </trkpt>
      <trkpt lat="43.88704" lon="6.68743">
        <ele>1278</ele>
        <time>2009-05-05T10:10:40Z</time>
      </trkpt>
      <trkpt lat="43.88702" lon="6.6875">
        <ele>1279</ele>
        <time>2009-05-05T10:10:46Z</time>
      </trkpt>
      <trkpt lat="43.88701" lon="6.68754">
        <ele>1279</ele>
        <time>2009-05-05T10:10:49Z</time>
      </trkpt>
      <trkpt lat="43.887" lon="6.68758">
        <ele>1280</ele>
        <time>2009-05-05T10:10:52Z</time>
      </trkpt>
      <trkpt lat="43.88698" lon="6.68762">
        <ele>1288</ele>
        <time>2009-05-05T10:13:51Z</time>
      </trkpt>
      <trkpt lat="43.88693" lon="6.68761">
        <ele>1287</ele>
        <time>2009-05-05T10:13:59Z</time>
      </trkpt>
      <trkpt lat="43.88688" lon="6.68762">
        <ele>1288</ele>
        <time>2009-05-05T10:14:02Z</time>
      </trkpt>
      <trkpt lat="43.88684" lon="6.68763">
        <ele>1288</ele>
        <time>2009-05-05T10:14:05Z</time>
      </trkpt>
      <trkpt lat="43.88679" lon="6.68764">
        <ele>1288</ele>
        <time>2009-05-05T10:14:08Z</time>
      </trkpt>
      <trkpt lat="43.88674" lon="6.68763">
        <ele>1288</ele>
        <time>2009-05-05T10:14:11Z</time>
      </trkpt>
      <trkpt lat="43.88667" lon="6.68762">
        <ele>1287</ele>
        <time>2009-05-05T10:14:14Z</time>
      </trkpt>
      <trkpt lat="43.8866" lon="6.68758">
        <ele>1287</ele>
        <time>2009-05-05T10:14:17Z</time>
      </trkpt>
      <trkpt lat="43.88652" lon="6.6875">
        <ele>1287</ele>
        <time>2009-05-05T10:14:20Z</time>
      </trkpt>
      <trkpt lat="43.88643" lon="6.68742">
        <ele>1287</ele>
        <time>2009-05-05T10:14:23Z</time>
      </trkpt>
      <trkpt lat="43.88635" lon="6.68732">
        <ele>1286</ele>
        <time>2009-05-05T10:14:26Z</time>
      </trkpt>
      <trkpt lat="43.88626" lon="6.68724">
        <ele>1286</ele>
        <time>2009-05-05T10:14:29Z</time>
      </trkpt>
      <trkpt lat="43.88619" lon="6.68714">
        <ele>1286</ele>
        <time>2009-05-05T10:14:32Z</time>
      </trkpt>
      <trkpt lat="43.88614" lon="6.6871">
        <ele>1287</ele>
        <time>2009-05-05T10:14:35Z</time>
      </trkpt>
      <trkpt lat="43.88609" lon="6.6871">
        <ele>1287</ele>
        <time>2009-05-05T10:14:38Z</time>
      </trkpt>
      <trkpt lat="43.88603" lon="6.6871">
        <ele>1287</ele>
        <time>2009-05-05T10:14:41Z</time>
      </trkpt>
      <trkpt lat="43.88596" lon="6.68711">
        <ele>1288</ele>
        <time>2009-05-05T10:14:44Z</time>
      </trkpt>
      <trkpt lat="43.88591" lon="6.68712">
        <ele>1289</ele>
        <time>2009-05-05T10:14:47Z</time>
      </trkpt>
      <trkpt lat="43.88585" lon="6.68713">
        <ele>1289</ele>
        <time>2009-05-05T10:14:50Z</time>
      </trkpt>
      <trkpt lat="43.8858" lon="6.68713">
        <ele>1290</ele>
        <time>2009-05-05T10:14:53Z</time>
      </trkpt>
      <trkpt lat="43.88575" lon="6.68713">
        <ele>1292</ele>
        <time>2009-05-05T10:14:56Z</time>
      </trkpt>
      <trkpt lat="43.88571" lon="6.68712">
        <ele>1294</ele>
        <time>2009-05-05T10:14:59Z</time>
      </trkpt>
      <trkpt lat="43.88566" lon="6.68711">
        <ele>1294</ele>
        <time>2009-05-05T10:15:05Z</time>
      </trkpt>
      <trkpt lat="43.88562" lon="6.68714">
        <ele>1299</ele>
        <time>2009-05-05T10:16:20Z</time>
      </trkpt>
      <trkpt lat="43.88559" lon="6.68717">
        <ele>1300</ele>
        <time>2009-05-05T10:16:23Z</time>
      </trkpt>
      <trkpt lat="43.88556" lon="6.6872">
        <ele>1301</ele>
        <time>2009-05-05T10:16:26Z</time>
      </trkpt>
      <trkpt lat="43.88551" lon="6.68724">
        <ele>1302</ele>
        <time>2009-05-05T10:16:32Z</time>
      </trkpt>
      <trkpt lat="43.88547" lon="6.68723">
        <ele>1302</ele>
        <time>2009-05-05T10:16:38Z</time>
      </trkpt>
      <trkpt lat="43.88544" lon="6.68721">
        <ele>1302</ele>
        <time>2009-05-05T10:16:41Z</time>
      </trkpt>
      <trkpt lat="43.8854" lon="6.68719">
        <ele>1302</ele>
        <time>2009-05-05T10:16:44Z</time>
      </trkpt>
      <trkpt lat="43.88537" lon="6.68717">
        <ele>1301</ele>
        <time>2009-05-05T10:16:47Z</time>
      </trkpt>
      <trkpt lat="43.88527" lon="6.68707">
        <ele>1301</ele>
        <time>2009-05-05T10:17:02Z</time>
      </trkpt>
      <trkpt lat="43.88515" lon="6.68696">
        <ele>1298</ele>
        <time>2009-05-05T10:17:05Z</time>
      </trkpt>
      <trkpt lat="43.88502" lon="6.68687">
        <ele>1296</ele>
        <time>2009-05-05T10:17:08Z</time>
      </trkpt>
      <trkpt lat="43.88488" lon="6.68674">
        <ele>1293</ele>
        <time>2009-05-05T10:17:11Z</time>
      </trkpt>
      <trkpt lat="43.88485" lon="6.68655">
        <ele>1289</ele>
        <time>2009-05-05T10:17:14Z</time>
      </trkpt>
      <trkpt lat="43.88485" lon="6.6864">
        <ele>1286</ele>
        <time>2009-05-05T10:17:17Z</time>
      </trkpt>
      <trkpt lat="43.88482" lon="6.68627">
        <ele>1282</ele>
        <time>2009-05-05T10:17:20Z</time>
      </trkpt>
      <trkpt lat="43.88473" lon="6.68617">
        <ele>1280</ele>
        <time>2009-05-05T10:17:23Z</time>
      </trkpt>
      <trkpt lat="43.88464" lon="6.68615">
        <ele>1277</ele>
        <time>2009-05-05T10:17:26Z</time>
      </trkpt>
      <trkpt lat="43.88459" lon="6.68617">
        <ele>1274</ele>
        <time>2009-05-05T10:19:33Z</time>
      </trkpt>
      <trkpt lat="43.88462" lon="6.68613">
        <ele>1272</ele>
        <time>2009-05-05T10:19:42Z</time>
      </trkpt>
      <trkpt lat="43.88465" lon="6.68604">
        <ele>1272</ele>
        <time>2009-05-05T10:19:51Z</time>
      </trkpt>
      <trkpt lat="43.88459" lon="6.686">
        <ele>1270</ele>
        <time>2009-05-05T10:19:54Z</time>
      </trkpt>
      <trkpt lat="43.88451" lon="6.68597">
        <ele>1268</ele>
        <time>2009-05-05T10:19:57Z</time>
      </trkpt>
      <trkpt lat="43.88443" lon="6.68593">
        <ele>1266</ele>
        <time>2009-05-05T10:20:00Z</time>
      </trkpt>
      <trkpt lat="43.88434" lon="6.6859">
        <ele>1263</ele>
        <time>2009-05-05T10:20:03Z</time>
      </trkpt>
      <trkpt lat="43.88426" lon="6.68591">
        <ele>1261</ele>
        <time>2009-05-05T10:20:06Z</time>
      </trkpt>
      <trkpt lat="43.88421" lon="6.68592">
        <ele>1259</ele>
        <time>2009-05-05T10:20:09Z</time>
      </trkpt>
      <trkpt lat="43.8842" lon="6.68579">
        <ele>1257</ele>
        <time>2009-05-05T10:20:15Z</time>
      </trkpt>
      <trkpt lat="43.88415" lon="6.68577">
        <ele>1256</ele>
        <time>2009-05-05T10:20:18Z</time>
      </trkpt>
      <trkpt lat="43.88407" lon="6.68583">
        <ele>1254</ele>
        <time>2009-05-05T10:20:21Z</time>
      </trkpt>
      <trkpt lat="43.88397" lon="6.68581">
        <ele>1251</ele>
        <time>2009-05-05T10:20:24Z</time>
      </trkpt>
      <trkpt lat="43.88388" lon="6.6858">
        <ele>1248</ele>
        <time>2009-05-05T10:20:27Z</time>
      </trkpt>
      <trkpt lat="43.88379" lon="6.6858">
        <ele>1246</ele>
        <time>2009-05-05T10:20:30Z</time>
      </trkpt>
      <trkpt lat="43.8837" lon="6.68577">
        <ele>1244</ele>
        <time>2009-05-05T10:20:33Z</time>
      </trkpt>
      <trkpt lat="43.88361" lon="6.68573">
        <ele>1241</ele>
        <time>2009-05-05T10:20:36Z</time>
      </trkpt>
      <trkpt lat="43.8835" lon="6.68574">
        <ele>1238</ele>
        <time>2009-05-05T10:20:39Z</time>
      </trkpt>
      <trkpt lat="43.88342" lon="6.68575">
        <ele>1235</ele>
        <time>2009-05-05T10:20:42Z</time>
      </trkpt>
      <trkpt lat="43.88334" lon="6.68577">
        <ele>1233</ele>
        <time>2009-05-05T10:20:45Z</time>
      </trkpt>
      <trkpt lat="43.88323" lon="6.68577">
        <ele>1230</ele>
        <time>2009-05-05T10:20:48Z</time>
      </trkpt>
      <trkpt lat="43.88313" lon="6.68574">
        <ele>1227</ele>
        <time>2009-05-05T10:20:51Z</time>
      </trkpt>
      <trkpt lat="43.88304" lon="6.68576">
        <ele>1224</ele>
        <time>2009-05-05T10:20:54Z</time>
      </trkpt>
      <trkpt lat="43.88295" lon="6.6858">
        <ele>1221</ele>
        <time>2009-05-05T10:20:57Z</time>
      </trkpt>
      <trkpt lat="43.8829" lon="6.6858">
        <ele>1219</ele>
        <time>2009-05-05T10:21:00Z</time>
      </trkpt>
      <trkpt lat="43.88285" lon="6.68581">
        <ele>1217</ele>
        <time>2009-05-05T10:21:03Z</time>
      </trkpt>
      <trkpt lat="43.88283" lon="6.68586">
        <ele>1216</ele>
        <time>2009-05-05T10:21:09Z</time>
      </trkpt>
      <trkpt lat="43.88285" lon="6.68586">
        <ele>1212</ele>
        <time>2009-05-05T10:22:51Z</time>
      </trkpt>
      <trkpt lat="43.88286" lon="6.68591">
        <ele>1211</ele>
        <time>2009-05-05T10:22:54Z</time>
      </trkpt>
      <trkpt lat="43.88282" lon="6.68599">
        <ele>1212</ele>
        <time>2009-05-05T10:22:57Z</time>
      </trkpt>
      <trkpt lat="43.88275" lon="6.6861">
        <ele>1213</ele>
        <time>2009-05-05T10:23:00Z</time>
      </trkpt>
      <trkpt lat="43.88267" lon="6.68625">
        <ele>1214</ele>
        <time>2009-05-05T10:23:03Z</time>
      </trkpt>
      <trkpt lat="43.88261" lon="6.68636">
        <ele>1214</ele>
        <time>2009-05-05T10:23:06Z</time>
      </trkpt>
      <trkpt lat="43.88255" lon="6.68651">
        <ele>1214</ele>
        <time>2009-05-05T10:23:09Z</time>
      </trkpt>
      <trkpt lat="43.8825" lon="6.68667">
        <ele>1213</ele>
        <time>2009-05-05T10:23:12Z</time>
      </trkpt>
      <trkpt lat="43.88243" lon="6.68688">
        <ele>1211</ele>
        <time>2009-05-05T10:23:15Z</time>
      </trkpt>
      <trkpt lat="43.88242" lon="6.68708">
        <ele>1211</ele>
        <time>2009-05-05T10:23:18Z</time>
      </trkpt>
      <trkpt lat="43.88242" lon="6.68727">
        <ele>1211</ele>
        <time>2009-05-05T10:23:21Z</time>
      </trkpt>
      <trkpt lat="43.88241" lon="6.68744">
        <ele>1211</ele>
        <time>2009-05-05T10:23:24Z</time>
      </trkpt>
      <trkpt lat="43.88241" lon="6.6876">
        <ele>1212</ele>
        <time>2009-05-05T10:23:27Z</time>
      </trkpt>
      <trkpt lat="43.88234" lon="6.68774">
        <ele>1211</ele>
        <time>2009-05-05T10:23:30Z</time>
      </trkpt>
      <trkpt lat="43.88216" lon="6.68784">
        <ele>1210</ele>
        <time>2009-05-05T10:23:33Z</time>
      </trkpt>
      <trkpt lat="43.88199" lon="6.68798">
        <ele>1207</ele>
        <time>2009-05-05T10:23:36Z</time>
      </trkpt>
      <trkpt lat="43.88189" lon="6.68824">
        <ele>1204</ele>
        <time>2009-05-05T10:23:39Z</time>
      </trkpt>
      <trkpt lat="43.88176" lon="6.68846">
        <ele>1201</ele>
        <time>2009-05-05T10:23:42Z</time>
      </trkpt>
      <trkpt lat="43.88165" lon="6.68845">
        <ele>1198</ele>
        <time>2009-05-05T10:23:45Z</time>
      </trkpt>
      <trkpt lat="43.88154" lon="6.68841">
        <ele>1196</ele>
        <time>2009-05-05T10:23:48Z</time>
      </trkpt>
      <trkpt lat="43.88144" lon="6.68836">
        <ele>1194</ele>
        <time>2009-05-05T10:23:51Z</time>
      </trkpt>
      <trkpt lat="43.88134" lon="6.68836">
        <ele>1192</ele>
        <time>2009-05-05T10:23:54Z</time>
      </trkpt>
      <trkpt lat="43.88123" lon="6.68842">
        <ele>1189</ele>
        <time>2009-05-05T10:23:57Z</time>
      </trkpt>
      <trkpt lat="43.88115" lon="6.68845">
        <ele>1187</ele>
        <time>2009-05-05T10:24:00Z</time>
      </trkpt>
      <trkpt lat="43.8811" lon="6.68844">
        <ele>1185</ele>
        <time>2009-05-05T10:24:06Z</time>
      </trkpt>
      <trkpt lat="43.88111" lon="6.68839">
        <ele>1186</ele>
        <time>2009-05-05T10:24:15Z</time>
      </trkpt>
      <trkpt lat="43.88106" lon="6.6884">
        <ele>1192</ele>
        <time>2009-05-05T10:26:38Z</time>
      </trkpt>
      <trkpt lat="43.88104" lon="6.68835">
        <ele>1188</ele>
        <time>2009-05-05T10:26:56Z</time>
      </trkpt>
      <trkpt lat="43.88106" lon="6.68838">
        <ele>1186</ele>
        <time>2009-05-05T10:27:23Z</time>
      </trkpt>
      <trkpt lat="43.88104" lon="6.68841">
        <ele>1185</ele>
        <time>2009-05-05T10:27:29Z</time>
      </trkpt>
      <trkpt lat="43.88097" lon="6.68846">
        <ele>1184</ele>
        <time>2009-05-05T10:27:32Z</time>
      </trkpt>
      <trkpt lat="43.88089" lon="6.68859">
        <ele>1183</ele>
        <time>2009-05-05T10:27:35Z</time>
      </trkpt>
      <trkpt lat="43.8809" lon="6.6888">
        <ele>1182</ele>
        <time>2009-05-05T10:27:38Z</time>
      </trkpt>
      <trkpt lat="43.88104" lon="6.68891">
        <ele>1180</ele>
        <time>2009-05-05T10:27:41Z</time>
      </trkpt>
      <trkpt lat="43.8812" lon="6.68912">
        <ele>1176</ele>
        <time>2009-05-05T10:27:44Z</time>
      </trkpt>
      <trkpt lat="43.88129" lon="6.68938">
        <ele>1175</ele>
        <time>2009-05-05T10:27:47Z</time>
      </trkpt>
      <trkpt lat="43.88126" lon="6.68955">
        <ele>1175</ele>
        <time>2009-05-05T10:27:50Z</time>
      </trkpt>
      <trkpt lat="43.88124" lon="6.6896">
        <ele>1176</ele>
        <time>2009-05-05T10:27:53Z</time>
      </trkpt>
      <trkpt lat="43.88119" lon="6.68963">
        <ele>1183</ele>
        <time>2009-05-05T10:29:33Z</time>
      </trkpt>
      <trkpt lat="43.88115" lon="6.68969">
        <ele>1183</ele>
        <time>2009-05-05T10:29:36Z</time>
      </trkpt>
      <trkpt lat="43.88109" lon="6.68977">
        <ele>1184</ele>
        <time>2009-05-05T10:29:39Z</time>
      </trkpt>
      <trkpt lat="43.88104" lon="6.68988">
        <ele>1184</ele>
        <time>2009-05-05T10:29:48Z</time>
      </trkpt>
      <trkpt lat="43.88102" lon="6.68995">
        <ele>1183</ele>
        <time>2009-05-05T10:29:51Z</time>
      </trkpt>
      <trkpt lat="43.88096" lon="6.69003">
        <ele>1183</ele>
        <time>2009-05-05T10:29:54Z</time>
      </trkpt>
      <trkpt lat="43.88093" lon="6.6901">
        <ele>1184</ele>
        <time>2009-05-05T10:29:57Z</time>
      </trkpt>
      <trkpt lat="43.88089" lon="6.69017">
        <ele>1188</ele>
        <time>2009-05-05T10:30:00Z</time>
      </trkpt>
      <trkpt lat="43.88084" lon="6.69026">
        <ele>1192</ele>
        <time>2009-05-05T10:30:03Z</time>
      </trkpt>
      <trkpt lat="43.88079" lon="6.69031">
        <ele>1191</ele>
        <time>2009-05-05T10:30:06Z</time>
      </trkpt>
      <trkpt lat="43.88072" lon="6.69033">
        <ele>1187</ele>
        <time>2009-05-05T10:30:18Z</time>
      </trkpt>
      <trkpt lat="43.88072" lon="6.6904">
        <ele>1186</ele>
        <time>2009-05-05T10:30:39Z</time>
      </trkpt>
      <trkpt lat="43.88072" lon="6.69036">
        <ele>1191</ele>
        <time>2009-05-05T10:32:03Z</time>
      </trkpt>
      <trkpt lat="43.8807" lon="6.69043">
        <ele>1185</ele>
        <time>2009-05-05T10:33:32Z</time>
      </trkpt>
      <trkpt lat="43.88072" lon="6.69041">
        <ele>1183</ele>
        <time>2009-05-05T10:34:39Z</time>
      </trkpt>
      <trkpt lat="43.8807" lon="6.69049">
        <ele>1182</ele>
        <time>2009-05-05T10:34:42Z</time>
      </trkpt>
      <trkpt lat="43.88063" lon="6.6906">
        <ele>1182</ele>
        <time>2009-05-05T10:34:45Z</time>
      </trkpt>
      <trkpt lat="43.88057" lon="6.69071">
        <ele>1182</ele>
        <time>2009-05-05T10:34:48Z</time>
      </trkpt>
      <trkpt lat="43.88051" lon="6.69078">
        <ele>1183</ele>
        <time>2009-05-05T10:34:51Z</time>
      </trkpt>
      <trkpt lat="43.88041" lon="6.69072">
        <ele>1181</ele>
        <time>2009-05-05T10:35:00Z</time>
      </trkpt>
      <trkpt lat="43.88034" lon="6.6908">
        <ele>1182</ele>
        <time>2009-05-05T10:37:34Z</time>
      </trkpt>
      <trkpt lat="43.88026" lon="6.69081">
        <ele>1182</ele>
        <time>2009-05-05T10:37:36Z</time>
      </trkpt>
      <trkpt lat="43.88017" lon="6.69083">
        <ele>1182</ele>
        <time>2009-05-05T10:37:39Z</time>
      </trkpt>
      <trkpt lat="43.88008" lon="6.69081">
        <ele>1180</ele>
        <time>2009-05-05T10:37:42Z</time>
      </trkpt>
      <trkpt lat="43.87998" lon="6.69078">
        <ele>1177</ele>
        <time>2009-05-05T10:37:45Z</time>
      </trkpt>
      <trkpt lat="43.87985" lon="6.69073">
        <ele>1173</ele>
        <time>2009-05-05T10:37:48Z</time>
      </trkpt>
      <trkpt lat="43.87973" lon="6.69073">
        <ele>1169</ele>
        <time>2009-05-05T10:37:51Z</time>
      </trkpt>
      <trkpt lat="43.8797" lon="6.69074">
        <ele>1167</ele>
        <time>2009-05-05T10:37:54Z</time>
      </trkpt>
      <trkpt lat="43.87961" lon="6.69083">
        <ele>1164</ele>
        <time>2009-05-05T10:38:21Z</time>
      </trkpt>
      <trkpt lat="43.87953" lon="6.69103">
        <ele>1160</ele>
        <time>2009-05-05T10:38:24Z</time>
      </trkpt>
      <trkpt lat="43.87949" lon="6.69127">
        <ele>1156</ele>
        <time>2009-05-05T10:38:27Z</time>
      </trkpt>
      <trkpt lat="43.8794" lon="6.69149">
        <ele>1152</ele>
        <time>2009-05-05T10:38:30Z</time>
      </trkpt>
      <trkpt lat="43.87932" lon="6.69164">
        <ele>1149</ele>
        <time>2009-05-05T10:38:33Z</time>
      </trkpt>
      <trkpt lat="43.87931" lon="6.69174">
        <ele>1145</ele>
        <time>2009-05-05T10:38:39Z</time>
      </trkpt>
      <trkpt lat="43.8793" lon="6.69192">
        <ele>1147</ele>
        <time>2009-05-05T10:40:02Z</time>
      </trkpt>
      <trkpt lat="43.87923" lon="6.69211">
        <ele>1147</ele>
        <time>2009-05-05T10:40:05Z</time>
      </trkpt>
      <trkpt lat="43.87919" lon="6.69225">
        <ele>1147</ele>
        <time>2009-05-05T10:40:08Z</time>
      </trkpt>
      <trkpt lat="43.87918" lon="6.69236">
        <ele>1147</ele>
        <time>2009-05-05T10:40:11Z</time>
      </trkpt>
      <trkpt lat="43.87916" lon="6.69246">
        <ele>1147</ele>
        <time>2009-05-05T10:40:14Z</time>
      </trkpt>
      <trkpt lat="43.87917" lon="6.69253">
        <ele>1147</ele>
        <time>2009-05-05T10:40:20Z</time>
      </trkpt>
      <trkpt lat="43.87918" lon="6.69265">
        <ele>1147</ele>
        <time>2009-05-05T10:40:23Z</time>
      </trkpt>
      <trkpt lat="43.8792" lon="6.69275">
        <ele>1147</ele>
        <time>2009-05-05T10:40:26Z</time>
      </trkpt>
      <trkpt lat="43.87916" lon="6.69283">
        <ele>1147</ele>
        <time>2009-05-05T10:40:29Z</time>
      </trkpt>
      <trkpt lat="43.87909" lon="6.69287">
        <ele>1147</ele>
        <time>2009-05-05T10:40:32Z</time>
      </trkpt>
      <trkpt lat="43.87898" lon="6.6929">
        <ele>1147</ele>
        <time>2009-05-05T10:40:35Z</time>
      </trkpt>
      <trkpt lat="43.87879" lon="6.69302">
        <ele>1147</ele>
        <time>2009-05-05T10:40:38Z</time>
      </trkpt>
      <trkpt lat="43.87862" lon="6.69314">
        <ele>1147</ele>
        <time>2009-05-05T10:40:41Z</time>
      </trkpt>
      <trkpt lat="43.87848" lon="6.69332">
        <ele>1131</ele>
        <time>2009-05-05T10:40:44Z</time>
      </trkpt>
      <trkpt lat="43.87845" lon="6.69341">
        <ele>1130</ele>
        <time>2009-05-05T10:40:47Z</time>
      </trkpt>
      <trkpt lat="43.87838" lon="6.69348">
        <ele>1130</ele>
        <time>2009-05-05T10:40:50Z</time>
      </trkpt>
      <trkpt lat="43.87824" lon="6.69358">
        <ele>1126</ele>
        <time>2009-05-05T10:40:53Z</time>
      </trkpt>
      <trkpt lat="43.87813" lon="6.69366">
        <ele>1126</ele>
        <time>2009-05-05T10:40:56Z</time>
      </trkpt>
      <trkpt lat="43.87797" lon="6.69382">
        <ele>1124</ele>
        <time>2009-05-05T10:40:59Z</time>
      </trkpt>
      <trkpt lat="43.8779" lon="6.69396">
        <ele>1123</ele>
        <time>2009-05-05T10:41:02Z</time>
      </trkpt>
      <trkpt lat="43.87784" lon="6.69406">
        <ele>1121</ele>
        <time>2009-05-05T10:41:05Z</time>
      </trkpt>
      <trkpt lat="43.87771" lon="6.69415">
        <ele>1116</ele>
        <time>2009-05-05T10:41:08Z</time>
      </trkpt>
      <trkpt lat="43.87767" lon="6.69429">
        <ele>1114</ele>
        <time>2009-05-05T10:41:11Z</time>
      </trkpt>
      <trkpt lat="43.87761" lon="6.69448">
        <ele>1112</ele>
        <time>2009-05-05T10:41:14Z</time>
      </trkpt>
      <trkpt lat="43.87757" lon="6.69463">
        <ele>1111</ele>
        <time>2009-05-05T10:41:17Z</time>
      </trkpt>
      <trkpt lat="43.87749" lon="6.69476">
        <ele>1109</ele>
        <time>2009-05-05T10:41:20Z</time>
      </trkpt>
      <trkpt lat="43.87737" lon="6.69491">
        <ele>1107</ele>
        <time>2009-05-05T10:41:23Z</time>
      </trkpt>
      <trkpt lat="43.8773" lon="6.69502">
        <ele>1103</ele>
        <time>2009-05-05T10:41:26Z</time>
      </trkpt>
      <trkpt lat="43.87719" lon="6.69509">
        <ele>1098</ele>
        <time>2009-05-05T10:41:29Z</time>
      </trkpt>
      <trkpt lat="43.87707" lon="6.69519">
        <ele>1094</ele>
        <time>2009-05-05T10:41:32Z</time>
      </trkpt>
      <trkpt lat="43.87688" lon="6.69528">
        <ele>1090</ele>
        <time>2009-05-05T10:41:35Z</time>
      </trkpt>
      <trkpt lat="43.87676" lon="6.69531">
        <ele>1087</ele>
        <time>2009-05-05T10:41:39Z</time>
      </trkpt>
      <trkpt lat="43.87661" lon="6.69544">
        <ele>1079</ele>
        <time>2009-05-05T10:41:44Z</time>
      </trkpt>
      <trkpt lat="43.87653" lon="6.69555">
        <ele>1078</ele>
        <time>2009-05-05T10:41:47Z</time>
      </trkpt>
      <trkpt lat="43.87648" lon="6.69546">
        <ele>1078</ele>
        <time>2009-05-05T10:41:50Z</time>
      </trkpt>
      <trkpt lat="43.87639" lon="6.69547">
        <ele>1077</ele>
        <time>2009-05-05T10:41:53Z</time>
      </trkpt>
      <trkpt lat="43.87631" lon="6.69552">
        <ele>1072</ele>
        <time>2009-05-05T10:41:56Z</time>
      </trkpt>
      <trkpt lat="43.87622" lon="6.69562">
        <ele>1067</ele>
        <time>2009-05-05T10:41:59Z</time>
      </trkpt>
      <trkpt lat="43.87612" lon="6.69566">
        <ele>1064</ele>
        <time>2009-05-05T10:42:02Z</time>
      </trkpt>
      <trkpt lat="43.87608" lon="6.69556">
        <ele>1062</ele>
        <time>2009-05-05T10:42:08Z</time>
      </trkpt>
      <trkpt lat="43.87604" lon="6.69548">
        <ele>1060</ele>
        <time>2009-05-05T10:42:11Z</time>
      </trkpt>
      <trkpt lat="43.87603" lon="6.69558">
        <ele>1055</ele>
        <time>2009-05-05T10:42:14Z</time>
      </trkpt>
      <trkpt lat="43.87602" lon="6.69565">
        <ele>1055</ele>
        <time>2009-05-05T10:42:17Z</time>
      </trkpt>
      <trkpt lat="43.87597" lon="6.69575">
        <ele>1057</ele>
        <time>2009-05-05T10:42:23Z</time>
      </trkpt>
      <trkpt lat="43.8759" lon="6.6958">
        <ele>1057</ele>
        <time>2009-05-05T10:42:26Z</time>
      </trkpt>
      <trkpt lat="43.87583" lon="6.6958">
        <ele>1056</ele>
        <time>2009-05-05T10:42:29Z</time>
      </trkpt>
      <trkpt lat="43.87572" lon="6.69582">
        <ele>1053</ele>
        <time>2009-05-05T10:42:35Z</time>
      </trkpt>
      <trkpt lat="43.87568" lon="6.69588">
        <ele>1051</ele>
        <time>2009-05-05T10:42:41Z</time>
      </trkpt>
      <trkpt lat="43.87561" lon="6.69589">
        <ele>1054</ele>
        <time>2009-05-05T10:42:56Z</time>
      </trkpt>
      <trkpt lat="43.87557" lon="6.69584">
        <ele>1048</ele>
        <time>2009-05-05T10:44:50Z</time>
      </trkpt>
      <trkpt lat="43.87549" lon="6.69583">
        <ele>1060</ele>
        <time>2009-05-05T10:45:08Z</time>
      </trkpt>
      <trkpt lat="43.87541" lon="6.69583">
        <ele>1061</ele>
        <time>2009-05-05T10:45:17Z</time>
      </trkpt>
      <trkpt lat="43.87532" lon="6.69583">
        <ele>1061</ele>
        <time>2009-05-05T10:45:29Z</time>
      </trkpt>
      <trkpt lat="43.87525" lon="6.69583">
        <ele>1058</ele>
        <time>2009-05-05T10:45:32Z</time>
      </trkpt>
      <trkpt lat="43.87515" lon="6.69584">
        <ele>1057</ele>
        <time>2009-05-05T10:45:38Z</time>
      </trkpt>
      <trkpt lat="43.87506" lon="6.69584">
        <ele>1061</ele>
        <time>2009-05-05T10:45:44Z</time>
      </trkpt>
      <trkpt lat="43.87501" lon="6.6959">
        <ele>1061</ele>
        <time>2009-05-05T10:45:50Z</time>
      </trkpt>
      <trkpt lat="43.87494" lon="6.69593">
        <ele>1061</ele>
        <time>2009-05-05T10:45:56Z</time>
      </trkpt>
      <trkpt lat="43.87494" lon="6.696">
        <ele>1065</ele>
        <time>2009-05-05T10:46:02Z</time>
      </trkpt>
      <trkpt lat="43.87489" lon="6.69605">
        <ele>1064</ele>
        <time>2009-05-05T10:46:11Z</time>
      </trkpt>
      <trkpt lat="43.87484" lon="6.69611">
        <ele>1073</ele>
        <time>2009-05-05T10:46:14Z</time>
      </trkpt>
      <trkpt lat="43.87478" lon="6.69618">
        <ele>1077</ele>
        <time>2009-05-05T10:46:20Z</time>
      </trkpt>
      <trkpt lat="43.87471" lon="6.69621">
        <ele>1074</ele>
        <time>2009-05-05T10:46:29Z</time>
      </trkpt>
      <trkpt lat="43.87462" lon="6.69621">
        <ele>1079</ele>
        <time>2009-05-05T10:46:41Z</time>
      </trkpt>
      <trkpt lat="43.87451" lon="6.69625">
        <ele>1074</ele>
        <time>2009-05-05T10:46:50Z</time>
      </trkpt>
      <trkpt lat="43.87443" lon="6.6963">
        <ele>1069</ele>
        <time>2009-05-05T10:46:53Z</time>
      </trkpt>
      <trkpt lat="43.87424" lon="6.69631">
        <ele>1065</ele>
        <time>2009-05-05T10:46:56Z</time>
      </trkpt>
      <trkpt lat="43.87409" lon="6.69637">
        <ele>1063</ele>
        <time>2009-05-05T10:46:59Z</time>
      </trkpt>
      <trkpt lat="43.87392" lon="6.69638">
        <ele>1060</ele>
        <time>2009-05-05T10:47:02Z</time>
      </trkpt>
      <trkpt lat="43.87378" lon="6.69636">
        <ele>1062</ele>
        <time>2009-05-05T10:47:05Z</time>
      </trkpt>
      <trkpt lat="43.8737" lon="6.69636">
        <ele>1065</ele>
        <time>2009-05-05T10:47:08Z</time>
      </trkpt>
      <trkpt lat="43.87362" lon="6.69637">
        <ele>1067</ele>
        <time>2009-05-05T10:47:11Z</time>
      </trkpt>
      <trkpt lat="43.87351" lon="6.69634">
        <ele>1066</ele>
        <time>2009-05-05T10:47:17Z</time>
      </trkpt>
      <trkpt lat="43.87341" lon="6.69629">
        <ele>1067</ele>
        <time>2009-05-05T10:47:23Z</time>
      </trkpt>
      <trkpt lat="43.87331" lon="6.69626">
        <ele>1066</ele>
        <time>2009-05-05T10:47:29Z</time>
      </trkpt>
      <trkpt lat="43.87319" lon="6.6962">
        <ele>1068</ele>
        <time>2009-05-05T10:47:35Z</time>
      </trkpt>
      <trkpt lat="43.87313" lon="6.69617">
        <ele>1067</ele>
        <time>2009-05-05T10:47:38Z</time>
      </trkpt>
      <trkpt lat="43.87306" lon="6.69615">
        <ele>1068</ele>
        <time>2009-05-05T10:47:41Z</time>
      </trkpt>
      <trkpt lat="43.87295" lon="6.69613">
        <ele>1067</ele>
        <time>2009-05-05T10:47:47Z</time>
      </trkpt>
      <trkpt lat="43.87284" lon="6.69613">
        <ele>1065</ele>
        <time>2009-05-05T10:47:50Z</time>
      </trkpt>
      <trkpt lat="43.87275" lon="6.69611">
        <ele>1065</ele>
        <time>2009-05-05T10:47:53Z</time>
      </trkpt>
      <trkpt lat="43.87264" lon="6.69609">
        <ele>1062</ele>
        <time>2009-05-05T10:47:56Z</time>
      </trkpt>
      <trkpt lat="43.87256" lon="6.6961">
        <ele>1061</ele>
        <time>2009-05-05T10:47:59Z</time>
      </trkpt>
      <trkpt lat="43.87248" lon="6.69607">
        <ele>1062</ele>
        <time>2009-05-05T10:48:02Z</time>
      </trkpt>
      <trkpt lat="43.87238" lon="6.69606">
        <ele>1063</ele>
        <time>2009-05-05T10:48:05Z</time>
      </trkpt>
      <trkpt lat="43.87227" lon="6.69603">
        <ele>1065</ele>
        <time>2009-05-05T10:48:08Z</time>
      </trkpt>
      <trkpt lat="43.87219" lon="6.69603">
        <ele>1068</ele>
        <time>2009-05-05T10:48:11Z</time>
      </trkpt>
      <trkpt lat="43.8721" lon="6.69603">
        <ele>1070</ele>
        <time>2009-05-05T10:48:14Z</time>
      </trkpt>
      <trkpt lat="43.872" lon="6.696">
        <ele>1072</ele>
        <time>2009-05-05T10:48:17Z</time>
      </trkpt>
      <trkpt lat="43.87191" lon="6.69599">
        <ele>1074</ele>
        <time>2009-05-05T10:48:20Z</time>
      </trkpt>
      <trkpt lat="43.87178" lon="6.69597">
        <ele>1074</ele>
        <time>2009-05-05T10:48:26Z</time>
      </trkpt>
      <trkpt lat="43.87165" lon="6.69598">
        <ele>1074</ele>
        <time>2009-05-05T10:48:32Z</time>
      </trkpt>
      <trkpt lat="43.87159" lon="6.69603">
        <ele>1075</ele>
        <time>2009-05-05T10:48:35Z</time>
      </trkpt>
      <trkpt lat="43.87153" lon="6.69607">
        <ele>1077</ele>
        <time>2009-05-05T10:48:38Z</time>
      </trkpt>
      <trkpt lat="43.87146" lon="6.69617">
        <ele>1084</ele>
        <time>2009-05-05T10:48:44Z</time>
      </trkpt>
      <trkpt lat="43.87137" lon="6.6962">
        <ele>1085</ele>
        <time>2009-05-05T10:48:50Z</time>
      </trkpt>
      <trkpt lat="43.8713" lon="6.69621">
        <ele>1086</ele>
        <time>2009-05-05T10:48:56Z</time>
      </trkpt>
      <trkpt lat="43.87124" lon="6.69616">
        <ele>1087</ele>
        <time>2009-05-05T10:49:02Z</time>
      </trkpt>
      <trkpt lat="43.8712" lon="6.69611">
        <ele>1087</ele>
        <time>2009-05-05T10:49:08Z</time>
      </trkpt>
      <trkpt lat="43.87118" lon="6.69602">
        <ele>1090</ele>
        <time>2009-05-05T10:49:14Z</time>
      </trkpt>
      <trkpt lat="43.87119" lon="6.69593">
        <ele>1092</ele>
        <time>2009-05-05T10:49:20Z</time>
      </trkpt>
      <trkpt lat="43.8712" lon="6.69585">
        <ele>1097</ele>
        <time>2009-05-05T10:49:32Z</time>
      </trkpt>
      <trkpt lat="43.87115" lon="6.69579">
        <ele>1096</ele>
        <time>2009-05-05T10:49:41Z</time>
      </trkpt>
      <trkpt lat="43.8711" lon="6.69573">
        <ele>1097</ele>
        <time>2009-05-05T10:49:47Z</time>
      </trkpt>
      <trkpt lat="43.87105" lon="6.69564">
        <ele>1096</ele>
        <time>2009-05-05T10:49:53Z</time>
      </trkpt>
      <trkpt lat="43.87096" lon="6.69562">
        <ele>1095</ele>
        <time>2009-05-05T10:49:59Z</time>
      </trkpt>
      <trkpt lat="43.87089" lon="6.69556">
        <ele>1096</ele>
        <time>2009-05-05T10:50:05Z</time>
      </trkpt>
      <trkpt lat="43.87082" lon="6.69552">
        <ele>1098</ele>
        <time>2009-05-05T10:50:11Z</time>
      </trkpt>
      <trkpt lat="43.87073" lon="6.69556">
        <ele>1102</ele>
        <time>2009-05-05T10:50:17Z</time>
      </trkpt>
      <trkpt lat="43.87065" lon="6.69559">
        <ele>1106</ele>
        <time>2009-05-05T10:50:23Z</time>
      </trkpt>
      <trkpt lat="43.87057" lon="6.69559">
        <ele>1105</ele>
        <time>2009-05-05T10:50:29Z</time>
      </trkpt>
      <trkpt lat="43.87049" lon="6.69563">
        <ele>1108</ele>
        <time>2009-05-05T10:50:35Z</time>
      </trkpt>
      <trkpt lat="43.87042" lon="6.69565">
        <ele>1108</ele>
        <time>2009-05-05T10:50:41Z</time>
      </trkpt>
      <trkpt lat="43.87033" lon="6.69559">
        <ele>1108</ele>
        <time>2009-05-05T10:50:50Z</time>
      </trkpt>
      <trkpt lat="43.87026" lon="6.69556">
        <ele>1108</ele>
        <time>2009-05-05T10:50:56Z</time>
      </trkpt>
      <trkpt lat="43.87021" lon="6.6955">
        <ele>1108</ele>
        <time>2009-05-05T10:51:02Z</time>
      </trkpt>
      <trkpt lat="43.87018" lon="6.6954">
        <ele>1108</ele>
        <time>2009-05-05T10:51:11Z</time>
      </trkpt>
      <trkpt lat="43.87019" lon="6.6953">
        <ele>1110</ele>
        <time>2009-05-05T10:51:17Z</time>
      </trkpt>
      <trkpt lat="43.87011" lon="6.69515">
        <ele>1111</ele>
        <time>2009-05-05T10:51:23Z</time>
      </trkpt>
      <trkpt lat="43.87007" lon="6.69503">
        <ele>1111</ele>
        <time>2009-05-05T10:51:26Z</time>
      </trkpt>
      <trkpt lat="43.87002" lon="6.69498">
        <ele>1110</ele>
        <time>2009-05-05T10:51:29Z</time>
      </trkpt>
      <trkpt lat="43.86999" lon="6.69491">
        <ele>1111</ele>
        <time>2009-05-05T10:51:32Z</time>
      </trkpt>
      <trkpt lat="43.86994" lon="6.69483">
        <ele>1114</ele>
        <time>2009-05-05T10:51:38Z</time>
      </trkpt>
      <trkpt lat="43.86988" lon="6.69478">
        <ele>1114</ele>
        <time>2009-05-05T10:51:44Z</time>
      </trkpt>
      <trkpt lat="43.8698" lon="6.69475">
        <ele>1115</ele>
        <time>2009-05-05T10:51:50Z</time>
      </trkpt>
      <trkpt lat="43.86972" lon="6.69472">
        <ele>1116</ele>
        <time>2009-05-05T10:51:56Z</time>
      </trkpt>
      <trkpt lat="43.86963" lon="6.6948">
        <ele>1125</ele>
        <time>2009-05-05T10:52:02Z</time>
      </trkpt>
      <trkpt lat="43.86952" lon="6.69478">
        <ele>1126</ele>
        <time>2009-05-05T10:52:08Z</time>
      </trkpt>
      <trkpt lat="43.86946" lon="6.69467">
        <ele>1123</ele>
        <time>2009-05-05T10:52:14Z</time>
      </trkpt>
      <trkpt lat="43.86941" lon="6.69458">
        <ele>1121</ele>
        <time>2009-05-05T10:52:20Z</time>
      </trkpt>
      <trkpt lat="43.86934" lon="6.69452">
        <ele>1122</ele>
        <time>2009-05-05T10:52:26Z</time>
      </trkpt>
      <trkpt lat="43.8693" lon="6.69444">
        <ele>1124</ele>
        <time>2009-05-05T10:52:32Z</time>
      </trkpt>
      <trkpt lat="43.86925" lon="6.69437">
        <ele>1127</ele>
        <time>2009-05-05T10:52:38Z</time>
      </trkpt>
      <trkpt lat="43.86918" lon="6.6943">
        <ele>1129</ele>
        <time>2009-05-05T10:52:44Z</time>
      </trkpt>
      <trkpt lat="43.86909" lon="6.69425">
        <ele>1130</ele>
        <time>2009-05-05T10:52:53Z</time>
      </trkpt>
      <trkpt lat="43.86903" lon="6.69421">
        <ele>1130</ele>
        <time>2009-05-05T10:52:59Z</time>
      </trkpt>
      <trkpt lat="43.86896" lon="6.69419">
        <ele>1134</ele>
        <time>2009-05-05T10:53:05Z</time>
      </trkpt>
      <trkpt lat="43.86892" lon="6.69411">
        <ele>1135</ele>
        <time>2009-05-05T10:53:11Z</time>
      </trkpt>
      <trkpt lat="43.86886" lon="6.69407">
        <ele>1136</ele>
        <time>2009-05-05T10:53:20Z</time>
      </trkpt>
      <trkpt lat="43.86879" lon="6.69401">
        <ele>1137</ele>
        <time>2009-05-05T10:53:29Z</time>
      </trkpt>
      <trkpt lat="43.8687" lon="6.69395">
        <ele>1139</ele>
        <time>2009-05-05T10:53:35Z</time>
      </trkpt>
      <trkpt lat="43.86858" lon="6.69388">
        <ele>1138</ele>
        <time>2009-05-05T10:53:41Z</time>
      </trkpt>
      <trkpt lat="43.86851" lon="6.69383">
        <ele>1138</ele>
        <time>2009-05-05T10:53:44Z</time>
      </trkpt>
      <trkpt lat="43.86842" lon="6.69374">
        <ele>1137</ele>
        <time>2009-05-05T10:53:50Z</time>
      </trkpt>
      <trkpt lat="43.86828" lon="6.69369">
        <ele>1138</ele>
        <time>2009-05-05T10:53:56Z</time>
      </trkpt>
      <trkpt lat="43.86815" lon="6.69357">
        <ele>1136</ele>
        <time>2009-05-05T10:53:59Z</time>
      </trkpt>
      <trkpt lat="43.86807" lon="6.69349">
        <ele>1137</ele>
        <time>2009-05-05T10:54:02Z</time>
      </trkpt>
      <trkpt lat="43.86799" lon="6.69336">
        <ele>1134</ele>
        <time>2009-05-05T10:54:05Z</time>
      </trkpt>
      <trkpt lat="43.86794" lon="6.69323">
        <ele>1134</ele>
        <time>2009-05-05T10:54:08Z</time>
      </trkpt>
      <trkpt lat="43.86789" lon="6.69307">
        <ele>1130</ele>
        <time>2009-05-05T10:54:11Z</time>
      </trkpt>
      <trkpt lat="43.86785" lon="6.69288">
        <ele>1126</ele>
        <time>2009-05-05T10:54:14Z</time>
      </trkpt>
      <trkpt lat="43.86775" lon="6.69268">
        <ele>1126</ele>
        <time>2009-05-05T10:54:17Z</time>
      </trkpt>
      <trkpt lat="43.86763" lon="6.6925">
        <ele>1128</ele>
        <time>2009-05-05T10:54:20Z</time>
      </trkpt>
      <trkpt lat="43.86751" lon="6.69238">
        <ele>1129</ele>
        <time>2009-05-05T10:54:23Z</time>
      </trkpt>
      <trkpt lat="43.86744" lon="6.69231">
        <ele>1129</ele>
        <time>2009-05-05T10:54:26Z</time>
      </trkpt>
      <trkpt lat="43.86737" lon="6.69221">
        <ele>1127</ele>
        <time>2009-05-05T10:54:29Z</time>
      </trkpt>
      <trkpt lat="43.86733" lon="6.69215">
        <ele>1125</ele>
        <time>2009-05-05T10:54:32Z</time>
      </trkpt>
      <trkpt lat="43.86726" lon="6.69209">
        <ele>1130</ele>
        <time>2009-05-05T10:54:38Z</time>
      </trkpt>
      <trkpt lat="43.86722" lon="6.69203">
        <ele>1132</ele>
        <time>2009-05-05T10:54:44Z</time>
      </trkpt>
      <trkpt lat="43.86716" lon="6.69199">
        <ele>1135</ele>
        <time>2009-05-05T10:54:56Z</time>
      </trkpt>
      <trkpt lat="43.86712" lon="6.69193">
        <ele>1136</ele>
        <time>2009-05-05T10:55:05Z</time>
      </trkpt>
      <trkpt lat="43.86708" lon="6.69187">
        <ele>1138</ele>
        <time>2009-05-05T10:55:20Z</time>
      </trkpt>
      <trkpt lat="43.86714" lon="6.69184">
        <ele>1126</ele>
        <time>2009-05-05T10:56:59Z</time>
      </trkpt>
      <trkpt lat="43.86721" lon="6.6918">
        <ele>1113</ele>
        <time>2009-05-05T10:57:20Z</time>
      </trkpt>
      <trkpt lat="43.86718" lon="6.69187">
        <ele>1131</ele>
        <time>2009-05-05T10:57:41Z</time>
      </trkpt>
      <trkpt lat="43.86714" lon="6.69193">
        <ele>1137</ele>
        <time>2009-05-05T10:58:05Z</time>
      </trkpt>
      <trkpt lat="43.86711" lon="6.69199">
        <ele>1138</ele>
        <time>2009-05-05T10:58:32Z</time>
      </trkpt>
      <trkpt lat="43.86713" lon="6.69193">
        <ele>1127</ele>
        <time>2009-05-05T10:58:50Z</time>
      </trkpt>
      <trkpt lat="43.86715" lon="6.69185">
        <ele>1127</ele>
        <time>2009-05-05T10:59:08Z</time>
      </trkpt>
      <trkpt lat="43.8671" lon="6.69192">
        <ele>1135</ele>
        <time>2009-05-05T11:00:08Z</time>
      </trkpt>
      <trkpt lat="43.86709" lon="6.69185">
        <ele>1135</ele>
        <time>2009-05-05T11:01:20Z</time>
      </trkpt>
      <trkpt lat="43.86703" lon="6.69183">
        <ele>1139</ele>
        <time>2009-05-05T11:01:29Z</time>
      </trkpt>
      <trkpt lat="43.86694" lon="6.69183">
        <ele>1145</ele>
        <time>2009-05-05T11:01:38Z</time>
      </trkpt>
      <trkpt lat="43.86688" lon="6.69176">
        <ele>1143</ele>
        <time>2009-05-05T11:01:51Z</time>
      </trkpt>
      <trkpt lat="43.86682" lon="6.69171">
        <ele>1141</ele>
        <time>2009-05-05T11:01:56Z</time>
      </trkpt>
      <trkpt lat="43.86675" lon="6.6917">
        <ele>1144</ele>
        <time>2009-05-05T11:02:02Z</time>
      </trkpt>
      <trkpt lat="43.86665" lon="6.69173">
        <ele>1144</ele>
        <time>2009-05-05T11:02:05Z</time>
      </trkpt>
      <trkpt lat="43.86656" lon="6.69175">
        <ele>1144</ele>
        <time>2009-05-05T11:02:08Z</time>
      </trkpt>
      <trkpt lat="43.86649" lon="6.69179">
        <ele>1147</ele>
        <time>2009-05-05T11:02:11Z</time>
      </trkpt>
      <trkpt lat="43.86644" lon="6.69185">
        <ele>1150</ele>
        <time>2009-05-05T11:02:14Z</time>
      </trkpt>
      <trkpt lat="43.86638" lon="6.69189">
        <ele>1153</ele>
        <time>2009-05-05T11:02:17Z</time>
      </trkpt>
      <trkpt lat="43.86627" lon="6.69195">
        <ele>1154</ele>
        <time>2009-05-05T11:02:23Z</time>
      </trkpt>
      <trkpt lat="43.8662" lon="6.69199">
        <ele>1154</ele>
        <time>2009-05-05T11:02:26Z</time>
      </trkpt>
      <trkpt lat="43.86612" lon="6.69205">
        <ele>1155</ele>
        <time>2009-05-05T11:02:29Z</time>
      </trkpt>
      <trkpt lat="43.86603" lon="6.69211">
        <ele>1155</ele>
        <time>2009-05-05T11:02:32Z</time>
      </trkpt>
      <trkpt lat="43.86595" lon="6.69217">
        <ele>1157</ele>
        <time>2009-05-05T11:02:35Z</time>
      </trkpt>
      <trkpt lat="43.86585" lon="6.69223">
        <ele>1156</ele>
        <time>2009-05-05T11:02:38Z</time>
      </trkpt>
      <trkpt lat="43.86578" lon="6.69234">
        <ele>1155</ele>
        <time>2009-05-05T11:02:41Z</time>
      </trkpt>
      <trkpt lat="43.86571" lon="6.6924">
        <ele>1154</ele>
        <time>2009-05-05T11:02:44Z</time>
      </trkpt>
      <trkpt lat="43.86554" lon="6.69227">
        <ele>1145</ele>
        <time>2009-05-05T11:02:50Z</time>
      </trkpt>
      <trkpt lat="43.86544" lon="6.6922">
        <ele>1148</ele>
        <time>2009-05-05T11:02:53Z</time>
      </trkpt>
      <trkpt lat="43.86536" lon="6.69207">
        <ele>1149</ele>
        <time>2009-05-05T11:02:56Z</time>
      </trkpt>
      <trkpt lat="43.86528" lon="6.69192">
        <ele>1147</ele>
        <time>2009-05-05T11:02:59Z</time>
      </trkpt>
      <trkpt lat="43.86519" lon="6.69177">
        <ele>1144</ele>
        <time>2009-05-05T11:03:02Z</time>
      </trkpt>
      <trkpt lat="43.86507" lon="6.69159">
        <ele>1142</ele>
        <time>2009-05-05T11:03:05Z</time>
      </trkpt>
      <trkpt lat="43.86488" lon="6.69146">
        <ele>1137</ele>
        <time>2009-05-05T11:03:08Z</time>
      </trkpt>
      <trkpt lat="43.86469" lon="6.69148">
        <ele>1123</ele>
        <time>2009-05-05T11:03:11Z</time>
      </trkpt>
      <trkpt lat="43.86452" lon="6.69158">
        <ele>1118</ele>
        <time>2009-05-05T11:03:14Z</time>
      </trkpt>
      <trkpt lat="43.86436" lon="6.69161">
        <ele>1117</ele>
        <time>2009-05-05T11:03:17Z</time>
      </trkpt>
      <trkpt lat="43.86423" lon="6.69151">
        <ele>1114</ele>
        <time>2009-05-05T11:03:20Z</time>
      </trkpt>
      <trkpt lat="43.86411" lon="6.69144">
        <ele>1115</ele>
        <time>2009-05-05T11:03:23Z</time>
      </trkpt>
      <trkpt lat="43.86402" lon="6.69134">
        <ele>1117</ele>
        <time>2009-05-05T11:03:26Z</time>
      </trkpt>
      <trkpt lat="43.86395" lon="6.69121">
        <ele>1118</ele>
        <time>2009-05-05T11:03:29Z</time>
      </trkpt>
      <trkpt lat="43.8639" lon="6.69115">
        <ele>1118</ele>
        <time>2009-05-05T11:03:32Z</time>
      </trkpt>
      <trkpt lat="43.86388" lon="6.69103">
        <ele>1113</ele>
        <time>2009-05-05T11:03:35Z</time>
      </trkpt>
      <trkpt lat="43.86373" lon="6.6909">
        <ele>1105</ele>
        <time>2009-05-05T11:03:38Z</time>
      </trkpt>
      <trkpt lat="43.86357" lon="6.69081">
        <ele>1102</ele>
        <time>2009-05-05T11:03:41Z</time>
      </trkpt>
      <trkpt lat="43.86343" lon="6.69063">
        <ele>1099</ele>
        <time>2009-05-05T11:03:44Z</time>
      </trkpt>
      <trkpt lat="43.86336" lon="6.69056">
        <ele>1104</ele>
        <time>2009-05-05T11:03:47Z</time>
      </trkpt>
      <trkpt lat="43.86333" lon="6.6905">
        <ele>1100</ele>
        <time>2009-05-05T11:03:56Z</time>
      </trkpt>
      <trkpt lat="43.86329" lon="6.69044">
        <ele>1099</ele>
        <time>2009-05-05T11:03:59Z</time>
      </trkpt>
      <trkpt lat="43.86323" lon="6.69031">
        <ele>1098</ele>
        <time>2009-05-05T11:05:30Z</time>
      </trkpt>
      <trkpt lat="43.86314" lon="6.6902">
        <ele>1097</ele>
        <time>2009-05-05T11:05:33Z</time>
      </trkpt>
      <trkpt lat="43.863" lon="6.69017">
        <ele>1093</ele>
        <time>2009-05-05T11:05:36Z</time>
      </trkpt>
      <trkpt lat="43.86286" lon="6.69013">
        <ele>1090</ele>
        <time>2009-05-05T11:05:39Z</time>
      </trkpt>
      <trkpt lat="43.86274" lon="6.69008">
        <ele>1088</ele>
        <time>2009-05-05T11:05:42Z</time>
      </trkpt>
      <trkpt lat="43.86264" lon="6.69004">
        <ele>1081</ele>
        <time>2009-05-05T11:07:48Z</time>
      </trkpt>
      <trkpt lat="43.86258" lon="6.68997">
        <ele>1081</ele>
        <time>2009-05-05T11:07:51Z</time>
      </trkpt>
      <trkpt lat="43.8625" lon="6.68988">
        <ele>1077</ele>
        <time>2009-05-05T11:07:54Z</time>
      </trkpt>
      <trkpt lat="43.86239" lon="6.68975">
        <ele>1076</ele>
        <time>2009-05-05T11:07:57Z</time>
      </trkpt>
      <trkpt lat="43.86233" lon="6.68964">
        <ele>1075</ele>
        <time>2009-05-05T11:08:00Z</time>
      </trkpt>
      <trkpt lat="43.86227" lon="6.68953">
        <ele>1074</ele>
        <time>2009-05-05T11:08:03Z</time>
      </trkpt>
      <trkpt lat="43.8622" lon="6.68948">
        <ele>1071</ele>
        <time>2009-05-05T11:08:06Z</time>
      </trkpt>
      <trkpt lat="43.86208" lon="6.68941">
        <ele>1071</ele>
        <time>2009-05-05T11:08:09Z</time>
      </trkpt>
      <trkpt lat="43.86195" lon="6.6894">
        <ele>1071</ele>
        <time>2009-05-05T11:08:13Z</time>
      </trkpt>
      <trkpt lat="43.86185" lon="6.68935">
        <ele>1071</ele>
        <time>2009-05-05T11:08:15Z</time>
      </trkpt>
      <trkpt lat="43.86178" lon="6.68925">
        <ele>1071</ele>
        <time>2009-05-05T11:08:18Z</time>
      </trkpt>
      <trkpt lat="43.86176" lon="6.68914">
        <ele>1069</ele>
        <time>2009-05-05T11:08:21Z</time>
      </trkpt>
      <trkpt lat="43.86174" lon="6.68907">
        <ele>1068</ele>
        <time>2009-05-05T11:08:24Z</time>
      </trkpt>
      <trkpt lat="43.86165" lon="6.68919">
        <ele>1061</ele>
        <time>2009-05-05T11:11:51Z</time>
      </trkpt>
      <trkpt lat="43.86161" lon="6.68936">
        <ele>1059</ele>
        <time>2009-05-05T11:11:54Z</time>
      </trkpt>
      <trkpt lat="43.86158" lon="6.68944">
        <ele>1059</ele>
        <time>2009-05-05T11:11:57Z</time>
      </trkpt>
      <trkpt lat="43.86159" lon="6.68954">
        <ele>1059</ele>
        <time>2009-05-05T11:12:00Z</time>
      </trkpt>
      <trkpt lat="43.86162" lon="6.68967">
        <ele>1053</ele>
        <time>2009-05-05T11:12:03Z</time>
      </trkpt>
      <trkpt lat="43.86169" lon="6.68975">
        <ele>1051</ele>
        <time>2009-05-05T11:12:06Z</time>
      </trkpt>
      <trkpt lat="43.86179" lon="6.68985">
        <ele>1049</ele>
        <time>2009-05-05T11:12:09Z</time>
      </trkpt>
      <trkpt lat="43.86179" lon="6.68994">
        <ele>1048</ele>
        <time>2009-05-05T11:12:12Z</time>
      </trkpt>
      <trkpt lat="43.86177" lon="6.69003">
        <ele>1048</ele>
        <time>2009-05-05T11:12:15Z</time>
      </trkpt>
      <trkpt lat="43.86175" lon="6.69011">
        <ele>1048</ele>
        <time>2009-05-05T11:12:18Z</time>
      </trkpt>
      <trkpt lat="43.86172" lon="6.69026">
        <ele>1050</ele>
        <time>2009-05-05T11:12:21Z</time>
      </trkpt>
      <trkpt lat="43.86171" lon="6.69043">
        <ele>1052</ele>
        <time>2009-05-05T11:12:24Z</time>
      </trkpt>
      <trkpt lat="43.8617" lon="6.69058">
        <ele>1053</ele>
        <time>2009-05-05T11:12:27Z</time>
      </trkpt>
      <trkpt lat="43.8617" lon="6.69073">
        <ele>1053</ele>
        <time>2009-05-05T11:12:30Z</time>
      </trkpt>
      <trkpt lat="43.86171" lon="6.69088">
        <ele>1054</ele>
        <time>2009-05-05T11:12:33Z</time>
      </trkpt>
      <trkpt lat="43.86172" lon="6.69104">
        <ele>1056</ele>
        <time>2009-05-05T11:12:36Z</time>
      </trkpt>
      <trkpt lat="43.86174" lon="6.6912">
        <ele>1056</ele>
        <time>2009-05-05T11:12:39Z</time>
      </trkpt>
      <trkpt lat="43.86178" lon="6.69136">
        <ele>1057</ele>
        <time>2009-05-05T11:12:42Z</time>
      </trkpt>
      <trkpt lat="43.86177" lon="6.69154">
        <ele>1057</ele>
        <time>2009-05-05T11:12:45Z</time>
      </trkpt>
      <trkpt lat="43.86177" lon="6.69173">
        <ele>1057</ele>
        <time>2009-05-05T11:12:48Z</time>
      </trkpt>
      <trkpt lat="43.86176" lon="6.69185">
        <ele>1059</ele>
        <time>2009-05-05T11:12:51Z</time>
      </trkpt>
      <trkpt lat="43.86169" lon="6.69185">
        <ele>1059</ele>
        <time>2009-05-05T11:12:57Z</time>
      </trkpt>
      <trkpt lat="43.86167" lon="6.69192">
        <ele>1058</ele>
        <time>2009-05-05T11:13:12Z</time>
      </trkpt>
      <trkpt lat="43.86168" lon="6.69184">
        <ele>1053</ele>
        <time>2009-05-05T11:14:15Z</time>
      </trkpt>
      <trkpt lat="43.86174" lon="6.69181">
        <ele>1039</ele>
        <time>2009-05-05T11:15:24Z</time>
      </trkpt>
      <trkpt lat="43.86168" lon="6.69186">
        <ele>1049</ele>
        <time>2009-05-05T11:15:36Z</time>
      </trkpt>
      <trkpt lat="43.86165" lon="6.69193">
        <ele>1063</ele>
        <time>2009-05-05T11:17:16Z</time>
      </trkpt>
      <trkpt lat="43.86156" lon="6.692">
        <ele>1058</ele>
        <time>2009-05-05T11:17:27Z</time>
      </trkpt>
      <trkpt lat="43.86149" lon="6.69206">
        <ele>1058</ele>
        <time>2009-05-05T11:17:30Z</time>
      </trkpt>
      <trkpt lat="43.86141" lon="6.6921">
        <ele>1059</ele>
        <time>2009-05-05T11:17:33Z</time>
      </trkpt>
      <trkpt lat="43.86133" lon="6.69218">
        <ele>1059</ele>
        <time>2009-05-05T11:17:39Z</time>
      </trkpt>
      <trkpt lat="43.8613" lon="6.69227">
        <ele>1059</ele>
        <time>2009-05-05T11:17:42Z</time>
      </trkpt>
      <trkpt lat="43.86128" lon="6.69238">
        <ele>1059</ele>
        <time>2009-05-05T11:17:45Z</time>
      </trkpt>
      <trkpt lat="43.86128" lon="6.69253">
        <ele>1059</ele>
        <time>2009-05-05T11:17:48Z</time>
      </trkpt>
      <trkpt lat="43.8613" lon="6.69267">
        <ele>1059</ele>
        <time>2009-05-05T11:17:51Z</time>
      </trkpt>
      <trkpt lat="43.86131" lon="6.6928">
        <ele>1060</ele>
        <time>2009-05-05T11:17:54Z</time>
      </trkpt>
      <trkpt lat="43.86129" lon="6.69295">
        <ele>1059</ele>
        <time>2009-05-05T11:17:57Z</time>
      </trkpt>
      <trkpt lat="43.86129" lon="6.69312">
        <ele>1058</ele>
        <time>2009-05-05T11:18:00Z</time>
      </trkpt>
      <trkpt lat="43.86132" lon="6.69326">
        <ele>1059</ele>
        <time>2009-05-05T11:18:03Z</time>
      </trkpt>
      <trkpt lat="43.86135" lon="6.69339">
        <ele>1059</ele>
        <time>2009-05-05T11:18:06Z</time>
      </trkpt>
      <trkpt lat="43.8614" lon="6.6935">
        <ele>1060</ele>
        <time>2009-05-05T11:18:09Z</time>
      </trkpt>
      <trkpt lat="43.86146" lon="6.69358">
        <ele>1060</ele>
        <time>2009-05-05T11:18:12Z</time>
      </trkpt>
      <trkpt lat="43.86154" lon="6.69373">
        <ele>1060</ele>
        <time>2009-05-05T11:18:15Z</time>
      </trkpt>
      <trkpt lat="43.86159" lon="6.69396">
        <ele>1061</ele>
        <time>2009-05-05T11:18:18Z</time>
      </trkpt>
      <trkpt lat="43.8616" lon="6.69426">
        <ele>1061</ele>
        <time>2009-05-05T11:18:21Z</time>
      </trkpt>
      <trkpt lat="43.86158" lon="6.69452">
        <ele>1059</ele>
        <time>2009-05-05T11:18:24Z</time>
      </trkpt>
      <trkpt lat="43.86156" lon="6.69465">
        <ele>1058</ele>
        <time>2009-05-05T11:18:28Z</time>
      </trkpt>
      <trkpt lat="43.86155" lon="6.69484">
        <ele>1056</ele>
        <time>2009-05-05T11:18:30Z</time>
      </trkpt>
      <trkpt lat="43.86164" lon="6.69497">
        <ele>1054</ele>
        <time>2009-05-05T11:18:33Z</time>
      </trkpt>
      <trkpt lat="43.86177" lon="6.6951">
        <ele>1051</ele>
        <time>2009-05-05T11:18:36Z</time>
      </trkpt>
      <trkpt lat="43.86192" lon="6.6953">
        <ele>1050</ele>
        <time>2009-05-05T11:18:39Z</time>
      </trkpt>
      <trkpt lat="43.862" lon="6.69553">
        <ele>1048</ele>
        <time>2009-05-05T11:18:42Z</time>
      </trkpt>
      <trkpt lat="43.86202" lon="6.69583">
        <ele>1044</ele>
        <time>2009-05-05T11:18:45Z</time>
      </trkpt>
      <trkpt lat="43.86198" lon="6.69609">
        <ele>1041</ele>
        <time>2009-05-05T11:18:48Z</time>
      </trkpt>
      <trkpt lat="43.86188" lon="6.69622">
        <ele>1039</ele>
        <time>2009-05-05T11:18:51Z</time>
      </trkpt>
      <trkpt lat="43.86191" lon="6.69636">
        <ele>1035</ele>
        <time>2009-05-05T11:18:54Z</time>
      </trkpt>
      <trkpt lat="43.86195" lon="6.69642">
        <ele>1031</ele>
        <time>2009-05-05T11:18:57Z</time>
      </trkpt>
      <trkpt lat="43.86193" lon="6.6965">
        <ele>1027</ele>
        <time>2009-05-05T11:19:00Z</time>
      </trkpt>
      <trkpt lat="43.86204" lon="6.69636">
        <ele>1017</ele>
        <time>2009-05-05T11:19:06Z</time>
      </trkpt>
      <trkpt lat="43.86216" lon="6.69635">
        <ele>1009</ele>
        <time>2009-05-05T11:19:09Z</time>
      </trkpt>
      <trkpt lat="43.8623" lon="6.69647">
        <ele>1003</ele>
        <time>2009-05-05T11:19:12Z</time>
      </trkpt>
      <trkpt lat="43.86243" lon="6.69661">
        <ele>1000</ele>
        <time>2009-05-05T11:19:15Z</time>
      </trkpt>
      <trkpt lat="43.86253" lon="6.69681">
        <ele>997</ele>
        <time>2009-05-05T11:19:18Z</time>
      </trkpt>
      <trkpt lat="43.86258" lon="6.69704">
        <ele>1002</ele>
        <time>2009-05-05T11:19:21Z</time>
      </trkpt>
      <trkpt lat="43.86256" lon="6.69719">
        <ele>1002</ele>
        <time>2009-05-05T11:19:24Z</time>
      </trkpt>
      <trkpt lat="43.86248" lon="6.69723">
        <ele>1000</ele>
        <time>2009-05-05T11:19:27Z</time>
      </trkpt>
      <trkpt lat="43.86239" lon="6.69719">
        <ele>999</ele>
        <time>2009-05-05T11:19:30Z</time>
      </trkpt>
      <trkpt lat="43.86232" lon="6.6973">
        <ele>995</ele>
        <time>2009-05-05T11:19:36Z</time>
      </trkpt>
      <trkpt lat="43.86232" lon="6.69738">
        <ele>994</ele>
        <time>2009-05-05T11:19:39Z</time>
      </trkpt>
      <trkpt lat="43.86233" lon="6.69754">
        <ele>994</ele>
        <time>2009-05-05T11:19:42Z</time>
      </trkpt>
      <trkpt lat="43.86233" lon="6.69765">
        <ele>990</ele>
        <time>2009-05-05T11:19:45Z</time>
      </trkpt>
      <trkpt lat="43.86239" lon="6.69768">
        <ele>986</ele>
        <time>2009-05-05T11:19:48Z</time>
      </trkpt>
      <trkpt lat="43.86252" lon="6.69769">
        <ele>984</ele>
        <time>2009-05-05T11:19:51Z</time>
      </trkpt>
      <trkpt lat="43.86264" lon="6.69769">
        <ele>982</ele>
        <time>2009-05-05T11:19:54Z</time>
      </trkpt>
      <trkpt lat="43.86254" lon="6.69781">
        <ele>979</ele>
        <time>2009-05-05T11:20:00Z</time>
      </trkpt>
      <trkpt lat="43.86265" lon="6.69787">
        <ele>979</ele>
        <time>2009-05-05T11:20:06Z</time>
      </trkpt>
      <trkpt lat="43.86274" lon="6.69789">
        <ele>977</ele>
        <time>2009-05-05T11:20:09Z</time>
      </trkpt>
      <trkpt lat="43.86273" lon="6.69799">
        <ele>974</ele>
        <time>2009-05-05T11:20:12Z</time>
      </trkpt>
      <trkpt lat="43.86264" lon="6.69804">
        <ele>967</ele>
        <time>2009-05-05T11:20:18Z</time>
      </trkpt>
      <trkpt lat="43.86269" lon="6.69812">
        <ele>968</ele>
        <time>2009-05-05T11:20:30Z</time>
      </trkpt>
      <trkpt lat="43.86271" lon="6.69819">
        <ele>967</ele>
        <time>2009-05-05T11:21:03Z</time>
      </trkpt>
      <trkpt lat="43.86272" lon="6.69821">
        <ele>975</ele>
        <time>2009-05-05T11:22:00Z</time>
      </trkpt>
      <trkpt lat="43.86277" lon="6.69828">
        <ele>969</ele>
        <time>2009-05-05T11:22:15Z</time>
      </trkpt>
      <trkpt lat="43.86284" lon="6.6982">
        <ele>966</ele>
        <time>2009-05-05T11:22:24Z</time>
      </trkpt>
      <trkpt lat="43.86289" lon="6.69815">
        <ele>965</ele>
        <time>2009-05-05T11:22:27Z</time>
      </trkpt>
      <trkpt lat="43.86297" lon="6.69805">
        <ele>964</ele>
        <time>2009-05-05T11:22:33Z</time>
      </trkpt>
      <trkpt lat="43.86304" lon="6.698">
        <ele>963</ele>
        <time>2009-05-05T11:22:39Z</time>
      </trkpt>
      <trkpt lat="43.86311" lon="6.69796">
        <ele>970</ele>
        <time>2009-05-05T11:22:45Z</time>
      </trkpt>
      <trkpt lat="43.86315" lon="6.6979">
        <ele>992</ele>
        <time>2009-05-05T11:23:09Z</time>
      </trkpt>
      <trkpt lat="43.86312" lon="6.69796">
        <ele>1000</ele>
        <time>2009-05-05T11:23:51Z</time>
      </trkpt>
      <trkpt lat="43.86312" lon="6.69806">
        <ele>997</ele>
        <time>2009-05-05T11:23:57Z</time>
      </trkpt>
      <trkpt lat="43.86312" lon="6.69816">
        <ele>993</ele>
        <time>2009-05-05T11:24:06Z</time>
      </trkpt>
      <trkpt lat="43.86309" lon="6.69824">
        <ele>996</ele>
        <time>2009-05-05T11:24:12Z</time>
      </trkpt>
      <trkpt lat="43.86303" lon="6.69829">
        <ele>995</ele>
        <time>2009-05-05T11:24:18Z</time>
      </trkpt>
      <trkpt lat="43.86296" lon="6.69834">
        <ele>993</ele>
        <time>2009-05-05T11:24:27Z</time>
      </trkpt>
      <trkpt lat="43.86292" lon="6.6984">
        <ele>991</ele>
        <time>2009-05-05T11:24:33Z</time>
      </trkpt>
      <trkpt lat="43.86289" lon="6.69851">
        <ele>990</ele>
        <time>2009-05-05T11:24:42Z</time>
      </trkpt>
      <trkpt lat="43.86286" lon="6.69859">
        <ele>989</ele>
        <time>2009-05-05T11:24:45Z</time>
      </trkpt>
      <trkpt lat="43.86279" lon="6.69868">
        <ele>990</ele>
        <time>2009-05-05T11:24:48Z</time>
      </trkpt>
      <trkpt lat="43.86268" lon="6.69879">
        <ele>991</ele>
        <time>2009-05-05T11:24:51Z</time>
      </trkpt>
      <trkpt lat="43.86261" lon="6.6989">
        <ele>992</ele>
        <time>2009-05-05T11:24:54Z</time>
      </trkpt>
      <trkpt lat="43.8626" lon="6.69899">
        <ele>991</ele>
        <time>2009-05-05T11:24:57Z</time>
      </trkpt>
      <trkpt lat="43.86264" lon="6.69907">
        <ele>986</ele>
        <time>2009-05-05T11:25:15Z</time>
      </trkpt>
      <trkpt lat="43.86265" lon="6.69914">
        <ele>996</ele>
        <time>2009-05-05T11:25:24Z</time>
      </trkpt>
      <trkpt lat="43.86266" lon="6.69906">
        <ele>990</ele>
        <time>2009-05-05T11:25:39Z</time>
      </trkpt>
      <trkpt lat="43.86263" lon="6.69896">
        <ele>984</ele>
        <time>2009-05-05T11:25:45Z</time>
      </trkpt>
      <trkpt lat="43.86254" lon="6.69892">
        <ele>1000</ele>
        <time>2009-05-05T11:27:50Z</time>
      </trkpt>
      <trkpt lat="43.86258" lon="6.69898">
        <ele>996</ele>
        <time>2009-05-05T11:27:59Z</time>
      </trkpt>
      <trkpt lat="43.86256" lon="6.69907">
        <ele>992</ele>
        <time>2009-05-05T11:28:05Z</time>
      </trkpt>
      <trkpt lat="43.86256" lon="6.6992">
        <ele>991</ele>
        <time>2009-05-05T11:28:11Z</time>
      </trkpt>
      <trkpt lat="43.86256" lon="6.69927">
        <ele>992</ele>
        <time>2009-05-05T11:28:14Z</time>
      </trkpt>
      <trkpt lat="43.86249" lon="6.69939">
        <ele>996</ele>
        <time>2009-05-05T11:28:20Z</time>
      </trkpt>
      <trkpt lat="43.86242" lon="6.69945">
        <ele>999</ele>
        <time>2009-05-05T11:28:26Z</time>
      </trkpt>
      <trkpt lat="43.86237" lon="6.6995">
        <ele>1000</ele>
        <time>2009-05-05T11:28:29Z</time>
      </trkpt>
      <trkpt lat="43.86235" lon="6.69957">
        <ele>999</ele>
        <time>2009-05-05T11:28:32Z</time>
      </trkpt>
      <trkpt lat="43.86232" lon="6.69963">
        <ele>999</ele>
        <time>2009-05-05T11:28:35Z</time>
      </trkpt>
      <trkpt lat="43.86224" lon="6.69975">
        <ele>999</ele>
        <time>2009-05-05T11:28:41Z</time>
      </trkpt>
      <trkpt lat="43.8622" lon="6.69982">
        <ele>999</ele>
        <time>2009-05-05T11:28:44Z</time>
      </trkpt>
      <trkpt lat="43.86217" lon="6.69991">
        <ele>999</ele>
        <time>2009-05-05T11:28:47Z</time>
      </trkpt>
      <trkpt lat="43.86212" lon="6.7">
        <ele>999</ele>
        <time>2009-05-05T11:28:50Z</time>
      </trkpt>
      <trkpt lat="43.86199" lon="6.70005">
        <ele>999</ele>
        <time>2009-05-05T11:28:53Z</time>
      </trkpt>
      <trkpt lat="43.86191" lon="6.70007">
        <ele>999</ele>
        <time>2009-05-05T11:28:56Z</time>
      </trkpt>
      <trkpt lat="43.86179" lon="6.7001">
        <ele>999</ele>
        <time>2009-05-05T11:29:02Z</time>
      </trkpt>
      <trkpt lat="43.86171" lon="6.70011">
        <ele>999</ele>
        <time>2009-05-05T11:29:05Z</time>
      </trkpt>
      <trkpt lat="43.86162" lon="6.70014">
        <ele>999</ele>
        <time>2009-05-05T11:29:08Z</time>
      </trkpt>
      <trkpt lat="43.86154" lon="6.70017">
        <ele>999</ele>
        <time>2009-05-05T11:29:11Z</time>
      </trkpt>
      <trkpt lat="43.86141" lon="6.70019">
        <ele>1005</ele>
        <time>2009-05-05T11:29:14Z</time>
      </trkpt>
      <trkpt lat="43.86126" lon="6.70023">
        <ele>1008</ele>
        <time>2009-05-05T11:29:17Z</time>
      </trkpt>
      <trkpt lat="43.86119" lon="6.70029">
        <ele>1009</ele>
        <time>2009-05-05T11:29:20Z</time>
      </trkpt>
      <trkpt lat="43.86113" lon="6.70036">
        <ele>1009</ele>
        <time>2009-05-05T11:29:23Z</time>
      </trkpt>
      <trkpt lat="43.86109" lon="6.70046">
        <ele>1008</ele>
        <time>2009-05-05T11:29:26Z</time>
      </trkpt>
      <trkpt lat="43.86106" lon="6.70054">
        <ele>1008</ele>
        <time>2009-05-05T11:29:29Z</time>
      </trkpt>
      <trkpt lat="43.86103" lon="6.70062">
        <ele>1009</ele>
        <time>2009-05-05T11:29:32Z</time>
      </trkpt>
      <trkpt lat="43.861" lon="6.70072">
        <ele>1012</ele>
        <time>2009-05-05T11:29:35Z</time>
      </trkpt>
      <trkpt lat="43.86096" lon="6.70083">
        <ele>1012</ele>
        <time>2009-05-05T11:29:38Z</time>
      </trkpt>
      <trkpt lat="43.86091" lon="6.70094">
        <ele>1013</ele>
        <time>2009-05-05T11:29:41Z</time>
      </trkpt>
      <trkpt lat="43.86088" lon="6.70106">
        <ele>1014</ele>
        <time>2009-05-05T11:29:44Z</time>
      </trkpt>
      <trkpt lat="43.86087" lon="6.70118">
        <ele>1014</ele>
        <time>2009-05-05T11:29:47Z</time>
      </trkpt>
      <trkpt lat="43.86085" lon="6.70128">
        <ele>1015</ele>
        <time>2009-05-05T11:29:50Z</time>
      </trkpt>
      <trkpt lat="43.8608" lon="6.70137">
        <ele>1015</ele>
        <time>2009-05-05T11:29:53Z</time>
      </trkpt>
      <trkpt lat="43.86075" lon="6.70144">
        <ele>1015</ele>
        <time>2009-05-05T11:29:56Z</time>
      </trkpt>
      <trkpt lat="43.86072" lon="6.70157">
        <ele>1017</ele>
        <time>2009-05-05T11:29:59Z</time>
      </trkpt>
      <trkpt lat="43.86071" lon="6.70169">
        <ele>1019</ele>
        <time>2009-05-05T11:30:02Z</time>
      </trkpt>
      <trkpt lat="43.86072" lon="6.70178">
        <ele>1019</ele>
        <time>2009-05-05T11:30:05Z</time>
      </trkpt>
      <trkpt lat="43.86073" lon="6.70188">
        <ele>1020</ele>
        <time>2009-05-05T11:30:08Z</time>
      </trkpt>
      <trkpt lat="43.86073" lon="6.70197">
        <ele>1022</ele>
        <time>2009-05-05T11:30:11Z</time>
      </trkpt>
      <trkpt lat="43.86074" lon="6.70206">
        <ele>1018</ele>
        <time>2009-05-05T11:30:17Z</time>
      </trkpt>
      <trkpt lat="43.86066" lon="6.70188">
        <ele>1023</ele>
        <time>2009-05-05T11:33:47Z</time>
      </trkpt>
      <trkpt lat="43.86062" lon="6.7017">
        <ele>1020</ele>
        <time>2009-05-05T11:33:50Z</time>
      </trkpt>
      <trkpt lat="43.86061" lon="6.70152">
        <ele>1018</ele>
        <time>2009-05-05T11:33:53Z</time>
      </trkpt>
      <trkpt lat="43.86059" lon="6.7014">
        <ele>1015</ele>
        <time>2009-05-05T11:33:56Z</time>
      </trkpt>
      <trkpt lat="43.86057" lon="6.70124">
        <ele>1013</ele>
        <time>2009-05-05T11:33:59Z</time>
      </trkpt>
      <trkpt lat="43.86054" lon="6.7011">
        <ele>1012</ele>
        <time>2009-05-05T11:34:02Z</time>
      </trkpt>
      <trkpt lat="43.86052" lon="6.70099">
        <ele>1011</ele>
        <time>2009-05-05T11:34:05Z</time>
      </trkpt>
      <trkpt lat="43.8605" lon="6.7008">
        <ele>1010</ele>
        <time>2009-05-05T11:34:08Z</time>
      </trkpt>
      <trkpt lat="43.86048" lon="6.70052">
        <ele>1011</ele>
        <time>2009-05-05T11:34:11Z</time>
      </trkpt>
      <trkpt lat="43.86045" lon="6.70022">
        <ele>1010</ele>
        <time>2009-05-05T11:34:14Z</time>
      </trkpt>
      <trkpt lat="43.86048" lon="6.70005">
        <ele>1004</ele>
        <time>2009-05-05T11:34:17Z</time>
      </trkpt>
      <trkpt lat="43.86047" lon="6.69992">
        <ele>997</ele>
        <time>2009-05-05T11:34:20Z</time>
      </trkpt>
      <trkpt lat="43.86047" lon="6.69973">
        <ele>993</ele>
        <time>2009-05-05T11:34:23Z</time>
      </trkpt>
      <trkpt lat="43.86044" lon="6.69957">
        <ele>991</ele>
        <time>2009-05-05T11:34:26Z</time>
      </trkpt>
      <trkpt lat="43.86039" lon="6.6994">
        <ele>988</ele>
        <time>2009-05-05T11:34:29Z</time>
      </trkpt>
      <trkpt lat="43.86028" lon="6.69925">
        <ele>985</ele>
        <time>2009-05-05T11:34:32Z</time>
      </trkpt>
      <trkpt lat="43.86017" lon="6.69912">
        <ele>982</ele>
        <time>2009-05-05T11:34:35Z</time>
      </trkpt>
      <trkpt lat="43.86007" lon="6.69905">
        <ele>980</ele>
        <time>2009-05-05T11:34:38Z</time>
      </trkpt>
      <trkpt lat="43.85996" lon="6.69891">
        <ele>980</ele>
        <time>2009-05-05T11:34:41Z</time>
      </trkpt>
      <trkpt lat="43.85985" lon="6.69877">
        <ele>979</ele>
        <time>2009-05-05T11:34:44Z</time>
      </trkpt>
      <trkpt lat="43.85972" lon="6.69868">
        <ele>977</ele>
        <time>2009-05-05T11:34:47Z</time>
      </trkpt>
      <trkpt lat="43.85959" lon="6.69851">
        <ele>973</ele>
        <time>2009-05-05T11:34:50Z</time>
      </trkpt>
      <trkpt lat="43.85951" lon="6.69837">
        <ele>970</ele>
        <time>2009-05-05T11:34:53Z</time>
      </trkpt>
      <trkpt lat="43.85937" lon="6.69826">
        <ele>968</ele>
        <time>2009-05-05T11:34:56Z</time>
      </trkpt>
      <trkpt lat="43.85922" lon="6.69821">
        <ele>964</ele>
        <time>2009-05-05T11:34:59Z</time>
      </trkpt>
      <trkpt lat="43.85908" lon="6.69813">
        <ele>961</ele>
        <time>2009-05-05T11:35:02Z</time>
      </trkpt>
      <trkpt lat="43.85898" lon="6.69809">
        <ele>958</ele>
        <time>2009-05-05T11:35:05Z</time>
      </trkpt>
      <trkpt lat="43.8589" lon="6.69814">
        <ele>956</ele>
        <time>2009-05-05T11:35:08Z</time>
      </trkpt>
      <trkpt lat="43.85882" lon="6.69814">
        <ele>954</ele>
        <time>2009-05-05T11:35:35Z</time>
      </trkpt>
      <trkpt lat="43.85872" lon="6.69822">
        <ele>955</ele>
        <time>2009-05-05T11:35:41Z</time>
      </trkpt>
      <trkpt lat="43.85865" lon="6.69819">
        <ele>955</ele>
        <time>2009-05-05T11:35:47Z</time>
      </trkpt>
      <trkpt lat="43.8586" lon="6.69812">
        <ele>956</ele>
        <time>2009-05-05T11:37:03Z</time>
      </trkpt>
      <trkpt lat="43.85856" lon="6.69806">
        <ele>955</ele>
        <time>2009-05-05T11:37:06Z</time>
      </trkpt>
      <trkpt lat="43.85845" lon="6.69802">
        <ele>954</ele>
        <time>2009-05-05T11:37:15Z</time>
      </trkpt>
      <trkpt lat="43.85834" lon="6.69799">
        <ele>952</ele>
        <time>2009-05-05T11:37:22Z</time>
      </trkpt>
      <trkpt lat="43.85828" lon="6.69797">
        <ele>952</ele>
        <time>2009-05-05T11:37:24Z</time>
      </trkpt>
      <trkpt lat="43.85818" lon="6.69801">
        <ele>951</ele>
        <time>2009-05-05T11:37:27Z</time>
      </trkpt>
      <trkpt lat="43.8581" lon="6.69819">
        <ele>950</ele>
        <time>2009-05-05T11:37:30Z</time>
      </trkpt>
      <trkpt lat="43.85802" lon="6.69848">
        <ele>952</ele>
        <time>2009-05-05T11:37:33Z</time>
      </trkpt>
      <trkpt lat="43.85794" lon="6.69875">
        <ele>952</ele>
        <time>2009-05-05T11:37:36Z</time>
      </trkpt>
      <trkpt lat="43.85783" lon="6.69897">
        <ele>953</ele>
        <time>2009-05-05T11:37:39Z</time>
      </trkpt>
      <trkpt lat="43.85769" lon="6.69913">
        <ele>954</ele>
        <time>2009-05-05T11:37:42Z</time>
      </trkpt>
      <trkpt lat="43.85759" lon="6.69939">
        <ele>956</ele>
        <time>2009-05-05T11:37:45Z</time>
      </trkpt>
      <trkpt lat="43.85761" lon="6.69969">
        <ele>954</ele>
        <time>2009-05-05T11:37:48Z</time>
      </trkpt>
      <trkpt lat="43.85761" lon="6.69986">
        <ele>954</ele>
        <time>2009-05-05T11:37:51Z</time>
      </trkpt>
      <trkpt lat="43.8576" lon="6.69994">
        <ele>952</ele>
        <time>2009-05-05T11:38:01Z</time>
      </trkpt>
      <trkpt lat="43.85759" lon="6.70002">
        <ele>950</ele>
        <time>2009-05-05T11:38:12Z</time>
      </trkpt>
      <trkpt lat="43.85757" lon="6.70012">
        <ele>950</ele>
        <time>2009-05-05T11:38:15Z</time>
      </trkpt>
      <trkpt lat="43.85757" lon="6.70023">
        <ele>949</ele>
        <time>2009-05-05T11:38:18Z</time>
      </trkpt>
      <trkpt lat="43.85755" lon="6.7003">
        <ele>949</ele>
        <time>2009-05-05T11:38:22Z</time>
      </trkpt>
      <trkpt lat="43.85749" lon="6.7004">
        <ele>949</ele>
        <time>2009-05-05T11:38:24Z</time>
      </trkpt>
      <trkpt lat="43.85743" lon="6.70055">
        <ele>949</ele>
        <time>2009-05-05T11:38:27Z</time>
      </trkpt>
      <trkpt lat="43.85737" lon="6.70066">
        <ele>949</ele>
        <time>2009-05-05T11:38:30Z</time>
      </trkpt>
      <trkpt lat="43.85728" lon="6.70078">
        <ele>950</ele>
        <time>2009-05-05T11:38:34Z</time>
      </trkpt>
      <trkpt lat="43.85716" lon="6.70087">
        <ele>951</ele>
        <time>2009-05-05T11:38:37Z</time>
      </trkpt>
      <trkpt lat="43.85702" lon="6.70101">
        <ele>951</ele>
        <time>2009-05-05T11:38:40Z</time>
      </trkpt>
      <trkpt lat="43.85691" lon="6.70125">
        <ele>949</ele>
        <time>2009-05-05T11:38:43Z</time>
      </trkpt>
      <trkpt lat="43.85686" lon="6.70154">
        <ele>947</ele>
        <time>2009-05-05T11:38:46Z</time>
      </trkpt>
      <trkpt lat="43.85686" lon="6.70178">
        <ele>946</ele>
        <time>2009-05-05T11:38:49Z</time>
      </trkpt>
      <trkpt lat="43.85683" lon="6.70203">
        <ele>945</ele>
        <time>2009-05-05T11:38:52Z</time>
      </trkpt>
      <trkpt lat="43.85678" lon="6.70225">
        <ele>945</ele>
        <time>2009-05-05T11:38:55Z</time>
      </trkpt>
      <trkpt lat="43.85672" lon="6.7024">
        <ele>945</ele>
        <time>2009-05-05T11:38:58Z</time>
      </trkpt>
      <trkpt lat="43.85665" lon="6.70253">
        <ele>945</ele>
        <time>2009-05-05T11:39:01Z</time>
      </trkpt>
      <trkpt lat="43.85657" lon="6.70265">
        <ele>946</ele>
        <time>2009-05-05T11:39:04Z</time>
      </trkpt>
      <trkpt lat="43.8565" lon="6.70277">
        <ele>947</ele>
        <time>2009-05-05T11:39:07Z</time>
      </trkpt>
      <trkpt lat="43.85645" lon="6.7027">
        <ele>946</ele>
        <time>2009-05-05T11:39:25Z</time>
      </trkpt>
      <trkpt lat="43.85647" lon="6.70276">
        <ele>946</ele>
        <time>2009-05-05T11:42:07Z</time>
      </trkpt>
      <trkpt lat="43.85647" lon="6.70287">
        <ele>940</ele>
        <time>2009-05-05T11:42:19Z</time>
      </trkpt>
      <trkpt lat="43.85645" lon="6.70303">
        <ele>937</ele>
        <time>2009-05-05T11:42:22Z</time>
      </trkpt>
      <trkpt lat="43.85647" lon="6.70318">
        <ele>935</ele>
        <time>2009-05-05T11:42:25Z</time>
      </trkpt>
      <trkpt lat="43.85649" lon="6.70335">
        <ele>933</ele>
        <time>2009-05-05T11:42:28Z</time>
      </trkpt>
      <trkpt lat="43.85651" lon="6.70352">
        <ele>931</ele>
        <time>2009-05-05T11:42:31Z</time>
      </trkpt>
      <trkpt lat="43.85655" lon="6.70366">
        <ele>930</ele>
        <time>2009-05-05T11:42:34Z</time>
      </trkpt>
      <trkpt lat="43.8566" lon="6.70381">
        <ele>929</ele>
        <time>2009-05-05T11:42:37Z</time>
      </trkpt>
      <trkpt lat="43.85667" lon="6.70398">
        <ele>930</ele>
        <time>2009-05-05T11:42:40Z</time>
      </trkpt>
      <trkpt lat="43.85678" lon="6.7042">
        <ele>931</ele>
        <time>2009-05-05T11:42:43Z</time>
      </trkpt>
      <trkpt lat="43.85693" lon="6.70442">
        <ele>933</ele>
        <time>2009-05-05T11:42:46Z</time>
      </trkpt>
      <trkpt lat="43.8571" lon="6.70464">
        <ele>934</ele>
        <time>2009-05-05T11:42:49Z</time>
      </trkpt>
      <trkpt lat="43.85718" lon="6.7048">
        <ele>932</ele>
        <time>2009-05-05T11:42:52Z</time>
      </trkpt>
      <trkpt lat="43.85718" lon="6.70497">
        <ele>931</ele>
        <time>2009-05-05T11:42:55Z</time>
      </trkpt>
      <trkpt lat="43.85716" lon="6.70513">
        <ele>931</ele>
        <time>2009-05-05T11:42:58Z</time>
      </trkpt>
      <trkpt lat="43.85709" lon="6.70524">
        <ele>931</ele>
        <time>2009-05-05T11:43:01Z</time>
      </trkpt>
      <trkpt lat="43.857" lon="6.70529">
        <ele>931</ele>
        <time>2009-05-05T11:43:07Z</time>
      </trkpt>
      <trkpt lat="43.85697" lon="6.70537">
        <ele>931</ele>
        <time>2009-05-05T11:43:13Z</time>
      </trkpt>
      <trkpt lat="43.85692" lon="6.70546">
        <ele>931</ele>
        <time>2009-05-05T11:43:19Z</time>
      </trkpt>
      <trkpt lat="43.85688" lon="6.70555">
        <ele>931</ele>
        <time>2009-05-05T11:43:22Z</time>
      </trkpt>
      <trkpt lat="43.85685" lon="6.70569">
        <ele>931</ele>
        <time>2009-05-05T11:43:25Z</time>
      </trkpt>
      <trkpt lat="43.85682" lon="6.70581">
        <ele>931</ele>
        <time>2009-05-05T11:43:28Z</time>
      </trkpt>
      <trkpt lat="43.85683" lon="6.70594">
        <ele>931</ele>
        <time>2009-05-05T11:43:31Z</time>
      </trkpt>
      <trkpt lat="43.85685" lon="6.70607">
        <ele>931</ele>
        <time>2009-05-05T11:43:34Z</time>
      </trkpt>
      <trkpt lat="43.85686" lon="6.70623">
        <ele>931</ele>
        <time>2009-05-05T11:43:37Z</time>
      </trkpt>
      <trkpt lat="43.85689" lon="6.70638">
        <ele>931</ele>
        <time>2009-05-05T11:43:40Z</time>
      </trkpt>
      <trkpt lat="43.85693" lon="6.70657">
        <ele>934</ele>
        <time>2009-05-05T11:43:43Z</time>
      </trkpt>
      <trkpt lat="43.85695" lon="6.70676">
        <ele>933</ele>
        <time>2009-05-05T11:43:46Z</time>
      </trkpt>
      <trkpt lat="43.85695" lon="6.70706">
        <ele>934</ele>
        <time>2009-05-05T11:43:49Z</time>
      </trkpt>
      <trkpt lat="43.85696" lon="6.70731">
        <ele>936</ele>
        <time>2009-05-05T11:43:52Z</time>
      </trkpt>
      <trkpt lat="43.857" lon="6.70758">
        <ele>936</ele>
        <time>2009-05-05T11:43:55Z</time>
      </trkpt>
      <trkpt lat="43.85705" lon="6.70787">
        <ele>935</ele>
        <time>2009-05-05T11:43:58Z</time>
      </trkpt>
      <trkpt lat="43.8571" lon="6.70818">
        <ele>936</ele>
        <time>2009-05-05T11:44:01Z</time>
      </trkpt>
      <trkpt lat="43.85713" lon="6.70845">
        <ele>934</ele>
        <time>2009-05-05T11:44:04Z</time>
      </trkpt>
      <trkpt lat="43.85714" lon="6.70877">
        <ele>933</ele>
        <time>2009-05-05T11:44:07Z</time>
      </trkpt>
      <trkpt lat="43.85715" lon="6.70907">
        <ele>928</ele>
        <time>2009-05-05T11:44:10Z</time>
      </trkpt>
      <trkpt lat="43.85719" lon="6.70937">
        <ele>929</ele>
        <time>2009-05-05T11:44:13Z</time>
      </trkpt>
      <trkpt lat="43.85719" lon="6.70963">
        <ele>929</ele>
        <time>2009-05-05T11:44:16Z</time>
      </trkpt>
      <trkpt lat="43.85719" lon="6.70987">
        <ele>926</ele>
        <time>2009-05-05T11:44:19Z</time>
      </trkpt>
      <trkpt lat="43.85725" lon="6.70995">
        <ele>928</ele>
        <time>2009-05-05T11:44:22Z</time>
      </trkpt>
      <trkpt lat="43.85735" lon="6.71009">
        <ele>925</ele>
        <time>2009-05-05T11:44:28Z</time>
      </trkpt>
      <trkpt lat="43.85736" lon="6.71023">
        <ele>926</ele>
        <time>2009-05-05T11:44:31Z</time>
      </trkpt>
      <trkpt lat="43.85733" lon="6.71039">
        <ele>926</ele>
        <time>2009-05-05T11:44:34Z</time>
      </trkpt>
      <trkpt lat="43.8573" lon="6.71061">
        <ele>927</ele>
        <time>2009-05-05T11:44:37Z</time>
      </trkpt>
      <trkpt lat="43.85727" lon="6.71084">
        <ele>927</ele>
        <time>2009-05-05T11:44:40Z</time>
      </trkpt>
      <trkpt lat="43.85721" lon="6.71109">
        <ele>928</ele>
        <time>2009-05-05T11:44:43Z</time>
      </trkpt>
      <trkpt lat="43.85721" lon="6.71135">
        <ele>927</ele>
        <time>2009-05-05T11:44:46Z</time>
      </trkpt>
      <trkpt lat="43.85724" lon="6.71159">
        <ele>926</ele>
        <time>2009-05-05T11:44:49Z</time>
      </trkpt>
      <trkpt lat="43.85726" lon="6.71186">
        <ele>924</ele>
        <time>2009-05-05T11:44:52Z</time>
      </trkpt>
      <trkpt lat="43.85726" lon="6.71211">
        <ele>925</ele>
        <time>2009-05-05T11:44:55Z</time>
      </trkpt>
      <trkpt lat="43.85734" lon="6.71234">
        <ele>928</ele>
        <time>2009-05-05T11:44:58Z</time>
      </trkpt>
      <trkpt lat="43.8574" lon="6.71254">
        <ele>930</ele>
        <time>2009-05-05T11:45:01Z</time>
      </trkpt>
      <trkpt lat="43.85748" lon="6.71271">
        <ele>930</ele>
        <time>2009-05-05T11:45:04Z</time>
      </trkpt>
      <trkpt lat="43.85754" lon="6.7129">
        <ele>931</ele>
        <time>2009-05-05T11:45:07Z</time>
      </trkpt>
      <trkpt lat="43.85759" lon="6.71311">
        <ele>932</ele>
        <time>2009-05-05T11:45:10Z</time>
      </trkpt>
      <trkpt lat="43.85762" lon="6.71332">
        <ele>933</ele>
        <time>2009-05-05T11:45:13Z</time>
      </trkpt>
      <trkpt lat="43.85763" lon="6.71349">
        <ele>932</ele>
        <time>2009-05-05T11:45:16Z</time>
      </trkpt>
      <trkpt lat="43.8576" lon="6.71367">
        <ele>932</ele>
        <time>2009-05-05T11:45:19Z</time>
      </trkpt>
      <trkpt lat="43.85753" lon="6.7139">
        <ele>929</ele>
        <time>2009-05-05T11:45:22Z</time>
      </trkpt>
      <trkpt lat="43.85752" lon="6.71416">
        <ele>926</ele>
        <time>2009-05-05T11:45:25Z</time>
      </trkpt>
      <trkpt lat="43.8575" lon="6.71442">
        <ele>924</ele>
        <time>2009-05-05T11:45:28Z</time>
      </trkpt>
      <trkpt lat="43.85751" lon="6.71465">
        <ele>921</ele>
        <time>2009-05-05T11:45:31Z</time>
      </trkpt>
      <trkpt lat="43.85748" lon="6.71493">
        <ele>916</ele>
        <time>2009-05-05T11:45:34Z</time>
      </trkpt>
      <trkpt lat="43.8575" lon="6.71524">
        <ele>917</ele>
        <time>2009-05-05T11:45:37Z</time>
      </trkpt>
      <trkpt lat="43.85753" lon="6.71554">
        <ele>916</ele>
        <time>2009-05-05T11:45:40Z</time>
      </trkpt>
      <trkpt lat="43.85758" lon="6.71586">
        <ele>917</ele>
        <time>2009-05-05T11:45:43Z</time>
      </trkpt>
      <trkpt lat="43.85762" lon="6.71617">
        <ele>917</ele>
        <time>2009-05-05T11:45:46Z</time>
      </trkpt>
      <trkpt lat="43.85773" lon="6.71645">
        <ele>916</ele>
        <time>2009-05-05T11:45:49Z</time>
      </trkpt>
      <trkpt lat="43.85783" lon="6.71669">
        <ele>915</ele>
        <time>2009-05-05T11:45:52Z</time>
      </trkpt>
      <trkpt lat="43.85794" lon="6.71694">
        <ele>918</ele>
        <time>2009-05-05T11:45:55Z</time>
      </trkpt>
      <trkpt lat="43.85795" lon="6.71716">
        <ele>919</ele>
        <time>2009-05-05T11:45:58Z</time>
      </trkpt>
      <trkpt lat="43.8579" lon="6.71732">
        <ele>919</ele>
        <time>2009-05-05T11:46:01Z</time>
      </trkpt>
      <trkpt lat="43.85785" lon="6.71743">
        <ele>918</ele>
        <time>2009-05-05T11:46:04Z</time>
      </trkpt>
      <trkpt lat="43.8578" lon="6.7175">
        <ele>917</ele>
        <time>2009-05-05T11:46:07Z</time>
      </trkpt>
      <trkpt lat="43.85775" lon="6.71755">
        <ele>918</ele>
        <time>2009-05-05T11:46:10Z</time>
      </trkpt>
      <trkpt lat="43.85766" lon="6.71765">
        <ele>916</ele>
        <time>2009-05-05T11:46:16Z</time>
      </trkpt>
      <trkpt lat="43.85759" lon="6.7178">
        <ele>915</ele>
        <time>2009-05-05T11:46:22Z</time>
      </trkpt>
      <trkpt lat="43.85756" lon="6.71792">
        <ele>915</ele>
        <time>2009-05-05T11:46:25Z</time>
      </trkpt>
      <trkpt lat="43.85753" lon="6.71805">
        <ele>915</ele>
        <time>2009-05-05T11:46:28Z</time>
      </trkpt>
      <trkpt lat="43.8575" lon="6.71816">
        <ele>914</ele>
        <time>2009-05-05T11:46:31Z</time>
      </trkpt>
      <trkpt lat="43.85748" lon="6.71825">
        <ele>912</ele>
        <time>2009-05-05T11:46:34Z</time>
      </trkpt>
      <trkpt lat="43.85749" lon="6.71836">
        <ele>911</ele>
        <time>2009-05-05T11:46:37Z</time>
      </trkpt>
      <trkpt lat="43.8576" lon="6.71837">
        <ele>909</ele>
        <time>2009-05-05T11:46:43Z</time>
      </trkpt>
      <trkpt lat="43.85769" lon="6.71835">
        <ele>911</ele>
        <time>2009-05-05T11:46:46Z</time>
      </trkpt>
      <trkpt lat="43.85778" lon="6.71838">
        <ele>910</ele>
        <time>2009-05-05T11:46:49Z</time>
      </trkpt>
      <trkpt lat="43.85784" lon="6.71841">
        <ele>910</ele>
        <time>2009-05-05T11:46:52Z</time>
      </trkpt>
      <trkpt lat="43.85792" lon="6.71843">
        <ele>911</ele>
        <time>2009-05-05T11:47:04Z</time>
      </trkpt>
      <trkpt lat="43.85783" lon="6.71859">
        <ele>922</ele>
        <time>2009-05-05T11:49:13Z</time>
      </trkpt>
      <trkpt lat="43.85784" lon="6.7187">
        <ele>921</ele>
        <time>2009-05-05T11:49:22Z</time>
      </trkpt>
      <trkpt lat="43.8578" lon="6.71882">
        <ele>919</ele>
        <time>2009-05-05T11:49:25Z</time>
      </trkpt>
      <trkpt lat="43.85772" lon="6.71894">
        <ele>917</ele>
        <time>2009-05-05T11:49:28Z</time>
      </trkpt>
      <trkpt lat="43.8576" lon="6.71909">
        <ele>915</ele>
        <time>2009-05-05T11:49:31Z</time>
      </trkpt>
      <trkpt lat="43.85745" lon="6.71921">
        <ele>913</ele>
        <time>2009-05-05T11:49:34Z</time>
      </trkpt>
      <trkpt lat="43.8573" lon="6.71934">
        <ele>910</ele>
        <time>2009-05-05T11:49:37Z</time>
      </trkpt>
      <trkpt lat="43.85721" lon="6.71957">
        <ele>909</ele>
        <time>2009-05-05T11:49:40Z</time>
      </trkpt>
      <trkpt lat="43.85724" lon="6.71978">
        <ele>910</ele>
        <time>2009-05-05T11:49:43Z</time>
      </trkpt>
      <trkpt lat="43.85726" lon="6.72">
        <ele>909</ele>
        <time>2009-05-05T11:49:46Z</time>
      </trkpt>
      <trkpt lat="43.85727" lon="6.72019">
        <ele>910</ele>
        <time>2009-05-05T11:49:49Z</time>
      </trkpt>
      <trkpt lat="43.85728" lon="6.72036">
        <ele>911</ele>
        <time>2009-05-05T11:49:52Z</time>
      </trkpt>
      <trkpt lat="43.85729" lon="6.7205">
        <ele>912</ele>
        <time>2009-05-05T11:49:55Z</time>
      </trkpt>
      <trkpt lat="43.85731" lon="6.72062">
        <ele>913</ele>
        <time>2009-05-05T11:49:58Z</time>
      </trkpt>
      <trkpt lat="43.8573" lon="6.72071">
        <ele>914</ele>
        <time>2009-05-05T11:50:01Z</time>
      </trkpt>
      <trkpt lat="43.85723" lon="6.72058">
        <ele>926</ele>
        <time>2009-05-05T11:51:22Z</time>
      </trkpt>
      <trkpt lat="43.85721" lon="6.7205">
        <ele>921</ele>
        <time>2009-05-05T11:51:25Z</time>
      </trkpt>
      <trkpt lat="43.8572" lon="6.72028">
        <ele>921</ele>
        <time>2009-05-05T11:51:28Z</time>
      </trkpt>
      <trkpt lat="43.85719" lon="6.7201">
        <ele>919</ele>
        <time>2009-05-05T11:51:31Z</time>
      </trkpt>
      <trkpt lat="43.85716" lon="6.71993">
        <ele>918</ele>
        <time>2009-05-05T11:51:34Z</time>
      </trkpt>
      <trkpt lat="43.85708" lon="6.71979">
        <ele>913</ele>
        <time>2009-05-05T11:51:37Z</time>
      </trkpt>
      <trkpt lat="43.85708" lon="6.71994">
        <ele>912</ele>
        <time>2009-05-05T11:51:40Z</time>
      </trkpt>
      <trkpt lat="43.85711" lon="6.72014">
        <ele>913</ele>
        <time>2009-05-05T11:51:43Z</time>
      </trkpt>
      <trkpt lat="43.85712" lon="6.72036">
        <ele>915</ele>
        <time>2009-05-05T11:51:46Z</time>
      </trkpt>
      <trkpt lat="43.85713" lon="6.72057">
        <ele>917</ele>
        <time>2009-05-05T11:51:50Z</time>
      </trkpt>
      <trkpt lat="43.85714" lon="6.72077">
        <ele>919</ele>
        <time>2009-05-05T11:51:53Z</time>
      </trkpt>
      <trkpt lat="43.8571" lon="6.72097">
        <ele>920</ele>
        <time>2009-05-05T11:51:55Z</time>
      </trkpt>
      <trkpt lat="43.85707" lon="6.72116">
        <ele>921</ele>
        <time>2009-05-05T11:51:58Z</time>
      </trkpt>
      <trkpt lat="43.85704" lon="6.72135">
        <ele>923</ele>
        <time>2009-05-05T11:52:02Z</time>
      </trkpt>
      <trkpt lat="43.857" lon="6.72154">
        <ele>924</ele>
        <time>2009-05-05T11:52:04Z</time>
      </trkpt>
      <trkpt lat="43.85696" lon="6.72173">
        <ele>925</ele>
        <time>2009-05-05T11:52:07Z</time>
      </trkpt>
      <trkpt lat="43.85691" lon="6.72192">
        <ele>925</ele>
        <time>2009-05-05T11:52:10Z</time>
      </trkpt>
      <trkpt lat="43.85687" lon="6.72212">
        <ele>926</ele>
        <time>2009-05-05T11:52:14Z</time>
      </trkpt>
      <trkpt lat="43.85684" lon="6.72229">
        <ele>927</ele>
        <time>2009-05-05T11:52:16Z</time>
      </trkpt>
      <trkpt lat="43.85676" lon="6.72232">
        <ele>928</ele>
        <time>2009-05-05T11:52:20Z</time>
      </trkpt>
      <trkpt lat="43.85678" lon="6.72216">
        <ele>926</ele>
        <time>2009-05-05T11:52:23Z</time>
      </trkpt>
      <trkpt lat="43.85682" lon="6.72201">
        <ele>924</ele>
        <time>2009-05-05T11:52:26Z</time>
      </trkpt>
      <trkpt lat="43.85684" lon="6.72187">
        <ele>924</ele>
        <time>2009-05-05T11:52:29Z</time>
      </trkpt>
      <trkpt lat="43.85685" lon="6.72172">
        <ele>924</ele>
        <time>2009-05-05T11:52:32Z</time>
      </trkpt>
      <trkpt lat="43.85684" lon="6.72156">
        <ele>924</ele>
        <time>2009-05-05T11:52:35Z</time>
      </trkpt>
      <trkpt lat="43.85683" lon="6.72141">
        <ele>926</ele>
        <time>2009-05-05T11:52:38Z</time>
      </trkpt>
      <trkpt lat="43.85685" lon="6.72125">
        <ele>928</ele>
        <time>2009-05-05T11:52:41Z</time>
      </trkpt>
      <trkpt lat="43.85686" lon="6.72109">
        <ele>932</ele>
        <time>2009-05-05T11:52:44Z</time>
      </trkpt>
      <trkpt lat="43.85688" lon="6.72093">
        <ele>934</ele>
        <time>2009-05-05T11:52:47Z</time>
      </trkpt>
      <trkpt lat="43.85688" lon="6.72076">
        <ele>936</ele>
        <time>2009-05-05T11:52:50Z</time>
      </trkpt>
      <trkpt lat="43.85688" lon="6.72059">
        <ele>935</ele>
        <time>2009-05-05T11:52:53Z</time>
      </trkpt>
      <trkpt lat="43.85688" lon="6.72041">
        <ele>936</ele>
        <time>2009-05-05T11:52:56Z</time>
      </trkpt>
      <trkpt lat="43.85685" lon="6.72033">
        <ele>937</ele>
        <time>2009-05-05T11:52:59Z</time>
      </trkpt>
      <trkpt lat="43.85679" lon="6.72039">
        <ele>937</ele>
        <time>2009-05-05T11:53:02Z</time>
      </trkpt>
      <trkpt lat="43.85679" lon="6.72052">
        <ele>938</ele>
        <time>2009-05-05T11:53:05Z</time>
      </trkpt>
      <trkpt lat="43.85677" lon="6.72069">
        <ele>938</ele>
        <time>2009-05-05T11:53:08Z</time>
      </trkpt>
      <trkpt lat="43.85674" lon="6.72085">
        <ele>939</ele>
        <time>2009-05-05T11:53:11Z</time>
      </trkpt>
      <trkpt lat="43.85672" lon="6.72101">
        <ele>939</ele>
        <time>2009-05-05T11:53:14Z</time>
      </trkpt>
      <trkpt lat="43.85668" lon="6.72116">
        <ele>939</ele>
        <time>2009-05-05T11:53:17Z</time>
      </trkpt>
      <trkpt lat="43.85665" lon="6.72132">
        <ele>940</ele>
        <time>2009-05-05T11:53:20Z</time>
      </trkpt>
      <trkpt lat="43.85662" lon="6.72147">
        <ele>940</ele>
        <time>2009-05-05T11:53:23Z</time>
      </trkpt>
      <trkpt lat="43.8566" lon="6.72162">
        <ele>942</ele>
        <time>2009-05-05T11:53:26Z</time>
      </trkpt>
      <trkpt lat="43.85657" lon="6.72178">
        <ele>942</ele>
        <time>2009-05-05T11:53:29Z</time>
      </trkpt>
      <trkpt lat="43.85653" lon="6.72194">
        <ele>943</ele>
        <time>2009-05-05T11:53:32Z</time>
      </trkpt>
      <trkpt lat="43.85652" lon="6.72208">
        <ele>945</ele>
        <time>2009-05-05T11:53:35Z</time>
      </trkpt>
      <trkpt lat="43.85649" lon="6.72222">
        <ele>945</ele>
        <time>2009-05-05T11:53:38Z</time>
      </trkpt>
      <trkpt lat="43.85645" lon="6.72236">
        <ele>945</ele>
        <time>2009-05-05T11:53:41Z</time>
      </trkpt>
      <trkpt lat="43.85642" lon="6.7225">
        <ele>945</ele>
        <time>2009-05-05T11:53:44Z</time>
      </trkpt>
      <trkpt lat="43.85633" lon="6.72252">
        <ele>945</ele>
        <time>2009-05-05T11:53:47Z</time>
      </trkpt>
      <trkpt lat="43.85634" lon="6.72238">
        <ele>947</ele>
        <time>2009-05-05T11:53:50Z</time>
      </trkpt>
      <trkpt lat="43.85638" lon="6.72225">
        <ele>948</ele>
        <time>2009-05-05T11:53:53Z</time>
      </trkpt>
      <trkpt lat="43.8564" lon="6.72211">
        <ele>946</ele>
        <time>2009-05-05T11:53:56Z</time>
      </trkpt>
      <trkpt lat="43.85642" lon="6.72196">
        <ele>945</ele>
        <time>2009-05-05T11:53:59Z</time>
      </trkpt>
      <trkpt lat="43.85645" lon="6.72182">
        <ele>947</ele>
        <time>2009-05-05T11:54:02Z</time>
      </trkpt>
      <trkpt lat="43.85649" lon="6.72167">
        <ele>949</ele>
        <time>2009-05-05T11:54:05Z</time>
      </trkpt>
      <trkpt lat="43.8565" lon="6.72151">
        <ele>953</ele>
        <time>2009-05-05T11:54:08Z</time>
      </trkpt>
      <trkpt lat="43.8565" lon="6.72136">
        <ele>953</ele>
        <time>2009-05-05T11:54:11Z</time>
      </trkpt>
      <trkpt lat="43.85652" lon="6.72123">
        <ele>954</ele>
        <time>2009-05-05T11:54:14Z</time>
      </trkpt>
      <trkpt lat="43.85653" lon="6.72108">
        <ele>956</ele>
        <time>2009-05-05T11:54:17Z</time>
      </trkpt>
      <trkpt lat="43.85654" lon="6.72095">
        <ele>958</ele>
        <time>2009-05-05T11:54:20Z</time>
      </trkpt>
      <trkpt lat="43.85653" lon="6.72081">
        <ele>958</ele>
        <time>2009-05-05T11:54:23Z</time>
      </trkpt>
      <trkpt lat="43.85653" lon="6.72067">
        <ele>960</ele>
        <time>2009-05-05T11:54:26Z</time>
      </trkpt>
      <trkpt lat="43.85654" lon="6.72054">
        <ele>962</ele>
        <time>2009-05-05T11:54:29Z</time>
      </trkpt>
      <trkpt lat="43.85656" lon="6.72042">
        <ele>963</ele>
        <time>2009-05-05T11:54:32Z</time>
      </trkpt>
      <trkpt lat="43.85656" lon="6.72028">
        <ele>963</ele>
        <time>2009-05-05T11:54:35Z</time>
      </trkpt>
      <trkpt lat="43.85656" lon="6.72015">
        <ele>964</ele>
        <time>2009-05-05T11:54:38Z</time>
      </trkpt>
      <trkpt lat="43.85654" lon="6.72002">
        <ele>963</ele>
        <time>2009-05-05T11:54:41Z</time>
      </trkpt>
      <trkpt lat="43.85653" lon="6.71989">
        <ele>963</ele>
        <time>2009-05-05T11:54:44Z</time>
      </trkpt>
      <trkpt lat="43.85653" lon="6.71975">
        <ele>963</ele>
        <time>2009-05-05T11:54:47Z</time>
      </trkpt>
      <trkpt lat="43.85651" lon="6.71963">
        <ele>960</ele>
        <time>2009-05-05T11:54:50Z</time>
      </trkpt>
      <trkpt lat="43.8565" lon="6.71953">
        <ele>958</ele>
        <time>2009-05-05T11:54:53Z</time>
      </trkpt>
      <trkpt lat="43.85645" lon="6.71963">
        <ele>957</ele>
        <time>2009-05-05T11:54:59Z</time>
      </trkpt>
      <trkpt lat="43.85644" lon="6.71977">
        <ele>957</ele>
        <time>2009-05-05T11:55:02Z</time>
      </trkpt>
      <trkpt lat="43.85643" lon="6.71991">
        <ele>957</ele>
        <time>2009-05-05T11:55:05Z</time>
      </trkpt>
      <trkpt lat="43.85643" lon="6.72005">
        <ele>958</ele>
        <time>2009-05-05T11:55:08Z</time>
      </trkpt>
      <trkpt lat="43.85643" lon="6.72019">
        <ele>960</ele>
        <time>2009-05-05T11:55:11Z</time>
      </trkpt>
      <trkpt lat="43.85642" lon="6.72031">
        <ele>960</ele>
        <time>2009-05-05T11:55:14Z</time>
      </trkpt>
      <trkpt lat="43.85639" lon="6.72044">
        <ele>961</ele>
        <time>2009-05-05T11:55:17Z</time>
      </trkpt>
      <trkpt lat="43.85637" lon="6.72057">
        <ele>962</ele>
        <time>2009-05-05T11:55:20Z</time>
      </trkpt>
      <trkpt lat="43.85636" lon="6.7207">
        <ele>963</ele>
        <time>2009-05-05T11:55:23Z</time>
      </trkpt>
      <trkpt lat="43.85634" lon="6.72083">
        <ele>964</ele>
        <time>2009-05-05T11:55:26Z</time>
      </trkpt>
      <trkpt lat="43.85632" lon="6.72095">
        <ele>965</ele>
        <time>2009-05-05T11:55:29Z</time>
      </trkpt>
      <trkpt lat="43.85629" lon="6.72106">
        <ele>965</ele>
        <time>2009-05-05T11:55:32Z</time>
      </trkpt>
      <trkpt lat="43.85628" lon="6.72119">
        <ele>965</ele>
        <time>2009-05-05T11:55:35Z</time>
      </trkpt>
      <trkpt lat="43.85626" lon="6.72131">
        <ele>966</ele>
        <time>2009-05-05T11:55:38Z</time>
      </trkpt>
      <trkpt lat="43.85623" lon="6.72146">
        <ele>968</ele>
        <time>2009-05-05T11:55:41Z</time>
      </trkpt>
      <trkpt lat="43.8562" lon="6.72159">
        <ele>968</ele>
        <time>2009-05-05T11:55:44Z</time>
      </trkpt>
      <trkpt lat="43.85616" lon="6.72173">
        <ele>969</ele>
        <time>2009-05-05T11:55:47Z</time>
      </trkpt>
      <trkpt lat="43.85612" lon="6.72187">
        <ele>969</ele>
        <time>2009-05-05T11:55:50Z</time>
      </trkpt>
      <trkpt lat="43.85607" lon="6.722">
        <ele>970</ele>
        <time>2009-05-05T11:55:53Z</time>
      </trkpt>
      <trkpt lat="43.85605" lon="6.72213">
        <ele>971</ele>
        <time>2009-05-05T11:55:56Z</time>
      </trkpt>
      <trkpt lat="43.85601" lon="6.72226">
        <ele>971</ele>
        <time>2009-05-05T11:55:59Z</time>
      </trkpt>
      <trkpt lat="43.85597" lon="6.72239">
        <ele>972</ele>
        <time>2009-05-05T11:56:02Z</time>
      </trkpt>
      <trkpt lat="43.85592" lon="6.72252">
        <ele>972</ele>
        <time>2009-05-05T11:56:05Z</time>
      </trkpt>
      <trkpt lat="43.85589" lon="6.72266">
        <ele>974</ele>
        <time>2009-05-05T11:56:08Z</time>
      </trkpt>
      <trkpt lat="43.85584" lon="6.72279">
        <ele>974</ele>
        <time>2009-05-05T11:56:11Z</time>
      </trkpt>
      <trkpt lat="43.85576" lon="6.72289">
        <ele>972</ele>
        <time>2009-05-05T11:56:14Z</time>
      </trkpt>
      <trkpt lat="43.85525" lon="6.72362">
        <ele>969</ele>
        <time>2009-05-05T11:56:32Z</time>
      </trkpt>
      <trkpt lat="43.85516" lon="6.72369">
        <ele>976</ele>
        <time>2009-05-05T11:56:35Z</time>
      </trkpt>
      <trkpt lat="43.8551" lon="6.72382">
        <ele>997</ele>
        <time>2009-05-05T11:56:41Z</time>
      </trkpt>
      <trkpt lat="43.85503" lon="6.72393">
        <ele>1002</ele>
        <time>2009-05-05T11:56:44Z</time>
      </trkpt>
      <trkpt lat="43.85494" lon="6.72411">
        <ele>994</ele>
        <time>2009-05-05T11:56:47Z</time>
      </trkpt>
      <trkpt lat="43.85482" lon="6.72425">
        <ele>991</ele>
        <time>2009-05-05T11:56:50Z</time>
      </trkpt>
      <trkpt lat="43.85473" lon="6.72434">
        <ele>988</ele>
        <time>2009-05-05T11:56:53Z</time>
      </trkpt>
      <trkpt lat="43.85466" lon="6.7244">
        <ele>989</ele>
        <time>2009-05-05T11:56:59Z</time>
      </trkpt>
      <trkpt lat="43.85468" lon="6.72435">
        <ele>985</ele>
        <time>2009-05-05T11:58:10Z</time>
      </trkpt>
      <trkpt lat="43.85461" lon="6.72445">
        <ele>986</ele>
        <time>2009-05-05T11:58:16Z</time>
      </trkpt>
      <trkpt lat="43.85452" lon="6.72453">
        <ele>986</ele>
        <time>2009-05-05T11:58:19Z</time>
      </trkpt>
      <trkpt lat="43.85443" lon="6.72465">
        <ele>989</ele>
        <time>2009-05-05T11:58:22Z</time>
      </trkpt>
      <trkpt lat="43.85434" lon="6.7248">
        <ele>990</ele>
        <time>2009-05-05T11:58:25Z</time>
      </trkpt>
      <trkpt lat="43.85423" lon="6.72492">
        <ele>991</ele>
        <time>2009-05-05T11:58:28Z</time>
      </trkpt>
      <trkpt lat="43.85417" lon="6.72501">
        <ele>989</ele>
        <time>2009-05-05T11:58:31Z</time>
      </trkpt>
      <trkpt lat="43.85414" lon="6.7251">
        <ele>987</ele>
        <time>2009-05-05T11:58:37Z</time>
      </trkpt>
      <trkpt lat="43.85409" lon="6.72524">
        <ele>987</ele>
        <time>2009-05-05T11:58:43Z</time>
      </trkpt>
      <trkpt lat="43.85406" lon="6.72532">
        <ele>987</ele>
        <time>2009-05-05T11:58:46Z</time>
      </trkpt>
      <trkpt lat="43.85404" lon="6.7254">
        <ele>987</ele>
        <time>2009-05-05T11:58:49Z</time>
      </trkpt>
      <trkpt lat="43.85402" lon="6.72547">
        <ele>987</ele>
        <time>2009-05-05T11:58:52Z</time>
      </trkpt>
      <trkpt lat="43.854" lon="6.72554">
        <ele>987</ele>
        <time>2009-05-05T11:58:55Z</time>
      </trkpt>
      <trkpt lat="43.85393" lon="6.72563">
        <ele>988</ele>
        <time>2009-05-05T11:58:58Z</time>
      </trkpt>
      <trkpt lat="43.85384" lon="6.7257">
        <ele>988</ele>
        <time>2009-05-05T11:59:01Z</time>
      </trkpt>
      <trkpt lat="43.85375" lon="6.72577">
        <ele>989</ele>
        <time>2009-05-05T11:59:04Z</time>
      </trkpt>
      <trkpt lat="43.85392" lon="6.72618">
        <ele>1003</ele>
        <time>2009-05-05T11:59:19Z</time>
      </trkpt>
      <trkpt lat="43.85376" lon="6.7264">
        <ele>1011</ele>
        <time>2009-05-05T11:59:22Z</time>
      </trkpt>
      <trkpt lat="43.85353" lon="6.72665">
        <ele>1023</ele>
        <time>2009-05-05T11:59:25Z</time>
      </trkpt>
      <trkpt lat="43.85333" lon="6.72684">
        <ele>1041</ele>
        <time>2009-05-05T11:59:28Z</time>
      </trkpt>
      <trkpt lat="43.85315" lon="6.72698">
        <ele>1065</ele>
        <time>2009-05-05T11:59:31Z</time>
      </trkpt>
      <trkpt lat="43.85305" lon="6.72704">
        <ele>1084</ele>
        <time>2009-05-05T11:59:34Z</time>
      </trkpt>
      <trkpt lat="43.85294" lon="6.72717">
        <ele>1105</ele>
        <time>2009-05-05T11:59:37Z</time>
      </trkpt>
      <trkpt lat="43.85285" lon="6.72719">
        <ele>1118</ele>
        <time>2009-05-05T11:59:40Z</time>
      </trkpt>
      <trkpt lat="43.8527" lon="6.72719">
        <ele>1129</ele>
        <time>2009-05-05T11:59:46Z</time>
      </trkpt>
      <trkpt lat="43.85262" lon="6.72725">
        <ele>1126</ele>
        <time>2009-05-05T11:59:49Z</time>
      </trkpt>
      <trkpt lat="43.85254" lon="6.72729">
        <ele>1122</ele>
        <time>2009-05-05T11:59:52Z</time>
      </trkpt>
      <trkpt lat="43.85247" lon="6.72729">
        <ele>1126</ele>
        <time>2009-05-05T11:59:55Z</time>
      </trkpt>
      <trkpt lat="43.85237" lon="6.72732">
        <ele>1128</ele>
        <time>2009-05-05T11:59:58Z</time>
      </trkpt>
      <trkpt lat="43.85227" lon="6.72743">
        <ele>1115</ele>
        <time>2009-05-05T12:00:04Z</time>
      </trkpt>
      <trkpt lat="43.85219" lon="6.72745">
        <ele>1118</ele>
        <time>2009-05-05T12:00:07Z</time>
      </trkpt>
      <trkpt lat="43.85203" lon="6.72746">
        <ele>1132</ele>
        <time>2009-05-05T12:00:13Z</time>
      </trkpt>
      <trkpt lat="43.85194" lon="6.72744">
        <ele>1142</ele>
        <time>2009-05-05T12:00:16Z</time>
      </trkpt>
      <trkpt lat="43.85185" lon="6.72742">
        <ele>1151</ele>
        <time>2009-05-05T12:00:19Z</time>
      </trkpt>
      <trkpt lat="43.85177" lon="6.72741">
        <ele>1160</ele>
        <time>2009-05-05T12:00:22Z</time>
      </trkpt>
      <trkpt lat="43.8517" lon="6.72741">
        <ele>1169</ele>
        <time>2009-05-05T12:00:25Z</time>
      </trkpt>
      <trkpt lat="43.8516" lon="6.72742">
        <ele>1189</ele>
        <time>2009-05-05T12:00:31Z</time>
      </trkpt>
      <trkpt lat="43.85153" lon="6.7274">
        <ele>1212</ele>
        <time>2009-05-05T12:00:37Z</time>
      </trkpt>
      <trkpt lat="43.85141" lon="6.72765">
        <ele>1221</ele>
        <time>2009-05-05T12:00:52Z</time>
      </trkpt>
      <trkpt lat="43.85136" lon="6.72777">
        <ele>1212</ele>
        <time>2009-05-05T12:00:58Z</time>
      </trkpt>
      <trkpt lat="43.85131" lon="6.72789">
        <ele>1201</ele>
        <time>2009-05-05T12:01:01Z</time>
      </trkpt>
      <trkpt lat="43.85128" lon="6.72803">
        <ele>1189</ele>
        <time>2009-05-05T12:01:04Z</time>
      </trkpt>
      <trkpt lat="43.85124" lon="6.72818">
        <ele>1176</ele>
        <time>2009-05-05T12:01:07Z</time>
      </trkpt>
      <trkpt lat="43.85121" lon="6.72837">
        <ele>1162</ele>
        <time>2009-05-05T12:01:10Z</time>
      </trkpt>
      <trkpt lat="43.85117" lon="6.7285">
        <ele>1158</ele>
        <time>2009-05-05T12:01:13Z</time>
      </trkpt>
      <trkpt lat="43.85115" lon="6.72861">
        <ele>1140</ele>
        <time>2009-05-05T12:01:16Z</time>
      </trkpt>
      <trkpt lat="43.85112" lon="6.72882">
        <ele>1125</ele>
        <time>2009-05-05T12:01:19Z</time>
      </trkpt>
      <trkpt lat="43.85108" lon="6.72901">
        <ele>1116</ele>
        <time>2009-05-05T12:01:22Z</time>
      </trkpt>
      <trkpt lat="43.85106" lon="6.72924">
        <ele>1088</ele>
        <time>2009-05-05T12:01:25Z</time>
      </trkpt>
      <trkpt lat="43.851" lon="6.7294">
        <ele>1082</ele>
        <time>2009-05-05T12:01:28Z</time>
      </trkpt>
      <trkpt lat="43.85101" lon="6.72956">
        <ele>1085</ele>
        <time>2009-05-05T12:01:34Z</time>
      </trkpt>
      <trkpt lat="43.85092" lon="6.72969">
        <ele>1132</ele>
        <time>2009-05-05T12:01:43Z</time>
      </trkpt>
      <trkpt lat="43.85085" lon="6.72988">
        <ele>1139</ele>
        <time>2009-05-05T12:01:46Z</time>
      </trkpt>
      <trkpt lat="43.85078" lon="6.72998">
        <ele>1152</ele>
        <time>2009-05-05T12:01:51Z</time>
      </trkpt>
      <trkpt lat="43.85064" lon="6.73008">
        <ele>1152</ele>
        <time>2009-05-05T12:01:53Z</time>
      </trkpt>
      <trkpt lat="43.8505" lon="6.73022">
        <ele>1146</ele>
        <time>2009-05-05T12:01:56Z</time>
      </trkpt>
      <trkpt lat="43.8504" lon="6.73027">
        <ele>1149</ele>
        <time>2009-05-05T12:01:59Z</time>
      </trkpt>
      <trkpt lat="43.85029" lon="6.73036">
        <ele>1148</ele>
        <time>2009-05-05T12:02:02Z</time>
      </trkpt>
      <trkpt lat="43.85016" lon="6.73045">
        <ele>1145</ele>
        <time>2009-05-05T12:02:05Z</time>
      </trkpt>
      <trkpt lat="43.85004" lon="6.73049">
        <ele>1141</ele>
        <time>2009-05-05T12:02:08Z</time>
      </trkpt>
      <trkpt lat="43.84995" lon="6.73054">
        <ele>1131</ele>
        <time>2009-05-05T12:02:11Z</time>
      </trkpt>
      <trkpt lat="43.84969" lon="6.73089">
        <ele>1131</ele>
        <time>2009-05-05T12:02:14Z</time>
      </trkpt>
      <trkpt lat="43.84952" lon="6.73095">
        <ele>1131</ele>
        <time>2009-05-05T12:02:17Z</time>
      </trkpt>
      <trkpt lat="43.8494" lon="6.73097">
        <ele>1131</ele>
        <time>2009-05-05T12:02:20Z</time>
      </trkpt>
      <trkpt lat="43.84925" lon="6.73107">
        <ele>1029</ele>
        <time>2009-05-05T12:02:23Z</time>
      </trkpt>
      <trkpt lat="43.84918" lon="6.73106">
        <ele>1023</ele>
        <time>2009-05-05T12:02:26Z</time>
      </trkpt>
      <trkpt lat="43.84912" lon="6.73112">
        <ele>1019</ele>
        <time>2009-05-05T12:02:29Z</time>
      </trkpt>
    </trkseg>
  </trk>
</gpx>